<?xml version='1.0' encoding='UTF-8'?><gpx version="1.1" creator="JPX - https://github.com/jenetics/jpx" xmlns="http://www.topografix.com/GPX/1/1"><trk><trkseg><trkpt lat="41.6805198377756" lon="13.373546044399259"><ele>246.0</ele><time>2026-03-29T09:01:25.003Z</time></trkpt><trkpt lat="41.680625294177965" lon="13.373582898843898"><ele>246.0</ele><time>2026-03-29T09:01:46.98Z</time></trkpt><trkpt lat="41.68056750818291" lon="13.373623111478818"><ele>246.0</ele><time>2026-03-29T09:02:04.98Z</time></trkpt><trkpt lat="41.680512930510915" lon="13.373674400710815"><ele>246.0</ele><time>2026-03-29T09:02:16.98Z</time></trkpt><trkpt lat="41.68044213008454" lon="13.373676736883088"><ele>246.0</ele><time>2026-03-29T09:02:22.98Z</time></trkpt><trkpt lat="41.68042244374457" lon="13.373590959279314"><ele>246.0</ele><time>2026-03-29T09:02:26.98Z</time></trkpt><trkpt lat="41.68041509783381" lon="13.373488938919296"><ele>246.00000000000003</ele><time>2026-03-29T09:02:32.98Z</time></trkpt><trkpt lat="41.68038718964227" lon="13.37340178855019"><ele>246.0</ele><time>2026-03-29T09:02:38.98Z</time></trkpt><trkpt lat="41.680372386934025" lon="13.373313664583094"><ele>246.00000000000003</ele><time>2026-03-29T09:02:43.98Z</time></trkpt><trkpt lat="41.68036036013972" lon="13.373220233211464"><ele>246.00000000000003</ele><time>2026-03-29T09:03:40.989Z</time></trkpt><trkpt lat="41.680295382282985" lon="13.37316797692704"><ele>246.0</ele><time>2026-03-29T09:03:45.992Z</time></trkpt><trkpt lat="41.680221081395935" lon="13.373174555707225"><ele>246.00000000000003</ele><time>2026-03-29T09:03:48.994Z</time></trkpt><trkpt lat="41.68014961556253" lon="13.373193044939093"><ele>246.00000000000003</ele><time>2026-03-29T09:03:51.995Z</time></trkpt><trkpt lat="41.680074471229354" lon="13.373198265021655"><ele>245.71428571428575</ele><time>2026-03-29T09:03:54.996Z</time></trkpt><trkpt lat="41.67999624161199" lon="13.37321083718884"><ele>245.42857142857144</ele><time>2026-03-29T09:03:58.997Z</time></trkpt><trkpt lat="41.67993176279632" lon="13.37320629302452"><ele>245.14285714285714</ele><time>2026-03-29T09:04:01.998Z</time></trkpt><trkpt lat="41.679866355750576" lon="13.373231839904706"><ele>244.85714285714286</ele><time>2026-03-29T09:04:04.998Z</time></trkpt><trkpt lat="41.67979549799648" lon="13.373240227730278"><ele>244.57142857142856</ele><time>2026-03-29T09:04:07.998Z</time></trkpt><trkpt lat="41.67972998694781" lon="13.373256494505597"><ele>244.28571428571425</ele><time>2026-03-29T09:04:10.999Z</time></trkpt><trkpt lat="41.67966113858461" lon="13.373263315176791"><ele>243.99999999999997</ele><time>2026-03-29T09:04:13.999Z</time></trkpt><trkpt lat="41.67960006347208" lon="13.373283758740467"><ele>243.99999999999997</ele><time>2026-03-29T09:04:16.999Z</time></trkpt><trkpt lat="41.67952479479023" lon="13.373297301082317"><ele>244.0</ele><time>2026-03-29T09:04:20.999Z</time></trkpt><trkpt lat="41.6794499765104" lon="13.373309606691688"><ele>244.0</ele><time>2026-03-29T09:04:26Z</time></trkpt><trkpt lat="41.67938386759152" lon="13.373329520329461"><ele>244.0</ele><time>2026-03-29T09:04:31Z</time></trkpt><trkpt lat="41.679316755684646" lon="13.373343561799567"><ele>243.99999999999997</ele><time>2026-03-29T09:04:34Z</time></trkpt><trkpt lat="41.679249962271975" lon="13.373359409430753"><ele>244.0</ele><time>2026-03-29T09:04:38Z</time></trkpt><trkpt lat="41.67918601646824" lon="13.373236550189976"><ele>243.39999999999998</ele><time>2026-03-29T09:04:48Z</time></trkpt><trkpt lat="41.67916331573015" lon="13.3731559901596"><ele>242.79999999999998</ele><time>2026-03-29T09:04:49Z</time></trkpt><trkpt lat="41.67909713881341" lon="13.373012340815352"><ele>242.20000000000002</ele><time>2026-03-29T09:04:51Z</time></trkpt><trkpt lat="41.679036512117825" lon="13.372954979767814"><ele>241.60000000000002</ele><time>2026-03-29T09:04:52Z</time></trkpt><trkpt lat="41.6789583177298" lon="13.372914819842281"><ele>241.0</ele><time>2026-03-29T09:04:53Z</time></trkpt><trkpt lat="41.67885693083557" lon="13.372896291494408"><ele>240.4</ele><time>2026-03-29T09:04:54Z</time></trkpt><trkpt lat="41.678754435117725" lon="13.372886321189684"><ele>239.8</ele><time>2026-03-29T09:04:55Z</time></trkpt><trkpt lat="41.678652925095626" lon="13.372874349001869"><ele>239.20000000000002</ele><time>2026-03-29T09:04:56Z</time></trkpt><trkpt lat="41.67854398860179" lon="13.372847323945729"><ele>238.60000000000002</ele><time>2026-03-29T09:04:57Z</time></trkpt><trkpt lat="41.678437402387836" lon="13.372792792255458"><ele>238.0</ele><time>2026-03-29T09:04:58Z</time></trkpt><trkpt lat="41.67835179435289" lon="13.372711909076147"><ele>237.5</ele><time>2026-03-29T09:04:59Z</time></trkpt><trkpt lat="41.67828136950233" lon="13.372592516695923"><ele>237.0</ele><time>2026-03-29T09:05:00Z</time></trkpt><trkpt lat="41.678228734592935" lon="13.37244665269722"><ele>236.5</ele><time>2026-03-29T09:05:01Z</time></trkpt><trkpt lat="41.67818672833443" lon="13.372288740907491"><ele>236.0</ele><time>2026-03-29T09:05:02Z</time></trkpt><trkpt lat="41.67813970865982" lon="13.372143377114964"><ele>235.83333333333334</ele><time>2026-03-29T09:05:03Z</time></trkpt><trkpt lat="41.678090871192154" lon="13.372038930722043"><ele>235.66666666666669</ele><time>2026-03-29T09:05:04Z</time></trkpt><trkpt lat="41.678051085028414" lon="13.371958129069899"><ele>235.5</ele><time>2026-03-29T09:05:05Z</time></trkpt><trkpt lat="41.677997617566014" lon="13.371846728673644"><ele>235.33333333333331</ele><time>2026-03-29T09:05:07Z</time></trkpt><trkpt lat="41.67801144082339" lon="13.371762781517639"><ele>235.16666666666666</ele><time>2026-03-29T09:05:08Z</time></trkpt><trkpt lat="41.67803097967308" lon="13.371652113395465"><ele>235.0</ele><time>2026-03-29T09:05:10Z</time></trkpt><trkpt lat="41.67806281553317" lon="13.371523047513904"><ele>234.99999999999997</ele><time>2026-03-29T09:05:12Z</time></trkpt><trkpt lat="41.67808273876706" lon="13.371423563058622"><ele>235.0</ele><time>2026-03-29T09:05:13Z</time></trkpt><trkpt lat="41.67810670980846" lon="13.371315244817223"><ele>235.0</ele><time>2026-03-29T09:05:14Z</time></trkpt><trkpt lat="41.67813389770922" lon="13.371207046771877"><ele>235.0</ele><time>2026-03-29T09:05:15Z</time></trkpt><trkpt lat="41.67815797710161" lon="13.371102476744946"><ele>234.99999999999997</ele><time>2026-03-29T09:05:16Z</time></trkpt><trkpt lat="41.67818214698106" lon="13.371000859540437"><ele>235.0</ele><time>2026-03-29T09:05:17Z</time></trkpt><trkpt lat="41.67821452050968" lon="13.370901063826759"><ele>235.8</ele><time>2026-03-29T09:05:18Z</time></trkpt><trkpt lat="41.67824833185266" lon="13.370797735114339"><ele>236.6</ele><time>2026-03-29T09:05:19Z</time></trkpt><trkpt lat="41.67827655066217" lon="13.370680783863582"><ele>237.39999999999998</ele><time>2026-03-29T09:05:20Z</time></trkpt><trkpt lat="41.67828994308311" lon="13.370558537357917"><ele>238.2</ele><time>2026-03-29T09:05:21Z</time></trkpt><trkpt lat="41.678295493136474" lon="13.370434853637633"><ele>239.0</ele><time>2026-03-29T09:05:22Z</time></trkpt><trkpt lat="41.67830527116892" lon="13.370315420489769"><ele>239.33333333333334</ele><time>2026-03-29T09:05:23Z</time></trkpt><trkpt lat="41.678317036371546" lon="13.370200555781723"><ele>239.66666666666669</ele><time>2026-03-29T09:05:24Z</time></trkpt><trkpt lat="41.67832977452619" lon="13.370087098346742"><ele>240.0</ele><time>2026-03-29T09:05:25Z</time></trkpt><trkpt lat="41.67833874086773" lon="13.369990412736406"><ele>240.33333333333331</ele><time>2026-03-29T09:05:26Z</time></trkpt><trkpt lat="41.67835536911518" lon="13.369849939595067"><ele>240.66666666666666</ele><time>2026-03-29T09:05:28Z</time></trkpt><trkpt lat="41.6783940090084" lon="13.369765991320486"><ele>241.0</ele><time>2026-03-29T09:05:30Z</time></trkpt><trkpt lat="41.678513716290496" lon="13.36973213516276"><ele>241.0</ele><time>2026-03-29T09:05:32Z</time></trkpt><trkpt lat="41.678603768117256" lon="13.369713909225728"><ele>241.00000000000003</ele><time>2026-03-29T09:05:33Z</time></trkpt><trkpt lat="41.67869993623495" lon="13.369687407349184"><ele>241.00000000000003</ele><time>2026-03-29T09:05:34Z</time></trkpt><trkpt lat="41.67879552342004" lon="13.369640330746769"><ele>241.0</ele><time>2026-03-29T09:05:35Z</time></trkpt><trkpt lat="41.67889401594957" lon="13.369570873980921"><ele>241.0</ele><time>2026-03-29T09:05:36.001Z</time></trkpt><trkpt lat="41.67899726619967" lon="13.369486436965113"><ele>241.0</ele><time>2026-03-29T09:05:37.001Z</time></trkpt><trkpt lat="41.679103394569744" lon="13.369397084244138"><ele>241.0</ele><time>2026-03-29T09:05:38.001Z</time></trkpt><trkpt lat="41.67921079930941" lon="13.369308708480837"><ele>241.0</ele><time>2026-03-29T09:05:39.001Z</time></trkpt><trkpt lat="41.6793206181364" lon="13.36921172447399"><ele>241.0</ele><time>2026-03-29T09:05:40.001Z</time></trkpt><trkpt lat="41.67943255730327" lon="13.369115059776577"><ele>241.25</ele><time>2026-03-29T09:05:41.001Z</time></trkpt><trkpt lat="41.67954658708356" lon="13.369016029003042"><ele>241.5</ele><time>2026-03-29T09:05:42.001Z</time></trkpt><trkpt lat="41.67966655964033" lon="13.368914482314402"><ele>241.75</ele><time>2026-03-29T09:05:43.001Z</time></trkpt><trkpt lat="41.67979047756396" lon="13.368816519992633"><ele>242.0</ele><time>2026-03-29T09:05:44.001Z</time></trkpt><trkpt lat="41.679925480197014" lon="13.368748977024755"><ele>242.0</ele><time>2026-03-29T09:05:45Z</time></trkpt><trkpt lat="41.680066802033686" lon="13.368718464103631"><ele>242.0</ele><time>2026-03-29T09:05:46Z</time></trkpt><trkpt lat="41.68021693498207" lon="13.368704256944369"><ele>242.0</ele><time>2026-03-29T09:05:47Z</time></trkpt><trkpt lat="41.680364219255864" lon="13.368703429249091"><ele>242.0</ele><time>2026-03-29T09:05:48Z</time></trkpt><trkpt lat="41.68051394417748" lon="13.368709503905746"><ele>243.33333333333334</ele><time>2026-03-29T09:05:49Z</time></trkpt><trkpt lat="41.680666678652145" lon="13.368708871233409"><ele>244.66666666666669</ele><time>2026-03-29T09:05:50Z</time></trkpt><trkpt lat="41.68082150380374" lon="13.36870059885449"><ele>246.0</ele><time>2026-03-29T09:05:51Z</time></trkpt><trkpt lat="41.68097817739852" lon="13.368691942277255"><ele>246.33333333333331</ele><time>2026-03-29T09:05:52Z</time></trkpt><trkpt lat="41.68113807128943" lon="13.368684202292942"><ele>246.66666666666666</ele><time>2026-03-29T09:05:53Z</time></trkpt><trkpt lat="41.68130080768359" lon="13.36867619448376"><ele>247.0</ele><time>2026-03-29T09:05:54Z</time></trkpt><trkpt lat="41.68146248717672" lon="13.368673459447368"><ele>247.0</ele><time>2026-03-29T09:05:55Z</time></trkpt><trkpt lat="41.68162332084867" lon="13.36865834581783"><ele>247.0</ele><time>2026-03-29T09:05:56Z</time></trkpt><trkpt lat="41.681784375254175" lon="13.368635545512873"><ele>247.0</ele><time>2026-03-29T09:05:57Z</time></trkpt><trkpt lat="41.68194551474333" lon="13.368610360001085"><ele>247.33333333333331</ele><time>2026-03-29T09:05:58Z</time></trkpt><trkpt lat="41.68210762828004" lon="13.36858298413302"><ele>247.66666666666669</ele><time>2026-03-29T09:05:59Z</time></trkpt><trkpt lat="41.682272424491266" lon="13.36856848271145"><ele>248.0</ele><time>2026-03-29T09:06:00Z</time></trkpt><trkpt lat="41.682436319762054" lon="13.368552619480278"><ele>248.0</ele><time>2026-03-29T09:06:01Z</time></trkpt><trkpt lat="41.68260025832145" lon="13.368537887375183"><ele>248.0</ele><time>2026-03-29T09:06:02Z</time></trkpt><trkpt lat="41.68276203319187" lon="13.368526756757083"><ele>248.0</ele><time>2026-03-29T09:06:03Z</time></trkpt><trkpt lat="41.68292309249292" lon="13.368520203354542"><ele>248.25</ele><time>2026-03-29T09:06:04Z</time></trkpt><trkpt lat="41.68307824695562" lon="13.368515657748228"><ele>248.5</ele><time>2026-03-29T09:06:05Z</time></trkpt><trkpt lat="41.6832128803992" lon="13.368510896092042"><ele>248.75</ele><time>2026-03-29T09:06:06Z</time></trkpt><trkpt lat="41.68332898945787" lon="13.36850983696566"><ele>249.0</ele><time>2026-03-29T09:06:07Z</time></trkpt><trkpt lat="41.68343373772033" lon="13.368510063629792"><ele>249.0</ele><time>2026-03-29T09:06:08Z</time></trkpt><trkpt lat="41.68352147914881" lon="13.368512038344498"><ele>249.0</ele><time>2026-03-29T09:06:09Z</time></trkpt><trkpt lat="41.6835942476496" lon="13.368514298667966"><ele>249.0</ele><time>2026-03-29T09:06:10Z</time></trkpt><trkpt lat="41.68367531401744" lon="13.36852272834985"><ele>249.0</ele><time>2026-03-29T09:06:12Z</time></trkpt><trkpt lat="41.68375660848973" lon="13.368444119811146"><ele>249.0</ele><time>2026-03-29T09:06:16Z</time></trkpt><trkpt lat="41.68377984369496" lon="13.368341530053641"><ele>249.0</ele><time>2026-03-29T09:06:17Z</time></trkpt><trkpt lat="41.68379060429282" lon="13.368231106922789"><ele>249.6</ele><time>2026-03-29T09:06:18Z</time></trkpt><trkpt lat="41.68380438325249" lon="13.368115793523772"><ele>250.2</ele><time>2026-03-29T09:06:19Z</time></trkpt><trkpt lat="41.68381617524538" lon="13.367979341674896"><ele>250.79999999999998</ele><time>2026-03-29T09:06:20Z</time></trkpt><trkpt lat="41.68383251703421" lon="13.367831714315328"><ele>251.39999999999998</ele><time>2026-03-29T09:06:21Z</time></trkpt><trkpt lat="41.68385246289076" lon="13.36769003357652"><ele>252.0</ele><time>2026-03-29T09:06:22Z</time></trkpt><trkpt lat="41.68387141029639" lon="13.367540515640586"><ele>252.0</ele><time>2026-03-29T09:06:23Z</time></trkpt><trkpt lat="41.68388826759855" lon="13.367388437055466"><ele>252.0</ele><time>2026-03-29T09:06:24Z</time></trkpt><trkpt lat="41.68389961526556" lon="13.367227396563331"><ele>252.0</ele><time>2026-03-29T09:06:25Z</time></trkpt><trkpt lat="41.683917004982796" lon="13.367055948326685"><ele>252.0</ele><time>2026-03-29T09:06:26Z</time></trkpt><trkpt lat="41.68393612223459" lon="13.36687069608387"><ele>252.0</ele><time>2026-03-29T09:06:27Z</time></trkpt><trkpt lat="41.68395781475311" lon="13.366679927024952"><ele>252.0</ele><time>2026-03-29T09:06:28Z</time></trkpt><trkpt lat="41.6839826464721" lon="13.366475804520604"><ele>252.0</ele><time>2026-03-29T09:06:29Z</time></trkpt><trkpt lat="41.68401444501735" lon="13.366260272324835"><ele>252.0</ele><time>2026-03-29T09:06:30Z</time></trkpt><trkpt lat="41.68404884132258" lon="13.36604491653442"><ele>252.0</ele><time>2026-03-29T09:06:31Z</time></trkpt><trkpt lat="41.684092765216626" lon="13.365828031766801"><ele>252.0</ele><time>2026-03-29T09:06:32Z</time></trkpt><trkpt lat="41.6841526300961" lon="13.365624230880211"><ele>252.25</ele><time>2026-03-29T09:06:33Z</time></trkpt><trkpt lat="41.684216323219715" lon="13.365453261787156"><ele>252.5</ele><time>2026-03-29T09:06:34Z</time></trkpt><trkpt lat="41.68427362662993" lon="13.365321398507538"><ele>252.75</ele><time>2026-03-29T09:06:35Z</time></trkpt><trkpt lat="41.68433170458343" lon="13.365209380333614"><ele>253.0</ele><time>2026-03-29T09:06:36Z</time></trkpt><trkpt lat="41.68441037405987" lon="13.365120808689559"><ele>253.2</ele><time>2026-03-29T09:06:37Z</time></trkpt><trkpt lat="41.684511497392755" lon="13.365060621251866"><ele>253.4</ele><time>2026-03-29T09:06:38Z</time></trkpt><trkpt lat="41.684625749550335" lon="13.365060497879849"><ele>253.59999999999997</ele><time>2026-03-29T09:06:39Z</time></trkpt><trkpt lat="41.68473051152025" lon="13.36506320761567"><ele>253.79999999999998</ele><time>2026-03-29T09:06:40Z</time></trkpt><trkpt lat="41.6848218331168" lon="13.365039489152617"><ele>254.0</ele><time>2026-03-29T09:06:41Z</time></trkpt><trkpt lat="41.684909709074304" lon="13.364950259972323"><ele>254.0</ele><time>2026-03-29T09:06:42Z</time></trkpt><trkpt lat="41.684971241589366" lon="13.364819646644653"><ele>254.0</ele><time>2026-03-29T09:06:43Z</time></trkpt><trkpt lat="41.68500708110317" lon="13.364659397690602"><ele>254.0</ele><time>2026-03-29T09:06:44Z</time></trkpt><trkpt lat="41.68503756968536" lon="13.364482569449777"><ele>254.0</ele><time>2026-03-29T09:06:45Z</time></trkpt><trkpt lat="41.68508537725588" lon="13.364298911645006"><ele>254.25</ele><time>2026-03-29T09:06:46Z</time></trkpt><trkpt lat="41.685141810428675" lon="13.364120050816402"><ele>254.5</ele><time>2026-03-29T09:06:47Z</time></trkpt><trkpt lat="41.68519803320415" lon="13.363932282414908"><ele>254.75</ele><time>2026-03-29T09:06:48Z</time></trkpt><trkpt lat="41.68524121540925" lon="13.36374561519652"><ele>255.0</ele><time>2026-03-29T09:06:49Z</time></trkpt><trkpt lat="41.68527511308427" lon="13.363558629138343"><ele>255.0</ele><time>2026-03-29T09:06:50Z</time></trkpt><trkpt lat="41.6853090170466" lon="13.363358878970526"><ele>255.0</ele><time>2026-03-29T09:06:51Z</time></trkpt><trkpt lat="41.685339035371264" lon="13.363149990469337"><ele>255.0</ele><time>2026-03-29T09:06:52Z</time></trkpt><trkpt lat="41.68536741250987" lon="13.36293645867921"><ele>255.33333333333331</ele><time>2026-03-29T09:06:53Z</time></trkpt><trkpt lat="41.68540104173093" lon="13.362721279206772"><ele>255.66666666666666</ele><time>2026-03-29T09:06:54Z</time></trkpt><trkpt lat="41.68543419230265" lon="13.362505300261615"><ele>256.0</ele><time>2026-03-29T09:06:55Z</time></trkpt><trkpt lat="41.68546679605566" lon="13.362297772997726"><ele>255.5</ele><time>2026-03-29T09:06:56Z</time></trkpt><trkpt lat="41.68549739436866" lon="13.362116124762943"><ele>255.0</ele><time>2026-03-29T09:06:57Z</time></trkpt><trkpt lat="41.68553318875859" lon="13.361954706555524"><ele>254.5</ele><time>2026-03-29T09:06:58Z</time></trkpt><trkpt lat="41.685591101063494" lon="13.361825056546866"><ele>254.0</ele><time>2026-03-29T09:06:59Z</time></trkpt><trkpt lat="41.68566070818293" lon="13.361713537764574"><ele>254.0</ele><time>2026-03-29T09:07:00Z</time></trkpt><trkpt lat="41.68575064588135" lon="13.361631447880441"><ele>253.99999999999997</ele><time>2026-03-29T09:07:01Z</time></trkpt><trkpt lat="41.685840130303966" lon="13.361580625609912"><ele>253.99999999999997</ele><time>2026-03-29T09:07:02Z</time></trkpt><trkpt lat="41.685921312507126" lon="13.361548089764634"><ele>254.0</ele><time>2026-03-29T09:07:03Z</time></trkpt><trkpt lat="41.685980493008465" lon="13.361513648501166"><ele>254.0</ele><time>2026-03-29T09:07:04Z</time></trkpt><trkpt lat="41.68606245956491" lon="13.361371677001127"><ele>254.0</ele><time>2026-03-29T09:07:06Z</time></trkpt><trkpt lat="41.68611186244657" lon="13.36126757269336"><ele>253.99999999999997</ele><time>2026-03-29T09:07:07Z</time></trkpt><trkpt lat="41.686140867642244" lon="13.361135336462686"><ele>253.99999999999997</ele><time>2026-03-29T09:07:08Z</time></trkpt><trkpt lat="41.68619402389724" lon="13.361003455222752"><ele>254.0</ele><time>2026-03-29T09:07:09Z</time></trkpt><trkpt lat="41.68626062149924" lon="13.36085669801139"><ele>254.0</ele><time>2026-03-29T09:07:10Z</time></trkpt><trkpt lat="41.68632255293241" lon="13.360692613173596"><ele>253.66666666666669</ele><time>2026-03-29T09:07:11Z</time></trkpt><trkpt lat="41.68639188896623" lon="13.36052677361112"><ele>253.33333333333331</ele><time>2026-03-29T09:07:12Z</time></trkpt><trkpt lat="41.68647442500899" lon="13.360348689611492"><ele>253.0</ele><time>2026-03-29T09:07:13Z</time></trkpt><trkpt lat="41.68655862755317" lon="13.360153890590704"><ele>253.0</ele><time>2026-03-29T09:07:14Z</time></trkpt><trkpt lat="41.68664502374299" lon="13.35994807813789"><ele>253.0</ele><time>2026-03-29T09:07:15Z</time></trkpt><trkpt lat="41.68672689318867" lon="13.35972815402304"><ele>253.0</ele><time>2026-03-29T09:07:16Z</time></trkpt><trkpt lat="41.68680700602446" lon="13.359517398637736"><ele>253.0</ele><time>2026-03-29T09:07:17Z</time></trkpt><trkpt lat="41.686895749058884" lon="13.35930119001152"><ele>253.0</ele><time>2026-03-29T09:07:18Z</time></trkpt><trkpt lat="41.68698812092196" lon="13.359085286165742"><ele>253.0</ele><time>2026-03-29T09:07:19Z</time></trkpt><trkpt lat="41.687080301289335" lon="13.35887487440997"><ele>253.0</ele><time>2026-03-29T09:07:20Z</time></trkpt><trkpt lat="41.68716683444265" lon="13.358665661563046"><ele>253.0</ele><time>2026-03-29T09:07:21Z</time></trkpt><trkpt lat="41.68724397486151" lon="13.358466363135449"><ele>253.0</ele><time>2026-03-29T09:07:22Z</time></trkpt><trkpt lat="41.68730642622083" lon="13.358280870860352"><ele>253.0</ele><time>2026-03-29T09:07:23Z</time></trkpt><trkpt lat="41.68735405578766" lon="13.358104208566457"><ele>253.0</ele><time>2026-03-29T09:07:24Z</time></trkpt><trkpt lat="41.687396839979016" lon="13.357914647301772"><ele>253.0</ele><time>2026-03-29T09:07:25Z</time></trkpt><trkpt lat="41.687441386941465" lon="13.357708252219238"><ele>253.0</ele><time>2026-03-29T09:07:26Z</time></trkpt><trkpt lat="41.687487132574425" lon="13.357495612045957"><ele>253.0</ele><time>2026-03-29T09:07:27Z</time></trkpt><trkpt lat="41.68753474427883" lon="13.357279372680262"><ele>253.0</ele><time>2026-03-29T09:07:27.999Z</time></trkpt><trkpt lat="41.687586300650835" lon="13.35707634663888"><ele>253.0</ele><time>2026-03-29T09:07:28.999Z</time></trkpt><trkpt lat="41.68763694319195" lon="13.356900297750876"><ele>253.0</ele><time>2026-03-29T09:07:29.999Z</time></trkpt><trkpt lat="41.687679901871896" lon="13.3567564743666"><ele>253.0</ele><time>2026-03-29T09:07:30.999Z</time></trkpt><trkpt lat="41.68773194986382" lon="13.356637577515286"><ele>253.0</ele><time>2026-03-29T09:07:31.999Z</time></trkpt><trkpt lat="41.687799910138075" lon="13.356542939564635"><ele>253.0</ele><time>2026-03-29T09:07:32.999Z</time></trkpt><trkpt lat="41.68788005468336" lon="13.35644510737506"><ele>253.0</ele><time>2026-03-29T09:07:33.999Z</time></trkpt><trkpt lat="41.68800023122144" lon="13.356446422940127"><ele>253.25</ele><time>2026-03-29T09:07:34.999Z</time></trkpt><trkpt lat="41.68811685846353" lon="13.356461385982808"><ele>253.5</ele><time>2026-03-29T09:07:35.999Z</time></trkpt><trkpt lat="41.688233910448865" lon="13.356502710457459"><ele>253.75</ele><time>2026-03-29T09:07:36.999Z</time></trkpt><trkpt lat="41.68835723643804" lon="13.35651003309175"><ele>254.0</ele><time>2026-03-29T09:07:37.999Z</time></trkpt><trkpt lat="41.68847825125395" lon="13.356458361515195"><ele>254.0</ele><time>2026-03-29T09:07:38.999Z</time></trkpt><trkpt lat="41.688592307430994" lon="13.356356292106229"><ele>254.0</ele><time>2026-03-29T09:07:39.999Z</time></trkpt><trkpt lat="41.6886933546764" lon="13.356203256361928"><ele>254.0</ele><time>2026-03-29T09:07:40.999Z</time></trkpt><trkpt lat="41.68878002721973" lon="13.356019116809147"><ele>254.33333333333334</ele><time>2026-03-29T09:07:42Z</time></trkpt><trkpt lat="41.68886777363717" lon="13.355822711599549"><ele>254.66666666666669</ele><time>2026-03-29T09:07:43Z</time></trkpt><trkpt lat="41.68896000211766" lon="13.355631167499492"><ele>255.0</ele><time>2026-03-29T09:07:44Z</time></trkpt><trkpt lat="41.68905260429424" lon="13.355432647933151"><ele>255.0</ele><time>2026-03-29T09:07:45Z</time></trkpt><trkpt lat="41.689149043857896" lon="13.35522801132373"><ele>255.0</ele><time>2026-03-29T09:07:46Z</time></trkpt><trkpt lat="41.689247874530345" lon="13.355020528457695"><ele>255.0</ele><time>2026-03-29T09:07:47Z</time></trkpt><trkpt lat="41.689345795210365" lon="13.354807417543524"><ele>256.0</ele><time>2026-03-29T09:07:48Z</time></trkpt><trkpt lat="41.68944065214087" lon="13.354586615522011"><ele>257.0</ele><time>2026-03-29T09:07:49Z</time></trkpt><trkpt lat="41.68952886534303" lon="13.354377799869305"><ele>258.0</ele><time>2026-03-29T09:07:50Z</time></trkpt><trkpt lat="41.689606967987274" lon="13.354194358755313"><ele>258.0</ele><time>2026-03-29T09:07:51Z</time></trkpt><trkpt lat="41.689680953597595" lon="13.354028876829192"><ele>258.0</ele><time>2026-03-29T09:07:52Z</time></trkpt><trkpt lat="41.6897465619804" lon="13.353881980303512"><ele>258.0</ele><time>2026-03-29T09:07:53Z</time></trkpt><trkpt lat="41.68979752640313" lon="13.353769831312636"><ele>258.0</ele><time>2026-03-29T09:07:54Z</time></trkpt><trkpt lat="41.68983807942521" lon="13.353693464173874"><ele>258.0</ele><time>2026-03-29T09:07:55Z</time></trkpt><trkpt lat="41.68988534887924" lon="13.353581879031967"><ele>258.0</ele><time>2026-03-29T09:07:57Z</time></trkpt><trkpt lat="41.690051686777316" lon="13.353656970560909"><ele>258.0</ele><time>2026-03-29T09:07:59Z</time></trkpt><trkpt lat="41.690147228359336" lon="13.353686331340716"><ele>258.0</ele><time>2026-03-29T09:08:00.001Z</time></trkpt><trkpt lat="41.690260656952205" lon="13.353715851273185"><ele>258.0</ele><time>2026-03-29T09:08:01.001Z</time></trkpt><trkpt lat="41.69037903304969" lon="13.353754966646212"><ele>258.0</ele><time>2026-03-29T09:08:02.001Z</time></trkpt><trkpt lat="41.6904805215455" lon="13.353788096417862"><ele>258.0</ele><time>2026-03-29T09:08:03.001Z</time></trkpt><trkpt lat="41.69057078035918" lon="13.35380759691968"><ele>258.0</ele><time>2026-03-29T09:08:04.001Z</time></trkpt><trkpt lat="41.690668248048375" lon="13.353781347855563"><ele>258.0</ele><time>2026-03-29T09:08:05.001Z</time></trkpt><trkpt lat="41.69077267194424" lon="13.353715777428066"><ele>258.0</ele><time>2026-03-29T09:08:06.001Z</time></trkpt><trkpt lat="41.69088189017456" lon="13.353648405907816"><ele>258.0</ele><time>2026-03-29T09:08:07.001Z</time></trkpt><trkpt lat="41.69099234986677" lon="13.353575122082919"><ele>258.0</ele><time>2026-03-29T09:08:08.001Z</time></trkpt><trkpt lat="41.69108507917721" lon="13.353505171872591"><ele>258.0</ele><time>2026-03-29T09:08:09.001Z</time></trkpt><trkpt lat="41.69117019894743" lon="13.353440857935444"><ele>258.0</ele><time>2026-03-29T09:08:10.001Z</time></trkpt><trkpt lat="41.691219025765825" lon="13.353381053843213"><ele>258.0</ele><time>2026-03-29T09:08:11.001Z</time></trkpt><trkpt lat="41.69125199908779" lon="13.353299741865298"><ele>258.2</ele><time>2026-03-29T09:08:12.001Z</time></trkpt><trkpt lat="41.69125994836073" lon="13.353178807528142"><ele>258.4</ele><time>2026-03-29T09:08:13.001Z</time></trkpt><trkpt lat="41.691250841137666" lon="13.353030083863743"><ele>258.59999999999997</ele><time>2026-03-29T09:08:14.001Z</time></trkpt><trkpt lat="41.691256027188906" lon="13.352871934701499"><ele>258.8</ele><time>2026-03-29T09:08:15.001Z</time></trkpt><trkpt lat="41.69126267519012" lon="13.352703136996631"><ele>259.0</ele><time>2026-03-29T09:08:16.001Z</time></trkpt><trkpt lat="41.691279310788836" lon="13.352546786407745"><ele>259.0</ele><time>2026-03-29T09:08:17.001Z</time></trkpt><trkpt lat="41.69130056443941" lon="13.352420236049008"><ele>259.0</ele><time>2026-03-29T09:08:18.001Z</time></trkpt><trkpt lat="41.691321733277576" lon="13.352333130774264"><ele>259.0</ele><time>2026-03-29T09:08:19.001Z</time></trkpt><trkpt lat="41.69132648757983" lon="13.352229459763493"><ele>259.0</ele><time>2026-03-29T09:08:21.001Z</time></trkpt><trkpt lat="41.69121934119691" lon="13.35207279682623"><ele>259.0</ele><time>2026-03-29T09:08:24.001Z</time></trkpt><trkpt lat="41.69114648944436" lon="13.352070663422184"><ele>258.8333333333333</ele><time>2026-03-29T09:08:26.001Z</time></trkpt><trkpt lat="41.69108026195662" lon="13.35225055828367"><ele>258.66666666666663</ele><time>2026-03-29T09:08:28.001Z</time></trkpt><trkpt lat="41.69101577501922" lon="13.352251681021777"><ele>258.5</ele><time>2026-03-29T09:16:40Z</time></trkpt><trkpt lat="41.69096056482487" lon="13.352191477795449"><ele>258.3333333333333</ele><time>2026-03-29T09:16:42Z</time></trkpt><trkpt lat="41.690939390245454" lon="13.352111400509214"><ele>258.1666666666667</ele><time>2026-03-29T09:16:56Z</time></trkpt><trkpt lat="41.69088842127847" lon="13.352025585980973"><ele>258.0</ele><time>2026-03-29T09:17:00Z</time></trkpt><trkpt lat="41.690824582480154" lon="13.352001467180106"><ele>258.3333333333333</ele><time>2026-03-29T09:17:02Z</time></trkpt><trkpt lat="41.69076252035379" lon="13.35198256862877"><ele>258.6666666666667</ele><time>2026-03-29T09:17:06Z</time></trkpt><trkpt lat="41.69069824369988" lon="13.351944329587349"><ele>259.0</ele><time>2026-03-29T09:17:30Z</time></trkpt><trkpt lat="41.690600801610884" lon="13.351932876474596"><ele>259.33333333333337</ele><time>2026-03-29T09:17:32Z</time></trkpt><trkpt lat="41.690533979779005" lon="13.351918060826774"><ele>259.6666666666667</ele><time>2026-03-29T09:17:34Z</time></trkpt><trkpt lat="41.69042635202697" lon="13.351901491972438"><ele>260.0</ele><time>2026-03-29T09:17:36Z</time></trkpt><trkpt lat="41.69036202891324" lon="13.351891607867525"><ele>259.25</ele><time>2026-03-29T09:17:37Z</time></trkpt><trkpt lat="41.690242698690405" lon="13.351871536618821"><ele>258.5</ele><time>2026-03-29T09:17:39Z</time></trkpt><trkpt lat="41.69015505406425" lon="13.351809042387627"><ele>257.75</ele><time>2026-03-29T09:17:41Z</time></trkpt><trkpt lat="41.69017804822294" lon="13.351609590078196"><ele>257.0</ele><time>2026-03-29T09:17:43Z</time></trkpt><trkpt lat="41.690213786914896" lon="13.351479043982089"><ele>257.0</ele><time>2026-03-29T09:17:44Z</time></trkpt><trkpt lat="41.69025355200911" lon="13.351325715547322"><ele>257.0</ele><time>2026-03-29T09:17:45Z</time></trkpt><trkpt lat="41.690301712131365" lon="13.351152468836217"><ele>257.0</ele><time>2026-03-29T09:17:46Z</time></trkpt><trkpt lat="41.69033749786359" lon="13.350978315536794"><ele>257.0</ele><time>2026-03-29T09:17:47Z</time></trkpt><trkpt lat="41.69038907444311" lon="13.350808573337778"><ele>258.33333333333337</ele><time>2026-03-29T09:17:48Z</time></trkpt><trkpt lat="41.69043777816715" lon="13.350624325782686"><ele>259.6666666666667</ele><time>2026-03-29T09:17:49Z</time></trkpt><trkpt lat="41.69048145605296" lon="13.350416891738497"><ele>261.0</ele><time>2026-03-29T09:17:50Z</time></trkpt><trkpt lat="41.690518617005665" lon="13.350193543545469"><ele>261.0</ele><time>2026-03-29T09:17:51Z</time></trkpt><trkpt lat="41.69056522332255" lon="13.349964562946218"><ele>261.0</ele><time>2026-03-29T09:17:52Z</time></trkpt><trkpt lat="41.69061516880347" lon="13.349729631480232"><ele>261.0</ele><time>2026-03-29T09:17:53Z</time></trkpt><trkpt lat="41.690673101994314" lon="13.349491180552166"><ele>260.6666666666667</ele><time>2026-03-29T09:17:54Z</time></trkpt><trkpt lat="41.69073196777403" lon="13.349246345940001"><ele>260.33333333333337</ele><time>2026-03-29T09:17:55Z</time></trkpt><trkpt lat="41.69080034255627" lon="13.348998132028713"><ele>260.0</ele><time>2026-03-29T09:17:56Z</time></trkpt><trkpt lat="41.69087602406379" lon="13.348751852409775"><ele>260.0</ele><time>2026-03-29T09:17:57Z</time></trkpt><trkpt lat="41.69096050679613" lon="13.34850747877898"><ele>260.0</ele><time>2026-03-29T09:17:58Z</time></trkpt><trkpt lat="41.69105214248612" lon="13.348261919568628"><ele>260.0</ele><time>2026-03-29T09:17:59Z</time></trkpt><trkpt lat="41.69113008633884" lon="13.348031539615963"><ele>260.0</ele><time>2026-03-29T09:18:00Z</time></trkpt><trkpt lat="41.69120335415699" lon="13.347835182995228"><ele>260.0</ele><time>2026-03-29T09:18:01Z</time></trkpt><trkpt lat="41.69127160570188" lon="13.347652744567275"><ele>260.0</ele><time>2026-03-29T09:18:02Z</time></trkpt><trkpt lat="41.691332928134464" lon="13.347481859653417"><ele>260.0</ele><time>2026-03-29T09:18:03Z</time></trkpt><trkpt lat="41.6913908242407" lon="13.347322466366352"><ele>260.0</ele><time>2026-03-29T09:18:04Z</time></trkpt><trkpt lat="41.69145044782654" lon="13.347162870324814"><ele>260.0</ele><time>2026-03-29T09:18:05Z</time></trkpt><trkpt lat="41.691508494875954" lon="13.347002334687721"><ele>260.0</ele><time>2026-03-29T09:18:06Z</time></trkpt><trkpt lat="41.69156100111213" lon="13.346845810509908"><ele>259.5</ele><time>2026-03-29T09:18:07Z</time></trkpt><trkpt lat="41.69160379738845" lon="13.34668873746973"><ele>259.0</ele><time>2026-03-29T09:18:08Z</time></trkpt><trkpt lat="41.691641954408965" lon="13.34652957956129"><ele>258.5</ele><time>2026-03-29T09:18:09Z</time></trkpt><trkpt lat="41.691680690500725" lon="13.346361178794412"><ele>258.0</ele><time>2026-03-29T09:18:10Z</time></trkpt><trkpt lat="41.69171182338702" lon="13.346196464743748"><ele>257.5</ele><time>2026-03-29T09:18:11Z</time></trkpt><trkpt lat="41.691734947387005" lon="13.34603575652951"><ele>257.0</ele><time>2026-03-29T09:18:12Z</time></trkpt><trkpt lat="41.691750917220695" lon="13.345848501154693"><ele>256.5</ele><time>2026-03-29T09:18:13Z</time></trkpt><trkpt lat="41.69174679899041" lon="13.345635958577157"><ele>256.0</ele><time>2026-03-29T09:18:14Z</time></trkpt><trkpt lat="41.69172119359573" lon="13.345393993458803"><ele>254.33333333333331</ele><time>2026-03-29T09:18:15Z</time></trkpt><trkpt lat="41.69168979724544" lon="13.345117180620756"><ele>252.66666666666669</ele><time>2026-03-29T09:18:16Z</time></trkpt><trkpt lat="41.69167179857618" lon="13.344833738070552"><ele>251.0</ele><time>2026-03-29T09:18:17Z</time></trkpt><trkpt lat="41.69165519468573" lon="13.344538936861886"><ele>250.5</ele><time>2026-03-29T09:18:18Z</time></trkpt><trkpt lat="41.69164123051283" lon="13.344230137103192"><ele>250.0</ele><time>2026-03-29T09:18:19Z</time></trkpt><trkpt lat="41.6916301099436" lon="13.343920724027752"><ele>250.33333333333331</ele><time>2026-03-29T09:18:20Z</time></trkpt><trkpt lat="41.691626638866595" lon="13.343619007794603"><ele>250.66666666666669</ele><time>2026-03-29T09:18:21Z</time></trkpt><trkpt lat="41.691627871534855" lon="13.343342708507565"><ele>251.0</ele><time>2026-03-29T09:18:22Z</time></trkpt><trkpt lat="41.69163396118391" lon="13.343068952469611"><ele>252.33333333333334</ele><time>2026-03-29T09:18:23Z</time></trkpt><trkpt lat="41.691633866652765" lon="13.342791334025959"><ele>253.66666666666669</ele><time>2026-03-29T09:18:24Z</time></trkpt><trkpt lat="41.69162354233433" lon="13.342501712368824"><ele>255.0</ele><time>2026-03-29T09:18:25Z</time></trkpt><trkpt lat="41.69161080995786" lon="13.342200856556802"><ele>256.6666666666667</ele><time>2026-03-29T09:18:26Z</time></trkpt><trkpt lat="41.691594092100054" lon="13.341901998182463"><ele>258.33333333333337</ele><time>2026-03-29T09:18:27Z</time></trkpt><trkpt lat="41.691577820465454" lon="13.341610390101689"><ele>260.0</ele><time>2026-03-29T09:18:28Z</time></trkpt><trkpt lat="41.69156020066524" lon="13.341341894945684"><ele>261.0</ele><time>2026-03-29T09:18:29Z</time></trkpt><trkpt lat="41.69153833750367" lon="13.341076482268395"><ele>262.0</ele><time>2026-03-29T09:18:30Z</time></trkpt><trkpt lat="41.69149917553746" lon="13.34084001949091"><ele>263.0</ele><time>2026-03-29T09:18:31Z</time></trkpt><trkpt lat="41.69144004657413" lon="13.340600087082466"><ele>263.0</ele><time>2026-03-29T09:18:32Z</time></trkpt><trkpt lat="41.691359100627565" lon="13.340351444252729"><ele>263.0</ele><time>2026-03-29T09:18:33Z</time></trkpt><trkpt lat="41.691252134095464" lon="13.340091179132083"><ele>263.0</ele><time>2026-03-29T09:18:34Z</time></trkpt><trkpt lat="41.69113482758632" lon="13.339827569839189"><ele>262.5</ele><time>2026-03-29T09:18:35Z</time></trkpt><trkpt lat="41.691009539527606" lon="13.339563990410422"><ele>262.0</ele><time>2026-03-29T09:18:36Z</time></trkpt><trkpt lat="41.690869100034945" lon="13.339308457435584"><ele>262.0</ele><time>2026-03-29T09:18:37Z</time></trkpt><trkpt lat="41.69071875045779" lon="13.339063377653888"><ele>262.0</ele><time>2026-03-29T09:18:38Z</time></trkpt><trkpt lat="41.69057400468532" lon="13.33884290935256"><ele>262.0</ele><time>2026-03-29T09:18:39Z</time></trkpt><trkpt lat="41.69043380904028" lon="13.33862436604341"><ele>262.0</ele><time>2026-03-29T09:18:40Z</time></trkpt><trkpt lat="41.69030956356299" lon="13.338383645872286"><ele>262.0</ele><time>2026-03-29T09:18:41Z</time></trkpt><trkpt lat="41.690199015101655" lon="13.33812708612578"><ele>261.0</ele><time>2026-03-29T09:18:42Z</time></trkpt><trkpt lat="41.69009779158922" lon="13.337871218001942"><ele>260.0</ele><time>2026-03-29T09:18:43Z</time></trkpt><trkpt lat="41.69000004292145" lon="13.33760702946649"><ele>259.0</ele><time>2026-03-29T09:18:44Z</time></trkpt><trkpt lat="41.68991856773067" lon="13.337332418846087"><ele>259.0</ele><time>2026-03-29T09:18:45Z</time></trkpt><trkpt lat="41.68984897629555" lon="13.337043500924505"><ele>259.0</ele><time>2026-03-29T09:18:46Z</time></trkpt><trkpt lat="41.6897884535678" lon="13.336752411403399"><ele>259.0</ele><time>2026-03-29T09:18:47Z</time></trkpt><trkpt lat="41.68972884553265" lon="13.336461819551042"><ele>259.0</ele><time>2026-03-29T09:18:48Z</time></trkpt><trkpt lat="41.68966777106808" lon="13.336166462231537"><ele>259.0</ele><time>2026-03-29T09:18:49Z</time></trkpt><trkpt lat="41.68961405346995" lon="13.335859358544104"><ele>259.0</ele><time>2026-03-29T09:18:50Z</time></trkpt><trkpt lat="41.68958292402275" lon="13.335534771701798"><ele>259.0</ele><time>2026-03-29T09:18:51Z</time></trkpt><trkpt lat="41.68956694320216" lon="13.3351793279484"><ele>259.0</ele><time>2026-03-29T09:18:52Z</time></trkpt><trkpt lat="41.689553257277815" lon="13.334812181831966"><ele>259.0</ele><time>2026-03-29T09:18:53Z</time></trkpt><trkpt lat="41.68953632501218" lon="13.334442978851861"><ele>259.0</ele><time>2026-03-29T09:18:54Z</time></trkpt><trkpt lat="41.6895164135668" lon="13.334071813166481"><ele>259.0</ele><time>2026-03-29T09:18:55Z</time></trkpt><trkpt lat="41.68949507489525" lon="13.3337016371266"><ele>259.0</ele><time>2026-03-29T09:18:56Z</time></trkpt><trkpt lat="41.68947754283907" lon="13.333337065617538"><ele>258.5</ele><time>2026-03-29T09:18:57Z</time></trkpt><trkpt lat="41.689461281350525" lon="13.33297526745391"><ele>258.0</ele><time>2026-03-29T09:18:58Z</time></trkpt><trkpt lat="41.6894459471992" lon="13.332618099163865"><ele>258.0</ele><time>2026-03-29T09:18:59Z</time></trkpt><trkpt lat="41.689430074989524" lon="13.33226965157172"><ele>258.0</ele><time>2026-03-29T09:19:00Z</time></trkpt><trkpt lat="41.68941248877968" lon="13.33193845883295"><ele>256.0</ele><time>2026-03-29T09:19:01Z</time></trkpt><trkpt lat="41.689395897550206" lon="13.331627240963392"><ele>254.0</ele><time>2026-03-29T09:19:02Z</time></trkpt><trkpt lat="41.68937863881136" lon="13.33131372149988"><ele>253.0</ele><time>2026-03-29T09:19:03Z</time></trkpt><trkpt lat="41.68935670246901" lon="13.331000501903366"><ele>252.0</ele><time>2026-03-29T09:19:04Z</time></trkpt><trkpt lat="41.68933555144572" lon="13.330692543424348"><ele>252.66666666666669</ele><time>2026-03-29T09:19:05Z</time></trkpt><trkpt lat="41.68931444579077" lon="13.330392185707366"><ele>253.33333333333334</ele><time>2026-03-29T09:19:06Z</time></trkpt><trkpt lat="41.689289908428684" lon="13.330120552229712"><ele>254.0</ele><time>2026-03-29T09:19:07Z</time></trkpt><trkpt lat="41.6892539744408" lon="13.329870277265172"><ele>253.66666666666669</ele><time>2026-03-29T09:19:08Z</time></trkpt><trkpt lat="41.689208699247594" lon="13.329611715607836"><ele>253.33333333333331</ele><time>2026-03-29T09:19:09Z</time></trkpt><trkpt lat="41.68915351857787" lon="13.329338111855744"><ele>253.0</ele><time>2026-03-29T09:19:10Z</time></trkpt><trkpt lat="41.68910943219058" lon="13.329041192316746"><ele>253.0</ele><time>2026-03-29T09:19:11Z</time></trkpt><trkpt lat="41.68907409310643" lon="13.328728753683222"><ele>253.0</ele><time>2026-03-29T09:19:12Z</time></trkpt><trkpt lat="41.68902514246636" lon="13.328419527670762"><ele>253.0</ele><time>2026-03-29T09:19:13Z</time></trkpt><trkpt lat="41.68897170263425" lon="13.328116291325998"><ele>253.0</ele><time>2026-03-29T09:19:14Z</time></trkpt><trkpt lat="41.68892489695821" lon="13.32781874287879"><ele>253.0</ele><time>2026-03-29T09:19:15Z</time></trkpt><trkpt lat="41.68888268850298" lon="13.327516442414359"><ele>253.0</ele><time>2026-03-29T09:19:16Z</time></trkpt><trkpt lat="41.688847617593815" lon="13.32721247496247"><ele>253.33333333333331</ele><time>2026-03-29T09:19:17Z</time></trkpt><trkpt lat="41.6888303713646" lon="13.326934540496296"><ele>253.66666666666669</ele><time>2026-03-29T09:19:18Z</time></trkpt><trkpt lat="41.68883252723995" lon="13.326677343287807"><ele>254.0</ele><time>2026-03-29T09:19:19Z</time></trkpt><trkpt lat="41.68879241617211" lon="13.326455238332867"><ele>254.5</ele><time>2026-03-29T09:19:20Z</time></trkpt><trkpt lat="41.68882957815304" lon="13.326243190987615"><ele>255.0</ele><time>2026-03-29T09:19:21Z</time></trkpt><trkpt lat="41.68882729504603" lon="13.326058629761324"><ele>255.5</ele><time>2026-03-29T09:19:22Z</time></trkpt><trkpt lat="41.688821960718826" lon="13.325913110959176"><ele>256.0</ele><time>2026-03-29T09:19:23Z</time></trkpt><trkpt lat="41.68881912673006" lon="13.325800836279852"><ele>256.0</ele><time>2026-03-29T09:19:24Z</time></trkpt><trkpt lat="41.68880837164705" lon="13.325620862460664"><ele>256.0</ele><time>2026-03-29T09:19:26Z</time></trkpt><trkpt lat="41.68879493161941" lon="13.325457516125937"><ele>256.0</ele><time>2026-03-29T09:19:27Z</time></trkpt><trkpt lat="41.68877374830969" lon="13.325279574090631"><ele>256.0</ele><time>2026-03-29T09:19:28Z</time></trkpt><trkpt lat="41.68875425333707" lon="13.325095212794608"><ele>256.3333333333333</ele><time>2026-03-29T09:19:29Z</time></trkpt><trkpt lat="41.68873588125186" lon="13.324941589807812"><ele>256.66666666666663</ele><time>2026-03-29T09:19:30Z</time></trkpt><trkpt lat="41.68871794611207" lon="13.324824063145304"><ele>257.0</ele><time>2026-03-29T09:19:31Z</time></trkpt><trkpt lat="41.688700056369555" lon="13.324728376191588"><ele>257.3333333333333</ele><time>2026-03-29T09:19:32Z</time></trkpt><trkpt lat="41.68868341661211" lon="13.32464548691176"><ele>257.6666666666667</ele><time>2026-03-29T09:19:33Z</time></trkpt><trkpt lat="41.68865854384916" lon="13.324541511396239"><ele>258.0</ele><time>2026-03-29T09:19:34Z</time></trkpt><trkpt lat="41.68862179679684" lon="13.324405891399493"><ele>258.25</ele><time>2026-03-29T09:19:35Z</time></trkpt><trkpt lat="41.68859064553858" lon="13.32425561505143"><ele>258.5</ele><time>2026-03-29T09:19:36Z</time></trkpt><trkpt lat="41.6885415927837" lon="13.324086406828991"><ele>258.75</ele><time>2026-03-29T09:19:37Z</time></trkpt><trkpt lat="41.688429754166016" lon="13.323920522578742"><ele>259.0</ele><time>2026-03-29T09:19:38Z</time></trkpt><trkpt lat="41.68829732279936" lon="13.323766693765833"><ele>259.0</ele><time>2026-03-29T09:19:39Z</time></trkpt><trkpt lat="41.68814773439771" lon="13.323622349116413"><ele>259.0</ele><time>2026-03-29T09:19:40Z</time></trkpt><trkpt lat="41.687971158213045" lon="13.323484219349265"><ele>259.0</ele><time>2026-03-29T09:19:41Z</time></trkpt><trkpt lat="41.68777885856546" lon="13.32336153374159"><ele>257.66666666666663</ele><time>2026-03-29T09:19:42Z</time></trkpt><trkpt lat="41.687585366866045" lon="13.323243735284002"><ele>256.3333333333333</ele><time>2026-03-29T09:19:43Z</time></trkpt><trkpt lat="41.68738426873488" lon="13.323141829879885"><ele>255.0</ele><time>2026-03-29T09:19:44Z</time></trkpt><trkpt lat="41.68718190935415" lon="13.323047126660823"><ele>255.0</ele><time>2026-03-29T09:19:45Z</time></trkpt><trkpt lat="41.68697816613681" lon="13.322947955684446"><ele>255.0</ele><time>2026-03-29T09:19:46Z</time></trkpt><trkpt lat="41.686774512418154" lon="13.322848847505622"><ele>255.0</ele><time>2026-03-29T09:19:47Z</time></trkpt><trkpt lat="41.68657164584224" lon="13.32275293305018"><ele>254.0</ele><time>2026-03-29T09:19:48Z</time></trkpt><trkpt lat="41.68638649167117" lon="13.322667849150235"><ele>253.0</ele><time>2026-03-29T09:19:49Z</time></trkpt><trkpt lat="41.686215500102854" lon="13.322588969888674"><ele>252.0</ele><time>2026-03-29T09:19:50Z</time></trkpt><trkpt lat="41.68606055570883" lon="13.322515759676035"><ele>252.0</ele><time>2026-03-29T09:19:51Z</time></trkpt><trkpt lat="41.6859333323744" lon="13.322456225726608"><ele>252.0</ele><time>2026-03-29T09:19:52Z</time></trkpt><trkpt lat="41.685852930331585" lon="13.322418231540917"><ele>252.0</ele><time>2026-03-29T09:19:53Z</time></trkpt><trkpt lat="41.68570669470157" lon="13.322355992014431"><ele>252.0</ele><time>2026-03-29T09:19:55Z</time></trkpt><trkpt lat="41.685575655194405" lon="13.322300854942396"><ele>252.0</ele><time>2026-03-29T09:19:56Z</time></trkpt><trkpt lat="41.685440446999706" lon="13.322242594098345"><ele>252.0</ele><time>2026-03-29T09:19:57Z</time></trkpt><trkpt lat="41.685292849352344" lon="13.322173546360512"><ele>252.0</ele><time>2026-03-29T09:19:58Z</time></trkpt><trkpt lat="41.68513419738324" lon="13.322100139606567"><ele>251.66666666666669</ele><time>2026-03-29T09:19:59Z</time></trkpt><trkpt lat="41.684969094146396" lon="13.322011682469316"><ele>251.33333333333334</ele><time>2026-03-29T09:20:00Z</time></trkpt><trkpt lat="41.684793195563294" lon="13.321924157763963"><ele>251.0</ele><time>2026-03-29T09:20:01Z</time></trkpt><trkpt lat="41.684609303330475" lon="13.32183563626121"><ele>252.0</ele><time>2026-03-29T09:20:02Z</time></trkpt><trkpt lat="41.684402691680035" lon="13.321738825574853"><ele>253.0</ele><time>2026-03-29T09:20:03Z</time></trkpt><trkpt lat="41.6841809442188" lon="13.321631566430062"><ele>253.0</ele><time>2026-03-29T09:20:04Z</time></trkpt><trkpt lat="41.68395296919666" lon="13.321522153792136"><ele>253.0</ele><time>2026-03-29T09:20:05Z</time></trkpt><trkpt lat="41.68372482843899" lon="13.321415731096153"><ele>253.5</ele><time>2026-03-29T09:20:06Z</time></trkpt><trkpt lat="41.68349210181063" lon="13.32130231784696"><ele>254.0</ele><time>2026-03-29T09:20:07Z</time></trkpt><trkpt lat="41.68325375873437" lon="13.321191720308528"><ele>254.0</ele><time>2026-03-29T09:20:08Z</time></trkpt><trkpt lat="41.68301482688418" lon="13.321081043440842"><ele>254.0</ele><time>2026-03-29T09:20:09Z</time></trkpt><trkpt lat="41.682770887438934" lon="13.320979715053744"><ele>255.5</ele><time>2026-03-29T09:20:10Z</time></trkpt><trkpt lat="41.682520766079875" lon="13.32089853806971"><ele>257.0</ele><time>2026-03-29T09:20:11Z</time></trkpt><trkpt lat="41.68225840311426" lon="13.32083200084495"><ele>257.0</ele><time>2026-03-29T09:20:12Z</time></trkpt><trkpt lat="41.68198726358883" lon="13.32077045324192"><ele>257.0</ele><time>2026-03-29T09:20:13Z</time></trkpt><trkpt lat="41.68170860550733" lon="13.320710449879462"><ele>258.5</ele><time>2026-03-29T09:20:14Z</time></trkpt><trkpt lat="41.68142968459045" lon="13.320643493386301"><ele>260.0</ele><time>2026-03-29T09:20:15Z</time></trkpt><trkpt lat="41.68115396089455" lon="13.320576708987888"><ele>257.5</ele><time>2026-03-29T09:20:16Z</time></trkpt><trkpt lat="41.680901409969024" lon="13.32051697088835"><ele>255.0</ele><time>2026-03-29T09:20:17Z</time></trkpt><trkpt lat="41.68066213707061" lon="13.320456939866023"><ele>255.0</ele><time>2026-03-29T09:20:18Z</time></trkpt><trkpt lat="41.68043500833003" lon="13.32039766721833"><ele>255.0</ele><time>2026-03-29T09:20:19Z</time></trkpt><trkpt lat="41.680220230326924" lon="13.320346181054319"><ele>253.0</ele><time>2026-03-29T09:20:20Z</time></trkpt><trkpt lat="41.680019496024485" lon="13.32029925575963"><ele>251.0</ele><time>2026-03-29T09:20:21Z</time></trkpt><trkpt lat="41.67982682306907" lon="13.320255055368321"><ele>249.0</ele><time>2026-03-29T09:20:22Z</time></trkpt><trkpt lat="41.67962251958939" lon="13.320206359862494"><ele>249.5</ele><time>2026-03-29T09:20:23Z</time></trkpt><trkpt lat="41.679401544724364" lon="13.320151072752694"><ele>250.0</ele><time>2026-03-29T09:20:24Z</time></trkpt><trkpt lat="41.67917075425088" lon="13.320095387587147"><ele>250.0</ele><time>2026-03-29T09:20:25Z</time></trkpt><trkpt lat="41.678931554759224" lon="13.320036997023342"><ele>250.0</ele><time>2026-03-29T09:20:26Z</time></trkpt><trkpt lat="41.67868446898245" lon="13.319972209588238"><ele>252.0</ele><time>2026-03-29T09:20:27Z</time></trkpt><trkpt lat="41.67842714029044" lon="13.319908639277953"><ele>254.0</ele><time>2026-03-29T09:20:28Z</time></trkpt><trkpt lat="41.678162553987555" lon="13.3198435753328"><ele>254.0</ele><time>2026-03-29T09:20:29Z</time></trkpt><trkpt lat="41.67788514411754" lon="13.319773847210895"><ele>254.0</ele><time>2026-03-29T09:20:30Z</time></trkpt><trkpt lat="41.67759710254745" lon="13.319700581889183"><ele>253.5</ele><time>2026-03-29T09:20:31Z</time></trkpt><trkpt lat="41.677300568608864" lon="13.319626427038205"><ele>253.0</ele><time>2026-03-29T09:20:32Z</time></trkpt><trkpt lat="41.67699911152784" lon="13.31955156793242"><ele>254.5</ele><time>2026-03-29T09:20:33Z</time></trkpt><trkpt lat="41.67669354523686" lon="13.319477056919817"><ele>256.0</ele><time>2026-03-29T09:20:34Z</time></trkpt><trkpt lat="41.67640760843969" lon="13.319406172697384"><ele>256.0</ele><time>2026-03-29T09:20:35Z</time></trkpt><trkpt lat="41.67614666185679" lon="13.319339044933283"><ele>256.0</ele><time>2026-03-29T09:20:36Z</time></trkpt><trkpt lat="41.67590417498065" lon="13.319260387629955"><ele>258.5</ele><time>2026-03-29T09:20:37Z</time></trkpt><trkpt lat="41.67566559599548" lon="13.31917295511302"><ele>261.0</ele><time>2026-03-29T09:20:38Z</time></trkpt><trkpt lat="41.675430267830365" lon="13.31906270374264"><ele>259.5</ele><time>2026-03-29T09:20:39Z</time></trkpt><trkpt lat="41.67519509518321" lon="13.318933826842475"><ele>258.0</ele><time>2026-03-29T09:20:40Z</time></trkpt><trkpt lat="41.67496994009087" lon="13.318778158529962"><ele>258.0</ele><time>2026-03-29T09:20:41Z</time></trkpt><trkpt lat="41.67475170481672" lon="13.318599123225653"><ele>258.0</ele><time>2026-03-29T09:20:42Z</time></trkpt><trkpt lat="41.6745361214383" lon="13.318407315071259"><ele>258.0</ele><time>2026-03-29T09:20:43Z</time></trkpt><trkpt lat="41.674340249199034" lon="13.318211905111395"><ele>258.0</ele><time>2026-03-29T09:20:44Z</time></trkpt><trkpt lat="41.674156013337516" lon="13.317997605038338"><ele>257.0</ele><time>2026-03-29T09:20:45Z</time></trkpt><trkpt lat="41.67398636639567" lon="13.317745728385997"><ele>256.0</ele><time>2026-03-29T09:20:46Z</time></trkpt><trkpt lat="41.673836053341766" lon="13.317457707847455"><ele>256.0</ele><time>2026-03-29T09:20:47Z</time></trkpt><trkpt lat="41.673690382428795" lon="13.317155796673042"><ele>256.0</ele><time>2026-03-29T09:20:48Z</time></trkpt><trkpt lat="41.6735428865624" lon="13.31685240953888"><ele>256.0</ele><time>2026-03-29T09:20:49Z</time></trkpt><trkpt lat="41.67339625786595" lon="13.316551294539263"><ele>256.0</ele><time>2026-03-29T09:20:50Z</time></trkpt><trkpt lat="41.67324228769102" lon="13.316248624821233"><ele>255.5</ele><time>2026-03-29T09:20:51Z</time></trkpt><trkpt lat="41.67309045932644" lon="13.3159427626066"><ele>255.0</ele><time>2026-03-29T09:20:52Z</time></trkpt><trkpt lat="41.672936996779676" lon="13.3156374000615"><ele>254.5</ele><time>2026-03-29T09:20:53Z</time></trkpt><trkpt lat="41.67277627929038" lon="13.315330576820976"><ele>254.0</ele><time>2026-03-29T09:20:54Z</time></trkpt><trkpt lat="41.672611790425975" lon="13.31502105816212"><ele>252.0</ele><time>2026-03-29T09:20:55Z</time></trkpt><trkpt lat="41.67244727897748" lon="13.314712541419729"><ele>250.0</ele><time>2026-03-29T09:20:56Z</time></trkpt><trkpt lat="41.67227891140128" lon="13.314406028355009"><ele>250.0</ele><time>2026-03-29T09:20:57Z</time></trkpt><trkpt lat="41.67211092181424" lon="13.314105431645224"><ele>250.0</ele><time>2026-03-29T09:20:58Z</time></trkpt><trkpt lat="41.671947470726465" lon="13.313815002050585"><ele>248.0</ele><time>2026-03-29T09:20:59Z</time></trkpt><trkpt lat="41.67179077385439" lon="13.313538219822377"><ele>246.0</ele><time>2026-03-29T09:21:00Z</time></trkpt><trkpt lat="41.67165415685826" lon="13.31329813050451"><ele>245.33333333333331</ele><time>2026-03-29T09:21:01Z</time></trkpt><trkpt lat="41.671522288774625" lon="13.31306930907134"><ele>244.66666666666666</ele><time>2026-03-29T09:21:02Z</time></trkpt><trkpt lat="41.671399397201654" lon="13.312850856598057"><ele>244.0</ele><time>2026-03-29T09:21:03Z</time></trkpt><trkpt lat="41.67128169981043" lon="13.31264495394568"><ele>244.0</ele><time>2026-03-29T09:21:04Z</time></trkpt><trkpt lat="41.67116388479387" lon="13.312435238994263"><ele>244.0</ele><time>2026-03-29T09:21:05Z</time></trkpt><trkpt lat="41.67103631406788" lon="13.312220387790655"><ele>244.0</ele><time>2026-03-29T09:21:06Z</time></trkpt><trkpt lat="41.670904916060046" lon="13.312000890932048"><ele>242.0</ele><time>2026-03-29T09:21:07Z</time></trkpt><trkpt lat="41.67075777844269" lon="13.311762997115386"><ele>240.0</ele><time>2026-03-29T09:21:08Z</time></trkpt><trkpt lat="41.67062263897808" lon="13.31147903316547"><ele>239.5</ele><time>2026-03-29T09:21:09Z</time></trkpt><trkpt lat="41.67045564718123" lon="13.311201161036402"><ele>239.0</ele><time>2026-03-29T09:21:10Z</time></trkpt><trkpt lat="41.67030591407276" lon="13.310881614913908"><ele>237.0</ele><time>2026-03-29T09:21:11Z</time></trkpt><trkpt lat="41.67015831767248" lon="13.310564378810836"><ele>235.0</ele><time>2026-03-29T09:21:12Z</time></trkpt><trkpt lat="41.67001606752367" lon="13.310248923046434"><ele>235.0</ele><time>2026-03-29T09:21:13Z</time></trkpt><trkpt lat="41.66988444658636" lon="13.309927200705706"><ele>235.0</ele><time>2026-03-29T09:21:14Z</time></trkpt><trkpt lat="41.66974981119546" lon="13.309600718799564"><ele>235.0</ele><time>2026-03-29T09:21:15Z</time></trkpt><trkpt lat="41.66961298115999" lon="13.309271094931466"><ele>235.0</ele><time>2026-03-29T09:21:16Z</time></trkpt><trkpt lat="41.6694753280223" lon="13.308938633636762"><ele>234.0</ele><time>2026-03-29T09:21:17Z</time></trkpt><trkpt lat="41.66933930249151" lon="13.308601781036742"><ele>233.0</ele><time>2026-03-29T09:21:18Z</time></trkpt><trkpt lat="41.66919862016013" lon="13.308257400812638"><ele>233.0</ele><time>2026-03-29T09:21:19Z</time></trkpt><trkpt lat="41.669063820854404" lon="13.307922839875058"><ele>233.0</ele><time>2026-03-29T09:21:20Z</time></trkpt><trkpt lat="41.66893898262089" lon="13.30761933188128"><ele>233.0</ele><time>2026-03-29T09:21:21Z</time></trkpt><trkpt lat="41.66882082986851" lon="13.307332926695269"><ele>233.0</ele><time>2026-03-29T09:21:22Z</time></trkpt><trkpt lat="41.66870556398174" lon="13.307048065669413"><ele>234.0</ele><time>2026-03-29T09:21:23Z</time></trkpt><trkpt lat="41.668581901229494" lon="13.306761484346394"><ele>235.0</ele><time>2026-03-29T09:21:24Z</time></trkpt><trkpt lat="41.66846346124314" lon="13.30647193694098"><ele>234.5</ele><time>2026-03-29T09:21:25Z</time></trkpt><trkpt lat="41.66834871828541" lon="13.306180260368818"><ele>234.0</ele><time>2026-03-29T09:21:26Z</time></trkpt><trkpt lat="41.668230142043356" lon="13.305894118878633"><ele>234.0</ele><time>2026-03-29T09:21:27Z</time></trkpt><trkpt lat="41.66811620068614" lon="13.305624321910472"><ele>234.0</ele><time>2026-03-29T09:21:28Z</time></trkpt><trkpt lat="41.668008816540144" lon="13.305363546870371"><ele>234.0</ele><time>2026-03-29T09:21:29Z</time></trkpt><trkpt lat="41.66790621380103" lon="13.30511733300145"><ele>234.0</ele><time>2026-03-29T09:21:30Z</time></trkpt><trkpt lat="41.66780034446385" lon="13.304859511796518"><ele>234.0</ele><time>2026-03-29T09:21:31Z</time></trkpt><trkpt lat="41.667703144114114" lon="13.30458624943653"><ele>232.66666666666669</ele><time>2026-03-29T09:21:32Z</time></trkpt><trkpt lat="41.66762571969283" lon="13.304301357183135"><ele>231.33333333333334</ele><time>2026-03-29T09:21:33Z</time></trkpt><trkpt lat="41.66757429571783" lon="13.30401292978764"><ele>230.0</ele><time>2026-03-29T09:21:34Z</time></trkpt><trkpt lat="41.66753022848702" lon="13.303743596071396"><ele>229.33333333333334</ele><time>2026-03-29T09:21:35Z</time></trkpt><trkpt lat="41.66749308707386" lon="13.30348948472831"><ele>228.66666666666669</ele><time>2026-03-29T09:21:36Z</time></trkpt><trkpt lat="41.66745609899058" lon="13.303252682163079"><ele>228.0</ele><time>2026-03-29T09:21:37Z</time></trkpt><trkpt lat="41.66740724471236" lon="13.303028002808459"><ele>227.33333333333331</ele><time>2026-03-29T09:21:38Z</time></trkpt><trkpt lat="41.667335978182685" lon="13.302794966256227"><ele>226.66666666666666</ele><time>2026-03-29T09:21:39Z</time></trkpt><trkpt lat="41.66723578306632" lon="13.302559299737725"><ele>226.0</ele><time>2026-03-29T09:21:40Z</time></trkpt><trkpt lat="41.66713262748512" lon="13.302344155350777"><ele>225.33333333333331</ele><time>2026-03-29T09:21:41Z</time></trkpt><trkpt lat="41.66704092048644" lon="13.302153222039367"><ele>224.66666666666669</ele><time>2026-03-29T09:21:42Z</time></trkpt><trkpt lat="41.666960623684304" lon="13.301983276585585"><ele>224.0</ele><time>2026-03-29T09:21:43Z</time></trkpt><trkpt lat="41.66689636044964" lon="13.301831431478755"><ele>223.79999999999998</ele><time>2026-03-29T09:21:44Z</time></trkpt><trkpt lat="41.66683536927232" lon="13.301700186983831"><ele>223.59999999999997</ele><time>2026-03-29T09:21:45Z</time></trkpt><trkpt lat="41.666775085941865" lon="13.301579492749056"><ele>223.4</ele><time>2026-03-29T09:21:46Z</time></trkpt><trkpt lat="41.66672196301397" lon="13.30146558642361"><ele>223.2</ele><time>2026-03-29T09:21:47Z</time></trkpt><trkpt lat="41.666676302876134" lon="13.301366392934456"><ele>223.0</ele><time>2026-03-29T09:21:48Z</time></trkpt><trkpt lat="41.66664381100439" lon="13.301285946171948"><ele>222.4</ele><time>2026-03-29T09:21:49Z</time></trkpt><trkpt lat="41.666607547437025" lon="13.301156716592478"><ele>221.8</ele><time>2026-03-29T09:21:51Z</time></trkpt><trkpt lat="41.66660230269242" lon="13.301008194993246"><ele>221.2</ele><time>2026-03-29T09:21:53Z</time></trkpt><trkpt lat="41.666639143657015" lon="13.300897149122948"><ele>220.6</ele><time>2026-03-29T09:21:54Z</time></trkpt><trkpt lat="41.66670343660719" lon="13.300761251678137"><ele>220.0</ele><time>2026-03-29T09:21:55Z</time></trkpt><trkpt lat="41.666789275331084" lon="13.300616218404844"><ele>219.66666666666666</ele><time>2026-03-29T09:21:56Z</time></trkpt><trkpt lat="41.666881573276314" lon="13.300462164388373"><ele>219.33333333333331</ele><time>2026-03-29T09:21:57Z</time></trkpt><trkpt lat="41.666988791697946" lon="13.300305188485929"><ele>219.0</ele><time>2026-03-29T09:21:58Z</time></trkpt><trkpt lat="41.66709321603792" lon="13.30015093660704"><ele>219.66666666666669</ele><time>2026-03-29T09:21:59Z</time></trkpt><trkpt lat="41.66719161832722" lon="13.300011198627532"><ele>220.33333333333334</ele><time>2026-03-29T09:22:00Z</time></trkpt><trkpt lat="41.66729119092932" lon="13.299873977880468"><ele>221.0</ele><time>2026-03-29T09:22:01Z</time></trkpt><trkpt lat="41.667399076205776" lon="13.299708516961235"><ele>221.0</ele><time>2026-03-29T09:22:02Z</time></trkpt><trkpt lat="41.66750928091284" lon="13.299506896716977"><ele>221.0</ele><time>2026-03-29T09:22:03Z</time></trkpt><trkpt lat="41.66763905413449" lon="13.299284215870106"><ele>221.0</ele><time>2026-03-29T09:22:04Z</time></trkpt><trkpt lat="41.66777750634292" lon="13.299048583300594"><ele>220.5</ele><time>2026-03-29T09:22:05Z</time></trkpt><trkpt lat="41.667910614988045" lon="13.29881085645707"><ele>220.0</ele><time>2026-03-29T09:22:06Z</time></trkpt><trkpt lat="41.66804474465269" lon="13.298562821422625"><ele>220.0</ele><time>2026-03-29T09:22:07Z</time></trkpt><trkpt lat="41.66818053212156" lon="13.29830558552449"><ele>220.0</ele><time>2026-03-29T09:22:08Z</time></trkpt><trkpt lat="41.668323919469955" lon="13.298048852375816"><ele>219.0</ele><time>2026-03-29T09:22:09Z</time></trkpt><trkpt lat="41.66846547221588" lon="13.297784693113787"><ele>218.0</ele><time>2026-03-29T09:22:10Z</time></trkpt><trkpt lat="41.66860911515775" lon="13.297512536452077"><ele>218.5</ele><time>2026-03-29T09:22:11Z</time></trkpt><trkpt lat="41.668755101728564" lon="13.29724038167545"><ele>219.0</ele><time>2026-03-29T09:22:12Z</time></trkpt><trkpt lat="41.66890218176527" lon="13.296967285374476"><ele>219.0</ele><time>2026-03-29T09:22:13Z</time></trkpt><trkpt lat="41.66904972253479" lon="13.296690736591158"><ele>219.0</ele><time>2026-03-29T09:22:14Z</time></trkpt><trkpt lat="41.669195227478404" lon="13.296418595827785"><ele>219.5</ele><time>2026-03-29T09:22:15Z</time></trkpt><trkpt lat="41.66933937030431" lon="13.296144777649687"><ele>220.0</ele><time>2026-03-29T09:22:16Z</time></trkpt><trkpt lat="41.66948366874809" lon="13.295873017018518"><ele>220.5</ele><time>2026-03-29T09:22:17Z</time></trkpt><trkpt lat="41.669627110190234" lon="13.29560014703475"><ele>221.0</ele><time>2026-03-29T09:22:18Z</time></trkpt><trkpt lat="41.669770548212455" lon="13.29532905481117"><ele>221.5</ele><time>2026-03-29T09:22:19Z</time></trkpt><trkpt lat="41.66991050439365" lon="13.295060340931146"><ele>222.0</ele><time>2026-03-29T09:22:20Z</time></trkpt><trkpt lat="41.6700496158649" lon="13.294792488658468"><ele>221.5</ele><time>2026-03-29T09:22:21Z</time></trkpt><trkpt lat="41.67019070539244" lon="13.29452138166859"><ele>221.0</ele><time>2026-03-29T09:22:22Z</time></trkpt><trkpt lat="41.67033206168532" lon="13.294253561327343"><ele>220.33333333333334</ele><time>2026-03-29T09:22:23Z</time></trkpt><trkpt lat="41.67046416005241" lon="13.294000544190464"><ele>219.66666666666669</ele><time>2026-03-29T09:22:24Z</time></trkpt><trkpt lat="41.67058249935742" lon="13.293772708790891"><ele>219.0</ele><time>2026-03-29T09:22:25Z</time></trkpt><trkpt lat="41.670694684615" lon="13.293560526077375"><ele>219.0</ele><time>2026-03-29T09:22:26Z</time></trkpt><trkpt lat="41.6708018294835" lon="13.293355139316333"><ele>219.0</ele><time>2026-03-29T09:22:27Z</time></trkpt><trkpt lat="41.67091037158504" lon="13.293146183558672"><ele>219.0</ele><time>2026-03-29T09:22:28Z</time></trkpt><trkpt lat="41.67102560601811" lon="13.292919527547374"><ele>219.5</ele><time>2026-03-29T09:22:29Z</time></trkpt><trkpt lat="41.67115866126395" lon="13.29265739958482"><ele>220.0</ele><time>2026-03-29T09:22:30Z</time></trkpt><trkpt lat="41.671307389687406" lon="13.292406520647763"><ele>219.5</ele><time>2026-03-29T09:22:31Z</time></trkpt><trkpt lat="41.671465542030376" lon="13.292139166173806"><ele>219.0</ele><time>2026-03-29T09:22:32Z</time></trkpt><trkpt lat="41.67164002227439" lon="13.291872427976731"><ele>219.0</ele><time>2026-03-29T09:22:33Z</time></trkpt><trkpt lat="41.671822913780545" lon="13.291612626168824"><ele>219.0</ele><time>2026-03-29T09:22:34Z</time></trkpt><trkpt lat="41.67201349370768" lon="13.29134891555165"><ele>221.0</ele><time>2026-03-29T09:22:35Z</time></trkpt><trkpt lat="41.67220680130452" lon="13.291083173354586"><ele>223.0</ele><time>2026-03-29T09:22:36Z</time></trkpt><trkpt lat="41.672400948823494" lon="13.290819492145141"><ele>221.5</ele><time>2026-03-29T09:22:37Z</time></trkpt><trkpt lat="41.67259600480735" lon="13.290558536908687"><ele>220.0</ele><time>2026-03-29T09:22:38Z</time></trkpt><trkpt lat="41.67278918485673" lon="13.290297879305209"><ele>220.0</ele><time>2026-03-29T09:22:39Z</time></trkpt><trkpt lat="41.67297964816925" lon="13.290039579215794"><ele>220.0</ele><time>2026-03-29T09:22:40Z</time></trkpt><trkpt lat="41.67316979680058" lon="13.289784595512481"><ele>220.5</ele><time>2026-03-29T09:22:41Z</time></trkpt><trkpt lat="41.67335569235097" lon="13.289539731207038"><ele>221.0</ele><time>2026-03-29T09:22:42Z</time></trkpt><trkpt lat="41.6735373418796" lon="13.289291969646044"><ele>221.0</ele><time>2026-03-29T09:22:43Z</time></trkpt><trkpt lat="41.67372230660019" lon="13.28904347158361"><ele>221.0</ele><time>2026-03-29T09:22:44Z</time></trkpt><trkpt lat="41.67390736123996" lon="13.28879426776755"><ele>221.0</ele><time>2026-03-29T09:22:45Z</time></trkpt><trkpt lat="41.674092519840585" lon="13.288536217916587"><ele>221.0</ele><time>2026-03-29T09:22:46Z</time></trkpt><trkpt lat="41.674281133585815" lon="13.288272324531736"><ele>221.0</ele><time>2026-03-29T09:22:47Z</time></trkpt><trkpt lat="41.67447278737665" lon="13.28800572171904"><ele>221.0</ele><time>2026-03-29T09:22:48Z</time></trkpt><trkpt lat="41.674663293695374" lon="13.2877389650038"><ele>221.0</ele><time>2026-03-29T09:22:49Z</time></trkpt><trkpt lat="41.67485846052459" lon="13.287472455347915"><ele>221.0</ele><time>2026-03-29T09:22:50Z</time></trkpt><trkpt lat="41.67505479919339" lon="13.287203524071655"><ele>220.5</ele><time>2026-03-29T09:22:51Z</time></trkpt><trkpt lat="41.67525311644432" lon="13.286932803565826"><ele>220.0</ele><time>2026-03-29T09:22:52Z</time></trkpt><trkpt lat="41.675455279273265" lon="13.286656543463147"><ele>220.5</ele><time>2026-03-29T09:22:53Z</time></trkpt><trkpt lat="41.67566232474902" lon="13.286376642279574"><ele>221.0</ele><time>2026-03-29T09:22:54Z</time></trkpt><trkpt lat="41.67587129337977" lon="13.286104314321921"><ele>221.0</ele><time>2026-03-29T09:22:55Z</time></trkpt><trkpt lat="41.67606775342109" lon="13.285835052372716"><ele>221.0</ele><time>2026-03-29T09:22:56Z</time></trkpt><trkpt lat="41.67624595574923" lon="13.28557533264053"><ele>221.5</ele><time>2026-03-29T09:22:57Z</time></trkpt><trkpt lat="41.676415716606904" lon="13.28530056757134"><ele>222.0</ele><time>2026-03-29T09:22:58Z</time></trkpt><trkpt lat="41.67656848171266" lon="13.285022634035146"><ele>221.5</ele><time>2026-03-29T09:22:59Z</time></trkpt><trkpt lat="41.6767125403659" lon="13.28474082501658"><ele>221.0</ele><time>2026-03-29T09:23:00Z</time></trkpt><trkpt lat="41.676851104930165" lon="13.284448403405005"><ele>221.0</ele><time>2026-03-29T09:23:01Z</time></trkpt><trkpt lat="41.676994187887985" lon="13.28415325325392"><ele>221.0</ele><time>2026-03-29T09:23:02Z</time></trkpt><trkpt lat="41.67713503396399" lon="13.283855427645957"><ele>221.5</ele><time>2026-03-29T09:23:03Z</time></trkpt><trkpt lat="41.677277097515294" lon="13.28355915291512"><ele>222.0</ele><time>2026-03-29T09:23:04Z</time></trkpt><trkpt lat="41.677420834827366" lon="13.283268600958563"><ele>221.5</ele><time>2026-03-29T09:23:05Z</time></trkpt><trkpt lat="41.677566443101654" lon="13.282984553801404"><ele>221.0</ele><time>2026-03-29T09:23:06Z</time></trkpt><trkpt lat="41.677713306751144" lon="13.282704382578524"><ele>221.5</ele><time>2026-03-29T09:23:07Z</time></trkpt><trkpt lat="41.67785948447469" lon="13.28243280569588"><ele>222.0</ele><time>2026-03-29T09:23:08Z</time></trkpt><trkpt lat="41.67799530969414" lon="13.28218318265182"><ele>222.0</ele><time>2026-03-29T09:23:09Z</time></trkpt><trkpt lat="41.67812159630901" lon="13.281947193743049"><ele>222.0</ele><time>2026-03-29T09:23:10Z</time></trkpt><trkpt lat="41.67823517450838" lon="13.281731521180738"><ele>222.0</ele><time>2026-03-29T09:23:11Z</time></trkpt><trkpt lat="41.67833811474365" lon="13.281530446105283"><ele>222.0</ele><time>2026-03-29T09:23:12Z</time></trkpt><trkpt lat="41.67844261929034" lon="13.28132314150161"><ele>222.0</ele><time>2026-03-29T09:23:13Z</time></trkpt><trkpt lat="41.678543116339924" lon="13.281129364227667"><ele>222.0</ele><time>2026-03-29T09:23:14Z</time></trkpt><trkpt lat="41.678640218543144" lon="13.280917313266759"><ele>222.0</ele><time>2026-03-29T09:23:15Z</time></trkpt><trkpt lat="41.6787452481211" lon="13.280706851081531"><ele>222.0</ele><time>2026-03-29T09:23:16Z</time></trkpt><trkpt lat="41.67885580144596" lon="13.280496907917808"><ele>222.0</ele><time>2026-03-29T09:23:17Z</time></trkpt><trkpt lat="41.67896825847027" lon="13.280285861878646"><ele>222.0</ele><time>2026-03-29T09:23:18Z</time></trkpt><trkpt lat="41.67908280397284" lon="13.280078990086253"><ele>222.0</ele><time>2026-03-29T09:23:19Z</time></trkpt><trkpt lat="41.67919385515821" lon="13.279877024723996"><ele>222.0</ele><time>2026-03-29T09:23:20Z</time></trkpt><trkpt lat="41.67929606140999" lon="13.279695762471759"><ele>222.0</ele><time>2026-03-29T09:23:21Z</time></trkpt><trkpt lat="41.6793956335399" lon="13.279518026308319"><ele>222.0</ele><time>2026-03-29T09:23:22Z</time></trkpt><trkpt lat="41.679497925989764" lon="13.27933669249712"><ele>222.0</ele><time>2026-03-29T09:23:23Z</time></trkpt><trkpt lat="41.679593488903436" lon="13.279165996043238"><ele>222.33333333333331</ele><time>2026-03-29T09:23:24Z</time></trkpt><trkpt lat="41.67969723238562" lon="13.278977132734637"><ele>222.66666666666666</ele><time>2026-03-29T09:23:25Z</time></trkpt><trkpt lat="41.679810656273325" lon="13.27877681900025"><ele>223.0</ele><time>2026-03-29T09:23:26Z</time></trkpt><trkpt lat="41.679924936468986" lon="13.278556119965334"><ele>223.0</ele><time>2026-03-29T09:23:27Z</time></trkpt><trkpt lat="41.68005905222923" lon="13.278312958313501"><ele>223.0</ele><time>2026-03-29T09:23:28Z</time></trkpt><trkpt lat="41.68021956847521" lon="13.278051489964463"><ele>223.0</ele><time>2026-03-29T09:23:29Z</time></trkpt><trkpt lat="41.680364880672386" lon="13.277797580118577"><ele>223.0</ele><time>2026-03-29T09:23:30Z</time></trkpt><trkpt lat="41.68049100665928" lon="13.277575730707671"><ele>223.0</ele><time>2026-03-29T09:23:31Z</time></trkpt><trkpt lat="41.68060829594012" lon="13.27737497861012"><ele>223.0</ele><time>2026-03-29T09:23:32Z</time></trkpt><trkpt lat="41.6807237259108" lon="13.277189993675595"><ele>223.0</ele><time>2026-03-29T09:23:33Z</time></trkpt><trkpt lat="41.680830982130175" lon="13.277016224692003"><ele>223.0</ele><time>2026-03-29T09:23:34Z</time></trkpt><trkpt lat="41.68093256536473" lon="13.276844449843718"><ele>223.0</ele><time>2026-03-29T09:23:35Z</time></trkpt><trkpt lat="41.68104010844656" lon="13.276643143404561"><ele>223.0</ele><time>2026-03-29T09:23:36Z</time></trkpt><trkpt lat="41.681151927510975" lon="13.276425013504385"><ele>223.0</ele><time>2026-03-29T09:23:37Z</time></trkpt><trkpt lat="41.68126655884333" lon="13.27620575265407"><ele>223.33333333333331</ele><time>2026-03-29T09:23:38Z</time></trkpt><trkpt lat="41.68135978568495" lon="13.275984391779827"><ele>223.66666666666669</ele><time>2026-03-29T09:23:39Z</time></trkpt><trkpt lat="41.681437519397385" lon="13.275784735125187"><ele>224.0</ele><time>2026-03-29T09:23:40Z</time></trkpt><trkpt lat="41.681509956379124" lon="13.275589093285333"><ele>224.0</ele><time>2026-03-29T09:23:41Z</time></trkpt><trkpt lat="41.68159515972392" lon="13.275371601006803"><ele>224.0</ele><time>2026-03-29T09:23:42Z</time></trkpt><trkpt lat="41.6816976299852" lon="13.27515249878442"><ele>224.0</ele><time>2026-03-29T09:23:43Z</time></trkpt><trkpt lat="41.68180509778443" lon="13.274925022244426"><ele>224.33333333333334</ele><time>2026-03-29T09:23:44Z</time></trkpt><trkpt lat="41.681910045885644" lon="13.274689156105849"><ele>224.66666666666669</ele><time>2026-03-29T09:23:45Z</time></trkpt><trkpt lat="41.68203122033896" lon="13.274436448756829"><ele>225.0</ele><time>2026-03-29T09:23:46Z</time></trkpt><trkpt lat="41.68214673076107" lon="13.274179525097118"><ele>226.0</ele><time>2026-03-29T09:23:47Z</time></trkpt><trkpt lat="41.68225474477422" lon="13.273918021536012"><ele>227.0</ele><time>2026-03-29T09:23:48Z</time></trkpt><trkpt lat="41.68235509153558" lon="13.273673546422092"><ele>228.0</ele><time>2026-03-29T09:23:49Z</time></trkpt><trkpt lat="41.68245661617855" lon="13.273440771618866"><ele>228.0</ele><time>2026-03-29T09:23:50Z</time></trkpt><trkpt lat="41.682562321454014" lon="13.273195690420541"><ele>228.0</ele><time>2026-03-29T09:23:51Z</time></trkpt><trkpt lat="41.68267356645767" lon="13.272933578055612"><ele>228.0</ele><time>2026-03-29T09:23:52Z</time></trkpt><trkpt lat="41.68279396090274" lon="13.272669709231591"><ele>231.0</ele><time>2026-03-29T09:23:53Z</time></trkpt><trkpt lat="41.68292256670104" lon="13.272402561656696"><ele>234.0</ele><time>2026-03-29T09:23:54Z</time></trkpt><trkpt lat="41.68306228662445" lon="13.272128912006806"><ele>234.0</ele><time>2026-03-29T09:23:55Z</time></trkpt><trkpt lat="41.683216453674575" lon="13.271855198032602"><ele>234.0</ele><time>2026-03-29T09:23:56Z</time></trkpt><trkpt lat="41.68338009982482" lon="13.271587819735394"><ele>234.0</ele><time>2026-03-29T09:23:57Z</time></trkpt><trkpt lat="41.68355528929456" lon="13.271328671109075"><ele>234.0</ele><time>2026-03-29T09:23:58Z</time></trkpt><trkpt lat="41.68373804825364" lon="13.271074299092968"><ele>234.5</ele><time>2026-03-29T09:23:59Z</time></trkpt><trkpt lat="41.683918754052456" lon="13.270816327846822"><ele>235.0</ele><time>2026-03-29T09:24:00Z</time></trkpt><trkpt lat="41.684095049660996" lon="13.270550520996688"><ele>235.0</ele><time>2026-03-29T09:24:01Z</time></trkpt><trkpt lat="41.68426955723642" lon="13.270288377113644"><ele>235.0</ele><time>2026-03-29T09:24:02Z</time></trkpt><trkpt lat="41.684427441142866" lon="13.270048424927891"><ele>235.0</ele><time>2026-03-29T09:24:03Z</time></trkpt><trkpt lat="41.684578519189714" lon="13.269822578880833"><ele>235.0</ele><time>2026-03-29T09:24:04Z</time></trkpt><trkpt lat="41.684727665190884" lon="13.26960412666339"><ele>235.0</ele><time>2026-03-29T09:24:05Z</time></trkpt><trkpt lat="41.684864894557734" lon="13.26940106105759"><ele>234.66666666666666</ele><time>2026-03-29T09:24:06Z</time></trkpt><trkpt lat="41.685002691019946" lon="13.269193987291644"><ele>234.33333333333331</ele><time>2026-03-29T09:24:07Z</time></trkpt><trkpt lat="41.68513979217458" lon="13.268983206566432"><ele>234.0</ele><time>2026-03-29T09:24:08Z</time></trkpt><trkpt lat="41.68526346084169" lon="13.268785478815197"><ele>235.0</ele><time>2026-03-29T09:24:09Z</time></trkpt><trkpt lat="41.6853752978341" lon="13.26859994051137"><ele>236.0</ele><time>2026-03-29T09:24:10Z</time></trkpt><trkpt lat="41.68547833804325" lon="13.26842463960862"><ele>237.0</ele><time>2026-03-29T09:24:11Z</time></trkpt><trkpt lat="41.68557230873514" lon="13.268261014124954"><ele>237.0</ele><time>2026-03-29T09:24:12Z</time></trkpt><trkpt lat="41.68565983289538" lon="13.268107012454541"><ele>237.0</ele><time>2026-03-29T09:24:13Z</time></trkpt><trkpt lat="41.68573371699373" lon="13.267970145961575"><ele>237.0</ele><time>2026-03-29T09:24:14Z</time></trkpt><trkpt lat="41.68579029276764" lon="13.26785028402465"><ele>237.0</ele><time>2026-03-29T09:24:15Z</time></trkpt><trkpt lat="41.68583858242172" lon="13.267733561366041"><ele>237.0</ele><time>2026-03-29T09:24:16Z</time></trkpt><trkpt lat="41.6858893508222" lon="13.267599184635511"><ele>237.0</ele><time>2026-03-29T09:24:17Z</time></trkpt><trkpt lat="41.68595389586995" lon="13.267450012389965"><ele>237.0</ele><time>2026-03-29T09:24:18Z</time></trkpt><trkpt lat="41.68602841059747" lon="13.26728840401947"><ele>237.0</ele><time>2026-03-29T09:24:19Z</time></trkpt><trkpt lat="41.68609307379746" lon="13.267139865256146"><ele>236.75</ele><time>2026-03-29T09:24:20Z</time></trkpt><trkpt lat="41.68614870259847" lon="13.267012434784643"><ele>236.5</ele><time>2026-03-29T09:24:21Z</time></trkpt><trkpt lat="41.68620548965242" lon="13.266869511734992"><ele>236.25</ele><time>2026-03-29T09:24:22Z</time></trkpt><trkpt lat="41.68626545612229" lon="13.26669851543495"><ele>236.0</ele><time>2026-03-29T09:24:23Z</time></trkpt><trkpt lat="41.68632361490254" lon="13.26650250862243"><ele>236.0</ele><time>2026-03-29T09:24:24Z</time></trkpt><trkpt lat="41.68637184669267" lon="13.266319260158816"><ele>236.0</ele><time>2026-03-29T09:24:25Z</time></trkpt><trkpt lat="41.686403648728145" lon="13.266164848610988"><ele>236.0</ele><time>2026-03-29T09:24:26Z</time></trkpt><trkpt lat="41.68642958972401" lon="13.266014154892966"><ele>236.0</ele><time>2026-03-29T09:24:27Z</time></trkpt><trkpt lat="41.68644394752692" lon="13.265829798134599"><ele>236.33333333333334</ele><time>2026-03-29T09:24:28Z</time></trkpt><trkpt lat="41.68645466305648" lon="13.2656061656453"><ele>236.66666666666669</ele><time>2026-03-29T09:24:29Z</time></trkpt><trkpt lat="41.686481143680645" lon="13.265364845537055"><ele>237.0</ele><time>2026-03-29T09:24:30Z</time></trkpt><trkpt lat="41.68648225625306" lon="13.265110490295093"><ele>237.0</ele><time>2026-03-29T09:24:31Z</time></trkpt><trkpt lat="41.68646324862689" lon="13.264845942507058"><ele>237.0</ele><time>2026-03-29T09:24:32Z</time></trkpt><trkpt lat="41.68643961912656" lon="13.26455510117955"><ele>237.0</ele><time>2026-03-29T09:24:33Z</time></trkpt><trkpt lat="41.68641374671255" lon="13.26424634064601"><ele>236.0</ele><time>2026-03-29T09:24:34Z</time></trkpt><trkpt lat="41.686384882550236" lon="13.26391321882631"><ele>235.0</ele><time>2026-03-29T09:24:35Z</time></trkpt><trkpt lat="41.68635734070158" lon="13.263561548957151"><ele>235.0</ele><time>2026-03-29T09:24:36Z</time></trkpt><trkpt lat="41.686324719475294" lon="13.263192692571453"><ele>235.0</ele><time>2026-03-29T09:24:37Z</time></trkpt><trkpt lat="41.68629141300386" lon="13.262821313051948"><ele>235.0</ele><time>2026-03-29T09:24:38Z</time></trkpt><trkpt lat="41.68626177036559" lon="13.262440718494673"><ele>235.0</ele><time>2026-03-29T09:24:39Z</time></trkpt><trkpt lat="41.68623203150027" lon="13.262056602016756"><ele>234.5</ele><time>2026-03-29T09:24:40Z</time></trkpt><trkpt lat="41.6861989711176" lon="13.2616687170393"><ele>234.0</ele><time>2026-03-29T09:24:41Z</time></trkpt><trkpt lat="41.686164397587085" lon="13.261281964328893"><ele>234.0</ele><time>2026-03-29T09:24:42Z</time></trkpt><trkpt lat="41.68613168202189" lon="13.260892484429627"><ele>234.0</ele><time>2026-03-29T09:24:43Z</time></trkpt><trkpt lat="41.68609789711258" lon="13.260501763468165"><ele>234.0</ele><time>2026-03-29T09:24:44Z</time></trkpt><trkpt lat="41.686065098007425" lon="13.26011230265258"><ele>234.0</ele><time>2026-03-29T09:24:45Z</time></trkpt><trkpt lat="41.68603178490883" lon="13.259716720803757"><ele>234.0</ele><time>2026-03-29T09:24:46Z</time></trkpt><trkpt lat="41.68599771568103" lon="13.259313312390386"><ele>234.0</ele><time>2026-03-29T09:24:47Z</time></trkpt><trkpt lat="41.68596401018254" lon="13.25890987619152"><ele>234.0</ele><time>2026-03-29T09:24:48Z</time></trkpt><trkpt lat="41.68593134351882" lon="13.25850541672325"><ele>234.0</ele><time>2026-03-29T09:24:49Z</time></trkpt><trkpt lat="41.68589887008468" lon="13.258112375525057"><ele>237.0</ele><time>2026-03-29T09:24:50Z</time></trkpt><trkpt lat="41.68586805994587" lon="13.257753686086831"><ele>240.0</ele><time>2026-03-29T09:24:51Z</time></trkpt><trkpt lat="41.68583641948285" lon="13.257417442706362"><ele>242.0</ele><time>2026-03-29T09:24:52Z</time></trkpt><trkpt lat="41.68580876565135" lon="13.257103899752678"><ele>244.0</ele><time>2026-03-29T09:24:53Z</time></trkpt><trkpt lat="41.6857865195605" lon="13.256806901513118"><ele>244.0</ele><time>2026-03-29T09:24:54Z</time></trkpt><trkpt lat="41.685768889294245" lon="13.256529762275292"><ele>244.0</ele><time>2026-03-29T09:24:55Z</time></trkpt><trkpt lat="41.685760035016486" lon="13.256272238650824"><ele>244.0</ele><time>2026-03-29T09:24:56Z</time></trkpt><trkpt lat="41.68576619413813" lon="13.256037601916807"><ele>244.5</ele><time>2026-03-29T09:24:57Z</time></trkpt><trkpt lat="41.68578123212473" lon="13.25582373908484"><ele>245.0</ele><time>2026-03-29T09:24:58Z</time></trkpt><trkpt lat="41.68580335706284" lon="13.255629286529944"><ele>245.5</ele><time>2026-03-29T09:24:59Z</time></trkpt><trkpt lat="41.68582906104214" lon="13.255448072327127"><ele>246.0</ele><time>2026-03-29T09:25:00Z</time></trkpt><trkpt lat="41.68585586275765" lon="13.255281394123681"><ele>245.4</ele><time>2026-03-29T09:25:01Z</time></trkpt><trkpt lat="41.68587853993323" lon="13.255132093342977"><ele>244.8</ele><time>2026-03-29T09:25:02Z</time></trkpt><trkpt lat="41.685896049133895" lon="13.25500290177037"><ele>244.20000000000002</ele><time>2026-03-29T09:25:03Z</time></trkpt><trkpt lat="41.68591750177277" lon="13.25489682966833"><ele>243.60000000000002</ele><time>2026-03-29T09:25:04Z</time></trkpt><trkpt lat="41.68595393907263" lon="13.254784940616588"><ele>243.0</ele><time>2026-03-29T09:25:05Z</time></trkpt><trkpt lat="41.685993418659066" lon="13.254680747862158"><ele>243.0</ele><time>2026-03-29T09:25:06Z</time></trkpt><trkpt lat="41.6860178773675" lon="13.254581542406685"><ele>243.0</ele><time>2026-03-29T09:25:07Z</time></trkpt><trkpt lat="41.68601782088946" lon="13.254466764138524"><ele>243.0</ele><time>2026-03-29T09:25:08Z</time></trkpt><trkpt lat="41.68600744577126" lon="13.254299834001365"><ele>243.0</ele><time>2026-03-29T09:25:09Z</time></trkpt><trkpt lat="41.68602658310739" lon="13.254077445686958"><ele>242.33333333333331</ele><time>2026-03-29T09:25:10Z</time></trkpt><trkpt lat="41.68605868142652" lon="13.253853878135654"><ele>241.66666666666666</ele><time>2026-03-29T09:25:11Z</time></trkpt><trkpt lat="41.686094381383455" lon="13.253632688516548"><ele>241.0</ele><time>2026-03-29T09:25:12Z</time></trkpt><trkpt lat="41.68613084538005" lon="13.253394166464114"><ele>244.66666666666666</ele><time>2026-03-29T09:25:13Z</time></trkpt><trkpt lat="41.68617077019467" lon="13.253139049283913"><ele>248.33333333333331</ele><time>2026-03-29T09:25:14Z</time></trkpt><trkpt lat="41.686214625116875" lon="13.252870402243639"><ele>252.0</ele><time>2026-03-29T09:25:15Z</time></trkpt><trkpt lat="41.686257808543616" lon="13.25257908470137"><ele>251.66666666666669</ele><time>2026-03-29T09:25:16Z</time></trkpt><trkpt lat="41.68629693104993" lon="13.252305696600729"><ele>251.33333333333334</ele><time>2026-03-29T09:25:17Z</time></trkpt><trkpt lat="41.68634310233857" lon="13.252039663573688"><ele>251.0</ele><time>2026-03-29T09:25:18Z</time></trkpt><trkpt lat="41.686409224224654" lon="13.25179539649484"><ele>251.0</ele><time>2026-03-29T09:25:19Z</time></trkpt><trkpt lat="41.68648934776667" lon="13.251567679876182"><ele>251.0</ele><time>2026-03-29T09:25:20Z</time></trkpt><trkpt lat="41.686589109468805" lon="13.251313816082002"><ele>251.0</ele><time>2026-03-29T09:25:21Z</time></trkpt><trkpt lat="41.686730495489996" lon="13.251043139908365"><ele>251.5</ele><time>2026-03-29T09:25:22Z</time></trkpt><trkpt lat="41.68690835746844" lon="13.250774098318654"><ele>252.0</ele><time>2026-03-29T09:25:23Z</time></trkpt><trkpt lat="41.687077618699035" lon="13.25050258512087"><ele>252.0</ele><time>2026-03-29T09:25:24Z</time></trkpt><trkpt lat="41.68724818144112" lon="13.250217742801528"><ele>252.0</ele><time>2026-03-29T09:25:25Z</time></trkpt><trkpt lat="41.687420902771464" lon="13.249926810222838"><ele>252.0</ele><time>2026-03-29T09:25:26Z</time></trkpt><trkpt lat="41.687593531498365" lon="13.249633033147177"><ele>252.0</ele><time>2026-03-29T09:25:27Z</time></trkpt><trkpt lat="41.687765825748016" lon="13.249335973520447"><ele>254.0</ele><time>2026-03-29T09:25:28Z</time></trkpt><trkpt lat="41.68793987670896" lon="13.249036005392913"><ele>256.0</ele><time>2026-03-29T09:25:29Z</time></trkpt><trkpt lat="41.68811312907008" lon="13.248730597353513"><ele>256.0</ele><time>2026-03-29T09:25:30Z</time></trkpt><trkpt lat="41.68829406084334" lon="13.248414620352783"><ele>256.0</ele><time>2026-03-29T09:25:31Z</time></trkpt><trkpt lat="41.68848471465081" lon="13.248085170368453"><ele>260.0</ele><time>2026-03-29T09:25:32Z</time></trkpt><trkpt lat="41.68866468204044" lon="13.247772727515311"><ele>264.0</ele><time>2026-03-29T09:25:33Z</time></trkpt><trkpt lat="41.68883708724374" lon="13.247472070027069"><ele>264.0</ele><time>2026-03-29T09:25:34Z</time></trkpt><trkpt lat="41.68902229675538" lon="13.247149412716674"><ele>264.0</ele><time>2026-03-29T09:25:35Z</time></trkpt><trkpt lat="41.68922415454438" lon="13.246807227262554"><ele>268.5</ele><time>2026-03-29T09:25:36Z</time></trkpt><trkpt lat="41.689446002345306" lon="13.246469290846283"><ele>273.0</ele><time>2026-03-29T09:25:37Z</time></trkpt><trkpt lat="41.689675832859336" lon="13.246133110582752"><ele>273.0</ele><time>2026-03-29T09:25:38Z</time></trkpt><trkpt lat="41.68990387206931" lon="13.245812674916463"><ele>273.0</ele><time>2026-03-29T09:25:39Z</time></trkpt><trkpt lat="41.690121150314305" lon="13.245504125343677"><ele>282.0</ele><time>2026-03-29T09:25:40Z</time></trkpt><trkpt lat="41.69033160299589" lon="13.245208472296726"><ele>291.0</ele><time>2026-03-29T09:25:41Z</time></trkpt><trkpt lat="41.6905287509042" lon="13.24492673995219"><ele>292.0</ele><time>2026-03-29T09:25:42Z</time></trkpt><trkpt lat="41.69072368809312" lon="13.244654372127853"><ele>293.0</ele><time>2026-03-29T09:25:43Z</time></trkpt><trkpt lat="41.69091682239114" lon="13.244390730066277"><ele>294.0</ele><time>2026-03-29T09:25:44Z</time></trkpt><trkpt lat="41.69110632234283" lon="13.244126758682416"><ele>295.0</ele><time>2026-03-29T09:25:45Z</time></trkpt><trkpt lat="41.69129143978027" lon="13.24386456435345"><ele>289.5</ele><time>2026-03-29T09:25:46Z</time></trkpt><trkpt lat="41.6914773484821" lon="13.243599506294872"><ele>284.0</ele><time>2026-03-29T09:25:47Z</time></trkpt><trkpt lat="41.691667027173104" lon="13.243331580958714"><ele>285.0</ele><time>2026-03-29T09:25:48Z</time></trkpt><trkpt lat="41.69186103258889" lon="13.243062741528368"><ele>286.0</ele><time>2026-03-29T09:25:49Z</time></trkpt><trkpt lat="41.69205719601783" lon="13.242795848123393"><ele>281.0</ele><time>2026-03-29T09:25:50Z</time></trkpt><trkpt lat="41.69225140655193" lon="13.242523546661744"><ele>276.0</ele><time>2026-03-29T09:25:51Z</time></trkpt><trkpt lat="41.69244498176922" lon="13.24224421721529"><ele>272.0</ele><time>2026-03-29T09:25:52Z</time></trkpt><trkpt lat="41.692637972081116" lon="13.24196584966963"><ele>268.0</ele><time>2026-03-29T09:25:53Z</time></trkpt><trkpt lat="41.692832644056764" lon="13.241691182222004"><ele>265.0</ele><time>2026-03-29T09:25:54Z</time></trkpt><trkpt lat="41.693029089645705" lon="13.241420583863343"><ele>262.0</ele><time>2026-03-29T09:25:55Z</time></trkpt><trkpt lat="41.69322644164125" lon="13.24114822297448"><ele>262.0</ele><time>2026-03-29T09:25:56Z</time></trkpt><trkpt lat="41.69342841739105" lon="13.240867647112001"><ele>262.0</ele><time>2026-03-29T09:25:57Z</time></trkpt><trkpt lat="41.69363919347097" lon="13.24057877984694"><ele>257.0</ele><time>2026-03-29T09:25:58Z</time></trkpt><trkpt lat="41.69385910883006" lon="13.240278003563455"><ele>252.0</ele><time>2026-03-29T09:25:59Z</time></trkpt><trkpt lat="41.69405759071878" lon="13.240002773676217"><ele>253.0</ele><time>2026-03-29T09:26:00Z</time></trkpt><trkpt lat="41.69424442107816" lon="13.239742773796005"><ele>254.0</ele><time>2026-03-29T09:26:01Z</time></trkpt><trkpt lat="41.694431374285244" lon="13.239479228049504"><ele>251.0</ele><time>2026-03-29T09:26:02Z</time></trkpt><trkpt lat="41.694619489647025" lon="13.239217231092425"><ele>248.0</ele><time>2026-03-29T09:26:03Z</time></trkpt><trkpt lat="41.69480094299208" lon="13.238955255349468"><ele>247.5</ele><time>2026-03-29T09:26:04Z</time></trkpt><trkpt lat="41.694970275215894" lon="13.238681280833434"><ele>247.0</ele><time>2026-03-29T09:26:05Z</time></trkpt><trkpt lat="41.69515653959764" lon="13.238432700579255"><ele>247.0</ele><time>2026-03-29T09:26:06Z</time></trkpt><trkpt lat="41.69525645524064" lon="13.238089743831413"><ele>247.0</ele><time>2026-03-29T09:26:07Z</time></trkpt><trkpt lat="41.695349365341755" lon="13.237793511657268"><ele>247.0</ele><time>2026-03-29T09:26:08Z</time></trkpt><trkpt lat="41.69542823936169" lon="13.237511154652221"><ele>247.0</ele><time>2026-03-29T09:26:09Z</time></trkpt><trkpt lat="41.69549230020838" lon="13.237259031975661"><ele>247.0</ele><time>2026-03-29T09:26:10Z</time></trkpt><trkpt lat="41.695544068898926" lon="13.237040259173074"><ele>247.0</ele><time>2026-03-29T09:26:11Z</time></trkpt><trkpt lat="41.69558571001213" lon="13.236870367518554"><ele>247.0</ele><time>2026-03-29T09:26:12Z</time></trkpt><trkpt lat="41.695624585480694" lon="13.236723262481148"><ele>247.0</ele><time>2026-03-29T09:26:13Z</time></trkpt><trkpt lat="41.69566357877043" lon="13.236605101288685"><ele>247.0</ele><time>2026-03-29T09:26:14Z</time></trkpt><trkpt lat="41.69572467693704" lon="13.236511286447596"><ele>247.0</ele><time>2026-03-29T09:26:15Z</time></trkpt><trkpt lat="41.69581525331087" lon="13.236442343793136"><ele>247.5</ele><time>2026-03-29T09:26:16Z</time></trkpt><trkpt lat="41.69588602365977" lon="13.236336769367126"><ele>248.0</ele><time>2026-03-29T09:26:17Z</time></trkpt><trkpt lat="41.69590816868339" lon="13.236202033523181"><ele>248.5</ele><time>2026-03-29T09:26:18Z</time></trkpt><trkpt lat="41.69588593549774" lon="13.236030366240549"><ele>249.0</ele><time>2026-03-29T09:26:19Z</time></trkpt><trkpt lat="41.69583799218877" lon="13.235796448068845"><ele>248.66666666666669</ele><time>2026-03-29T09:26:20Z</time></trkpt><trkpt lat="41.695846437630976" lon="13.235522421550137"><ele>248.33333333333334</ele><time>2026-03-29T09:26:21Z</time></trkpt><trkpt lat="41.69591185266781" lon="13.23522356113192"><ele>248.0</ele><time>2026-03-29T09:26:22Z</time></trkpt><trkpt lat="41.69597825435556" lon="13.234896453829911"><ele>247.5</ele><time>2026-03-29T09:26:23Z</time></trkpt><trkpt lat="41.69602888914363" lon="13.23453160428742"><ele>247.0</ele><time>2026-03-29T09:26:24Z</time></trkpt><trkpt lat="41.69607217631516" lon="13.234173947844077"><ele>249.33333333333331</ele><time>2026-03-29T09:26:25Z</time></trkpt><trkpt lat="41.69612242274493" lon="13.233867868557672"><ele>251.66666666666669</ele><time>2026-03-29T09:26:26Z</time></trkpt><trkpt lat="41.69617847218749" lon="13.233617687795686"><ele>254.0</ele><time>2026-03-29T09:26:27Z</time></trkpt><trkpt lat="41.69625584772896" lon="13.233403382330199"><ele>254.0</ele><time>2026-03-29T09:26:28Z</time></trkpt><trkpt lat="41.69635827957235" lon="13.23319911568532"><ele>254.0</ele><time>2026-03-29T09:26:29Z</time></trkpt><trkpt lat="41.696496893477196" lon="13.233015207295079"><ele>254.0</ele><time>2026-03-29T09:26:30Z</time></trkpt><trkpt lat="41.6966743161396" lon="13.232827799549609"><ele>251.5</ele><time>2026-03-29T09:26:31Z</time></trkpt><trkpt lat="41.69685733413331" lon="13.232638922737483"><ele>249.0</ele><time>2026-03-29T09:26:32Z</time></trkpt><trkpt lat="41.69703966580938" lon="13.232439212435713"><ele>247.66666666666669</ele><time>2026-03-29T09:26:33Z</time></trkpt><trkpt lat="41.69719326110477" lon="13.232241894201982"><ele>246.33333333333334</ele><time>2026-03-29T09:26:34Z</time></trkpt><trkpt lat="41.6973427902043" lon="13.232062854469289"><ele>245.0</ele><time>2026-03-29T09:26:35Z</time></trkpt><trkpt lat="41.697488419723086" lon="13.23188006061713"><ele>245.0</ele><time>2026-03-29T09:26:36Z</time></trkpt><trkpt lat="41.69762875125003" lon="13.23167568965209"><ele>245.0</ele><time>2026-03-29T09:26:37Z</time></trkpt><trkpt lat="41.697736612683585" lon="13.23142164198095"><ele>245.0</ele><time>2026-03-29T09:26:38Z</time></trkpt><trkpt lat="41.69783341475425" lon="13.231137275623478"><ele>247.0</ele><time>2026-03-29T09:26:39Z</time></trkpt><trkpt lat="41.69792018544627" lon="13.230811607393434"><ele>249.0</ele><time>2026-03-29T09:26:40Z</time></trkpt><trkpt lat="41.69801339578166" lon="13.230465025620171"><ele>250.0</ele><time>2026-03-29T09:26:41Z</time></trkpt><trkpt lat="41.698089997403116" lon="13.23015725552201"><ele>251.0</ele><time>2026-03-29T09:26:42Z</time></trkpt><trkpt lat="41.69815575902887" lon="13.229870962901721"><ele>250.66666666666669</ele><time>2026-03-29T09:26:43Z</time></trkpt><trkpt lat="41.69821527974474" lon="13.229602310982965"><ele>250.33333333333331</ele><time>2026-03-29T09:26:44Z</time></trkpt><trkpt lat="41.69827407919207" lon="13.229356562304833"><ele>250.0</ele><time>2026-03-29T09:26:45Z</time></trkpt><trkpt lat="41.698344506798946" lon="13.229110806696998"><ele>251.33333333333331</ele><time>2026-03-29T09:26:46Z</time></trkpt><trkpt lat="41.6984155569981" lon="13.22886174422788"><ele>252.66666666666669</ele><time>2026-03-29T09:26:47Z</time></trkpt><trkpt lat="41.69849576815566" lon="13.228621280881054"><ele>254.0</ele><time>2026-03-29T09:26:48Z</time></trkpt><trkpt lat="41.69859054625043" lon="13.228385816438655"><ele>254.0</ele><time>2026-03-29T09:26:49Z</time></trkpt><trkpt lat="41.698689370422656" lon="13.228171494160048"><ele>254.0</ele><time>2026-03-29T09:26:50Z</time></trkpt><trkpt lat="41.698790342825916" lon="13.227972422849255"><ele>254.0</ele><time>2026-03-29T09:26:51Z</time></trkpt><trkpt lat="41.69891222768335" lon="13.227772154777364"><ele>249.0</ele><time>2026-03-29T09:26:52Z</time></trkpt><trkpt lat="41.69906271047367" lon="13.227544937019273"><ele>244.0</ele><time>2026-03-29T09:26:53Z</time></trkpt><trkpt lat="41.6992381977663" lon="13.227290981147549"><ele>243.0</ele><time>2026-03-29T09:26:54Z</time></trkpt><trkpt lat="41.69941894748789" lon="13.22708752194913"><ele>242.0</ele><time>2026-03-29T09:26:55Z</time></trkpt><trkpt lat="41.69959003990993" lon="13.226935614824107"><ele>241.0</ele><time>2026-03-29T09:26:56Z</time></trkpt><trkpt lat="41.69976351040518" lon="13.226829034418055"><ele>241.0</ele><time>2026-03-29T09:26:57Z</time></trkpt><trkpt lat="41.699963575798634" lon="13.226773350101238"><ele>241.0</ele><time>2026-03-29T09:26:58Z</time></trkpt><trkpt lat="41.70018634220812" lon="13.226770858207992"><ele>241.0</ele><time>2026-03-29T09:26:59Z</time></trkpt><trkpt lat="41.70042641764581" lon="13.226765155566985"><ele>240.0</ele><time>2026-03-29T09:27:00Z</time></trkpt><trkpt lat="41.7006798670077" lon="13.22671767933657"><ele>239.0</ele><time>2026-03-29T09:27:01Z</time></trkpt><trkpt lat="41.700948427993595" lon="13.226631725074487"><ele>238.5</ele><time>2026-03-29T09:27:02Z</time></trkpt><trkpt lat="41.70120402809924" lon="13.226523156627858"><ele>238.0</ele><time>2026-03-29T09:27:03Z</time></trkpt><trkpt lat="41.701454608473334" lon="13.226411424422192"><ele>238.0</ele><time>2026-03-29T09:27:04Z</time></trkpt><trkpt lat="41.70170423152015" lon="13.226306526570676"><ele>238.0</ele><time>2026-03-29T09:27:05Z</time></trkpt><trkpt lat="41.70195230833474" lon="13.226205868686908"><ele>237.0</ele><time>2026-03-29T09:27:06Z</time></trkpt><trkpt lat="41.70220123320506" lon="13.226099153861595"><ele>236.0</ele><time>2026-03-29T09:27:07Z</time></trkpt><trkpt lat="41.70245293231596" lon="13.225989580184764"><ele>236.0</ele><time>2026-03-29T09:27:08Z</time></trkpt><trkpt lat="41.70270354782799" lon="13.225882199432201"><ele>236.0</ele><time>2026-03-29T09:27:09Z</time></trkpt><trkpt lat="41.702951744287326" lon="13.225779232858985"><ele>236.0</ele><time>2026-03-29T09:27:10Z</time></trkpt><trkpt lat="41.70319900792241" lon="13.225672817271032"><ele>236.0</ele><time>2026-03-29T09:27:11Z</time></trkpt><trkpt lat="41.70344465772542" lon="13.225565896641232"><ele>235.5</ele><time>2026-03-29T09:27:12Z</time></trkpt><trkpt lat="41.703690415994686" lon="13.225459294517108"><ele>235.0</ele><time>2026-03-29T09:27:13Z</time></trkpt><trkpt lat="41.70393649076955" lon="13.225355365129287"><ele>235.0</ele><time>2026-03-29T09:27:14Z</time></trkpt><trkpt lat="41.704183246698925" lon="13.225252754893111"><ele>235.0</ele><time>2026-03-29T09:27:15Z</time></trkpt><trkpt lat="41.70442829240087" lon="13.225150324094246"><ele>236.5</ele><time>2026-03-29T09:27:16Z</time></trkpt><trkpt lat="41.704672527660286" lon="13.225046634529827"><ele>238.0</ele><time>2026-03-29T09:27:17Z</time></trkpt><trkpt lat="41.70491509251906" lon="13.224940595702893"><ele>238.0</ele><time>2026-03-29T09:27:18Z</time></trkpt><trkpt lat="41.705152928183274" lon="13.224836006636108"><ele>238.0</ele><time>2026-03-29T09:27:19Z</time></trkpt><trkpt lat="41.70539002796545" lon="13.224737038318915"><ele>238.0</ele><time>2026-03-29T09:27:20Z</time></trkpt><trkpt lat="41.7056240906626" lon="13.224645463368997"><ele>238.0</ele><time>2026-03-29T09:27:21Z</time></trkpt><trkpt lat="41.70584946911591" lon="13.224552679011977"><ele>238.0</ele><time>2026-03-29T09:27:22Z</time></trkpt><trkpt lat="41.70607798323865" lon="13.224462924553894"><ele>238.0</ele><time>2026-03-29T09:27:23Z</time></trkpt><trkpt lat="41.706310547423605" lon="13.224368744927776"><ele>237.5</ele><time>2026-03-29T09:27:24Z</time></trkpt><trkpt lat="41.706548009542004" lon="13.224269724881415"><ele>237.0</ele><time>2026-03-29T09:27:25Z</time></trkpt><trkpt lat="41.70678389762264" lon="13.224161563139962"><ele>236.5</ele><time>2026-03-29T09:27:26Z</time></trkpt><trkpt lat="41.70701998517296" lon="13.22405093773724"><ele>236.0</ele><time>2026-03-29T09:27:27Z</time></trkpt><trkpt lat="41.707250321328175" lon="13.223922489960911"><ele>236.0</ele><time>2026-03-29T09:27:28Z</time></trkpt><trkpt lat="41.707470282067796" lon="13.223760323739683"><ele>236.0</ele><time>2026-03-29T09:27:29Z</time></trkpt><trkpt lat="41.70767979392656" lon="13.223558864062952"><ele>236.0</ele><time>2026-03-29T09:27:30Z</time></trkpt><trkpt lat="41.70787275309253" lon="13.223321465957882"><ele>236.0</ele><time>2026-03-29T09:27:31Z</time></trkpt><trkpt lat="41.708043926966305" lon="13.223045184776534"><ele>235.0</ele><time>2026-03-29T09:27:32Z</time></trkpt><trkpt lat="41.70819544976493" lon="13.222734454645561"><ele>234.0</ele><time>2026-03-29T09:27:33Z</time></trkpt><trkpt lat="41.708343984326305" lon="13.222414951359346"><ele>234.0</ele><time>2026-03-29T09:27:34Z</time></trkpt><trkpt lat="41.7084939895621" lon="13.22210676774584"><ele>234.0</ele><time>2026-03-29T09:27:35Z</time></trkpt><trkpt lat="41.70862991335549" lon="13.221823164885306"><ele>234.0</ele><time>2026-03-29T09:27:36Z</time></trkpt><trkpt lat="41.708761335179624" lon="13.22155381648052"><ele>234.0</ele><time>2026-03-29T09:27:37Z</time></trkpt><trkpt lat="41.70888382255583" lon="13.221301365368177"><ele>234.0</ele><time>2026-03-29T09:27:38Z</time></trkpt><trkpt lat="41.709000927080446" lon="13.221064552312797"><ele>234.0</ele><time>2026-03-29T09:27:39Z</time></trkpt><trkpt lat="41.70912450556878" lon="13.220828749017292"><ele>234.0</ele><time>2026-03-29T09:27:40Z</time></trkpt><trkpt lat="41.70925516277132" lon="13.22059801606762"><ele>234.0</ele><time>2026-03-29T09:27:41Z</time></trkpt><trkpt lat="41.70939169989495" lon="13.220385892781549"><ele>234.0</ele><time>2026-03-29T09:27:42Z</time></trkpt><trkpt lat="41.70952497158458" lon="13.220199159252903"><ele>234.0</ele><time>2026-03-29T09:27:43Z</time></trkpt><trkpt lat="41.709647506030095" lon="13.220039225730092"><ele>234.0</ele><time>2026-03-29T09:27:44Z</time></trkpt><trkpt lat="41.7097526740987" lon="13.219894965346107"><ele>234.0</ele><time>2026-03-29T09:27:45Z</time></trkpt><trkpt lat="41.709853352360994" lon="13.219755435536568"><ele>234.0</ele><time>2026-03-29T09:27:46Z</time></trkpt><trkpt lat="41.70995562569755" lon="13.219616138113048"><ele>234.0</ele><time>2026-03-29T09:27:47Z</time></trkpt><trkpt lat="41.7100601445033" lon="13.219466792809017"><ele>234.0</ele><time>2026-03-29T09:27:48Z</time></trkpt><trkpt lat="41.710156880659994" lon="13.219298403290981"><ele>234.0</ele><time>2026-03-29T09:27:49Z</time></trkpt><trkpt lat="41.710238020507205" lon="13.219116849771973"><ele>234.0</ele><time>2026-03-29T09:27:50Z</time></trkpt><trkpt lat="41.71031768769949" lon="13.218888197384297"><ele>235.0</ele><time>2026-03-29T09:27:51Z</time></trkpt><trkpt lat="41.71039291144273" lon="13.218635348885167"><ele>236.0</ele><time>2026-03-29T09:27:52Z</time></trkpt><trkpt lat="41.71046071731643" lon="13.218398974223383"><ele>237.0</ele><time>2026-03-29T09:27:53Z</time></trkpt><trkpt lat="41.710514981704094" lon="13.218196687435087"><ele>236.66666666666669</ele><time>2026-03-29T09:27:54Z</time></trkpt><trkpt lat="41.710559717397935" lon="13.21799422477708"><ele>236.33333333333334</ele><time>2026-03-29T09:27:55Z</time></trkpt><trkpt lat="41.71061090047055" lon="13.217740699788843"><ele>236.0</ele><time>2026-03-29T09:27:56Z</time></trkpt><trkpt lat="41.71066073972211" lon="13.217455096620393"><ele>235.5</ele><time>2026-03-29T09:27:57Z</time></trkpt><trkpt lat="41.710679754736276" lon="13.217140358456666"><ele>235.0</ele><time>2026-03-29T09:27:58Z</time></trkpt><trkpt lat="41.710703617874984" lon="13.216794915131581"><ele>235.0</ele><time>2026-03-29T09:27:59Z</time></trkpt><trkpt lat="41.710737235216016" lon="13.216464893952999"><ele>235.0</ele><time>2026-03-29T09:28:00Z</time></trkpt><trkpt lat="41.71079110005784" lon="13.216157206896192"><ele>235.0</ele><time>2026-03-29T09:28:01Z</time></trkpt><trkpt lat="41.710876477823426" lon="13.215853244877577"><ele>235.0</ele><time>2026-03-29T09:28:02Z</time></trkpt><trkpt lat="41.71098532905342" lon="13.215562424741385"><ele>235.0</ele><time>2026-03-29T09:28:03Z</time></trkpt><trkpt lat="41.71112296596332" lon="13.215302479253877"><ele>235.0</ele><time>2026-03-29T09:28:04Z</time></trkpt><trkpt lat="41.71125459372267" lon="13.215072856945055"><ele>235.0</ele><time>2026-03-29T09:28:05Z</time></trkpt><trkpt lat="41.71137859160959" lon="13.214859419267208"><ele>235.0</ele><time>2026-03-29T09:28:06Z</time></trkpt><trkpt lat="41.711486987091575" lon="13.214676887366613"><ele>235.0</ele><time>2026-03-29T09:28:07Z</time></trkpt><trkpt lat="41.711589687408534" lon="13.214505055579973"><ele>235.0</ele><time>2026-03-29T09:28:08Z</time></trkpt><trkpt lat="41.71169608532013" lon="13.214331027913959"><ele>235.0</ele><time>2026-03-29T09:28:09Z</time></trkpt><trkpt lat="41.71180879902096" lon="13.214151247096538"><ele>235.0</ele><time>2026-03-29T09:28:10Z</time></trkpt><trkpt lat="41.71192503389144" lon="13.213975951091395"><ele>236.0</ele><time>2026-03-29T09:28:11Z</time></trkpt><trkpt lat="41.712054268618395" lon="13.213784246431352"><ele>237.0</ele><time>2026-03-29T09:28:12Z</time></trkpt><trkpt lat="41.71220336787637" lon="13.213581650871783"><ele>238.0</ele><time>2026-03-29T09:28:13Z</time></trkpt><trkpt lat="41.71236598457296" lon="13.213379828493657"><ele>238.0</ele><time>2026-03-29T09:28:14Z</time></trkpt><trkpt lat="41.7125416591795" lon="13.213185406903523"><ele>238.0</ele><time>2026-03-29T09:28:15Z</time></trkpt><trkpt lat="41.71272196420084" lon="13.212984016355724"><ele>240.0</ele><time>2026-03-29T09:28:16Z</time></trkpt><trkpt lat="41.71290214116467" lon="13.212772009126317"><ele>242.0</ele><time>2026-03-29T09:28:17Z</time></trkpt><trkpt lat="41.713080843660634" lon="13.212560473002858"><ele>242.0</ele><time>2026-03-29T09:28:18Z</time></trkpt><trkpt lat="41.71324993589007" lon="13.212344468988416"><ele>242.0</ele><time>2026-03-29T09:28:19Z</time></trkpt><trkpt lat="41.713398164473226" lon="13.21210538009475"><ele>243.5</ele><time>2026-03-29T09:28:20Z</time></trkpt><trkpt lat="41.71351789321182" lon="13.21182762351316"><ele>245.0</ele><time>2026-03-29T09:28:21Z</time></trkpt><trkpt lat="41.7136264111121" lon="13.21152367768627"><ele>246.5</ele><time>2026-03-29T09:28:22Z</time></trkpt><trkpt lat="41.71373751063802" lon="13.211216824587176"><ele>248.0</ele><time>2026-03-29T09:28:23Z</time></trkpt><trkpt lat="41.71384968240609" lon="13.210920686687723"><ele>247.5</ele><time>2026-03-29T09:28:24Z</time></trkpt><trkpt lat="41.7139588931632" lon="13.210643483841098"><ele>247.0</ele><time>2026-03-29T09:28:25Z</time></trkpt><trkpt lat="41.71406358765541" lon="13.21037194830382"><ele>247.0</ele><time>2026-03-29T09:28:26Z</time></trkpt><trkpt lat="41.714167417365736" lon="13.210103619517682"><ele>247.0</ele><time>2026-03-29T09:28:27Z</time></trkpt><trkpt lat="41.71427204176268" lon="13.209833733929594"><ele>247.0</ele><time>2026-03-29T09:28:28Z</time></trkpt><trkpt lat="41.714377204428395" lon="13.209563321892691"><ele>247.0</ele><time>2026-03-29T09:28:29Z</time></trkpt><trkpt lat="41.71448568280225" lon="13.209285940777164"><ele>248.5</ele><time>2026-03-29T09:28:30Z</time></trkpt><trkpt lat="41.714603589976726" lon="13.20900875282819"><ele>250.0</ele><time>2026-03-29T09:28:31Z</time></trkpt><trkpt lat="41.71472868090915" lon="13.208731410193224"><ele>250.0</ele><time>2026-03-29T09:28:32Z</time></trkpt><trkpt lat="41.7148502746436" lon="13.2084491321317"><ele>250.0</ele><time>2026-03-29T09:28:33Z</time></trkpt><trkpt lat="41.714968684597956" lon="13.208167884267299"><ele>249.5</ele><time>2026-03-29T09:28:34Z</time></trkpt><trkpt lat="41.71508432159082" lon="13.207883794177803"><ele>249.0</ele><time>2026-03-29T09:28:35Z</time></trkpt><trkpt lat="41.71519784900706" lon="13.207594788889056"><ele>250.5</ele><time>2026-03-29T09:28:36Z</time></trkpt><trkpt lat="41.71530413220187" lon="13.207309048547513"><ele>252.0</ele><time>2026-03-29T09:28:37Z</time></trkpt><trkpt lat="41.715401559698904" lon="13.207006958813066"><ele>252.0</ele><time>2026-03-29T09:28:38Z</time></trkpt><trkpt lat="41.7154935893415" lon="13.206692128824947"><ele>252.0</ele><time>2026-03-29T09:28:39Z</time></trkpt><trkpt lat="41.71558881753176" lon="13.206367841400809"><ele>252.0</ele><time>2026-03-29T09:28:40Z</time></trkpt><trkpt lat="41.71568456521291" lon="13.206039068302422"><ele>252.0</ele><time>2026-03-29T09:28:41Z</time></trkpt><trkpt lat="41.71577164427474" lon="13.20572585166868"><ele>252.0</ele><time>2026-03-29T09:28:42Z</time></trkpt><trkpt lat="41.71584335987952" lon="13.205446553180309"><ele>252.0</ele><time>2026-03-29T09:28:43Z</time></trkpt><trkpt lat="41.71591224800172" lon="13.20519303078221"><ele>252.0</ele><time>2026-03-29T09:28:44Z</time></trkpt><trkpt lat="41.71599610992919" lon="13.204962203482854"><ele>253.0</ele><time>2026-03-29T09:28:45Z</time></trkpt><trkpt lat="41.71610589942551" lon="13.2047315822144"><ele>254.0</ele><time>2026-03-29T09:28:46Z</time></trkpt><trkpt lat="41.71622964443907" lon="13.204491737000424"><ele>255.0</ele><time>2026-03-29T09:28:47Z</time></trkpt><trkpt lat="41.71634804130725" lon="13.204238497335918"><ele>254.5</ele><time>2026-03-29T09:28:48Z</time></trkpt><trkpt lat="41.71646532080457" lon="13.203977867156649"><ele>254.0</ele><time>2026-03-29T09:28:49Z</time></trkpt><trkpt lat="41.71658787001072" lon="13.20370724893126"><ele>254.0</ele><time>2026-03-29T09:28:50Z</time></trkpt><trkpt lat="41.71671559810197" lon="13.203434347033632"><ele>254.0</ele><time>2026-03-29T09:28:51Z</time></trkpt><trkpt lat="41.7168504214587" lon="13.203152870570399"><ele>253.0</ele><time>2026-03-29T09:28:52Z</time></trkpt><trkpt lat="41.7169906893951" lon="13.202865228352799"><ele>252.0</ele><time>2026-03-29T09:28:53Z</time></trkpt><trkpt lat="41.71713148706431" lon="13.202571993700149"><ele>252.5</ele><time>2026-03-29T09:28:54Z</time></trkpt><trkpt lat="41.7172753518827" lon="13.202273511359197"><ele>253.0</ele><time>2026-03-29T09:28:55Z</time></trkpt><trkpt lat="41.7174222406067" lon="13.20197228257821"><ele>253.0</ele><time>2026-03-29T09:28:56Z</time></trkpt><trkpt lat="41.71756996797655" lon="13.20165750082109"><ele>253.0</ele><time>2026-03-29T09:28:57Z</time></trkpt><trkpt lat="41.717715627711165" lon="13.201331020054477"><ele>253.0</ele><time>2026-03-29T09:28:58Z</time></trkpt><trkpt lat="41.71786647100366" lon="13.200989637830956"><ele>253.0</ele><time>2026-03-29T09:28:59Z</time></trkpt><trkpt lat="41.71800991782499" lon="13.200657679307625"><ele>253.0</ele><time>2026-03-29T09:29:00Z</time></trkpt><trkpt lat="41.718137765531665" lon="13.200351979705275"><ele>253.0</ele><time>2026-03-29T09:29:01Z</time></trkpt><trkpt lat="41.71825760086901" lon="13.200063140210197"><ele>253.5</ele><time>2026-03-29T09:29:02Z</time></trkpt><trkpt lat="41.71837273972212" lon="13.19978284681869"><ele>254.0</ele><time>2026-03-29T09:29:03Z</time></trkpt><trkpt lat="41.71848371231319" lon="13.199507703278414"><ele>253.66666666666669</ele><time>2026-03-29T09:29:04Z</time></trkpt><trkpt lat="41.71858723307518" lon="13.199237803100967"><ele>253.33333333333331</ele><time>2026-03-29T09:29:05Z</time></trkpt><trkpt lat="41.71868091598619" lon="13.198968251175682"><ele>253.0</ele><time>2026-03-29T09:29:06Z</time></trkpt><trkpt lat="41.7187672303516" lon="13.198693129401244"><ele>253.0</ele><time>2026-03-29T09:29:07Z</time></trkpt><trkpt lat="41.7188398715336" lon="13.198429451824554"><ele>253.0</ele><time>2026-03-29T09:29:08Z</time></trkpt><trkpt lat="41.718907746638564" lon="13.198177925179728"><ele>253.0</ele><time>2026-03-29T09:29:09Z</time></trkpt><trkpt lat="41.7189711133988" lon="13.197938991085199"><ele>253.0</ele><time>2026-03-29T09:29:10Z</time></trkpt><trkpt lat="41.719025894746494" lon="13.19771914960074"><ele>253.0</ele><time>2026-03-29T09:29:11Z</time></trkpt><trkpt lat="41.71907460526282" lon="13.197516715293705"><ele>253.0</ele><time>2026-03-29T09:29:12Z</time></trkpt><trkpt lat="41.71911903807498" lon="13.197331123349715"><ele>253.0</ele><time>2026-03-29T09:29:13Z</time></trkpt><trkpt lat="41.71916024634694" lon="13.197158544431344"><ele>253.0</ele><time>2026-03-29T09:29:14Z</time></trkpt><trkpt lat="41.719199518083514" lon="13.197002176566828"><ele>253.0</ele><time>2026-03-29T09:29:15Z</time></trkpt><trkpt lat="41.719236951623934" lon="13.196849756275281"><ele>253.0</ele><time>2026-03-29T09:29:16Z</time></trkpt><trkpt lat="41.71926888387768" lon="13.196702661387066"><ele>253.0</ele><time>2026-03-29T09:29:17Z</time></trkpt><trkpt lat="41.719294814713706" lon="13.196576789082673"><ele>253.0</ele><time>2026-03-29T09:29:18Z</time></trkpt><trkpt lat="41.71931924203924" lon="13.196461814839898"><ele>253.0</ele><time>2026-03-29T09:29:19Z</time></trkpt><trkpt lat="41.71934189800867" lon="13.196357090829968"><ele>253.0</ele><time>2026-03-29T09:29:20Z</time></trkpt><trkpt lat="41.719362179092364" lon="13.196262573385383"><ele>253.0</ele><time>2026-03-29T09:29:21Z</time></trkpt><trkpt lat="41.7194002848929" lon="13.196120594614209"><ele>253.0</ele><time>2026-03-29T09:29:23Z</time></trkpt><trkpt lat="41.719450968071406" lon="13.196025647669668"><ele>253.0</ele><time>2026-03-29T09:29:25Z</time></trkpt><trkpt lat="41.71953975303441" lon="13.195914295377408"><ele>253.0</ele><time>2026-03-29T09:29:27Z</time></trkpt><trkpt lat="41.71960050267685" lon="13.195849976606114"><ele>253.0</ele><time>2026-03-29T09:29:28Z</time></trkpt><trkpt lat="41.7196462902136" lon="13.195756977317496"><ele>253.0</ele><time>2026-03-29T09:29:29Z</time></trkpt><trkpt lat="41.719652672544825" lon="13.195643177364166"><ele>252.8</ele><time>2026-03-29T09:29:30Z</time></trkpt><trkpt lat="41.71962836203957" lon="13.195532075371295"><ele>252.60000000000002</ele><time>2026-03-29T09:29:31Z</time></trkpt><trkpt lat="41.71958293740959" lon="13.195424856986257"><ele>252.39999999999998</ele><time>2026-03-29T09:29:32Z</time></trkpt><trkpt lat="41.71955440883609" lon="13.195299108350923"><ele>252.2</ele><time>2026-03-29T09:29:33Z</time></trkpt><trkpt lat="41.71956017701023" lon="13.19515411924414"><ele>252.0</ele><time>2026-03-29T09:29:34Z</time></trkpt><trkpt lat="41.7195988687107" lon="13.19498609710199"><ele>252.0</ele><time>2026-03-29T09:29:35Z</time></trkpt><trkpt lat="41.719635023233074" lon="13.194774221698845"><ele>252.0</ele><time>2026-03-29T09:29:36Z</time></trkpt><trkpt lat="41.719673611608904" lon="13.194539533680283"><ele>252.0</ele><time>2026-03-29T09:29:37Z</time></trkpt><trkpt lat="41.71972190618299" lon="13.194309183869375"><ele>252.0</ele><time>2026-03-29T09:29:38Z</time></trkpt><trkpt lat="41.7197670062564" lon="13.194070108520911"><ele>252.0</ele><time>2026-03-29T09:29:39Z</time></trkpt><trkpt lat="41.719806056771134" lon="13.19382758290263"><ele>252.0</ele><time>2026-03-29T09:29:40Z</time></trkpt><trkpt lat="41.719846153932885" lon="13.193575630382762"><ele>252.0</ele><time>2026-03-29T09:29:41Z</time></trkpt><trkpt lat="41.719891247430304" lon="13.193323245695682"><ele>252.0</ele><time>2026-03-29T09:29:42Z</time></trkpt><trkpt lat="41.71993849184633" lon="13.193080930369144"><ele>252.0</ele><time>2026-03-29T09:29:43Z</time></trkpt><trkpt lat="41.71999043823805" lon="13.192847886552775"><ele>252.0</ele><time>2026-03-29T09:29:44Z</time></trkpt><trkpt lat="41.720050284776" lon="13.192613351774819"><ele>252.0</ele><time>2026-03-29T09:29:45Z</time></trkpt><trkpt lat="41.7201144976336" lon="13.192375491700638"><ele>252.0</ele><time>2026-03-29T09:29:46Z</time></trkpt><trkpt lat="41.72018286119518" lon="13.192131540787921"><ele>252.0</ele><time>2026-03-29T09:29:47Z</time></trkpt><trkpt lat="41.72025203355063" lon="13.191899490682975"><ele>252.0</ele><time>2026-03-29T09:29:48Z</time></trkpt><trkpt lat="41.72032040214068" lon="13.191671756221718"><ele>252.0</ele><time>2026-03-29T09:29:49Z</time></trkpt><trkpt lat="41.72039271830225" lon="13.191436542360218"><ele>252.0</ele><time>2026-03-29T09:29:50Z</time></trkpt><trkpt lat="41.7204646445898" lon="13.191195463645187"><ele>252.0</ele><time>2026-03-29T09:29:51Z</time></trkpt><trkpt lat="41.72053786158212" lon="13.190943939306583"><ele>252.0</ele><time>2026-03-29T09:29:52Z</time></trkpt><trkpt lat="41.7206127654049" lon="13.190663875751842"><ele>251.5</ele><time>2026-03-29T09:29:53Z</time></trkpt><trkpt lat="41.720700499921186" lon="13.19037509184945"><ele>251.0</ele><time>2026-03-29T09:29:54Z</time></trkpt><trkpt lat="41.7208027552873" lon="13.190057409657198"><ele>250.5</ele><time>2026-03-29T09:29:55Z</time></trkpt><trkpt lat="41.72091428600386" lon="13.1897102360027"><ele>250.0</ele><time>2026-03-29T09:29:56Z</time></trkpt><trkpt lat="41.721019446509224" lon="13.189369990340037"><ele>250.0</ele><time>2026-03-29T09:29:57Z</time></trkpt><trkpt lat="41.72112010182036" lon="13.189035419234234"><ele>250.0</ele><time>2026-03-29T09:29:58Z</time></trkpt><trkpt lat="41.721220953561485" lon="13.188705433094524"><ele>250.0</ele><time>2026-03-29T09:29:59Z</time></trkpt><trkpt lat="41.72132316796136" lon="13.188375762281872"><ele>250.0</ele><time>2026-03-29T09:30:00Z</time></trkpt><trkpt lat="41.721426550942944" lon="13.188042212651224"><ele>250.5</ele><time>2026-03-29T09:30:01Z</time></trkpt><trkpt lat="41.72153334875538" lon="13.187703709867034"><ele>251.0</ele><time>2026-03-29T09:30:02Z</time></trkpt><trkpt lat="41.72164225394433" lon="13.18736310540299"><ele>251.0</ele><time>2026-03-29T09:30:03Z</time></trkpt><trkpt lat="41.721756956165294" lon="13.187022143426816"><ele>251.0</ele><time>2026-03-29T09:30:04Z</time></trkpt><trkpt lat="41.72188052448639" lon="13.186675578566177"><ele>252.0</ele><time>2026-03-29T09:30:05Z</time></trkpt><trkpt lat="41.722018420687405" lon="13.186315331778665"><ele>253.0</ele><time>2026-03-29T09:30:06Z</time></trkpt><trkpt lat="41.72215565372531" lon="13.185925929311678"><ele>253.0</ele><time>2026-03-29T09:30:07Z</time></trkpt><trkpt lat="41.72227750729398" lon="13.185536373316776"><ele>253.0</ele><time>2026-03-29T09:30:08Z</time></trkpt><trkpt lat="41.7223701436349" lon="13.185184560491294"><ele>254.0</ele><time>2026-03-29T09:30:09Z</time></trkpt><trkpt lat="41.72244626407285" lon="13.184832287171833"><ele>255.0</ele><time>2026-03-29T09:30:10Z</time></trkpt><trkpt lat="41.72251498288361" lon="13.18446954648256"><ele>255.0</ele><time>2026-03-29T09:30:11Z</time></trkpt><trkpt lat="41.72258742479248" lon="13.184106243395611"><ele>255.0</ele><time>2026-03-29T09:30:12Z</time></trkpt><trkpt lat="41.72265960165452" lon="13.18373500461727"><ele>255.5</ele><time>2026-03-29T09:30:13Z</time></trkpt><trkpt lat="41.72273102974191" lon="13.183362036526823"><ele>256.0</ele><time>2026-03-29T09:30:14Z</time></trkpt><trkpt lat="41.72280236581365" lon="13.182990492934646"><ele>256.5</ele><time>2026-03-29T09:30:15Z</time></trkpt><trkpt lat="41.72286945637163" lon="13.182624727649724"><ele>257.0</ele><time>2026-03-29T09:30:16Z</time></trkpt><trkpt lat="41.722929025521864" lon="13.18228585276368"><ele>257.0</ele><time>2026-03-29T09:30:17Z</time></trkpt><trkpt lat="41.72297641679598" lon="13.18196862528838"><ele>257.0</ele><time>2026-03-29T09:30:18Z</time></trkpt><trkpt lat="41.72299902089827" lon="13.181643508101429"><ele>257.0</ele><time>2026-03-29T09:30:19Z</time></trkpt><trkpt lat="41.72299657206512" lon="13.181334697676258"><ele>257.0</ele><time>2026-03-29T09:30:20Z</time></trkpt><trkpt lat="41.72298340300761" lon="13.181035380536727"><ele>257.0</ele><time>2026-03-29T09:30:21Z</time></trkpt><trkpt lat="41.72296019681789" lon="13.180737042246957"><ele>257.0</ele><time>2026-03-29T09:30:22Z</time></trkpt><trkpt lat="41.72294098792229" lon="13.180460465682817"><ele>257.0</ele><time>2026-03-29T09:30:23Z</time></trkpt><trkpt lat="41.72292943995048" lon="13.180196097720438"><ele>257.0</ele><time>2026-03-29T09:30:24Z</time></trkpt><trkpt lat="41.72291871139638" lon="13.179933945123034"><ele>257.0</ele><time>2026-03-29T09:30:25Z</time></trkpt><trkpt lat="41.722905153817216" lon="13.179672119150656"><ele>257.0</ele><time>2026-03-29T09:30:26Z</time></trkpt><trkpt lat="41.72288942166514" lon="13.179410544532235"><ele>257.0</ele><time>2026-03-29T09:30:27Z</time></trkpt><trkpt lat="41.722872715415406" lon="13.179149475854466"><ele>257.0</ele><time>2026-03-29T09:30:28Z</time></trkpt><trkpt lat="41.722855792710135" lon="13.17889248872506"><ele>257.0</ele><time>2026-03-29T09:30:29Z</time></trkpt><trkpt lat="41.72283966583051" lon="13.178618172102578"><ele>258.5</ele><time>2026-03-29T09:30:30Z</time></trkpt><trkpt lat="41.72281571186784" lon="13.178319854863961"><ele>260.0</ele><time>2026-03-29T09:30:31Z</time></trkpt><trkpt lat="41.722793911233005" lon="13.177999580077808"><ele>261.0</ele><time>2026-03-29T09:30:32Z</time></trkpt><trkpt lat="41.72278440375367" lon="13.177664472773618"><ele>262.0</ele><time>2026-03-29T09:30:33Z</time></trkpt><trkpt lat="41.722775170674446" lon="13.177324611225965"><ele>263.0</ele><time>2026-03-29T09:30:34Z</time></trkpt><trkpt lat="41.722765571062375" lon="13.176985173626402"><ele>264.0</ele><time>2026-03-29T09:30:35Z</time></trkpt><trkpt lat="41.72275744818185" lon="13.176659183283327"><ele>264.0</ele><time>2026-03-29T09:30:36Z</time></trkpt><trkpt lat="41.722753084569945" lon="13.176352060245359"><ele>264.0</ele><time>2026-03-29T09:30:37Z</time></trkpt><trkpt lat="41.72275861782673" lon="13.176047067473311"><ele>264.0</ele><time>2026-03-29T09:30:38Z</time></trkpt><trkpt lat="41.72277308934315" lon="13.175735468642506"><ele>264.0</ele><time>2026-03-29T09:30:39Z</time></trkpt><trkpt lat="41.722800024082815" lon="13.175434206697172"><ele>262.3333333333333</ele><time>2026-03-29T09:30:40Z</time></trkpt><trkpt lat="41.72284568935123" lon="13.175149298484266"><ele>260.66666666666663</ele><time>2026-03-29T09:30:41Z</time></trkpt><trkpt lat="41.722917353342154" lon="13.174863384634149"><ele>259.0</ele><time>2026-03-29T09:30:42Z</time></trkpt><trkpt lat="41.72302522633457" lon="13.174579348860195"><ele>258.0</ele><time>2026-03-29T09:30:43Z</time></trkpt><trkpt lat="41.72313656678449" lon="13.174288605109355"><ele>257.0</ele><time>2026-03-29T09:30:44Z</time></trkpt><trkpt lat="41.72323025812145" lon="13.17398465892027"><ele>255.0</ele><time>2026-03-29T09:30:45Z</time></trkpt><trkpt lat="41.72331103273849" lon="13.173653231687137"><ele>253.0</ele><time>2026-03-29T09:30:46Z</time></trkpt><trkpt lat="41.72337822803398" lon="13.173312129696333"><ele>251.5</ele><time>2026-03-29T09:30:47Z</time></trkpt><trkpt lat="41.72343830788126" lon="13.172969727890424"><ele>250.0</ele><time>2026-03-29T09:30:48Z</time></trkpt><trkpt lat="41.72349747033031" lon="13.172651257444501"><ele>250.0</ele><time>2026-03-29T09:30:49Z</time></trkpt><trkpt lat="41.72355956440453" lon="13.172346121900482"><ele>250.0</ele><time>2026-03-29T09:30:50Z</time></trkpt><trkpt lat="41.723639679829496" lon="13.17204552575283"><ele>250.0</ele><time>2026-03-29T09:30:51Z</time></trkpt><trkpt lat="41.72373250407084" lon="13.171780229287188"><ele>250.0</ele><time>2026-03-29T09:30:52Z</time></trkpt><trkpt lat="41.72383643257279" lon="13.171527292728912"><ele>250.0</ele><time>2026-03-29T09:30:53Z</time></trkpt><trkpt lat="41.723957498227975" lon="13.17127234046275"><ele>249.5</ele><time>2026-03-29T09:30:54Z</time></trkpt><trkpt lat="41.7240784241014" lon="13.171008954888718"><ele>249.0</ele><time>2026-03-29T09:30:55Z</time></trkpt><trkpt lat="41.72419416332442" lon="13.170745318902215"><ele>248.66666666666669</ele><time>2026-03-29T09:30:56Z</time></trkpt><trkpt lat="41.724306062896545" lon="13.17048087370732"><ele>248.33333333333334</ele><time>2026-03-29T09:30:57Z</time></trkpt><trkpt lat="41.72440348385592" lon="13.170233120708312"><ele>248.0</ele><time>2026-03-29T09:30:58Z</time></trkpt><trkpt lat="41.72448582507204" lon="13.169995722253386"><ele>248.0</ele><time>2026-03-29T09:30:59Z</time></trkpt><trkpt lat="41.724557051500284" lon="13.169768048029686"><ele>248.0</ele><time>2026-03-29T09:31:00Z</time></trkpt><trkpt lat="41.72461794462542" lon="13.169555687937578"><ele>248.0</ele><time>2026-03-29T09:31:01Z</time></trkpt><trkpt lat="41.724672762995695" lon="13.169353938423026"><ele>248.0</ele><time>2026-03-29T09:31:02Z</time></trkpt><trkpt lat="41.724732762701436" lon="13.169133418868151"><ele>248.0</ele><time>2026-03-29T09:31:03Z</time></trkpt><trkpt lat="41.72480108676581" lon="13.168898396394606"><ele>248.0</ele><time>2026-03-29T09:31:04Z</time></trkpt><trkpt lat="41.72487471226432" lon="13.168638809748948"><ele>247.0</ele><time>2026-03-29T09:31:05Z</time></trkpt><trkpt lat="41.72494642035679" lon="13.168351505445713"><ele>246.0</ele><time>2026-03-29T09:31:06Z</time></trkpt><trkpt lat="41.72501698300537" lon="13.168043166206385"><ele>246.0</ele><time>2026-03-29T09:31:07Z</time></trkpt><trkpt lat="41.72508737376748" lon="13.167721785180202"><ele>246.0</ele><time>2026-03-29T09:31:08Z</time></trkpt><trkpt lat="41.725153670601514" lon="13.167383332121265"><ele>246.5</ele><time>2026-03-29T09:31:09Z</time></trkpt><trkpt lat="41.72522009635371" lon="13.167022824394062"><ele>247.0</ele><time>2026-03-29T09:31:10Z</time></trkpt><trkpt lat="41.72528608994529" lon="13.166687726873334"><ele>247.5</ele><time>2026-03-29T09:31:11Z</time></trkpt><trkpt lat="41.72534476953253" lon="13.166376492993445"><ele>248.0</ele><time>2026-03-29T09:31:12Z</time></trkpt><trkpt lat="41.72539058859" lon="13.166081833102673"><ele>248.0</ele><time>2026-03-29T09:31:13Z</time></trkpt><trkpt lat="41.725411199660364" lon="13.165775904969282"><ele>248.0</ele><time>2026-03-29T09:31:14Z</time></trkpt><trkpt lat="41.72540130537657" lon="13.165453715202341"><ele>247.5</ele><time>2026-03-29T09:31:15Z</time></trkpt><trkpt lat="41.725380838171766" lon="13.165122134051094"><ele>247.0</ele><time>2026-03-29T09:31:16Z</time></trkpt><trkpt lat="41.72535829916185" lon="13.164787324144152"><ele>247.0</ele><time>2026-03-29T09:31:17Z</time></trkpt><trkpt lat="41.72533654701628" lon="13.164449048929118"><ele>247.0</ele><time>2026-03-29T09:31:18Z</time></trkpt><trkpt lat="41.72531502031131" lon="13.164109485934102"><ele>246.0</ele><time>2026-03-29T09:31:19Z</time></trkpt><trkpt lat="41.72529493747101" lon="13.16377252920025"><ele>245.0</ele><time>2026-03-29T09:31:20Z</time></trkpt><trkpt lat="41.725273314933816" lon="13.163439945741862"><ele>244.0</ele><time>2026-03-29T09:31:21Z</time></trkpt><trkpt lat="41.72525493980544" lon="13.16311722157699"><ele>243.0</ele><time>2026-03-29T09:31:22Z</time></trkpt><trkpt lat="41.725239047075945" lon="13.162807956871125"><ele>243.33333333333331</ele><time>2026-03-29T09:31:23Z</time></trkpt><trkpt lat="41.72522712448261" lon="13.162513724054763"><ele>243.66666666666666</ele><time>2026-03-29T09:31:24Z</time></trkpt><trkpt lat="41.72521646368872" lon="13.162243280858016"><ele>244.0</ele><time>2026-03-29T09:31:25Z</time></trkpt><trkpt lat="41.72520601764553" lon="13.162004331882072"><ele>244.0</ele><time>2026-03-29T09:31:26Z</time></trkpt><trkpt lat="41.7251981947145" lon="13.161803840453526"><ele>244.0</ele><time>2026-03-29T09:31:27Z</time></trkpt><trkpt lat="41.725193271776284" lon="13.161600663172976"><ele>244.0</ele><time>2026-03-29T09:31:28Z</time></trkpt><trkpt lat="41.72518486817135" lon="13.161378874040913"><ele>243.66666666666666</ele><time>2026-03-29T09:31:29Z</time></trkpt><trkpt lat="41.72517751406029" lon="13.161139066479034"><ele>243.33333333333331</ele><time>2026-03-29T09:31:30Z</time></trkpt><trkpt lat="41.725180546289295" lon="13.160889244009736"><ele>243.0</ele><time>2026-03-29T09:31:31Z</time></trkpt><trkpt lat="41.725196811537046" lon="13.160645348470547"><ele>243.33333333333331</ele><time>2026-03-29T09:31:32Z</time></trkpt><trkpt lat="41.72521855387225" lon="13.160394641598863"><ele>243.66666666666666</ele><time>2026-03-29T09:31:33Z</time></trkpt><trkpt lat="41.725246109838054" lon="13.160131016107027"><ele>244.0</ele><time>2026-03-29T09:31:34Z</time></trkpt><trkpt lat="41.725274542926456" lon="13.159855130325441"><ele>244.0</ele><time>2026-03-29T09:31:35Z</time></trkpt><trkpt lat="41.72530265716328" lon="13.159566143645394"><ele>244.0</ele><time>2026-03-29T09:31:36Z</time></trkpt><trkpt lat="41.725329746644356" lon="13.159271874322867"><ele>244.0</ele><time>2026-03-29T09:31:37Z</time></trkpt><trkpt lat="41.72535329862052" lon="13.158996573062291"><ele>243.33333333333331</ele><time>2026-03-29T09:31:38Z</time></trkpt><trkpt lat="41.72537543647912" lon="13.158738560056477"><ele>242.66666666666669</ele><time>2026-03-29T09:31:39Z</time></trkpt><trkpt lat="41.72540406571498" lon="13.15847086441795"><ele>242.0</ele><time>2026-03-29T09:31:40Z</time></trkpt><trkpt lat="41.725437540434804" lon="13.15819621316014"><ele>242.0</ele><time>2026-03-29T09:31:41Z</time></trkpt><trkpt lat="41.725472624927654" lon="13.157917860060405"><ele>242.0</ele><time>2026-03-29T09:31:42Z</time></trkpt><trkpt lat="41.725507695637184" lon="13.157633990063726"><ele>242.0</ele><time>2026-03-29T09:31:43Z</time></trkpt><trkpt lat="41.725544659295174" lon="13.157357255790053"><ele>242.33333333333334</ele><time>2026-03-29T09:31:44Z</time></trkpt><trkpt lat="41.72557814678208" lon="13.157100852620376"><ele>242.66666666666669</ele><time>2026-03-29T09:31:45Z</time></trkpt><trkpt lat="41.72561135480018" lon="13.156854847142657"><ele>243.0</ele><time>2026-03-29T09:31:46Z</time></trkpt><trkpt lat="41.7256457794119" lon="13.156616649159744"><ele>242.66666666666669</ele><time>2026-03-29T09:31:47Z</time></trkpt><trkpt lat="41.7256847132832" lon="13.156373032912487"><ele>242.33333333333334</ele><time>2026-03-29T09:31:48Z</time></trkpt><trkpt lat="41.7257316066878" lon="13.156125461859153"><ele>242.0</ele><time>2026-03-29T09:31:49Z</time></trkpt><trkpt lat="41.72578494692421" lon="13.15587900793654"><ele>241.0</ele><time>2026-03-29T09:31:50Z</time></trkpt><trkpt lat="41.72584313908351" lon="13.15563732691785"><ele>240.0</ele><time>2026-03-29T09:31:51Z</time></trkpt><trkpt lat="41.72590057945025" lon="13.155412401143096"><ele>239.0</ele><time>2026-03-29T09:31:52Z</time></trkpt><trkpt lat="41.72596369692974" lon="13.155200403391088"><ele>239.0</ele><time>2026-03-29T09:31:53Z</time></trkpt><trkpt lat="41.7260372349333" lon="13.15499437434232"><ele>239.0</ele><time>2026-03-29T09:31:54Z</time></trkpt><trkpt lat="41.72610829178746" lon="13.154803215118324"><ele>239.0</ele><time>2026-03-29T09:31:55Z</time></trkpt><trkpt lat="41.72617673677176" lon="13.154624781587339"><ele>239.0</ele><time>2026-03-29T09:31:56Z</time></trkpt><trkpt lat="41.726244084224156" lon="13.154459758330358"><ele>239.0</ele><time>2026-03-29T09:31:57Z</time></trkpt><trkpt lat="41.72631029123658" lon="13.15430581485411"><ele>239.0</ele><time>2026-03-29T09:31:58Z</time></trkpt><trkpt lat="41.72637221807628" lon="13.154153472997631"><ele>239.0</ele><time>2026-03-29T09:31:59Z</time></trkpt><trkpt lat="41.72643502151842" lon="13.154003217667913"><ele>238.79999999999998</ele><time>2026-03-29T09:32:00Z</time></trkpt><trkpt lat="41.72649494781649" lon="13.153861996646725"><ele>238.59999999999997</ele><time>2026-03-29T09:32:01Z</time></trkpt><trkpt lat="41.726546547268796" lon="13.153739756138606"><ele>238.4</ele><time>2026-03-29T09:32:02Z</time></trkpt><trkpt lat="41.72658684030589" lon="13.153646990153266"><ele>238.2</ele><time>2026-03-29T09:32:03Z</time></trkpt><trkpt lat="41.72664401126175" lon="13.153544635569132"><ele>238.0</ele><time>2026-03-29T09:32:05Z</time></trkpt><trkpt lat="41.72671893637981" lon="13.153516128810013"><ele>237.99999999999997</ele><time>2026-03-29T09:32:07Z</time></trkpt><trkpt lat="41.726795551559874" lon="13.153526186052773"><ele>238.0</ele><time>2026-03-29T09:32:10Z</time></trkpt><trkpt lat="41.726850318374" lon="13.153589562504642"><ele>238.0</ele><time>2026-03-29T09:32:13Z</time></trkpt><trkpt lat="41.726882816083716" lon="13.153673256741634"><ele>238.0</ele><time>2026-03-29T09:32:18Z</time></trkpt><trkpt lat="41.7268401009217" lon="13.153598824352873"><ele>237.99999999999997</ele><time>2026-03-29T09:34:33Z</time></trkpt><trkpt lat="41.72673049604267" lon="13.153494131465234"><ele>238.0</ele><time>2026-03-29T09:34:35Z</time></trkpt><trkpt lat="41.72667448666737" lon="13.153447659552896"><ele>238.0</ele><time>2026-03-29T09:34:37Z</time></trkpt><trkpt lat="41.726684078332" lon="13.153326804093613"><ele>238.0</ele><time>2026-03-29T09:34:53Z</time></trkpt><trkpt lat="41.72672685424645" lon="13.153242501149403"><ele>238.0</ele><time>2026-03-29T09:34:54Z</time></trkpt><trkpt lat="41.72677785833035" lon="13.153143091063553"><ele>238.0</ele><time>2026-03-29T09:34:55Z</time></trkpt><trkpt lat="41.726827292918095" lon="13.153029823480617"><ele>238.0</ele><time>2026-03-29T09:34:56Z</time></trkpt><trkpt lat="41.72686928598093" lon="13.152913376332743"><ele>238.0</ele><time>2026-03-29T09:34:57Z</time></trkpt><trkpt lat="41.72691530240725" lon="13.152787179916208"><ele>238.0</ele><time>2026-03-29T09:34:58Z</time></trkpt><trkpt lat="41.726960047254565" lon="13.152674846643297"><ele>238.0</ele><time>2026-03-29T09:34:59Z</time></trkpt><trkpt lat="41.72700470962749" lon="13.152567557522165"><ele>238.0</ele><time>2026-03-29T09:35:00Z</time></trkpt><trkpt lat="41.727056649811225" lon="13.152446811364454"><ele>238.0</ele><time>2026-03-29T09:35:01Z</time></trkpt><trkpt lat="41.72711816710228" lon="13.152301076107989"><ele>238.0</ele><time>2026-03-29T09:35:02Z</time></trkpt><trkpt lat="41.72718827307823" lon="13.152122745576419"><ele>238.0</ele><time>2026-03-29T09:35:03Z</time></trkpt><trkpt lat="41.72724603022229" lon="13.151959699484799"><ele>238.0</ele><time>2026-03-29T09:35:04Z</time></trkpt><trkpt lat="41.727286337459944" lon="13.151821640877593"><ele>238.0</ele><time>2026-03-29T09:35:05Z</time></trkpt><trkpt lat="41.72731345856923" lon="13.151690397189878"><ele>238.0</ele><time>2026-03-29T09:35:06Z</time></trkpt><trkpt lat="41.72734622553615" lon="13.151544025391857"><ele>238.0</ele><time>2026-03-29T09:35:07Z</time></trkpt><trkpt lat="41.72738008195147" lon="13.151393507763794"><ele>238.0</ele><time>2026-03-29T09:35:08Z</time></trkpt><trkpt lat="41.727408348956544" lon="13.151237400730865"><ele>238.0</ele><time>2026-03-29T09:35:09Z</time></trkpt><trkpt lat="41.72742790813592" lon="13.151094836680624"><ele>238.16666666666666</ele><time>2026-03-29T09:35:10Z</time></trkpt><trkpt lat="41.72744263609403" lon="13.1509645733666"><ele>238.33333333333331</ele><time>2026-03-29T09:35:11Z</time></trkpt><trkpt lat="41.727456879555504" lon="13.150842289811623"><ele>238.5</ele><time>2026-03-29T09:35:12Z</time></trkpt><trkpt lat="41.727466614473116" lon="13.150721785996806"><ele>238.66666666666669</ele><time>2026-03-29T09:35:13Z</time></trkpt><trkpt lat="41.72747663391832" lon="13.150605405211412"><ele>238.83333333333334</ele><time>2026-03-29T09:35:14Z</time></trkpt><trkpt lat="41.72748334473655" lon="13.15051089863219"><ele>239.0</ele><time>2026-03-29T09:35:15Z</time></trkpt><trkpt lat="41.72749146535149" lon="13.150382471899093"><ele>239.00000000000003</ele><time>2026-03-29T09:35:17Z</time></trkpt><trkpt lat="41.72750328747146" lon="13.150253829055885"><ele>239.0</ele><time>2026-03-29T09:35:19Z</time></trkpt><trkpt lat="41.727507813057876" lon="13.150159141805977"><ele>239.0</ele><time>2026-03-29T09:35:20Z</time></trkpt><trkpt lat="41.72751475221842" lon="13.150067475998107"><ele>239.0</ele><time>2026-03-29T09:35:21Z</time></trkpt><trkpt lat="41.727516806084104" lon="13.14995896320116"><ele>239.00000000000003</ele><time>2026-03-29T09:35:22Z</time></trkpt><trkpt lat="41.727518827183204" lon="13.1498642868534"><ele>239.0</ele><time>2026-03-29T09:35:23Z</time></trkpt><trkpt lat="41.7275241432214" lon="13.149764319170409"><ele>239.0</ele><time>2026-03-29T09:35:24Z</time></trkpt><trkpt lat="41.727535911746806" lon="13.149636678539407"><ele>238.99999999999997</ele><time>2026-03-29T09:35:25Z</time></trkpt><trkpt lat="41.727551671651526" lon="13.149493835785153"><ele>238.99999999999997</ele><time>2026-03-29T09:35:26Z</time></trkpt><trkpt lat="41.72757123294661" lon="13.149358707819271"><ele>239.0</ele><time>2026-03-29T09:35:27Z</time></trkpt><trkpt lat="41.727592484672506" lon="13.149222015974065"><ele>239.0</ele><time>2026-03-29T09:35:28Z</time></trkpt><trkpt lat="41.72761215150432" lon="13.149087894451696"><ele>239.2</ele><time>2026-03-29T09:35:29Z</time></trkpt><trkpt lat="41.727633715926245" lon="13.148950412706437"><ele>239.39999999999998</ele><time>2026-03-29T09:35:30Z</time></trkpt><trkpt lat="41.727659012711655" lon="13.148812965495875"><ele>239.6</ele><time>2026-03-29T09:35:31Z</time></trkpt><trkpt lat="41.72768356525117" lon="13.148672867337432"><ele>239.8</ele><time>2026-03-29T09:35:32Z</time></trkpt><trkpt lat="41.727708796999856" lon="13.148532215040948"><ele>240.0</ele><time>2026-03-29T09:35:33Z</time></trkpt><trkpt lat="41.72773632446854" lon="13.148398931699806"><ele>240.0</ele><time>2026-03-29T09:35:34Z</time></trkpt><trkpt lat="41.72776350191999" lon="13.148279730749248"><ele>240.0</ele><time>2026-03-29T09:35:35Z</time></trkpt><trkpt lat="41.72779085340756" lon="13.14817301860505"><ele>240.0</ele><time>2026-03-29T09:35:36Z</time></trkpt><trkpt lat="41.727819071536246" lon="13.148068203374157"><ele>240.0</ele><time>2026-03-29T09:35:37Z</time></trkpt><trkpt lat="41.72785045578813" lon="13.147960890590824"><ele>240.0</ele><time>2026-03-29T09:35:38Z</time></trkpt><trkpt lat="41.72788527116829" lon="13.147848280132651"><ele>240.0</ele><time>2026-03-29T09:35:39Z</time></trkpt><trkpt lat="41.727924148153335" lon="13.147717663611001"><ele>240.0</ele><time>2026-03-29T09:35:40Z</time></trkpt><trkpt lat="41.72796892568797" lon="13.147584593134129"><ele>240.0</ele><time>2026-03-29T09:35:41Z</time></trkpt><trkpt lat="41.72801094736431" lon="13.147440890889888"><ele>240.0</ele><time>2026-03-29T09:35:42Z</time></trkpt><trkpt lat="41.72805630308786" lon="13.147304539713586"><ele>240.0</ele><time>2026-03-29T09:35:43Z</time></trkpt><trkpt lat="41.72809344014484" lon="13.147180404736481"><ele>240.0</ele><time>2026-03-29T09:35:44Z</time></trkpt><trkpt lat="41.728128366611564" lon="13.14706950014565"><ele>239.83333333333334</ele><time>2026-03-29T09:35:45Z</time></trkpt><trkpt lat="41.72815608879046" lon="13.146972934644033"><ele>239.66666666666669</ele><time>2026-03-29T09:35:46Z</time></trkpt><trkpt lat="41.72819851512698" lon="13.146835465453822"><ele>239.5</ele><time>2026-03-29T09:35:48Z</time></trkpt><trkpt lat="41.72823854522852" lon="13.146760143767185"><ele>239.33333333333334</ele><time>2026-03-29T09:35:51Z</time></trkpt><trkpt lat="41.728247736710834" lon="13.146653452673124"><ele>239.16666666666669</ele><time>2026-03-29T09:40:01Z</time></trkpt><trkpt lat="41.72825030097407" lon="13.146543824121721"><ele>239.0</ele><time>2026-03-29T09:40:03Z</time></trkpt><trkpt lat="41.72825865957196" lon="13.146368006626611"><ele>238.50000000000003</ele><time>2026-03-29T09:40:05Z</time></trkpt><trkpt lat="41.72826286480656" lon="13.1462797895606"><ele>238.0</ele><time>2026-03-29T09:40:06Z</time></trkpt><trkpt lat="41.728266469363184" lon="13.146191736836949"><ele>237.5</ele><time>2026-03-29T09:40:07Z</time></trkpt><trkpt lat="41.728274436749956" lon="13.146077465486888"><ele>237.0</ele><time>2026-03-29T09:40:08Z</time></trkpt><trkpt lat="41.72828904581126" lon="13.14595027291139"><ele>236.50000000000003</ele><time>2026-03-29T09:40:09Z</time></trkpt><trkpt lat="41.728302487066955" lon="13.145821851392993"><ele>236.0</ele><time>2026-03-29T09:40:10Z</time></trkpt><trkpt lat="41.728317151453034" lon="13.145683441297372"><ele>235.50000000000003</ele><time>2026-03-29T09:40:11Z</time></trkpt><trkpt lat="41.728332311810135" lon="13.145569975573663"><ele>235.0</ele><time>2026-03-29T09:40:12Z</time></trkpt><trkpt lat="41.72834579836852" lon="13.145480061231737"><ele>234.5</ele><time>2026-03-29T09:40:13Z</time></trkpt><trkpt lat="41.728358589647584" lon="13.145381256457716"><ele>234.0</ele><time>2026-03-29T09:40:14Z</time></trkpt><trkpt lat="41.7283707873177" lon="13.145277445887709"><ele>233.50000000000003</ele><time>2026-03-29T09:40:15Z</time></trkpt><trkpt lat="41.72838358229327" lon="13.145152869692685"><ele>233.0</ele><time>2026-03-29T09:40:16Z</time></trkpt><trkpt lat="41.72839398869681" lon="13.145059689400373"><ele>233.00000000000003</ele><time>2026-03-29T09:40:17Z</time></trkpt><trkpt lat="41.72840325144238" lon="13.144958613359929"><ele>233.0</ele><time>2026-03-29T09:40:18Z</time></trkpt><trkpt lat="41.728415973260276" lon="13.144854603423006"><ele>233.0</ele><time>2026-03-29T09:40:19Z</time></trkpt><trkpt lat="41.72843169886848" lon="13.144760654309588"><ele>233.0</ele><time>2026-03-29T09:40:20Z</time></trkpt><trkpt lat="41.72844500245587" lon="13.144658027301073"><ele>233.00000000000003</ele><time>2026-03-29T09:40:21Z</time></trkpt><trkpt lat="41.728460265271366" lon="13.144548451777677"><ele>233.0</ele><time>2026-03-29T09:40:22Z</time></trkpt><trkpt lat="41.72848202934796" lon="13.144397972380936"><ele>232.75</ele><time>2026-03-29T09:40:23Z</time></trkpt><trkpt lat="41.728505065922924" lon="13.144255936169687"><ele>232.5</ele><time>2026-03-29T09:40:24Z</time></trkpt><trkpt lat="41.72853427820371" lon="13.144099726258222"><ele>232.25</ele><time>2026-03-29T09:40:25Z</time></trkpt><trkpt lat="41.728566055722496" lon="13.143929542011053"><ele>232.0</ele><time>2026-03-29T09:40:26Z</time></trkpt><trkpt lat="41.72860183678189" lon="13.14377420604143"><ele>232.0</ele><time>2026-03-29T09:40:27Z</time></trkpt><trkpt lat="41.728635499786066" lon="13.143621796069004"><ele>232.0</ele><time>2026-03-29T09:40:28Z</time></trkpt><trkpt lat="41.72867251140663" lon="13.143472579558557"><ele>232.0</ele><time>2026-03-29T09:40:29Z</time></trkpt><trkpt lat="41.72870867012668" lon="13.143324654948952"><ele>232.0</ele><time>2026-03-29T09:40:30Z</time></trkpt><trkpt lat="41.72874246648976" lon="13.143183730582514"><ele>231.8</ele><time>2026-03-29T09:40:31Z</time></trkpt><trkpt lat="41.728770082912405" lon="13.143068683601955"><ele>231.6</ele><time>2026-03-29T09:40:32Z</time></trkpt><trkpt lat="41.728790756903926" lon="13.142984162164645"><ele>231.40000000000003</ele><time>2026-03-29T09:40:33Z</time></trkpt><trkpt lat="41.72883067917143" lon="13.142858574407477"><ele>231.20000000000002</ele><time>2026-03-29T09:40:35Z</time></trkpt><trkpt lat="41.728861419094805" lon="13.142748901372533"><ele>231.0</ele><time>2026-03-29T09:40:37Z</time></trkpt><trkpt lat="41.72891023367782" lon="13.142603316340471"><ele>231.0</ele><time>2026-03-29T09:40:39Z</time></trkpt><trkpt lat="41.728947734503" lon="13.142446102712068"><ele>231.0</ele><time>2026-03-29T09:40:41Z</time></trkpt><trkpt lat="41.72896660178818" lon="13.142350323030282"><ele>231.0</ele><time>2026-03-29T09:40:42Z</time></trkpt><trkpt lat="41.7289920019251" lon="13.142254073215833"><ele>231.0</ele><time>2026-03-29T09:40:43Z</time></trkpt><trkpt lat="41.72901911750349" lon="13.142157298940067"><ele>231.0</ele><time>2026-03-29T09:40:44Z</time></trkpt><trkpt lat="41.7290452831164" lon="13.14205293157206"><ele>231.0</ele><time>2026-03-29T09:40:45Z</time></trkpt><trkpt lat="41.72906974261081" lon="13.141953577978228"><ele>230.8</ele><time>2026-03-29T09:40:46Z</time></trkpt><trkpt lat="41.72910601158713" lon="13.141814155958048"><ele>230.60000000000002</ele><time>2026-03-29T09:40:48Z</time></trkpt><trkpt lat="41.72914679559085" lon="13.14164505170002"><ele>230.4</ele><time>2026-03-29T09:40:50Z</time></trkpt><trkpt lat="41.729175385486926" lon="13.141533395901527"><ele>230.2</ele><time>2026-03-29T09:40:51Z</time></trkpt><trkpt lat="41.729205002644164" lon="13.141409872448698"><ele>230.0</ele><time>2026-03-29T09:40:52Z</time></trkpt><trkpt lat="41.729237817481085" lon="13.1412742329984"><ele>229.6</ele><time>2026-03-29T09:40:53Z</time></trkpt><trkpt lat="41.729271895471534" lon="13.141130945419365"><ele>229.2</ele><time>2026-03-29T09:40:54Z</time></trkpt><trkpt lat="41.72930698426905" lon="13.140998111009743"><ele>228.8</ele><time>2026-03-29T09:40:55Z</time></trkpt><trkpt lat="41.72933511373632" lon="13.140878242011471"><ele>228.4</ele><time>2026-03-29T09:40:56Z</time></trkpt><trkpt lat="41.72936783184035" lon="13.140758153397929"><ele>228.0</ele><time>2026-03-29T09:40:57Z</time></trkpt><trkpt lat="41.7294005176497" lon="13.14062685013495"><ele>227.8</ele><time>2026-03-29T09:40:58Z</time></trkpt><trkpt lat="41.72943039852349" lon="13.140486369247183"><ele>227.60000000000002</ele><time>2026-03-29T09:40:59Z</time></trkpt><trkpt lat="41.72947583420478" lon="13.140343518099757"><ele>227.39999999999998</ele><time>2026-03-29T09:41:00Z</time></trkpt><trkpt lat="41.729518201340504" lon="13.140200261180542"><ele>227.2</ele><time>2026-03-29T09:41:01Z</time></trkpt><trkpt lat="41.72954869362364" lon="13.140068930726942"><ele>227.0</ele><time>2026-03-29T09:41:02Z</time></trkpt><trkpt lat="41.729579318717825" lon="13.139949124608435"><ele>226.39999999999998</ele><time>2026-03-29T09:41:03Z</time></trkpt><trkpt lat="41.729609085895525" lon="13.139828167738749"><ele>225.79999999999998</ele><time>2026-03-29T09:41:04Z</time></trkpt><trkpt lat="41.729638389822135" lon="13.139705244885803"><ele>225.2</ele><time>2026-03-29T09:41:05Z</time></trkpt><trkpt lat="41.72966910355543" lon="13.139583314374795"><ele>224.6</ele><time>2026-03-29T09:41:06Z</time></trkpt><trkpt lat="41.72970473811365" lon="13.139456845092141"><ele>224.0</ele><time>2026-03-29T09:41:07Z</time></trkpt><trkpt lat="41.729741329977685" lon="13.139325587490662"><ele>224.0</ele><time>2026-03-29T09:41:08Z</time></trkpt><trkpt lat="41.7297789656628" lon="13.139173436822965"><ele>224.0</ele><time>2026-03-29T09:41:09Z</time></trkpt><trkpt lat="41.72982076394581" lon="13.139023891324804"><ele>224.0</ele><time>2026-03-29T09:41:10Z</time></trkpt><trkpt lat="41.72985095947765" lon="13.138857501747452"><ele>224.0</ele><time>2026-03-29T09:41:11Z</time></trkpt><trkpt lat="41.72986616038412" lon="13.138670806586445"><ele>224.25</ele><time>2026-03-29T09:41:12Z</time></trkpt><trkpt lat="41.72986841466798" lon="13.13847880887522"><ele>224.5</ele><time>2026-03-29T09:41:13Z</time></trkpt><trkpt lat="41.72986561828349" lon="13.13829476314077"><ele>224.75</ele><time>2026-03-29T09:41:14Z</time></trkpt><trkpt lat="41.72985469538672" lon="13.138112821431486"><ele>225.0</ele><time>2026-03-29T09:41:15Z</time></trkpt><trkpt lat="41.729837887709195" lon="13.137927961938932"><ele>225.0</ele><time>2026-03-29T09:41:16Z</time></trkpt><trkpt lat="41.729813502895674" lon="13.137706147594718"><ele>225.0</ele><time>2026-03-29T09:41:17Z</time></trkpt><trkpt lat="41.729779499724955" lon="13.137426530578594"><ele>225.0</ele><time>2026-03-29T09:41:18Z</time></trkpt><trkpt lat="41.729743111009746" lon="13.13709949230748"><ele>221.5</ele><time>2026-03-29T09:41:19Z</time></trkpt><trkpt lat="41.72970608164211" lon="13.136732954205733"><ele>218.0</ele><time>2026-03-29T09:41:20Z</time></trkpt><trkpt lat="41.72967569270996" lon="13.136376755314693"><ele>218.33333333333334</ele><time>2026-03-29T09:41:21Z</time></trkpt><trkpt lat="41.72965406378701" lon="13.136068410331983"><ele>218.66666666666669</ele><time>2026-03-29T09:41:22Z</time></trkpt><trkpt lat="41.729636594906864" lon="13.135790397040223"><ele>219.0</ele><time>2026-03-29T09:41:23Z</time></trkpt><trkpt lat="41.72961042272968" lon="13.135533568293189"><ele>219.0</ele><time>2026-03-29T09:41:24Z</time></trkpt><trkpt lat="41.72959052356768" lon="13.135348572986908"><ele>219.0</ele><time>2026-03-29T09:41:25Z</time></trkpt><trkpt lat="41.72957357630878" lon="13.135171495591381"><ele>219.0</ele><time>2026-03-29T09:41:26Z</time></trkpt><trkpt lat="41.72955715050237" lon="13.134996942745778"><ele>219.0</ele><time>2026-03-29T09:41:27Z</time></trkpt><trkpt lat="41.729543982065195" lon="13.134832513522156"><ele>218.75</ele><time>2026-03-29T09:41:28Z</time></trkpt><trkpt lat="41.72952914067235" lon="13.13466396346118"><ele>218.5</ele><time>2026-03-29T09:41:29Z</time></trkpt><trkpt lat="41.72950998694481" lon="13.13447785718816"><ele>218.25</ele><time>2026-03-29T09:41:30Z</time></trkpt><trkpt lat="41.72949180927276" lon="13.134279876849304"><ele>218.0</ele><time>2026-03-29T09:41:31Z</time></trkpt><trkpt lat="41.729470094779316" lon="13.134089733110393"><ele>218.0</ele><time>2026-03-29T09:41:32Z</time></trkpt><trkpt lat="41.72945331131808" lon="13.13390563904018"><ele>218.0</ele><time>2026-03-29T09:41:33Z</time></trkpt><trkpt lat="41.729439219084995" lon="13.133728278792251"><ele>218.0</ele><time>2026-03-29T09:41:34Z</time></trkpt><trkpt lat="41.72941547575491" lon="13.133521346990433"><ele>218.0</ele><time>2026-03-29T09:41:35Z</time></trkpt><trkpt lat="41.7293829048998" lon="13.133273950909773"><ele>218.0</ele><time>2026-03-29T09:41:36Z</time></trkpt><trkpt lat="41.72937094074731" lon="13.13297074433925"><ele>218.0</ele><time>2026-03-29T09:41:37Z</time></trkpt><trkpt lat="41.7293306981709" lon="13.13263181324031"><ele>218.5</ele><time>2026-03-29T09:41:38Z</time></trkpt><trkpt lat="41.72933775589669" lon="13.132263952071671"><ele>219.0</ele><time>2026-03-29T09:41:39Z</time></trkpt><trkpt lat="41.729340140639884" lon="13.131876197996037"><ele>219.0</ele><time>2026-03-29T09:41:40Z</time></trkpt><trkpt lat="41.729400913465525" lon="13.131476821848933"><ele>219.0</ele><time>2026-03-29T09:41:41Z</time></trkpt><trkpt lat="41.729479532986694" lon="13.131071653074478"><ele>219.5</ele><time>2026-03-29T09:41:42Z</time></trkpt><trkpt lat="41.729562326180144" lon="13.130662043229155"><ele>220.0</ele><time>2026-03-29T09:41:43Z</time></trkpt><trkpt lat="41.72964469791343" lon="13.13025803999154"><ele>222.0</ele><time>2026-03-29T09:41:44Z</time></trkpt><trkpt lat="41.72973747648544" lon="13.129849079406823"><ele>224.0</ele><time>2026-03-29T09:41:45Z</time></trkpt><trkpt lat="41.72984030370625" lon="13.129433577748562"><ele>225.0</ele><time>2026-03-29T09:41:46Z</time></trkpt><trkpt lat="41.72994041487258" lon="13.129009917376933"><ele>226.0</ele><time>2026-03-29T09:41:47Z</time></trkpt><trkpt lat="41.730042760460734" lon="13.128594121435267"><ele>226.0</ele><time>2026-03-29T09:41:48Z</time></trkpt><trkpt lat="41.73014534561941" lon="13.128193234935669"><ele>226.0</ele><time>2026-03-29T09:41:49Z</time></trkpt><trkpt lat="41.73023830435525" lon="13.127828322923005"><ele>227.0</ele><time>2026-03-29T09:41:50Z</time></trkpt><trkpt lat="41.730328714115636" lon="13.127493557743572"><ele>228.0</ele><time>2026-03-29T09:41:51Z</time></trkpt><trkpt lat="41.73041746256383" lon="13.127163043131107"><ele>228.0</ele><time>2026-03-29T09:41:52Z</time></trkpt><trkpt lat="41.73050313985013" lon="13.126833095071797"><ele>228.0</ele><time>2026-03-29T09:41:53Z</time></trkpt><trkpt lat="41.730586860134615" lon="13.126514934312981"><ele>230.5</ele><time>2026-03-29T09:41:54Z</time></trkpt><trkpt lat="41.73066690470019" lon="13.126212144347676"><ele>233.0</ele><time>2026-03-29T09:41:55Z</time></trkpt><trkpt lat="41.73074728639603" lon="13.1259159518325"><ele>232.5</ele><time>2026-03-29T09:41:56Z</time></trkpt><trkpt lat="41.73082445244684" lon="13.125626050805744"><ele>232.0</ele><time>2026-03-29T09:41:57Z</time></trkpt><trkpt lat="41.73089771925323" lon="13.125341366290732"><ele>232.0</ele><time>2026-03-29T09:41:58Z</time></trkpt><trkpt lat="41.730968696156" lon="13.125067310273696"><ele>232.0</ele><time>2026-03-29T09:41:59Z</time></trkpt><trkpt lat="41.731033788021776" lon="13.1248166004635"><ele>232.0</ele><time>2026-03-29T09:42:00Z</time></trkpt><trkpt lat="41.73109207861539" lon="13.124605494073766"><ele>232.25</ele><time>2026-03-29T09:42:01Z</time></trkpt><trkpt lat="41.73114417741006" lon="13.124412932194996"><ele>232.5</ele><time>2026-03-29T09:42:02Z</time></trkpt><trkpt lat="41.73119141031874" lon="13.12423281530653"><ele>232.75</ele><time>2026-03-29T09:42:03Z</time></trkpt><trkpt lat="41.731237814123524" lon="13.124061009202899"><ele>233.0</ele><time>2026-03-29T09:42:04Z</time></trkpt><trkpt lat="41.73128156426745" lon="13.12390409118057"><ele>232.5</ele><time>2026-03-29T09:42:05Z</time></trkpt><trkpt lat="41.73132189541203" lon="13.123757577492018"><ele>232.0</ele><time>2026-03-29T09:42:06Z</time></trkpt><trkpt lat="41.73136162236484" lon="13.12362212131779"><ele>231.5</ele><time>2026-03-29T09:42:07Z</time></trkpt><trkpt lat="41.73140449902844" lon="13.12347766241441"><ele>231.0</ele><time>2026-03-29T09:42:08Z</time></trkpt><trkpt lat="41.73145580067608" lon="13.123314162376579"><ele>230.66666666666669</ele><time>2026-03-29T09:42:09Z</time></trkpt><trkpt lat="41.731514255585886" lon="13.123125036478061"><ele>230.33333333333334</ele><time>2026-03-29T09:42:10Z</time></trkpt><trkpt lat="41.73158244349628" lon="13.1229294209013"><ele>230.0</ele><time>2026-03-29T09:42:11Z</time></trkpt><trkpt lat="41.73165225972741" lon="13.12275661211235"><ele>230.0</ele><time>2026-03-29T09:42:12Z</time></trkpt><trkpt lat="41.73172309660583" lon="13.12259630909795"><ele>230.0</ele><time>2026-03-29T09:42:13Z</time></trkpt><trkpt lat="41.73179468148631" lon="13.122435368823625"><ele>230.0</ele><time>2026-03-29T09:42:14Z</time></trkpt><trkpt lat="41.731891200382954" lon="13.122244571093185"><ele>230.0</ele><time>2026-03-29T09:42:15Z</time></trkpt><trkpt lat="41.732003040220555" lon="13.122017179914211"><ele>230.0</ele><time>2026-03-29T09:42:16Z</time></trkpt><trkpt lat="41.73212128932502" lon="13.121804177668286"><ele>230.0</ele><time>2026-03-29T09:42:17Z</time></trkpt><trkpt lat="41.732221890001206" lon="13.121622632220221"><ele>229.33333333333334</ele><time>2026-03-29T09:42:18Z</time></trkpt><trkpt lat="41.732313955031124" lon="13.121449673174896"><ele>228.66666666666669</ele><time>2026-03-29T09:42:19Z</time></trkpt><trkpt lat="41.732428803228274" lon="13.121232095547017"><ele>228.0</ele><time>2026-03-29T09:42:20Z</time></trkpt><trkpt lat="41.73257534972103" lon="13.12098849083984"><ele>228.0</ele><time>2026-03-29T09:42:21Z</time></trkpt><trkpt lat="41.732724781884805" lon="13.120745753885856"><ele>228.0</ele><time>2026-03-29T09:42:22Z</time></trkpt><trkpt lat="41.732849410252655" lon="13.120522435011237"><ele>228.0</ele><time>2026-03-29T09:42:23Z</time></trkpt><trkpt lat="41.73295995158979" lon="13.120308062967771"><ele>228.0</ele><time>2026-03-29T09:42:24Z</time></trkpt><trkpt lat="41.73306030655284" lon="13.12007470681592"><ele>228.0</ele><time>2026-03-29T09:42:25Z</time></trkpt><trkpt lat="41.73313712553776" lon="13.119810658551216"><ele>228.0</ele><time>2026-03-29T09:42:26Z</time></trkpt><trkpt lat="41.73318277511885" lon="13.119524675913702"><ele>228.0</ele><time>2026-03-29T09:42:27Z</time></trkpt><trkpt lat="41.73320360941353" lon="13.119255521059277"><ele>228.0</ele><time>2026-03-29T09:42:28Z</time></trkpt><trkpt lat="41.73322767070933" lon="13.11901494666989"><ele>228.0</ele><time>2026-03-29T09:42:29Z</time></trkpt><trkpt lat="41.73325408822667" lon="13.118787822145077"><ele>228.0</ele><time>2026-03-29T09:42:30Z</time></trkpt><trkpt lat="41.733283584804106" lon="13.118549085477163"><ele>228.0</ele><time>2026-03-29T09:42:31Z</time></trkpt><trkpt lat="41.73331374355628" lon="13.118319458563052"><ele>228.0</ele><time>2026-03-29T09:42:32Z</time></trkpt><trkpt lat="41.73334385227493" lon="13.118116480778584"><ele>227.75</ele><time>2026-03-29T09:42:33Z</time></trkpt><trkpt lat="41.73337502246437" lon="13.117925304317918"><ele>227.5</ele><time>2026-03-29T09:42:34Z</time></trkpt><trkpt lat="41.73341522207745" lon="13.117738178134164"><ele>227.25</ele><time>2026-03-29T09:42:35Z</time></trkpt><trkpt lat="41.733477043045056" lon="13.117565336379874"><ele>227.0</ele><time>2026-03-29T09:42:36Z</time></trkpt><trkpt lat="41.733559287784615" lon="13.117433012222149"><ele>226.33333333333334</ele><time>2026-03-29T09:42:37Z</time></trkpt><trkpt lat="41.73366501248771" lon="13.117324843752712"><ele>225.66666666666669</ele><time>2026-03-29T09:42:38Z</time></trkpt><trkpt lat="41.7337972861583" lon="13.117223420247521"><ele>225.0</ele><time>2026-03-29T09:42:39Z</time></trkpt><trkpt lat="41.733941655513995" lon="13.117105912848833"><ele>225.0</ele><time>2026-03-29T09:42:40Z</time></trkpt><trkpt lat="41.73408931690508" lon="13.117006428038843"><ele>225.0</ele><time>2026-03-29T09:42:41Z</time></trkpt><trkpt lat="41.73421341997782" lon="13.116950222381716"><ele>225.0</ele><time>2026-03-29T09:42:42Z</time></trkpt><trkpt lat="41.734332826161555" lon="13.116940675199908"><ele>225.0</ele><time>2026-03-29T09:42:43Z</time></trkpt><trkpt lat="41.7344717924803" lon="13.116956778630335"><ele>226.0</ele><time>2026-03-29T09:42:44Z</time></trkpt><trkpt lat="41.73462864478845" lon="13.116998185894015"><ele>227.0</ele><time>2026-03-29T09:42:45Z</time></trkpt><trkpt lat="41.73481543230304" lon="13.1170520232042"><ele>228.0</ele><time>2026-03-29T09:42:46Z</time></trkpt><trkpt lat="41.73503643665601" lon="13.117098814255844"><ele>231.5</ele><time>2026-03-29T09:42:47Z</time></trkpt><trkpt lat="41.73526024631443" lon="13.117146955097299"><ele>235.0</ele><time>2026-03-29T09:42:48Z</time></trkpt><trkpt lat="41.73548533909908" lon="13.117198929968625"><ele>235.0</ele><time>2026-03-29T09:42:49Z</time></trkpt><trkpt lat="41.73571695499145" lon="13.117254740904778"><ele>235.0</ele><time>2026-03-29T09:42:50Z</time></trkpt><trkpt lat="41.73595619842535" lon="13.117310741262024"><ele>235.5</ele><time>2026-03-29T09:42:51Z</time></trkpt><trkpt lat="41.73621136973488" lon="13.117369034085732"><ele>236.0</ele><time>2026-03-29T09:42:52Z</time></trkpt><trkpt lat="41.736470500339756" lon="13.117431541341018"><ele>236.0</ele><time>2026-03-29T09:42:53Z</time></trkpt><trkpt lat="41.736728919883646" lon="13.117494259109243"><ele>236.0</ele><time>2026-03-29T09:42:54Z</time></trkpt><trkpt lat="41.73698874428148" lon="13.11755537570483"><ele>236.5</ele><time>2026-03-29T09:42:55Z</time></trkpt><trkpt lat="41.7372478641577" lon="13.117617390204552"><ele>237.0</ele><time>2026-03-29T09:42:56Z</time></trkpt><trkpt lat="41.737505881585385" lon="13.117680812764016"><ele>237.0</ele><time>2026-03-29T09:42:57Z</time></trkpt><trkpt lat="41.73776586683427" lon="13.117742780638007"><ele>237.0</ele><time>2026-03-29T09:42:58Z</time></trkpt><trkpt lat="41.73802609732593" lon="13.117804261374177"><ele>237.0</ele><time>2026-03-29T09:42:59Z</time></trkpt><trkpt lat="41.73828596192136" lon="13.117865579783937"><ele>237.0</ele><time>2026-03-29T09:43:00Z</time></trkpt><trkpt lat="41.73854406939289" lon="13.117929068489417"><ele>237.5</ele><time>2026-03-29T09:43:01Z</time></trkpt><trkpt lat="41.7387991596433" lon="13.117991872349686"><ele>238.0</ele><time>2026-03-29T09:43:02Z</time></trkpt><trkpt lat="41.73905266305483" lon="13.118054380484821"><ele>238.0</ele><time>2026-03-29T09:43:03Z</time></trkpt><trkpt lat="41.73930412873311" lon="13.118112533023062"><ele>238.0</ele><time>2026-03-29T09:43:04Z</time></trkpt><trkpt lat="41.73955718772827" lon="13.118171889271514"><ele>237.5</ele><time>2026-03-29T09:43:05Z</time></trkpt><trkpt lat="41.739821878470956" lon="13.118233063006477"><ele>237.0</ele><time>2026-03-29T09:43:06Z</time></trkpt><trkpt lat="41.740074773018755" lon="13.118287960633378"><ele>238.5</ele><time>2026-03-29T09:43:07Z</time></trkpt><trkpt lat="41.74031263557147" lon="13.118341164861294"><ele>240.0</ele><time>2026-03-29T09:43:08Z</time></trkpt><trkpt lat="41.74055531656845" lon="13.118392315372263"><ele>240.0</ele><time>2026-03-29T09:43:09Z</time></trkpt><trkpt lat="41.74079598441751" lon="13.11845513286532"><ele>240.0</ele><time>2026-03-29T09:43:10Z</time></trkpt><trkpt lat="41.741047266674016" lon="13.118517012556838"><ele>241.0</ele><time>2026-03-29T09:43:11Z</time></trkpt><trkpt lat="41.74127354898437" lon="13.118571528840858"><ele>242.0</ele><time>2026-03-29T09:43:12Z</time></trkpt><trkpt lat="41.74147993127666" lon="13.118619438145462"><ele>243.0</ele><time>2026-03-29T09:43:13Z</time></trkpt><trkpt lat="41.74167220407659" lon="13.118667250794608"><ele>243.0</ele><time>2026-03-29T09:43:14Z</time></trkpt><trkpt lat="41.74184991382415" lon="13.118710957059113"><ele>243.0</ele><time>2026-03-29T09:43:15Z</time></trkpt><trkpt lat="41.74201417444543" lon="13.118751587104057"><ele>243.0</ele><time>2026-03-29T09:43:16Z</time></trkpt><trkpt lat="41.74217457375003" lon="13.118791622657797"><ele>244.0</ele><time>2026-03-29T09:43:17Z</time></trkpt><trkpt lat="41.74234722764181" lon="13.118831287299566"><ele>245.0</ele><time>2026-03-29T09:43:18Z</time></trkpt><trkpt lat="41.74253217181454" lon="13.11887617023835"><ele>246.0</ele><time>2026-03-29T09:43:19Z</time></trkpt><trkpt lat="41.742719977869406" lon="13.118926402566053"><ele>246.0</ele><time>2026-03-29T09:43:20Z</time></trkpt><trkpt lat="41.7429106152556" lon="13.118979990520497"><ele>246.0</ele><time>2026-03-29T09:43:21Z</time></trkpt><trkpt lat="41.743100717197954" lon="13.119051144547738"><ele>246.0</ele><time>2026-03-29T09:43:22Z</time></trkpt><trkpt lat="41.743288200270655" lon="13.119138100454304"><ele>246.0</ele><time>2026-03-29T09:43:23Z</time></trkpt><trkpt lat="41.74347565081412" lon="13.119237441887334"><ele>246.0</ele><time>2026-03-29T09:43:24Z</time></trkpt><trkpt lat="41.74366481046306" lon="13.119343444390287"><ele>246.0</ele><time>2026-03-29T09:43:25Z</time></trkpt><trkpt lat="41.74386104067441" lon="13.119470834182598"><ele>247.0</ele><time>2026-03-29T09:43:26Z</time></trkpt><trkpt lat="41.74406512196095" lon="13.119626915876239"><ele>248.0</ele><time>2026-03-29T09:43:27Z</time></trkpt><trkpt lat="41.74428090339845" lon="13.119812333050485"><ele>249.0</ele><time>2026-03-29T09:43:28Z</time></trkpt><trkpt lat="41.74450028066928" lon="13.120033899838486"><ele>250.0</ele><time>2026-03-29T09:43:29Z</time></trkpt><trkpt lat="41.74471000248325" lon="13.120296048006843"><ele>250.0</ele><time>2026-03-29T09:43:30Z</time></trkpt><trkpt lat="41.74490534281921" lon="13.12056327601342"><ele>250.0</ele><time>2026-03-29T09:43:31Z</time></trkpt><trkpt lat="41.74507892702765" lon="13.120804383479516"><ele>252.0</ele><time>2026-03-29T09:43:32Z</time></trkpt><trkpt lat="41.745243278470625" lon="13.121030525340819"><ele>254.0</ele><time>2026-03-29T09:43:33Z</time></trkpt><trkpt lat="41.74540602579624" lon="13.121253826295813"><ele>254.0</ele><time>2026-03-29T09:43:34Z</time></trkpt><trkpt lat="41.74556479419871" lon="13.121473521734512"><ele>254.0</ele><time>2026-03-29T09:43:35Z</time></trkpt><trkpt lat="41.74572488402169" lon="13.121680107122648"><ele>254.33333333333334</ele><time>2026-03-29T09:43:36Z</time></trkpt><trkpt lat="41.74589295696312" lon="13.121873530012227"><ele>254.66666666666669</ele><time>2026-03-29T09:43:37Z</time></trkpt><trkpt lat="41.746070934543006" lon="13.122054764092676"><ele>255.0</ele><time>2026-03-29T09:43:38Z</time></trkpt><trkpt lat="41.74626896794226" lon="13.122222947835395"><ele>256.0</ele><time>2026-03-29T09:43:39Z</time></trkpt><trkpt lat="41.74648497218183" lon="13.122373460797707"><ele>257.0</ele><time>2026-03-29T09:43:40Z</time></trkpt><trkpt lat="41.74671070066073" lon="13.122502458787508"><ele>260.5</ele><time>2026-03-29T09:43:41Z</time></trkpt><trkpt lat="41.746943740541404" lon="13.122608476378758"><ele>264.0</ele><time>2026-03-29T09:43:42Z</time></trkpt><trkpt lat="41.747152447193166" lon="13.12274229287174"><ele>264.0</ele><time>2026-03-29T09:43:43Z</time></trkpt><trkpt lat="41.74735734237991" lon="13.12284855405203"><ele>264.0</ele><time>2026-03-29T09:43:44Z</time></trkpt><trkpt lat="41.747622762732966" lon="13.12276801641427"><ele>265.0</ele><time>2026-03-29T09:43:45Z</time></trkpt><trkpt lat="41.74786633268288" lon="13.12278412031349"><ele>266.0</ele><time>2026-03-29T09:43:46Z</time></trkpt><trkpt lat="41.74810485002336" lon="13.122798907071944"><ele>266.0</ele><time>2026-03-29T09:43:47Z</time></trkpt><trkpt lat="41.748341403275134" lon="13.122810597073777"><ele>266.0</ele><time>2026-03-29T09:43:48Z</time></trkpt><trkpt lat="41.748565380822406" lon="13.122819129231349"><ele>267.33333333333337</ele><time>2026-03-29T09:43:49Z</time></trkpt><trkpt lat="41.74878821869822" lon="13.122824644436383"><ele>268.6666666666667</ele><time>2026-03-29T09:43:50Z</time></trkpt><trkpt lat="41.749013563125345" lon="13.122835756482502"><ele>270.0</ele><time>2026-03-29T09:43:51Z</time></trkpt><trkpt lat="41.74924431589453" lon="13.122844947835143"><ele>270.5</ele><time>2026-03-29T09:43:52Z</time></trkpt><trkpt lat="41.74947820255194" lon="13.1228490471459"><ele>271.0</ele><time>2026-03-29T09:43:53Z</time></trkpt><trkpt lat="41.74971559530284" lon="13.122855576627277"><ele>271.0</ele><time>2026-03-29T09:43:54Z</time></trkpt><trkpt lat="41.74995421076514" lon="13.122865408008751"><ele>271.0</ele><time>2026-03-29T09:43:55Z</time></trkpt><trkpt lat="41.75019642393245" lon="13.122873412073835"><ele>270.0</ele><time>2026-03-29T09:43:56Z</time></trkpt><trkpt lat="41.75044458277777" lon="13.122882433613103"><ele>269.0</ele><time>2026-03-29T09:43:57Z</time></trkpt><trkpt lat="41.7506954541733" lon="13.12289445312533"><ele>269.0</ele><time>2026-03-29T09:43:58Z</time></trkpt><trkpt lat="41.75094928814801" lon="13.122906097383279"><ele>269.0</ele><time>2026-03-29T09:43:59Z</time></trkpt><trkpt lat="41.751204092692724" lon="13.122920553607242"><ele>268.5</ele><time>2026-03-29T09:44:00Z</time></trkpt><trkpt lat="41.75147040078867" lon="13.122925484725707"><ele>268.0</ele><time>2026-03-29T09:44:01Z</time></trkpt><trkpt lat="41.75173530566999" lon="13.12293517016109"><ele>266.5</ele><time>2026-03-29T09:44:02Z</time></trkpt><trkpt lat="41.75199672958009" lon="13.122941276831394"><ele>265.0</ele><time>2026-03-29T09:44:03Z</time></trkpt><trkpt lat="41.75226061233566" lon="13.122945823694437"><ele>265.0</ele><time>2026-03-29T09:44:04Z</time></trkpt><trkpt lat="41.752526624859854" lon="13.122952148583204"><ele>265.0</ele><time>2026-03-29T09:44:05Z</time></trkpt><trkpt lat="41.75279799217483" lon="13.122958663472739"><ele>262.5</ele><time>2026-03-29T09:44:06Z</time></trkpt><trkpt lat="41.75307249824437" lon="13.122967690380264"><ele>260.0</ele><time>2026-03-29T09:44:07Z</time></trkpt><trkpt lat="41.75335058736093" lon="13.122979762216605"><ele>256.5</ele><time>2026-03-29T09:44:08Z</time></trkpt><trkpt lat="41.753630543239495" lon="13.122986153636514"><ele>253.0</ele><time>2026-03-29T09:44:09Z</time></trkpt><trkpt lat="41.75391540303087" lon="13.122977856515943"><ele>253.0</ele><time>2026-03-29T09:44:10Z</time></trkpt><trkpt lat="41.754216689263124" lon="13.12295798210221"><ele>253.0</ele><time>2026-03-29T09:44:11Z</time></trkpt><trkpt lat="41.754538333625504" lon="13.122930402830804"><ele>249.5</ele><time>2026-03-29T09:44:12Z</time></trkpt><trkpt lat="41.75487773010428" lon="13.122878483192515"><ele>246.0</ele><time>2026-03-29T09:44:13Z</time></trkpt><trkpt lat="41.755204119293566" lon="13.122823975711706"><ele>243.5</ele><time>2026-03-29T09:44:14Z</time></trkpt><trkpt lat="41.75550707096805" lon="13.122774802851657"><ele>241.0</ele><time>2026-03-29T09:44:15Z</time></trkpt><trkpt lat="41.75580215270792" lon="13.122720780726103"><ele>239.0</ele><time>2026-03-29T09:44:16Z</time></trkpt><trkpt lat="41.75609752094805" lon="13.122662100446925"><ele>237.0</ele><time>2026-03-29T09:44:17Z</time></trkpt><trkpt lat="41.756387520908646" lon="13.12260225485781"><ele>237.0</ele><time>2026-03-29T09:44:18Z</time></trkpt><trkpt lat="41.756673049873235" lon="13.122541472629306"><ele>237.0</ele><time>2026-03-29T09:44:19Z</time></trkpt><trkpt lat="41.75694997776031" lon="13.122472768275262"><ele>232.5</ele><time>2026-03-29T09:44:20Z</time></trkpt><trkpt lat="41.75721941955137" lon="13.122395467534126"><ele>228.0</ele><time>2026-03-29T09:44:21Z</time></trkpt><trkpt lat="41.75746930598108" lon="13.122313999998186"><ele>230.5</ele><time>2026-03-29T09:44:22Z</time></trkpt><trkpt lat="41.75772080147304" lon="13.122229313730722"><ele>233.0</ele><time>2026-03-29T09:44:23Z</time></trkpt><trkpt lat="41.75797272990361" lon="13.122127727018299"><ele>233.0</ele><time>2026-03-29T09:44:24Z</time></trkpt><trkpt lat="41.75822280108479" lon="13.122004336063096"><ele>233.0</ele><time>2026-03-29T09:44:25Z</time></trkpt><trkpt lat="41.75847548635575" lon="13.121862395943028"><ele>232.5</ele><time>2026-03-29T09:44:26Z</time></trkpt><trkpt lat="41.75873406823176" lon="13.121703252170935"><ele>232.0</ele><time>2026-03-29T09:44:27Z</time></trkpt><trkpt lat="41.75900235236744" lon="13.121540059717125"><ele>232.0</ele><time>2026-03-29T09:44:28Z</time></trkpt><trkpt lat="41.759276965110004" lon="13.121370892687347"><ele>232.0</ele><time>2026-03-29T09:44:29Z</time></trkpt><trkpt lat="41.75955548605395" lon="13.121187688376711"><ele>233.0</ele><time>2026-03-29T09:44:30Z</time></trkpt><trkpt lat="41.759827485777244" lon="13.120987914176121"><ele>234.0</ele><time>2026-03-29T09:44:31Z</time></trkpt><trkpt lat="41.760092747153095" lon="13.120769135970292"><ele>235.0</ele><time>2026-03-29T09:44:32Z</time></trkpt><trkpt lat="41.76036793732598" lon="13.120519986663375"><ele>236.0</ele><time>2026-03-29T09:44:33Z</time></trkpt><trkpt lat="41.76065326852476" lon="13.120243496021242"><ele>236.0</ele><time>2026-03-29T09:44:34Z</time></trkpt><trkpt lat="41.760954563136494" lon="13.119952205176698"><ele>236.0</ele><time>2026-03-29T09:44:35Z</time></trkpt><trkpt lat="41.7612531527761" lon="13.11966623514779"><ele>234.0</ele><time>2026-03-29T09:44:36Z</time></trkpt><trkpt lat="41.76152289461642" lon="13.119398320414076"><ele>232.0</ele><time>2026-03-29T09:44:37Z</time></trkpt><trkpt lat="41.761784287977534" lon="13.119137462414983"><ele>230.5</ele><time>2026-03-29T09:44:38Z</time></trkpt><trkpt lat="41.76204200477795" lon="13.118883119416687"><ele>229.0</ele><time>2026-03-29T09:44:39Z</time></trkpt><trkpt lat="41.76229492208739" lon="13.118631896911975"><ele>229.0</ele><time>2026-03-29T09:44:40Z</time></trkpt><trkpt lat="41.762542383747245" lon="13.118384425625349"><ele>229.0</ele><time>2026-03-29T09:44:41Z</time></trkpt><trkpt lat="41.762783362214755" lon="13.118142522179301"><ele>232.0</ele><time>2026-03-29T09:44:42Z</time></trkpt><trkpt lat="41.7630189118755" lon="13.117895207693305"><ele>235.0</ele><time>2026-03-29T09:44:43Z</time></trkpt><trkpt lat="41.763258409443154" lon="13.117631553865415"><ele>237.0</ele><time>2026-03-29T09:44:44Z</time></trkpt><trkpt lat="41.76349893709737" lon="13.117338399733473"><ele>239.0</ele><time>2026-03-29T09:44:45Z</time></trkpt><trkpt lat="41.76374365830202" lon="13.117030036523234"><ele>239.0</ele><time>2026-03-29T09:44:46Z</time></trkpt><trkpt lat="41.76399127571456" lon="13.116713011383249"><ele>239.0</ele><time>2026-03-29T09:44:47Z</time></trkpt><trkpt lat="41.764233191504715" lon="13.11638470447245"><ele>238.5</ele><time>2026-03-29T09:44:48Z</time></trkpt><trkpt lat="41.76446868042512" lon="13.116052516536822"><ele>238.0</ele><time>2026-03-29T09:44:49Z</time></trkpt><trkpt lat="41.764701723037405" lon="13.11572398375851"><ele>238.0</ele><time>2026-03-29T09:44:50Z</time></trkpt><trkpt lat="41.764932623206924" lon="13.11539926206952"><ele>238.0</ele><time>2026-03-29T09:44:51Z</time></trkpt><trkpt lat="41.7651642893848" lon="13.115079279275111"><ele>239.5</ele><time>2026-03-29T09:44:52Z</time></trkpt><trkpt lat="41.76539633165921" lon="13.114770443793851"><ele>241.0</ele><time>2026-03-29T09:44:53Z</time></trkpt><trkpt lat="41.76562303168194" lon="13.114490983307302"><ele>241.0</ele><time>2026-03-29T09:44:54Z</time></trkpt><trkpt lat="41.76584630873943" lon="13.114235978395646"><ele>241.0</ele><time>2026-03-29T09:44:55Z</time></trkpt><trkpt lat="41.76607625765667" lon="13.113992393481913"><ele>240.0</ele><time>2026-03-29T09:44:56Z</time></trkpt><trkpt lat="41.76631326631767" lon="13.113757590652474"><ele>239.0</ele><time>2026-03-29T09:44:57Z</time></trkpt><trkpt lat="41.76655712173904" lon="13.113533982327882"><ele>239.0</ele><time>2026-03-29T09:44:58Z</time></trkpt><trkpt lat="41.76681177469473" lon="13.113325946422485"><ele>239.0</ele><time>2026-03-29T09:44:59Z</time></trkpt><trkpt lat="41.76708288965413" lon="13.113128890234732"><ele>240.0</ele><time>2026-03-29T09:45:00Z</time></trkpt><trkpt lat="41.767366956027985" lon="13.112937147955565"><ele>241.0</ele><time>2026-03-29T09:45:01Z</time></trkpt><trkpt lat="41.7676678651375" lon="13.112759998727563"><ele>241.0</ele><time>2026-03-29T09:45:02Z</time></trkpt><trkpt lat="41.767983185509905" lon="13.112605585995833"><ele>241.0</ele><time>2026-03-29T09:45:03Z</time></trkpt><trkpt lat="41.76831375139491" lon="13.11247040981329"><ele>244.0</ele><time>2026-03-29T09:45:04Z</time></trkpt><trkpt lat="41.768656582161306" lon="13.112344123143211"><ele>247.0</ele><time>2026-03-29T09:45:05Z</time></trkpt><trkpt lat="41.7690168379643" lon="13.11224297108295"><ele>249.0</ele><time>2026-03-29T09:45:06Z</time></trkpt><trkpt lat="41.76936913404551" lon="13.112173363735458"><ele>251.0</ele><time>2026-03-29T09:45:07Z</time></trkpt><trkpt lat="41.76968642956299" lon="13.112127832934634"><ele>251.0</ele><time>2026-03-29T09:45:08Z</time></trkpt><trkpt lat="41.77000100319613" lon="13.112098180363686"><ele>251.0</ele><time>2026-03-29T09:45:09Z</time></trkpt><trkpt lat="41.7703090463801" lon="13.112096079544923"><ele>255.0</ele><time>2026-03-29T09:45:10Z</time></trkpt><trkpt lat="41.77061240288911" lon="13.112112811796054"><ele>259.0</ele><time>2026-03-29T09:45:11Z</time></trkpt><trkpt lat="41.77091250374184" lon="13.11214653828382"><ele>263.0</ele><time>2026-03-29T09:45:12Z</time></trkpt><trkpt lat="41.771210097075844" lon="13.112184477498849"><ele>267.0</ele><time>2026-03-29T09:45:13Z</time></trkpt><trkpt lat="41.771501722689386" lon="13.112228508845828"><ele>267.0</ele><time>2026-03-29T09:45:14Z</time></trkpt><trkpt lat="41.771787401531554" lon="13.11228554574729"><ele>267.0</ele><time>2026-03-29T09:45:15Z</time></trkpt><trkpt lat="41.772068445143034" lon="13.112356005012636"><ele>265.0</ele><time>2026-03-29T09:45:16Z</time></trkpt><trkpt lat="41.772345725114256" lon="13.112451712470968"><ele>263.0</ele><time>2026-03-29T09:45:17Z</time></trkpt><trkpt lat="41.77261742690307" lon="13.112584990225079"><ele>267.5</ele><time>2026-03-29T09:45:18Z</time></trkpt><trkpt lat="41.772886416000865" lon="13.112736069684914"><ele>272.0</ele><time>2026-03-29T09:45:19Z</time></trkpt><trkpt lat="41.77315206927321" lon="13.11290614194"><ele>272.0</ele><time>2026-03-29T09:45:20Z</time></trkpt><trkpt lat="41.77341025482913" lon="13.113100589949914"><ele>272.0</ele><time>2026-03-29T09:45:21Z</time></trkpt><trkpt lat="41.77366239539873" lon="13.113313690811363"><ele>275.0</ele><time>2026-03-29T09:45:22Z</time></trkpt><trkpt lat="41.77390124601966" lon="13.113545178064513"><ele>278.0</ele><time>2026-03-29T09:45:23Z</time></trkpt><trkpt lat="41.774134938239186" lon="13.11379546949383"><ele>272.0</ele><time>2026-03-29T09:45:24Z</time></trkpt><trkpt lat="41.77435223425449" lon="13.114081007421671"><ele>266.0</ele><time>2026-03-29T09:45:25Z</time></trkpt><trkpt lat="41.77454553360713" lon="13.114406576720542"><ele>275.5</ele><time>2026-03-29T09:45:26Z</time></trkpt><trkpt lat="41.77472310098896" lon="13.114762727913577"><ele>285.0</ele><time>2026-03-29T09:45:27Z</time></trkpt><trkpt lat="41.77488329184301" lon="13.11514775297463"><ele>285.0</ele><time>2026-03-29T09:45:28Z</time></trkpt><trkpt lat="41.775042348473335" lon="13.115550292599915"><ele>285.0</ele><time>2026-03-29T09:45:29Z</time></trkpt><trkpt lat="41.775203279080266" lon="13.115963623201184"><ele>291.0</ele><time>2026-03-29T09:45:30Z</time></trkpt><trkpt lat="41.775361844555285" lon="13.116394420166111"><ele>297.0</ele><time>2026-03-29T09:45:31Z</time></trkpt><trkpt lat="41.77550114105697" lon="13.116808429358871"><ele>297.0</ele><time>2026-03-29T09:45:32Z</time></trkpt><trkpt lat="41.77563625202819" lon="13.11719409739564"><ele>297.0</ele><time>2026-03-29T09:45:33Z</time></trkpt><trkpt lat="41.77579384934773" lon="13.117576317898902"><ele>296.5</ele><time>2026-03-29T09:45:34Z</time></trkpt><trkpt lat="41.77598158969884" lon="13.117948231853553"><ele>296.0</ele><time>2026-03-29T09:45:35Z</time></trkpt><trkpt lat="41.77619960882949" lon="13.118292208025053"><ele>296.0</ele><time>2026-03-29T09:45:36Z</time></trkpt><trkpt lat="41.776443593007606" lon="13.118612799824517"><ele>296.0</ele><time>2026-03-29T09:45:37Z</time></trkpt><trkpt lat="41.77670209770263" lon="13.118912444960925"><ele>297.5</ele><time>2026-03-29T09:45:38Z</time></trkpt><trkpt lat="41.776960071990736" lon="13.119168609398985"><ele>299.0</ele><time>2026-03-29T09:45:39Z</time></trkpt><trkpt lat="41.77722662671907" lon="13.119388840131723"><ele>299.0</ele><time>2026-03-29T09:45:40Z</time></trkpt><trkpt lat="41.77751218040601" lon="13.11958496247526"><ele>299.0</ele><time>2026-03-29T09:45:41Z</time></trkpt><trkpt lat="41.77782038751588" lon="13.119746637523596"><ele>302.0</ele><time>2026-03-29T09:45:42Z</time></trkpt><trkpt lat="41.77815000821163" lon="13.119870931304838"><ele>305.0</ele><time>2026-03-29T09:45:43Z</time></trkpt><trkpt lat="41.778502307612406" lon="13.119967250982445"><ele>300.5</ele><time>2026-03-29T09:45:44Z</time></trkpt><trkpt lat="41.7788635882611" lon="13.120048723416872"><ele>296.0</ele><time>2026-03-29T09:45:45Z</time></trkpt><trkpt lat="41.77922837946817" lon="13.120130661276708"><ele>301.5</ele><time>2026-03-29T09:45:46Z</time></trkpt><trkpt lat="41.77957445416813" lon="13.12021557848081"><ele>307.0</ele><time>2026-03-29T09:45:47Z</time></trkpt><trkpt lat="41.77988700772172" lon="13.12028902229128"><ele>308.5</ele><time>2026-03-29T09:45:48Z</time></trkpt><trkpt lat="41.780187016982424" lon="13.12036012087551"><ele>310.0</ele><time>2026-03-29T09:45:49Z</time></trkpt><trkpt lat="41.780481236247056" lon="13.120436499837984"><ele>310.0</ele><time>2026-03-29T09:45:50Z</time></trkpt><trkpt lat="41.78077383505777" lon="13.120507322656486"><ele>310.0</ele><time>2026-03-29T09:45:51Z</time></trkpt><trkpt lat="41.78106051820793" lon="13.120572696700103"><ele>307.0</ele><time>2026-03-29T09:45:52Z</time></trkpt><trkpt lat="41.781344311437" lon="13.120639623947165"><ele>304.0</ele><time>2026-03-29T09:45:53Z</time></trkpt><trkpt lat="41.78163211218516" lon="13.120710040202805"><ele>298.5</ele><time>2026-03-29T09:45:54Z</time></trkpt><trkpt lat="41.78192298183142" lon="13.120782970965825"><ele>293.0</ele><time>2026-03-29T09:45:55Z</time></trkpt><trkpt lat="41.78222233535463" lon="13.120853988676519"><ele>293.0</ele><time>2026-03-29T09:45:56Z</time></trkpt><trkpt lat="41.782524160660635" lon="13.120922301805908"><ele>293.0</ele><time>2026-03-29T09:45:57Z</time></trkpt><trkpt lat="41.78281982259953" lon="13.12099210182523"><ele>292.5</ele><time>2026-03-29T09:45:58Z</time></trkpt><trkpt lat="41.78311211112414" lon="13.121060050676855"><ele>292.0</ele><time>2026-03-29T09:45:59Z</time></trkpt><trkpt lat="41.783400415505476" lon="13.121131930140447"><ele>295.0</ele><time>2026-03-29T09:46:00Z</time></trkpt><trkpt lat="41.78368475488165" lon="13.121206691563577"><ele>298.0</ele><time>2026-03-29T09:46:01Z</time></trkpt><trkpt lat="41.78396286458421" lon="13.121285233348228"><ele>298.0</ele><time>2026-03-29T09:46:02Z</time></trkpt><trkpt lat="41.784221124033564" lon="13.121375088793775"><ele>298.0</ele><time>2026-03-29T09:46:03Z</time></trkpt><trkpt lat="41.78447962556046" lon="13.121482636733907"><ele>300.0</ele><time>2026-03-29T09:46:04Z</time></trkpt><trkpt lat="41.78473716478191" lon="13.121604146245735"><ele>302.0</ele><time>2026-03-29T09:46:05Z</time></trkpt><trkpt lat="41.784983520885476" lon="13.121735299623884"><ele>305.0</ele><time>2026-03-29T09:46:06Z</time></trkpt><trkpt lat="41.78522025510137" lon="13.12187564114006"><ele>308.0</ele><time>2026-03-29T09:46:07Z</time></trkpt><trkpt lat="41.78545467958689" lon="13.122033380485332"><ele>308.0</ele><time>2026-03-29T09:46:08Z</time></trkpt><trkpt lat="41.78566580445427" lon="13.122197372954215"><ele>308.0</ele><time>2026-03-29T09:46:09Z</time></trkpt><trkpt lat="41.785893532992084" lon="13.122380620796704"><ele>305.0</ele><time>2026-03-29T09:46:10Z</time></trkpt><trkpt lat="41.78612166476128" lon="13.122599102197885"><ele>302.0</ele><time>2026-03-29T09:46:11Z</time></trkpt><trkpt lat="41.786350801470455" lon="13.122825868968077"><ele>302.0</ele><time>2026-03-29T09:46:12Z</time></trkpt><trkpt lat="41.78658414911772" lon="13.12308008396045"><ele>302.0</ele><time>2026-03-29T09:46:13Z</time></trkpt><trkpt lat="41.78680890394361" lon="13.12336699588912"><ele>300.5</ele><time>2026-03-29T09:46:14Z</time></trkpt><trkpt lat="41.78703453158042" lon="13.123673854169708"><ele>299.0</ele><time>2026-03-29T09:46:15Z</time></trkpt><trkpt lat="41.78725437685333" lon="13.124005383346022"><ele>301.5</ele><time>2026-03-29T09:46:16Z</time></trkpt><trkpt lat="41.78746680463293" lon="13.12436366618929"><ele>304.0</ele><time>2026-03-29T09:46:17Z</time></trkpt><trkpt lat="41.78768314954964" lon="13.124742128012294"><ele>310.5</ele><time>2026-03-29T09:46:18Z</time></trkpt><trkpt lat="41.7878756619302" lon="13.125103625546792"><ele>317.0</ele><time>2026-03-29T09:46:19Z</time></trkpt><trkpt lat="41.78804092854693" lon="13.125424119076985"><ele>317.0</ele><time>2026-03-29T09:46:20Z</time></trkpt><trkpt lat="41.78818107424017" lon="13.125691006079037"><ele>317.0</ele><time>2026-03-29T09:46:21Z</time></trkpt><trkpt lat="41.78830456143637" lon="13.125924805498624"><ele>318.33333333333337</ele><time>2026-03-29T09:46:22Z</time></trkpt><trkpt lat="41.78842250147269" lon="13.126145942557178"><ele>319.6666666666667</ele><time>2026-03-29T09:46:23Z</time></trkpt><trkpt lat="41.78853273291329" lon="13.126355208677992"><ele>321.0</ele><time>2026-03-29T09:46:24Z</time></trkpt><trkpt lat="41.78864193711442" lon="13.126556046894123"><ele>323.0</ele><time>2026-03-29T09:46:25Z</time></trkpt><trkpt lat="41.788753708054465" lon="13.126764350442896"><ele>325.0</ele><time>2026-03-29T09:46:26Z</time></trkpt><trkpt lat="41.78885907281548" lon="13.126967448929973"><ele>327.0</ele><time>2026-03-29T09:46:27Z</time></trkpt><trkpt lat="41.78895806504909" lon="13.127151697437126"><ele>327.0</ele><time>2026-03-29T09:46:28Z</time></trkpt><trkpt lat="41.789059207165366" lon="13.127337607315189"><ele>327.0</ele><time>2026-03-29T09:46:29Z</time></trkpt><trkpt lat="41.7891551062774" lon="13.127513782400397"><ele>327.0</ele><time>2026-03-29T09:46:30Z</time></trkpt><trkpt lat="41.78924479267972" lon="13.127677220458747"><ele>327.0</ele><time>2026-03-29T09:46:31Z</time></trkpt><trkpt lat="41.78933404169977" lon="13.127841467681838"><ele>327.0</ele><time>2026-03-29T09:46:32Z</time></trkpt><trkpt lat="41.78941884879514" lon="13.128002072144486"><ele>327.0</ele><time>2026-03-29T09:46:33Z</time></trkpt><trkpt lat="41.78950784325974" lon="13.12816722651397"><ele>326.5</ele><time>2026-03-29T09:46:34Z</time></trkpt><trkpt lat="41.78959133652864" lon="13.128315944686927"><ele>326.0</ele><time>2026-03-29T09:46:35Z</time></trkpt><trkpt lat="41.78966558682802" lon="13.128452054166168"><ele>325.5</ele><time>2026-03-29T09:46:36Z</time></trkpt><trkpt lat="41.78974149087411" lon="13.128569194027374"><ele>325.0</ele><time>2026-03-29T09:46:37Z</time></trkpt><trkpt lat="41.78984659365858" lon="13.128655997787858"><ele>325.0</ele><time>2026-03-29T09:46:38Z</time></trkpt><trkpt lat="41.78997103062419" lon="13.128706407817061"><ele>325.0</ele><time>2026-03-29T09:46:39Z</time></trkpt><trkpt lat="41.79012022973429" lon="13.128725923705572"><ele>325.0</ele><time>2026-03-29T09:46:40Z</time></trkpt><trkpt lat="41.79028602506149" lon="13.12872106888718"><ele>325.0</ele><time>2026-03-29T09:46:41Z</time></trkpt><trkpt lat="41.79047280896228" lon="13.128737179372667"><ele>325.66666666666663</ele><time>2026-03-29T09:46:42Z</time></trkpt><trkpt lat="41.79063130516948" lon="13.12878716566657"><ele>326.3333333333333</ele><time>2026-03-29T09:46:43Z</time></trkpt><trkpt lat="41.79080439149324" lon="13.12886166825575"><ele>327.0</ele><time>2026-03-29T09:46:44Z</time></trkpt><trkpt lat="41.79097878997438" lon="13.128940827342447"><ele>327.6666666666667</ele><time>2026-03-29T09:46:45Z</time></trkpt><trkpt lat="41.791155214087254" lon="13.12903205987702"><ele>328.33333333333337</ele><time>2026-03-29T09:46:46Z</time></trkpt><trkpt lat="41.79133525653" lon="13.129119837318719"><ele>329.0</ele><time>2026-03-29T09:46:47Z</time></trkpt><trkpt lat="41.791507312677794" lon="13.12918735342959"><ele>329.0</ele><time>2026-03-29T09:46:48Z</time></trkpt><trkpt lat="41.79171380243401" lon="13.129239825020486"><ele>329.0</ele><time>2026-03-29T09:46:49Z</time></trkpt><trkpt lat="41.79194077317238" lon="13.129280274648092"><ele>329.0</ele><time>2026-03-29T09:46:50Z</time></trkpt><trkpt lat="41.79219014983206" lon="13.129312238778681"><ele>329.6666666666667</ele><time>2026-03-29T09:46:51Z</time></trkpt><trkpt lat="41.79241838350503" lon="13.129344536748748"><ele>330.3333333333333</ele><time>2026-03-29T09:46:52Z</time></trkpt><trkpt lat="41.792624072976196" lon="13.129380009161402"><ele>331.0</ele><time>2026-03-29T09:46:53Z</time></trkpt><trkpt lat="41.792817877090044" lon="13.1294184322583"><ele>331.0</ele><time>2026-03-29T09:46:54Z</time></trkpt><trkpt lat="41.79301568258388" lon="13.12945651794944"><ele>331.0</ele><time>2026-03-29T09:46:55Z</time></trkpt><trkpt lat="41.79322094383135" lon="13.12948700271031"><ele>331.0</ele><time>2026-03-29T09:46:56Z</time></trkpt><trkpt lat="41.793409995047874" lon="13.12949239687638"><ele>329.66666666666663</ele><time>2026-03-29T09:46:57Z</time></trkpt><trkpt lat="41.79359665124004" lon="13.129476523120312"><ele>328.3333333333333</ele><time>2026-03-29T09:46:58Z</time></trkpt><trkpt lat="41.79378967944724" lon="13.129428639152797"><ele>327.0</ele><time>2026-03-29T09:46:59Z</time></trkpt><trkpt lat="41.79399243143812" lon="13.12936801234509"><ele>327.0</ele><time>2026-03-29T09:47:00Z</time></trkpt><trkpt lat="41.79420524521005" lon="13.12928596374605"><ele>327.0</ele><time>2026-03-29T09:47:01Z</time></trkpt><trkpt lat="41.79442620917382" lon="13.129200617932359"><ele>326.5</ele><time>2026-03-29T09:47:02Z</time></trkpt><trkpt lat="41.79464960775036" lon="13.129125618920224"><ele>326.0</ele><time>2026-03-29T09:47:03Z</time></trkpt><trkpt lat="41.794874655246396" lon="13.12904872985147"><ele>326.0</ele><time>2026-03-29T09:47:04Z</time></trkpt><trkpt lat="41.795102771044796" lon="13.128976051633712"><ele>326.0</ele><time>2026-03-29T09:47:05Z</time></trkpt><trkpt lat="41.795331598544735" lon="13.128905683937033"><ele>325.5</ele><time>2026-03-29T09:47:06Z</time></trkpt><trkpt lat="41.79555984544662" lon="13.12883905643463"><ele>325.0</ele><time>2026-03-29T09:47:07Z</time></trkpt><trkpt lat="41.79577536732378" lon="13.128784621875464"><ele>325.0</ele><time>2026-03-29T09:47:08Z</time></trkpt><trkpt lat="41.796002079074164" lon="13.128742338984607"><ele>325.0</ele><time>2026-03-29T09:47:09Z</time></trkpt><trkpt lat="41.79623598137215" lon="13.128717979984883"><ele>326.0</ele><time>2026-03-29T09:47:10Z</time></trkpt><trkpt lat="41.79647950529253" lon="13.128704532101311"><ele>327.0</ele><time>2026-03-29T09:47:11Z</time></trkpt><trkpt lat="41.79673973937737" lon="13.128688707565892"><ele>328.0</ele><time>2026-03-29T09:47:12Z</time></trkpt><trkpt lat="41.79702253966197" lon="13.128662327888442"><ele>329.0</ele><time>2026-03-29T09:47:13Z</time></trkpt><trkpt lat="41.79729043991806" lon="13.128633755143007"><ele>329.0</ele><time>2026-03-29T09:47:14Z</time></trkpt><trkpt lat="41.79753497075266" lon="13.128604336540896"><ele>329.0</ele><time>2026-03-29T09:47:15Z</time></trkpt><trkpt lat="41.79775778852007" lon="13.128575876165193"><ele>329.6666666666667</ele><time>2026-03-29T09:47:16Z</time></trkpt><trkpt lat="41.7979728618272" lon="13.128539278477255"><ele>330.3333333333333</ele><time>2026-03-29T09:47:17Z</time></trkpt><trkpt lat="41.79816793454254" lon="13.128485437907827"><ele>331.0</ele><time>2026-03-29T09:47:18Z</time></trkpt><trkpt lat="41.79834324683723" lon="13.128420880764057"><ele>330.66666666666663</ele><time>2026-03-29T09:47:19Z</time></trkpt><trkpt lat="41.79851928994394" lon="13.128352388974312"><ele>330.3333333333333</ele><time>2026-03-29T09:47:20Z</time></trkpt><trkpt lat="41.798716465047605" lon="13.128332899387583"><ele>330.0</ele><time>2026-03-29T09:47:21Z</time></trkpt><trkpt lat="41.7989423492019" lon="13.12836323523091"><ele>330.0</ele><time>2026-03-29T09:47:22Z</time></trkpt><trkpt lat="41.79917889538571" lon="13.12839674467353"><ele>330.0</ele><time>2026-03-29T09:47:23Z</time></trkpt><trkpt lat="41.79941943458352" lon="13.128421361926378"><ele>330.0</ele><time>2026-03-29T09:47:24Z</time></trkpt><trkpt lat="41.79964643877496" lon="13.128444522768513"><ele>330.0</ele><time>2026-03-29T09:47:25Z</time></trkpt><trkpt lat="41.79986152376051" lon="13.128457226866514"><ele>330.0</ele><time>2026-03-29T09:47:26Z</time></trkpt><trkpt lat="41.80008131987066" lon="13.128433659704791"><ele>331.3333333333333</ele><time>2026-03-29T09:47:27Z</time></trkpt><trkpt lat="41.800276530523895" lon="13.12836324414975"><ele>332.66666666666663</ele><time>2026-03-29T09:47:28Z</time></trkpt><trkpt lat="41.80044430799469" lon="13.128278162222509"><ele>334.0</ele><time>2026-03-29T09:47:29Z</time></trkpt><trkpt lat="41.80057522065039" lon="13.128202871589243"><ele>334.0</ele><time>2026-03-29T09:47:30Z</time></trkpt><trkpt lat="41.80069703743586" lon="13.128169837720407"><ele>334.0</ele><time>2026-03-29T09:47:31Z</time></trkpt><trkpt lat="41.800817541510895" lon="13.128211975268773"><ele>334.0</ele><time>2026-03-29T09:47:32Z</time></trkpt><trkpt lat="41.80093033911227" lon="13.128335606525347"><ele>334.0</ele><time>2026-03-29T09:47:33Z</time></trkpt><trkpt lat="41.80107580932778" lon="13.128482800889929"><ele>335.0</ele><time>2026-03-29T09:47:34Z</time></trkpt><trkpt lat="41.80124852442538" lon="13.128606588639613"><ele>336.0</ele><time>2026-03-29T09:47:35Z</time></trkpt><trkpt lat="41.801467328635496" lon="13.128714364390136"><ele>337.0</ele><time>2026-03-29T09:47:36Z</time></trkpt><trkpt lat="41.80170782500248" lon="13.128795617364835"><ele>338.0</ele><time>2026-03-29T09:47:37Z</time></trkpt><trkpt lat="41.80197365207966" lon="13.128867227650026"><ele>339.0</ele><time>2026-03-29T09:47:38Z</time></trkpt><trkpt lat="41.80225473287701" lon="13.128947611629563"><ele>339.0</ele><time>2026-03-29T09:47:39Z</time></trkpt><trkpt lat="41.80253959094877" lon="13.129050015236656"><ele>339.0</ele><time>2026-03-29T09:47:40Z</time></trkpt><trkpt lat="41.80281839426718" lon="13.129152292278397"><ele>338.5</ele><time>2026-03-29T09:47:41Z</time></trkpt><trkpt lat="41.80309522300565" lon="13.12923653337162"><ele>338.0</ele><time>2026-03-29T09:47:42Z</time></trkpt><trkpt lat="41.80338363423506" lon="13.12930330960713"><ele>341.0</ele><time>2026-03-29T09:47:43Z</time></trkpt><trkpt lat="41.80368254513333" lon="13.129348487547333"><ele>344.0</ele><time>2026-03-29T09:47:44Z</time></trkpt><trkpt lat="41.803945582305964" lon="13.129381269567265"><ele>344.0</ele><time>2026-03-29T09:47:45Z</time></trkpt><trkpt lat="41.804183425775264" lon="13.129416614856696"><ele>344.0</ele><time>2026-03-29T09:47:46Z</time></trkpt><trkpt lat="41.80438849314166" lon="13.129468392313013"><ele>344.0</ele><time>2026-03-29T09:47:47Z</time></trkpt><trkpt lat="41.80457664044591" lon="13.129490923763434"><ele>345.6666666666667</ele><time>2026-03-29T09:47:48Z</time></trkpt><trkpt lat="41.804773113013795" lon="13.129458053578542"><ele>347.3333333333333</ele><time>2026-03-29T09:47:49Z</time></trkpt><trkpt lat="41.80497579330339" lon="13.129355097382817"><ele>349.0</ele><time>2026-03-29T09:47:50Z</time></trkpt><trkpt lat="41.805183095534865" lon="13.12922146625608"><ele>350.3333333333333</ele><time>2026-03-29T09:47:51Z</time></trkpt><trkpt lat="41.80538113102035" lon="13.129127709430298"><ele>351.6666666666667</ele><time>2026-03-29T09:47:52Z</time></trkpt><trkpt lat="41.805569038178696" lon="13.12907478216799"><ele>353.0</ele><time>2026-03-29T09:47:53Z</time></trkpt><trkpt lat="41.805778125951825" lon="13.129073155614913"><ele>353.0</ele><time>2026-03-29T09:47:54Z</time></trkpt><trkpt lat="41.80596334732681" lon="13.129074922990151"><ele>353.0</ele><time>2026-03-29T09:47:55Z</time></trkpt><trkpt lat="41.806124703163086" lon="13.129048635271383"><ele>353.0</ele><time>2026-03-29T09:47:56Z</time></trkpt><trkpt lat="41.80627683917618" lon="13.128953857785904"><ele>355.0</ele><time>2026-03-29T09:47:57Z</time></trkpt><trkpt lat="41.806399094465306" lon="13.128877963030064"><ele>357.0</ele><time>2026-03-29T09:47:58Z</time></trkpt><trkpt lat="41.8065311102472" lon="13.12884377857442"><ele>359.0</ele><time>2026-03-29T09:47:59Z</time></trkpt><trkpt lat="41.8066731517918" lon="13.12888319017931"><ele>361.0</ele><time>2026-03-29T09:48:00Z</time></trkpt><trkpt lat="41.80682361400292" lon="13.12898260042309"><ele>359.0</ele><time>2026-03-29T09:48:01Z</time></trkpt><trkpt lat="41.806957055579694" lon="13.129111344670436"><ele>357.0</ele><time>2026-03-29T09:48:02Z</time></trkpt><trkpt lat="41.807056808020704" lon="13.12925818600726"><ele>355.0</ele><time>2026-03-29T09:48:03Z</time></trkpt><trkpt lat="41.807125609103025" lon="13.129453148226059"><ele>355.0</ele><time>2026-03-29T09:48:04Z</time></trkpt><trkpt lat="41.80718467946719" lon="13.129706102555781"><ele>355.0</ele><time>2026-03-29T09:48:05Z</time></trkpt><trkpt lat="41.80723740981304" lon="13.129981275578563"><ele>355.0</ele><time>2026-03-29T09:48:06Z</time></trkpt><trkpt lat="41.80729809958245" lon="13.130247006165238"><ele>356.0</ele><time>2026-03-29T09:48:07Z</time></trkpt><trkpt lat="41.807352499654506" lon="13.13048822004303"><ele>357.0</ele><time>2026-03-29T09:48:08Z</time></trkpt><trkpt lat="41.80741344575035" lon="13.13070947684803"><ele>358.0</ele><time>2026-03-29T09:48:09Z</time></trkpt><trkpt lat="41.80747281912904" lon="13.130913421139285"><ele>360.25</ele><time>2026-03-29T09:48:10Z</time></trkpt><trkpt lat="41.8075387397621" lon="13.131074604355076"><ele>362.5</ele><time>2026-03-29T09:48:11Z</time></trkpt><trkpt lat="41.80762221114206" lon="13.131169532057926"><ele>364.75</ele><time>2026-03-29T09:48:12Z</time></trkpt><trkpt lat="41.807729516518606" lon="13.131205324929383"><ele>367.0</ele><time>2026-03-29T09:48:13Z</time></trkpt><trkpt lat="41.807862412287136" lon="13.131181991636273"><ele>369.0</ele><time>2026-03-29T09:48:14Z</time></trkpt><trkpt lat="41.808008887737735" lon="13.131100409486862"><ele>371.0</ele><time>2026-03-29T09:48:15Z</time></trkpt><trkpt lat="41.80813782540306" lon="13.1309616765932"><ele>373.0</ele><time>2026-03-29T09:48:16Z</time></trkpt><trkpt lat="41.808245837843806" lon="13.130832031994434"><ele>373.0</ele><time>2026-03-29T09:48:17Z</time></trkpt><trkpt lat="41.80837864913912" lon="13.130739235039528"><ele>373.0</ele><time>2026-03-29T09:48:18Z</time></trkpt><trkpt lat="41.80855154863815" lon="13.13070112967093"><ele>373.0</ele><time>2026-03-29T09:48:19Z</time></trkpt><trkpt lat="41.808725428747636" lon="13.130723743208252"><ele>375.3333333333333</ele><time>2026-03-29T09:48:20Z</time></trkpt><trkpt lat="41.80892199888391" lon="13.130779061637575"><ele>377.6666666666667</ele><time>2026-03-29T09:48:21Z</time></trkpt><trkpt lat="41.809130058585076" lon="13.130858697346"><ele>380.0</ele><time>2026-03-29T09:48:22Z</time></trkpt><trkpt lat="41.8093228784897" lon="13.13093298911502"><ele>382.6666666666667</ele><time>2026-03-29T09:48:23Z</time></trkpt><trkpt lat="41.80951665076032" lon="13.131005024040507"><ele>385.33333333333337</ele><time>2026-03-29T09:48:24Z</time></trkpt><trkpt lat="41.8097023495413" lon="13.13108191953696"><ele>388.0</ele><time>2026-03-29T09:48:25Z</time></trkpt><trkpt lat="41.80987663407205" lon="13.131149383855632"><ele>388.0</ele><time>2026-03-29T09:48:26Z</time></trkpt><trkpt lat="41.81002605022418" lon="13.131207945286773"><ele>388.0</ele><time>2026-03-29T09:48:27Z</time></trkpt><trkpt lat="41.810168981353144" lon="13.131261980142181"><ele>388.0</ele><time>2026-03-29T09:48:28Z</time></trkpt><trkpt lat="41.81028173036772" lon="13.131313114377319"><ele>388.0</ele><time>2026-03-29T09:48:29Z</time></trkpt><trkpt lat="41.81037227878626" lon="13.131340969183158"><ele>389.0</ele><time>2026-03-29T09:48:30Z</time></trkpt><trkpt lat="41.81047846949524" lon="13.131317732580786"><ele>390.0</ele><time>2026-03-29T09:48:31Z</time></trkpt><trkpt lat="41.81060125202511" lon="13.131255303645963"><ele>391.0</ele><time>2026-03-29T09:48:32Z</time></trkpt><trkpt lat="41.8107512478387" lon="13.131203698407996"><ele>392.0</ele><time>2026-03-29T09:48:33Z</time></trkpt><trkpt lat="41.810919306777386" lon="13.13118461069479"><ele>394.66666666666663</ele><time>2026-03-29T09:48:34Z</time></trkpt><trkpt lat="41.81109649753875" lon="13.131157002557641"><ele>397.33333333333337</ele><time>2026-03-29T09:48:35Z</time></trkpt><trkpt lat="41.81127333349677" lon="13.131140124216502"><ele>400.0</ele><time>2026-03-29T09:48:36Z</time></trkpt><trkpt lat="41.811446556990546" lon="13.131122833101733"><ele>400.0</ele><time>2026-03-29T09:48:37Z</time></trkpt><trkpt lat="41.8116172784629" lon="13.131103239846986"><ele>400.0</ele><time>2026-03-29T09:48:38Z</time></trkpt><trkpt lat="41.81178446923166" lon="13.13108100320226"><ele>400.0</ele><time>2026-03-29T09:48:39Z</time></trkpt><trkpt lat="41.8119334276598" lon="13.131027869120604"><ele>399.6666666666667</ele><time>2026-03-29T09:48:40Z</time></trkpt><trkpt lat="41.81208038698159" lon="13.130924630062127"><ele>399.33333333333337</ele><time>2026-03-29T09:48:41Z</time></trkpt><trkpt lat="41.81221878299041" lon="13.130801365969472"><ele>399.0</ele><time>2026-03-29T09:48:42Z</time></trkpt><trkpt lat="41.81235835238935" lon="13.130705827270216"><ele>399.0</ele><time>2026-03-29T09:48:43Z</time></trkpt><trkpt lat="41.81251107987892" lon="13.130642016838738"><ele>399.0</ele><time>2026-03-29T09:48:44Z</time></trkpt><trkpt lat="41.81269880013665" lon="13.130616760740219"><ele>399.0</ele><time>2026-03-29T09:48:45Z</time></trkpt><trkpt lat="41.812905882682365" lon="13.130595953739729"><ele>400.66666666666663</ele><time>2026-03-29T09:48:46Z</time></trkpt><trkpt lat="41.813079427696614" lon="13.130567757560907"><ele>402.3333333333333</ele><time>2026-03-29T09:48:47Z</time></trkpt><trkpt lat="41.81323744426315" lon="13.130558781589862"><ele>404.0</ele><time>2026-03-29T09:48:48Z</time></trkpt><trkpt lat="41.81340963886712" lon="13.130616040956587"><ele>404.66666666666663</ele><time>2026-03-29T09:48:49Z</time></trkpt><trkpt lat="41.81359984115274" lon="13.130709686284806"><ele>405.33333333333337</ele><time>2026-03-29T09:48:50Z</time></trkpt><trkpt lat="41.81378469348507" lon="13.130804978055547"><ele>406.0</ele><time>2026-03-29T09:48:51Z</time></trkpt><trkpt lat="41.81397340053342" lon="13.130858470250264"><ele>407.6666666666667</ele><time>2026-03-29T09:48:52Z</time></trkpt><trkpt lat="41.81417266900529" lon="13.130869501366837"><ele>409.33333333333337</ele><time>2026-03-29T09:48:53Z</time></trkpt><trkpt lat="41.814375973052705" lon="13.130824760258095"><ele>411.0</ele><time>2026-03-29T09:48:54Z</time></trkpt><trkpt lat="41.81458484464449" lon="13.130755479522861"><ele>410.33333333333337</ele><time>2026-03-29T09:48:55Z</time></trkpt><trkpt lat="41.81478960388709" lon="13.13069847438547"><ele>409.6666666666667</ele><time>2026-03-29T09:48:56Z</time></trkpt><trkpt lat="41.81497005618515" lon="13.13065074803421"><ele>409.0</ele><time>2026-03-29T09:48:57Z</time></trkpt><trkpt lat="41.81513991808602" lon="13.130604023997845"><ele>409.33333333333337</ele><time>2026-03-29T09:48:58Z</time></trkpt><trkpt lat="41.81531594106815" lon="13.130570865741802"><ele>409.66666666666663</ele><time>2026-03-29T09:48:59Z</time></trkpt><trkpt lat="41.815500617354296" lon="13.130591959495394"><ele>410.0</ele><time>2026-03-29T09:49:00Z</time></trkpt><trkpt lat="41.815689646662214" lon="13.130649747889878"><ele>412.0</ele><time>2026-03-29T09:49:01Z</time></trkpt><trkpt lat="41.81587211131511" lon="13.130724929442191"><ele>414.0</ele><time>2026-03-29T09:49:02Z</time></trkpt><trkpt lat="41.81602226291133" lon="13.130809247297458"><ele>416.0</ele><time>2026-03-29T09:49:03Z</time></trkpt><trkpt lat="41.816134363651294" lon="13.130917729329704"><ele>417.0</ele><time>2026-03-29T09:49:04Z</time></trkpt><trkpt lat="41.816224410396025" lon="13.13107676724306"><ele>418.0</ele><time>2026-03-29T09:49:05Z</time></trkpt><trkpt lat="41.816306002752086" lon="13.131266574167848"><ele>419.0</ele><time>2026-03-29T09:49:06Z</time></trkpt><trkpt lat="41.816382301526616" lon="13.131473990859261"><ele>421.66666666666663</ele><time>2026-03-29T09:49:07Z</time></trkpt><trkpt lat="41.81646755951831" lon="13.131671648512048"><ele>424.33333333333337</ele><time>2026-03-29T09:49:08Z</time></trkpt><trkpt lat="41.816586808826564" lon="13.131834482910207"><ele>427.0</ele><time>2026-03-29T09:49:09Z</time></trkpt><trkpt lat="41.8167419770027" lon="13.131974975178345"><ele>431.0</ele><time>2026-03-29T09:49:10Z</time></trkpt><trkpt lat="41.8169289193809" lon="13.132116587550174"><ele>435.0</ele><time>2026-03-29T09:49:11Z</time></trkpt><trkpt lat="41.81711710556917" lon="13.132262095153513"><ele>439.0</ele><time>2026-03-29T09:49:12Z</time></trkpt><trkpt lat="41.81726986754853" lon="13.132389092007655"><ele>438.33333333333337</ele><time>2026-03-29T09:49:13Z</time></trkpt><trkpt lat="41.81741698325628" lon="13.13250744061576"><ele>437.66666666666663</ele><time>2026-03-29T09:49:14Z</time></trkpt><trkpt lat="41.81756417755094" lon="13.13261299083733"><ele>437.0</ele><time>2026-03-29T09:49:15Z</time></trkpt><trkpt lat="41.81772501047567" lon="13.132689408558933"><ele>441.3333333333333</ele><time>2026-03-29T09:49:16Z</time></trkpt><trkpt lat="41.817893395269486" lon="13.132739109830096"><ele>445.66666666666663</ele><time>2026-03-29T09:49:17Z</time></trkpt><trkpt lat="41.818060818464346" lon="13.132791189074876"><ele>450.0</ele><time>2026-03-29T09:49:18Z</time></trkpt><trkpt lat="41.818224790726816" lon="13.132860036354192"><ele>450.0</ele><time>2026-03-29T09:49:19Z</time></trkpt><trkpt lat="41.818381085590275" lon="13.13295096210304"><ele>450.0</ele><time>2026-03-29T09:49:20Z</time></trkpt><trkpt lat="41.818527499447285" lon="13.133056918234972"><ele>450.0</ele><time>2026-03-29T09:49:21Z</time></trkpt><trkpt lat="41.81865094017558" lon="13.13315644654141"><ele>453.0</ele><time>2026-03-29T09:49:22Z</time></trkpt><trkpt lat="41.81875915231347" lon="13.133286637330757"><ele>456.0</ele><time>2026-03-29T09:49:23Z</time></trkpt><trkpt lat="41.81884767110509" lon="13.133456331076946"><ele>459.0</ele><time>2026-03-29T09:49:24Z</time></trkpt><trkpt lat="41.81890932895236" lon="13.133658753667335"><ele>459.0</ele><time>2026-03-29T09:49:25Z</time></trkpt><trkpt lat="41.8189625979365" lon="13.133888412153244"><ele>459.0</ele><time>2026-03-29T09:49:26Z</time></trkpt><trkpt lat="41.81902073247122" lon="13.13412056184015"><ele>459.0</ele><time>2026-03-29T09:49:27Z</time></trkpt><trkpt lat="41.81907729075629" lon="13.134351535823237"><ele>459.33333333333337</ele><time>2026-03-29T09:49:28Z</time></trkpt><trkpt lat="41.81913549231243" lon="13.134564173651848"><ele>459.6666666666667</ele><time>2026-03-29T09:49:29Z</time></trkpt><trkpt lat="41.8191876295268" lon="13.13475024998046"><ele>460.0</ele><time>2026-03-29T09:49:30Z</time></trkpt><trkpt lat="41.81921421968298" lon="13.134935409497148"><ele>460.0</ele><time>2026-03-29T09:49:31Z</time></trkpt><trkpt lat="41.819214063499274" lon="13.135132146833746"><ele>460.0</ele><time>2026-03-29T09:49:32Z</time></trkpt><trkpt lat="41.819182898343065" lon="13.135335611303713"><ele>460.0</ele><time>2026-03-29T09:49:33Z</time></trkpt><trkpt lat="41.819140843418246" lon="13.135544215099959"><ele>463.33333333333337</ele><time>2026-03-29T09:49:34Z</time></trkpt><trkpt lat="41.81908079456204" lon="13.135748920769746"><ele>466.66666666666663</ele><time>2026-03-29T09:49:35Z</time></trkpt><trkpt lat="41.81899906733878" lon="13.135940495272955"><ele>470.0</ele><time>2026-03-29T09:49:36Z</time></trkpt><trkpt lat="41.8188958183806" lon="13.136112316082775"><ele>470.0</ele><time>2026-03-29T09:49:37Z</time></trkpt><trkpt lat="41.81877368746391" lon="13.136257060674632"><ele>470.0</ele><time>2026-03-29T09:49:38Z</time></trkpt><trkpt lat="41.81863281573969" lon="13.136367793194184"><ele>470.0</ele><time>2026-03-29T09:49:39Z</time></trkpt><trkpt lat="41.81848172544658" lon="13.136445035817605"><ele>472.0</ele><time>2026-03-29T09:49:40Z</time></trkpt><trkpt lat="41.81834713682285" lon="13.136505127159063"><ele>474.0</ele><time>2026-03-29T09:49:41Z</time></trkpt><trkpt lat="41.81820716191022" lon="13.136549502240586"><ele>476.0</ele><time>2026-03-29T09:49:42Z</time></trkpt><trkpt lat="41.818057108906025" lon="13.136572108646991"><ele>478.0</ele><time>2026-03-29T09:49:43Z</time></trkpt><trkpt lat="41.81787694127999" lon="13.136594615492662"><ele>478.0</ele><time>2026-03-29T09:49:44Z</time></trkpt><trkpt lat="41.81767599342022" lon="13.136647139396649"><ele>478.0</ele><time>2026-03-29T09:49:45Z</time></trkpt><trkpt lat="41.817490305337046" lon="13.136716084313436"><ele>478.0</ele><time>2026-03-29T09:49:46Z</time></trkpt><trkpt lat="41.817339881216476" lon="13.136774753306181"><ele>478.0</ele><time>2026-03-29T09:49:47Z</time></trkpt><trkpt lat="41.81720545159179" lon="13.136826853623981"><ele>478.0</ele><time>2026-03-29T09:49:48Z</time></trkpt><trkpt lat="41.817070239221906" lon="13.136858977084426"><ele>478.0</ele><time>2026-03-29T09:49:49Z</time></trkpt><trkpt lat="41.81693686947362" lon="13.136879762689599"><ele>478.0</ele><time>2026-03-29T09:49:50Z</time></trkpt><trkpt lat="41.81682278547986" lon="13.136873927093358"><ele>478.79999999999995</ele><time>2026-03-29T09:49:51Z</time></trkpt><trkpt lat="41.816723503008404" lon="13.13683494107826"><ele>479.59999999999997</ele><time>2026-03-29T09:49:52Z</time></trkpt><trkpt lat="41.81662096418317" lon="13.136783789918724"><ele>480.40000000000003</ele><time>2026-03-29T09:49:53Z</time></trkpt><trkpt lat="41.8165210879064" lon="13.13675900215336"><ele>481.20000000000005</ele><time>2026-03-29T09:49:54Z</time></trkpt><trkpt lat="41.81644086284197" lon="13.136763782810958"><ele>482.0</ele><time>2026-03-29T09:49:55Z</time></trkpt><trkpt lat="41.81636834691951" lon="13.1367788813583"><ele>482.0</ele><time>2026-03-29T09:49:56Z</time></trkpt><trkpt lat="41.816278804958195" lon="13.136827857088527"><ele>482.00000000000006</ele><time>2026-03-29T09:49:58Z</time></trkpt><trkpt lat="41.816207946579354" lon="13.136876715647325"><ele>482.00000000000006</ele><time>2026-03-29T09:50:00Z</time></trkpt><trkpt lat="41.81615668178523" lon="13.136947044159701"><ele>482.0</ele><time>2026-03-29T09:50:07Z</time></trkpt><trkpt lat="41.81625427956479" lon="13.137126324824274"><ele>482.0</ele><time>2026-03-29T09:50:09Z</time></trkpt><trkpt lat="41.81636246624616" lon="13.137197590725615"><ele>482.0</ele><time>2026-03-29T09:50:10Z</time></trkpt><trkpt lat="41.816481068911216" lon="13.13725002881452"><ele>482.0</ele><time>2026-03-29T09:50:11Z</time></trkpt><trkpt lat="41.81661709600664" lon="13.137300642294356"><ele>482.0</ele><time>2026-03-29T09:50:12Z</time></trkpt><trkpt lat="41.81677278571827" lon="13.137341042897079"><ele>482.0</ele><time>2026-03-29T09:50:13Z</time></trkpt><trkpt lat="41.81696420795574" lon="13.137338834942172"><ele>480.0</ele><time>2026-03-29T09:50:14Z</time></trkpt><trkpt lat="41.81718299194939" lon="13.137310239462423"><ele>478.0</ele><time>2026-03-29T09:50:15Z</time></trkpt><trkpt lat="41.817445148637475" lon="13.137300509758008"><ele>478.0</ele><time>2026-03-29T09:50:16Z</time></trkpt><trkpt lat="41.81772293312651" lon="13.137320573598645"><ele>478.0</ele><time>2026-03-29T09:50:17Z</time></trkpt><trkpt lat="41.81801413049832" lon="13.137304880039961"><ele>478.0</ele><time>2026-03-29T09:50:18Z</time></trkpt><trkpt lat="41.818269400629056" lon="13.137276751522268"><ele>478.0</ele><time>2026-03-29T09:50:19Z</time></trkpt><trkpt lat="41.81850192317629" lon="13.137286761707575"><ele>483.33333333333337</ele><time>2026-03-29T09:50:20Z</time></trkpt><trkpt lat="41.818723662844356" lon="13.137282597759375"><ele>488.66666666666663</ele><time>2026-03-29T09:50:21Z</time></trkpt><trkpt lat="41.81893204140034" lon="13.1372359222454"><ele>494.0</ele><time>2026-03-29T09:50:22Z</time></trkpt><trkpt lat="41.81912841201347" lon="13.137163550214696"><ele>499.66666666666663</ele><time>2026-03-29T09:50:23Z</time></trkpt><trkpt lat="41.81932170743618" lon="13.137093635264208"><ele>505.33333333333337</ele><time>2026-03-29T09:50:24Z</time></trkpt><trkpt lat="41.819512173404725" lon="13.137007086219278"><ele>511.0</ele><time>2026-03-29T09:50:25Z</time></trkpt><trkpt lat="41.81970950605119" lon="13.13689748294179"><ele>511.0</ele><time>2026-03-29T09:50:26Z</time></trkpt><trkpt lat="41.819917731352426" lon="13.13677852481537"><ele>511.0</ele><time>2026-03-29T09:50:27Z</time></trkpt><trkpt lat="41.820130611052875" lon="13.136658357066713"><ele>507.6666666666667</ele><time>2026-03-29T09:50:28Z</time></trkpt><trkpt lat="41.82032923017766" lon="13.136542655938676"><ele>504.33333333333337</ele><time>2026-03-29T09:50:29Z</time></trkpt><trkpt lat="41.820518153211495" lon="13.136445014249649"><ele>501.0</ele><time>2026-03-29T09:50:30Z</time></trkpt><trkpt lat="41.82069934447286" lon="13.136358889461956"><ele>501.0</ele><time>2026-03-29T09:50:31Z</time></trkpt><trkpt lat="41.820877949534996" lon="13.136287754216925"><ele>501.0</ele><time>2026-03-29T09:50:32Z</time></trkpt><trkpt lat="41.82105075973632" lon="13.136238753397906"><ele>501.0</ele><time>2026-03-29T09:50:33Z</time></trkpt><trkpt lat="41.82121682140578" lon="13.136217840055739"><ele>503.33333333333337</ele><time>2026-03-29T09:50:34Z</time></trkpt><trkpt lat="41.82139128166018" lon="13.13622502587786"><ele>505.6666666666667</ele><time>2026-03-29T09:50:35Z</time></trkpt><trkpt lat="41.82155294216966" lon="13.13624037855966"><ele>508.0</ele><time>2026-03-29T09:50:36Z</time></trkpt><trkpt lat="41.82170045156287" lon="13.136241391827223"><ele>507.5</ele><time>2026-03-29T09:50:37Z</time></trkpt><trkpt lat="41.82184210787001" lon="13.136249262920055"><ele>507.0</ele><time>2026-03-29T09:50:38Z</time></trkpt><trkpt lat="41.82197895566306" lon="13.136272848954164"><ele>506.5</ele><time>2026-03-29T09:50:39Z</time></trkpt><trkpt lat="41.822117703172665" lon="13.136312268687087"><ele>506.0</ele><time>2026-03-29T09:50:40Z</time></trkpt><trkpt lat="41.82225806497996" lon="13.136362156457638"><ele>506.0</ele><time>2026-03-29T09:50:41Z</time></trkpt><trkpt lat="41.82240053506824" lon="13.136429677346738"><ele>506.0</ele><time>2026-03-29T09:50:42Z</time></trkpt><trkpt lat="41.82254194313354" lon="13.136519584713723"><ele>506.0</ele><time>2026-03-29T09:50:43Z</time></trkpt><trkpt lat="41.82267142149486" lon="13.136637373113208"><ele>507.0</ele><time>2026-03-29T09:50:44Z</time></trkpt><trkpt lat="41.82278541450368" lon="13.13677867245721"><ele>508.0</ele><time>2026-03-29T09:50:45Z</time></trkpt><trkpt lat="41.82289680860292" lon="13.136922466504426"><ele>509.0</ele><time>2026-03-29T09:50:46Z</time></trkpt><trkpt lat="41.82300018243317" lon="13.137075485471497"><ele>509.0</ele><time>2026-03-29T09:50:47Z</time></trkpt><trkpt lat="41.82309151973869" lon="13.137238285419867"><ele>509.0</ele><time>2026-03-29T09:50:48Z</time></trkpt><trkpt lat="41.82316786265512" lon="13.137410835605436"><ele>509.0</ele><time>2026-03-29T09:50:49Z</time></trkpt><trkpt lat="41.82324547129301" lon="13.137597971418778"><ele>514.6666666666666</ele><time>2026-03-29T09:50:50Z</time></trkpt><trkpt lat="41.823338057743676" lon="13.137785184799405"><ele>520.3333333333334</ele><time>2026-03-29T09:50:51Z</time></trkpt><trkpt lat="41.82344726548071" lon="13.137986648673863"><ele>526.0</ele><time>2026-03-29T09:50:52Z</time></trkpt><trkpt lat="41.82357126048591" lon="13.138238512202205"><ele>526.3333333333334</ele><time>2026-03-29T09:50:53Z</time></trkpt><trkpt lat="41.823721322498706" lon="13.1384404308053"><ele>526.6666666666666</ele><time>2026-03-29T09:50:54Z</time></trkpt><trkpt lat="41.8238445850391" lon="13.138629910238373"><ele>527.0</ele><time>2026-03-29T09:50:55Z</time></trkpt><trkpt lat="41.82396963126135" lon="13.138788433470213"><ele>527.0</ele><time>2026-03-29T09:50:56Z</time></trkpt><trkpt lat="41.82411183504072" lon="13.138919180717199"><ele>527.0</ele><time>2026-03-29T09:50:57Z</time></trkpt><trkpt lat="41.824271317054325" lon="13.139011269957331"><ele>527.0</ele><time>2026-03-29T09:50:58Z</time></trkpt><trkpt lat="41.82443130429566" lon="13.139057540611711"><ele>528.0</ele><time>2026-03-29T09:50:59Z</time></trkpt><trkpt lat="41.824585860846376" lon="13.139053688248882"><ele>529.0</ele><time>2026-03-29T09:51:00Z</time></trkpt><trkpt lat="41.824742850498374" lon="13.139012207469426"><ele>530.0</ele><time>2026-03-29T09:51:01Z</time></trkpt><trkpt lat="41.82488921153231" lon="13.138929873142104"><ele>530.0</ele><time>2026-03-29T09:51:02Z</time></trkpt><trkpt lat="41.82503067075922" lon="13.138832911369056"><ele>530.0</ele><time>2026-03-29T09:51:03Z</time></trkpt><trkpt lat="41.825180225518274" lon="13.138741199835794"><ele>530.0</ele><time>2026-03-29T09:51:04Z</time></trkpt><trkpt lat="41.82537570477847" lon="13.13863390206617"><ele>534.5</ele><time>2026-03-29T09:51:05Z</time></trkpt><trkpt lat="41.8255925166695" lon="13.138503010770757"><ele>539.0</ele><time>2026-03-29T09:51:06Z</time></trkpt><trkpt lat="41.82579970259224" lon="13.138419706011844"><ele>539.0</ele><time>2026-03-29T09:51:07Z</time></trkpt><trkpt lat="41.825964401954025" lon="13.138333094373873"><ele>539.0</ele><time>2026-03-29T09:51:08Z</time></trkpt><trkpt lat="41.82608253446361" lon="13.138228419801651"><ele>539.0</ele><time>2026-03-29T09:51:09Z</time></trkpt><trkpt lat="41.826182554263816" lon="13.138110654883919"><ele>541.6666666666666</ele><time>2026-03-29T09:51:10Z</time></trkpt><trkpt lat="41.826210242770266" lon="13.137885692433592"><ele>544.3333333333334</ele><time>2026-03-29T09:51:11Z</time></trkpt><trkpt lat="41.82622224844822" lon="13.13764611446096"><ele>547.0</ele><time>2026-03-29T09:51:12Z</time></trkpt><trkpt lat="41.826237038373414" lon="13.137379521489562"><ele>547.0</ele><time>2026-03-29T09:51:13Z</time></trkpt><trkpt lat="41.8262697222507" lon="13.13713228381158"><ele>547.0</ele><time>2026-03-29T09:51:14Z</time></trkpt><trkpt lat="41.82631046962647" lon="13.136881594304407"><ele>547.0</ele><time>2026-03-29T09:51:15Z</time></trkpt><trkpt lat="41.82635215163298" lon="13.13661018105246"><ele>545.6666666666667</ele><time>2026-03-29T09:51:16Z</time></trkpt><trkpt lat="41.82639183093463" lon="13.136336788709826"><ele>544.3333333333334</ele><time>2026-03-29T09:51:17Z</time></trkpt><trkpt lat="41.82643407771034" lon="13.136049274187073"><ele>543.0</ele><time>2026-03-29T09:51:18Z</time></trkpt><trkpt lat="41.82647948089936" lon="13.135744213767637"><ele>542.0</ele><time>2026-03-29T09:51:19Z</time></trkpt><trkpt lat="41.826525163916365" lon="13.135432982596992"><ele>541.0</ele><time>2026-03-29T09:51:20Z</time></trkpt><trkpt lat="41.82657108531118" lon="13.135114394233023"><ele>541.5</ele><time>2026-03-29T09:51:21Z</time></trkpt><trkpt lat="41.82662025389402" lon="13.13478969134765"><ele>542.0</ele><time>2026-03-29T09:51:22Z</time></trkpt><trkpt lat="41.82666952857036" lon="13.134460885842765"><ele>542.0</ele><time>2026-03-29T09:51:23Z</time></trkpt><trkpt lat="41.826721094451855" lon="13.134119998684827"><ele>542.0</ele><time>2026-03-29T09:51:24Z</time></trkpt><trkpt lat="41.826773092689834" lon="13.13376861189093"><ele>546.5</ele><time>2026-03-29T09:51:25Z</time></trkpt><trkpt lat="41.82682247577946" lon="13.133425938576819"><ele>551.0</ele><time>2026-03-29T09:51:26Z</time></trkpt><trkpt lat="41.82685756157007" lon="13.133107770620809"><ele>550.6666666666666</ele><time>2026-03-29T09:51:27Z</time></trkpt><trkpt lat="41.82685577676837" lon="13.132807601950201"><ele>550.3333333333334</ele><time>2026-03-29T09:51:28Z</time></trkpt><trkpt lat="41.82684731163174" lon="13.132506855152858"><ele>550.0</ele><time>2026-03-29T09:51:29Z</time></trkpt><trkpt lat="41.82687226464143" lon="13.132210274510829"><ele>550.0</ele><time>2026-03-29T09:51:30Z</time></trkpt><trkpt lat="41.82692147684428" lon="13.13192808375332"><ele>550.0</ele><time>2026-03-29T09:51:31Z</time></trkpt><trkpt lat="41.826989088787975" lon="13.131635114071447"><ele>550.0</ele><time>2026-03-29T09:51:32Z</time></trkpt><trkpt lat="41.827057178418386" lon="13.131325321343633"><ele>548.0</ele><time>2026-03-29T09:51:33Z</time></trkpt><trkpt lat="41.827126651582624" lon="13.131005581402253"><ele>546.0</ele><time>2026-03-29T09:51:34Z</time></trkpt><trkpt lat="41.82719903328738" lon="13.130680822871897"><ele>544.0</ele><time>2026-03-29T09:51:35Z</time></trkpt><trkpt lat="41.827270384433376" lon="13.13035286635213"><ele>542.0</ele><time>2026-03-29T09:51:36Z</time></trkpt><trkpt lat="41.827338730998655" lon="13.13002606148259"><ele>541.0</ele><time>2026-03-29T09:51:37Z</time></trkpt><trkpt lat="41.827401136103845" lon="13.12970190074524"><ele>540.0</ele><time>2026-03-29T09:51:38Z</time></trkpt><trkpt lat="41.82744762043131" lon="13.12938002825171"><ele>540.0</ele><time>2026-03-29T09:51:39Z</time></trkpt><trkpt lat="41.82746100054026" lon="13.129084888340335"><ele>540.0</ele><time>2026-03-29T09:51:40Z</time></trkpt><trkpt lat="41.827475747304845" lon="13.1288172174271"><ele>540.0</ele><time>2026-03-29T09:51:41Z</time></trkpt><trkpt lat="41.82751814580141" lon="13.128575385611134"><ele>539.3333333333334</ele><time>2026-03-29T09:51:42Z</time></trkpt><trkpt lat="41.82759133610482" lon="13.128332502434438"><ele>538.6666666666667</ele><time>2026-03-29T09:51:43Z</time></trkpt><trkpt lat="41.8276032868913" lon="13.12811236302448"><ele>538.0</ele><time>2026-03-29T09:51:44Z</time></trkpt><trkpt lat="41.8277745620822" lon="13.127913987625105"><ele>543.0</ele><time>2026-03-29T09:51:45Z</time></trkpt><trkpt lat="41.82781741385743" lon="13.127683486082416"><ele>548.0</ele><time>2026-03-29T09:51:46Z</time></trkpt><trkpt lat="41.82781952225044" lon="13.127484739258652"><ele>553.0</ele><time>2026-03-29T09:51:47Z</time></trkpt><trkpt lat="41.82776495249571" lon="13.127310531122607"><ele>554.0</ele><time>2026-03-29T09:51:48Z</time></trkpt><trkpt lat="41.827669463068645" lon="13.127132653758348"><ele>555.0</ele><time>2026-03-29T09:51:49Z</time></trkpt><trkpt lat="41.82758452507117" lon="13.12690690894789"><ele>556.0</ele><time>2026-03-29T09:51:50Z</time></trkpt><trkpt lat="41.827536059123474" lon="13.126650889768415"><ele>551.0</ele><time>2026-03-29T09:51:51Z</time></trkpt><trkpt lat="41.82752234486068" lon="13.126373806146237"><ele>546.0</ele><time>2026-03-29T09:51:52Z</time></trkpt><trkpt lat="41.82753324203155" lon="13.126104003225084"><ele>541.0</ele><time>2026-03-29T09:51:53Z</time></trkpt><trkpt lat="41.82757314266434" lon="13.125841864254669"><ele>545.3333333333334</ele><time>2026-03-29T09:51:54Z</time></trkpt><trkpt lat="41.82764816799031" lon="13.12557187854822"><ele>549.6666666666666</ele><time>2026-03-29T09:51:55Z</time></trkpt><trkpt lat="41.827747824925986" lon="13.125288425467762"><ele>554.0</ele><time>2026-03-29T09:51:56Z</time></trkpt><trkpt lat="41.82785293411337" lon="13.124977994295433"><ele>553.0</ele><time>2026-03-29T09:51:57Z</time></trkpt><trkpt lat="41.827905697711316" lon="13.124609472335173"><ele>552.0</ele><time>2026-03-29T09:51:58Z</time></trkpt><trkpt lat="41.82792215092047" lon="13.124195175032957"><ele>554.0</ele><time>2026-03-29T09:51:59Z</time></trkpt><trkpt lat="41.827921985581526" lon="13.123780628481192"><ele>556.0</ele><time>2026-03-29T09:52:00Z</time></trkpt><trkpt lat="41.82793149877064" lon="13.123420248582246"><ele>555.0</ele><time>2026-03-29T09:52:01Z</time></trkpt><trkpt lat="41.827949092296" lon="13.123077765931729"><ele>554.0</ele><time>2026-03-29T09:52:02Z</time></trkpt><trkpt lat="41.827968246008126" lon="13.122751730765255"><ele>554.0</ele><time>2026-03-29T09:52:03Z</time></trkpt><trkpt lat="41.82797494202093" lon="13.122449346124137"><ele>554.0</ele><time>2026-03-29T09:52:04Z</time></trkpt><trkpt lat="41.82798765960536" lon="13.122167867118204"><ele>554.0</ele><time>2026-03-29T09:52:05Z</time></trkpt><trkpt lat="41.82800269973833" lon="13.121905455988598"><ele>553.0</ele><time>2026-03-29T09:52:06Z</time></trkpt><trkpt lat="41.828029633763194" lon="13.121664611212255"><ele>552.0</ele><time>2026-03-29T09:52:07Z</time></trkpt><trkpt lat="41.828080845549344" lon="13.121412573772101"><ele>551.0</ele><time>2026-03-29T09:52:08Z</time></trkpt><trkpt lat="41.82815696668367" lon="13.121158243303395"><ele>548.3333333333333</ele><time>2026-03-29T09:52:09Z</time></trkpt><trkpt lat="41.8282493951836" lon="13.120919835626086"><ele>545.6666666666666</ele><time>2026-03-29T09:52:10Z</time></trkpt><trkpt lat="41.828346578449846" lon="13.120714771665753"><ele>543.0</ele><time>2026-03-29T09:52:11Z</time></trkpt><trkpt lat="41.82847203792244" lon="13.12053595086777"><ele>544.3333333333334</ele><time>2026-03-29T09:52:12Z</time></trkpt><trkpt lat="41.82861553613418" lon="13.120367146740206"><ele>545.6666666666667</ele><time>2026-03-29T09:52:13Z</time></trkpt><trkpt lat="41.82874584201095" lon="13.12020992252654"><ele>547.0</ele><time>2026-03-29T09:52:14Z</time></trkpt><trkpt lat="41.828863293628395" lon="13.120060740759008"><ele>547.0</ele><time>2026-03-29T09:52:15Z</time></trkpt><trkpt lat="41.82897117780143" lon="13.119925299561462"><ele>547.0</ele><time>2026-03-29T09:52:16Z</time></trkpt><trkpt lat="41.829065935464484" lon="13.119806581680173"><ele>547.0</ele><time>2026-03-29T09:52:17Z</time></trkpt><trkpt lat="41.82915287765528" lon="13.119698088316778"><ele>547.0</ele><time>2026-03-29T09:52:18Z</time></trkpt><trkpt lat="41.82922930734508" lon="13.119598457500143"><ele>548.0</ele><time>2026-03-29T09:52:19Z</time></trkpt><trkpt lat="41.82929270716677" lon="13.119487951871909"><ele>549.0</ele><time>2026-03-29T09:52:20Z</time></trkpt><trkpt lat="41.82932917929907" lon="13.11932725023008"><ele>550.0</ele><time>2026-03-29T09:52:21Z</time></trkpt><trkpt lat="41.82934546215589" lon="13.11914012822515"><ele>551.0</ele><time>2026-03-29T09:52:22Z</time></trkpt><trkpt lat="41.82936107794731" lon="13.118943204348117"><ele>551.0</ele><time>2026-03-29T09:52:23Z</time></trkpt><trkpt lat="41.82938124062186" lon="13.118694904974655"><ele>551.0</ele><time>2026-03-29T09:52:24Z</time></trkpt><trkpt lat="41.82942475043983" lon="13.118427914835147"><ele>551.0</ele><time>2026-03-29T09:52:25Z</time></trkpt><trkpt lat="41.82945675673982" lon="13.118148449988439"><ele>548.5</ele><time>2026-03-29T09:52:26Z</time></trkpt><trkpt lat="41.82948307792494" lon="13.117857473861942"><ele>546.0</ele><time>2026-03-29T09:52:27Z</time></trkpt><trkpt lat="41.8295151128062" lon="13.11754823959419"><ele>543.5</ele><time>2026-03-29T09:52:28Z</time></trkpt><trkpt lat="41.829548666693796" lon="13.117228953526908"><ele>541.0</ele><time>2026-03-29T09:52:29Z</time></trkpt><trkpt lat="41.829582380894145" lon="13.116904645525244"><ele>541.0</ele><time>2026-03-29T09:52:30Z</time></trkpt><trkpt lat="41.82961361179787" lon="13.1165759983573"><ele>541.0</ele><time>2026-03-29T09:52:31Z</time></trkpt><trkpt lat="41.8296456255334" lon="13.11624828605898"><ele>539.0</ele><time>2026-03-29T09:52:32Z</time></trkpt><trkpt lat="41.82967934570443" lon="13.115922130863254"><ele>537.0</ele><time>2026-03-29T09:52:33Z</time></trkpt><trkpt lat="41.829713094828634" lon="13.115613280522794"><ele>537.0</ele><time>2026-03-29T09:52:34Z</time></trkpt><trkpt lat="41.82974055939723" lon="13.115326810079287"><ele>537.0</ele><time>2026-03-29T09:52:35Z</time></trkpt><trkpt lat="41.82976603082106" lon="13.115062772637499"><ele>537.0</ele><time>2026-03-29T09:52:36Z</time></trkpt><trkpt lat="41.829789054249794" lon="13.114814228707244"><ele>535.0</ele><time>2026-03-29T09:52:37Z</time></trkpt><trkpt lat="41.829814276675656" lon="13.114604490872743"><ele>533.0</ele><time>2026-03-29T09:52:38Z</time></trkpt><trkpt lat="41.82985467768679" lon="13.114442840614258"><ele>531.0</ele><time>2026-03-29T09:52:39Z</time></trkpt><trkpt lat="41.829933320688134" lon="13.114324970943075"><ele>529.0</ele><time>2026-03-29T09:52:40Z</time></trkpt><trkpt lat="41.83005609692201" lon="13.11422320823138"><ele>531.6666666666667</ele><time>2026-03-29T09:52:41Z</time></trkpt><trkpt lat="41.83021203117894" lon="13.114140802633171"><ele>534.3333333333334</ele><time>2026-03-29T09:52:42Z</time></trkpt><trkpt lat="41.830356574468745" lon="13.114015347356329"><ele>537.0</ele><time>2026-03-29T09:52:43Z</time></trkpt><trkpt lat="41.8304771276313" lon="13.113848547744405"><ele>537.0</ele><time>2026-03-29T09:52:44Z</time></trkpt><trkpt lat="41.83057851973149" lon="13.113648826470984"><ele>537.0</ele><time>2026-03-29T09:52:45Z</time></trkpt><trkpt lat="41.83064898131437" lon="13.113421439807828"><ele>537.0</ele><time>2026-03-29T09:52:46Z</time></trkpt><trkpt lat="41.830687080964175" lon="13.113176649370363"><ele>536.0</ele><time>2026-03-29T09:52:47Z</time></trkpt><trkpt lat="41.83067968138239" lon="13.112917395993746"><ele>535.0</ele><time>2026-03-29T09:52:48Z</time></trkpt><trkpt lat="41.83063840582239" lon="13.112646982434551"><ele>534.0</ele><time>2026-03-29T09:52:49Z</time></trkpt><trkpt lat="41.830581547874964" lon="13.112373258498938"><ele>534.0</ele><time>2026-03-29T09:52:50Z</time></trkpt><trkpt lat="41.83052194648223" lon="13.112106797971972"><ele>534.0</ele><time>2026-03-29T09:52:51Z</time></trkpt><trkpt lat="41.83046674567927" lon="13.111885955365985"><ele>534.0</ele><time>2026-03-29T09:52:52Z</time></trkpt><trkpt lat="41.83041831612798" lon="13.111684367780798"><ele>534.25</ele><time>2026-03-29T09:52:53Z</time></trkpt><trkpt lat="41.830374893948544" lon="13.111494106841663"><ele>534.5</ele><time>2026-03-29T09:52:54Z</time></trkpt><trkpt lat="41.830332882634714" lon="13.111311317442714"><ele>534.75</ele><time>2026-03-29T09:52:55Z</time></trkpt><trkpt lat="41.83029615181981" lon="13.111117246736697"><ele>535.0</ele><time>2026-03-29T09:52:56Z</time></trkpt><trkpt lat="41.8302721412215" lon="13.11091199657952"><ele>533.6666666666667</ele><time>2026-03-29T09:52:57Z</time></trkpt><trkpt lat="41.83026680099706" lon="13.110700461826863"><ele>532.3333333333334</ele><time>2026-03-29T09:52:58Z</time></trkpt><trkpt lat="41.8302779270505" lon="13.110487045364428"><ele>531.0</ele><time>2026-03-29T09:52:59Z</time></trkpt><trkpt lat="41.83031131314923" lon="13.110293916724544"><ele>531.0</ele><time>2026-03-29T09:53:00Z</time></trkpt><trkpt lat="41.83035469321433" lon="13.110106776030571"><ele>531.0</ele><time>2026-03-29T09:53:01Z</time></trkpt><trkpt lat="41.83039322232596" lon="13.10992391715927"><ele>531.0</ele><time>2026-03-29T09:53:02Z</time></trkpt><trkpt lat="41.83042995434544" lon="13.10975228015095"><ele>531.0</ele><time>2026-03-29T09:53:03Z</time></trkpt><trkpt lat="41.830465304124466" lon="13.109592294246173"><ele>529.6</ele><time>2026-03-29T09:53:04Z</time></trkpt><trkpt lat="41.830499501871216" lon="13.109442818636808"><ele>528.2</ele><time>2026-03-29T09:53:05Z</time></trkpt><trkpt lat="41.83052978166064" lon="13.109301661591058"><ele>526.8</ele><time>2026-03-29T09:53:06Z</time></trkpt><trkpt lat="41.83055945463356" lon="13.109168012767723"><ele>525.4</ele><time>2026-03-29T09:53:07Z</time></trkpt><trkpt lat="41.83058954042287" lon="13.109044403048077"><ele>524.0</ele><time>2026-03-29T09:53:08Z</time></trkpt><trkpt lat="41.83061907969364" lon="13.108906339894386"><ele>522.0</ele><time>2026-03-29T09:53:09Z</time></trkpt><trkpt lat="41.830650677981964" lon="13.108748584185465"><ele>520.0</ele><time>2026-03-29T09:53:10Z</time></trkpt><trkpt lat="41.830685834328335" lon="13.108577068491915"><ele>518.0</ele><time>2026-03-29T09:53:11Z</time></trkpt><trkpt lat="41.83072325007406" lon="13.1083949230289"><ele>516.0</ele><time>2026-03-29T09:53:12Z</time></trkpt><trkpt lat="41.83075918021406" lon="13.108219242583122"><ele>514.5</ele><time>2026-03-29T09:53:13Z</time></trkpt><trkpt lat="41.830793482728126" lon="13.108053455354382"><ele>513.0</ele><time>2026-03-29T09:53:14Z</time></trkpt><trkpt lat="41.83082520904133" lon="13.107886873084787"><ele>511.5</ele><time>2026-03-29T09:53:15Z</time></trkpt><trkpt lat="41.83085869071409" lon="13.107700259970374"><ele>510.0</ele><time>2026-03-29T09:53:16Z</time></trkpt><trkpt lat="41.830895779378345" lon="13.107513907006805"><ele>508.0</ele><time>2026-03-29T09:53:17Z</time></trkpt><trkpt lat="41.830934040166596" lon="13.107323425833812"><ele>506.0</ele><time>2026-03-29T09:53:18Z</time></trkpt><trkpt lat="41.830980678060925" lon="13.1071148975573"><ele>504.0</ele><time>2026-03-29T09:53:19Z</time></trkpt><trkpt lat="41.8310488677669" lon="13.106903803478998"><ele>506.33333333333337</ele><time>2026-03-29T09:53:20Z</time></trkpt><trkpt lat="41.83111338837983" lon="13.106702757608343"><ele>508.6666666666667</ele><time>2026-03-29T09:53:21Z</time></trkpt><trkpt lat="41.8311973436455" lon="13.106515084595667"><ele>511.0</ele><time>2026-03-29T09:53:22Z</time></trkpt><trkpt lat="41.831286833286754" lon="13.10633864957648"><ele>511.0</ele><time>2026-03-29T09:53:23Z</time></trkpt><trkpt lat="41.83138679505276" lon="13.106178191817381"><ele>511.0</ele><time>2026-03-29T09:53:24Z</time></trkpt><trkpt lat="41.83149139646633" lon="13.106026127202623"><ele>511.0</ele><time>2026-03-29T09:53:25Z</time></trkpt><trkpt lat="41.83157741983486" lon="13.105857987655616"><ele>510.33333333333337</ele><time>2026-03-29T09:53:26Z</time></trkpt><trkpt lat="41.831622003971404" lon="13.105664318442127"><ele>509.66666666666663</ele><time>2026-03-29T09:53:27Z</time></trkpt><trkpt lat="41.83163030319566" lon="13.105453376029745"><ele>509.0</ele><time>2026-03-29T09:53:28Z</time></trkpt><trkpt lat="41.8315969910255" lon="13.105235388137507"><ele>509.0</ele><time>2026-03-29T09:53:29Z</time></trkpt><trkpt lat="41.83154193644365" lon="13.105020369907223"><ele>509.0</ele><time>2026-03-29T09:53:30Z</time></trkpt><trkpt lat="41.83149670234799" lon="13.104819601225543"><ele>509.0</ele><time>2026-03-29T09:53:31Z</time></trkpt><trkpt lat="41.83147065703075" lon="13.10461482565681"><ele>507.5</ele><time>2026-03-29T09:53:32Z</time></trkpt><trkpt lat="41.83146635584927" lon="13.104414544426476"><ele>506.0</ele><time>2026-03-29T09:53:33Z</time></trkpt><trkpt lat="41.83148884831005" lon="13.104231558756082"><ele>504.5</ele><time>2026-03-29T09:53:34Z</time></trkpt><trkpt lat="41.831536507350194" lon="13.104070517987585"><ele>503.0</ele><time>2026-03-29T09:53:35Z</time></trkpt><trkpt lat="41.83161264527101" lon="13.103924280613839"><ele>501.75</ele><time>2026-03-29T09:53:36Z</time></trkpt><trkpt lat="41.83169931786729" lon="13.103800340999062"><ele>500.5</ele><time>2026-03-29T09:53:37Z</time></trkpt><trkpt lat="41.83180049716209" lon="13.103679264119332"><ele>499.25</ele><time>2026-03-29T09:53:38Z</time></trkpt><trkpt lat="41.8319230949819" lon="13.103561703375055"><ele>498.0</ele><time>2026-03-29T09:53:39Z</time></trkpt><trkpt lat="41.832044782067854" lon="13.103452851573687"><ele>498.0</ele><time>2026-03-29T09:53:40Z</time></trkpt><trkpt lat="41.83216091390788" lon="13.10336248005336"><ele>498.0</ele><time>2026-03-29T09:53:41Z</time></trkpt><trkpt lat="41.832270704757555" lon="13.10327103810761"><ele>498.0</ele><time>2026-03-29T09:53:42Z</time></trkpt><trkpt lat="41.83237246555035" lon="13.103183695035417"><ele>498.0</ele><time>2026-03-29T09:53:43Z</time></trkpt><trkpt lat="41.83246227255815" lon="13.103099921732555"><ele>497.2</ele><time>2026-03-29T09:53:44Z</time></trkpt><trkpt lat="41.832539013343506" lon="13.10301521942092"><ele>496.4</ele><time>2026-03-29T09:53:45Z</time></trkpt><trkpt lat="41.83260665850073" lon="13.10293568448753"><ele>495.59999999999997</ele><time>2026-03-29T09:53:46Z</time></trkpt><trkpt lat="41.832670378484714" lon="13.102858947265887"><ele>494.79999999999995</ele><time>2026-03-29T09:53:47Z</time></trkpt><trkpt lat="41.832732846801385" lon="13.102765644603881"><ele>494.0</ele><time>2026-03-29T09:53:48Z</time></trkpt><trkpt lat="41.83280389656925" lon="13.102642554255317"><ele>494.0</ele><time>2026-03-29T09:53:49Z</time></trkpt><trkpt lat="41.832884745387844" lon="13.102486630733875"><ele>494.0</ele><time>2026-03-29T09:53:50Z</time></trkpt><trkpt lat="41.83296585907898" lon="13.102306339342105"><ele>494.0</ele><time>2026-03-29T09:53:51Z</time></trkpt><trkpt lat="41.83304350384152" lon="13.10211364493114"><ele>491.3333333333333</ele><time>2026-03-29T09:53:52Z</time></trkpt><trkpt lat="41.83310907801055" lon="13.101908870411222"><ele>488.66666666666663</ele><time>2026-03-29T09:53:53Z</time></trkpt><trkpt lat="41.833161324730334" lon="13.101689908473801"><ele>486.0</ele><time>2026-03-29T09:53:54Z</time></trkpt><trkpt lat="41.833205312374005" lon="13.101491659243583"><ele>484.4</ele><time>2026-03-29T09:53:55Z</time></trkpt><trkpt lat="41.8332362477572" lon="13.101330915810669"><ele>482.8</ele><time>2026-03-29T09:53:56Z</time></trkpt><trkpt lat="41.83326144533431" lon="13.10119054247294"><ele>481.19999999999993</ele><time>2026-03-29T09:53:57Z</time></trkpt><trkpt lat="41.83328603477486" lon="13.101054608262835"><ele>479.59999999999997</ele><time>2026-03-29T09:53:58Z</time></trkpt><trkpt lat="41.83330648174686" lon="13.10092187369823"><ele>478.0</ele><time>2026-03-29T09:53:59Z</time></trkpt><trkpt lat="41.83332777982411" lon="13.100798711324845"><ele>476.4</ele><time>2026-03-29T09:54:00Z</time></trkpt><trkpt lat="41.83334957269103" lon="13.100681479468156"><ele>474.79999999999995</ele><time>2026-03-29T09:54:01Z</time></trkpt><trkpt lat="41.83336811146577" lon="13.100556903344486"><ele>473.2</ele><time>2026-03-29T09:54:02Z</time></trkpt><trkpt lat="41.83339070468956" lon="13.100414808496431"><ele>471.6</ele><time>2026-03-29T09:54:03Z</time></trkpt><trkpt lat="41.8334177709058" lon="13.100253255637723"><ele>470.0</ele><time>2026-03-29T09:54:04Z</time></trkpt><trkpt lat="41.833448081642985" lon="13.100080449192495"><ele>470.66666666666663</ele><time>2026-03-29T09:54:05Z</time></trkpt><trkpt lat="41.833488863513125" lon="13.099894670686057"><ele>471.33333333333337</ele><time>2026-03-29T09:54:06Z</time></trkpt><trkpt lat="41.833543220928355" lon="13.099701535494454"><ele>472.0</ele><time>2026-03-29T09:54:07Z</time></trkpt><trkpt lat="41.83363114639876" lon="13.099515553365302"><ele>472.0</ele><time>2026-03-29T09:54:08Z</time></trkpt><trkpt lat="41.83374269087612" lon="13.09933287735391"><ele>472.0</ele><time>2026-03-29T09:54:09Z</time></trkpt><trkpt lat="41.83384257573918" lon="13.099132603683605"><ele>472.0</ele><time>2026-03-29T09:54:10Z</time></trkpt><trkpt lat="41.83392439363281" lon="13.098926098031674"><ele>469.33333333333337</ele><time>2026-03-29T09:54:11Z</time></trkpt><trkpt lat="41.83400079440586" lon="13.098722016790264"><ele>466.66666666666663</ele><time>2026-03-29T09:54:12Z</time></trkpt><trkpt lat="41.83407286129271" lon="13.098520276017851"><ele>464.0</ele><time>2026-03-29T09:54:13Z</time></trkpt><trkpt lat="41.83413955195372" lon="13.098323694718083"><ele>462.3333333333333</ele><time>2026-03-29T09:54:14Z</time></trkpt><trkpt lat="41.83417929041815" lon="13.098129242586957"><ele>460.66666666666663</ele><time>2026-03-29T09:54:15Z</time></trkpt><trkpt lat="41.83418497348051" lon="13.097928870968849"><ele>459.0</ele><time>2026-03-29T09:54:16Z</time></trkpt><trkpt lat="41.83416888811531" lon="13.097724451208771"><ele>459.0</ele><time>2026-03-29T09:54:17Z</time></trkpt><trkpt lat="41.83414987267529" lon="13.097541206248017"><ele>459.0</ele><time>2026-03-29T09:54:18Z</time></trkpt><trkpt lat="41.83414578356277" lon="13.09736041714645"><ele>459.0</ele><time>2026-03-29T09:54:19Z</time></trkpt><trkpt lat="41.8341715295704" lon="13.097148344806753"><ele>459.0</ele><time>2026-03-29T09:54:20Z</time></trkpt><trkpt lat="41.83420619083067" lon="13.096926542075435"><ele>457.33333333333337</ele><time>2026-03-29T09:54:21Z</time></trkpt><trkpt lat="41.83424316557115" lon="13.096701969665732"><ele>455.6666666666667</ele><time>2026-03-29T09:54:22Z</time></trkpt><trkpt lat="41.834273538830445" lon="13.096486539327882"><ele>454.0</ele><time>2026-03-29T09:54:23Z</time></trkpt><trkpt lat="41.8343036366374" lon="13.096292030206577"><ele>453.5</ele><time>2026-03-29T09:54:24Z</time></trkpt><trkpt lat="41.83432913061061" lon="13.096107021542126"><ele>453.0</ele><time>2026-03-29T09:54:25Z</time></trkpt><trkpt lat="41.83436613408134" lon="13.095931391116808"><ele>452.5</ele><time>2026-03-29T09:54:26Z</time></trkpt><trkpt lat="41.834429068378" lon="13.09577496587486"><ele>452.0</ele><time>2026-03-29T09:54:27Z</time></trkpt><trkpt lat="41.83450835644754" lon="13.095601442151054"><ele>450.3333333333333</ele><time>2026-03-29T09:54:28Z</time></trkpt><trkpt lat="41.83458053033373" lon="13.09542364260063"><ele>448.66666666666663</ele><time>2026-03-29T09:54:29Z</time></trkpt><trkpt lat="41.834643961805845" lon="13.095237315528811"><ele>447.0</ele><time>2026-03-29T09:54:30Z</time></trkpt><trkpt lat="41.83470353602645" lon="13.09503937326313"><ele>445.66666666666663</ele><time>2026-03-29T09:54:31Z</time></trkpt><trkpt lat="41.83475019063827" lon="13.094843035084155"><ele>444.3333333333333</ele><time>2026-03-29T09:54:32Z</time></trkpt><trkpt lat="41.83477217503603" lon="13.09465105190921"><ele>443.0</ele><time>2026-03-29T09:54:33Z</time></trkpt><trkpt lat="41.83477684905" lon="13.094446820805723"><ele>443.0</ele><time>2026-03-29T09:54:34Z</time></trkpt><trkpt lat="41.83476459908966" lon="13.094230274296232"><ele>443.0</ele><time>2026-03-29T09:54:35Z</time></trkpt><trkpt lat="41.83474292061859" lon="13.094030532264943"><ele>443.0</ele><time>2026-03-29T09:54:36Z</time></trkpt><trkpt lat="41.83471957590629" lon="13.093845191735012"><ele>442.25</ele><time>2026-03-29T09:54:37Z</time></trkpt><trkpt lat="41.834690556201245" lon="13.093673820162886"><ele>441.5</ele><time>2026-03-29T09:54:38Z</time></trkpt><trkpt lat="41.834649975838964" lon="13.093487719745601"><ele>440.75</ele><time>2026-03-29T09:54:39Z</time></trkpt><trkpt lat="41.834589076815135" lon="13.093285780461887"><ele>440.0</ele><time>2026-03-29T09:54:40Z</time></trkpt><trkpt lat="41.83451640955758" lon="13.093098856823532"><ele>438.25</ele><time>2026-03-29T09:54:41Z</time></trkpt><trkpt lat="41.83445057532427" lon="13.09292478159937"><ele>436.5</ele><time>2026-03-29T09:54:42Z</time></trkpt><trkpt lat="41.83438651892987" lon="13.092761349172944"><ele>434.75</ele><time>2026-03-29T09:54:43Z</time></trkpt><trkpt lat="41.83433091050628" lon="13.092604005796867"><ele>433.0</ele><time>2026-03-29T09:54:44Z</time></trkpt><trkpt lat="41.834293315073545" lon="13.092446365885053"><ele>431.0</ele><time>2026-03-29T09:54:45Z</time></trkpt><trkpt lat="41.83428471195361" lon="13.092288329281399"><ele>429.0</ele><time>2026-03-29T09:54:46Z</time></trkpt><trkpt lat="41.834308173374794" lon="13.092106688594518"><ele>427.0</ele><time>2026-03-29T09:54:47Z</time></trkpt><trkpt lat="41.834344509648176" lon="13.091915096514754"><ele>425.0</ele><time>2026-03-29T09:54:48Z</time></trkpt><trkpt lat="41.83437818325884" lon="13.09172109492768"><ele>423.25</ele><time>2026-03-29T09:54:49Z</time></trkpt><trkpt lat="41.83441115252104" lon="13.091552854325453"><ele>421.5</ele><time>2026-03-29T09:54:50Z</time></trkpt><trkpt lat="41.834465430494845" lon="13.09140082266565"><ele>419.75</ele><time>2026-03-29T09:54:51Z</time></trkpt><trkpt lat="41.834539440063125" lon="13.09126200498729"><ele>418.0</ele><time>2026-03-29T09:54:52Z</time></trkpt><trkpt lat="41.83462481916861" lon="13.0911301159198"><ele>418.0</ele><time>2026-03-29T09:54:53Z</time></trkpt><trkpt lat="41.83472071667868" lon="13.091004986281323"><ele>418.0</ele><time>2026-03-29T09:54:54Z</time></trkpt><trkpt lat="41.8348073217416" lon="13.090894289939628"><ele>418.0</ele><time>2026-03-29T09:54:55Z</time></trkpt><trkpt lat="41.83488419622969" lon="13.090795899653154"><ele>418.0</ele><time>2026-03-29T09:54:56Z</time></trkpt><trkpt lat="41.834945465541715" lon="13.090711288994003"><ele>418.0</ele><time>2026-03-29T09:54:57Z</time></trkpt><trkpt lat="41.8350001131353" lon="13.090631578293292"><ele>418.85714285714283</ele><time>2026-03-29T09:54:58Z</time></trkpt><trkpt lat="41.835039922003574" lon="13.090554098860935"><ele>419.71428571428567</ele><time>2026-03-29T09:54:59Z</time></trkpt><trkpt lat="41.835077451522714" lon="13.09048538256264"><ele>420.57142857142856</ele><time>2026-03-29T09:55:00Z</time></trkpt><trkpt lat="41.835136205545716" lon="13.090409224635529"><ele>421.42857142857144</ele><time>2026-03-29T09:55:02Z</time></trkpt><trkpt lat="41.83519285731896" lon="13.090344983082884"><ele>422.2857142857143</ele><time>2026-03-29T09:55:06Z</time></trkpt><trkpt lat="41.83517062774217" lon="13.090234551541766"><ele>423.14285714285717</ele><time>2026-03-29T09:56:09Z</time></trkpt><trkpt lat="41.83517590131099" lon="13.090145795729068"><ele>424.0</ele><time>2026-03-29T09:57:08Z</time></trkpt><trkpt lat="41.83521080381199" lon="13.09006663612897"><ele>424.0</ele><time>2026-03-29T09:57:15Z</time></trkpt><trkpt lat="41.835232662562696" lon="13.089976993275755"><ele>424.0</ele><time>2026-03-29T09:57:21Z</time></trkpt><trkpt lat="41.8351983775145" lon="13.08990244097186"><ele>424.0</ele><time>2026-03-29T09:57:40Z</time></trkpt><trkpt lat="41.83515170036203" lon="13.089822947249948"><ele>424.0</ele><time>2026-03-29T09:58:00.999Z</time></trkpt><trkpt lat="41.83520015504303" lon="13.089672784717262"><ele>424.0</ele><time>2026-03-29T09:58:03Z</time></trkpt><trkpt lat="41.83524359445858" lon="13.089876148620528"><ele>424.00000000000006</ele><time>2026-03-29T09:58:27.964Z</time></trkpt><trkpt lat="41.8352365513114" lon="13.089987215207497"><ele>424.0</ele><time>2026-03-29T10:03:29.999Z</time></trkpt><trkpt lat="41.83524143886074" lon="13.090088852118289"><ele>424.0</ele><time>2026-03-29T10:03:35.974Z</time></trkpt><trkpt lat="41.83524268907624" lon="13.090193684961207"><ele>424.0</ele><time>2026-03-29T10:03:37.976Z</time></trkpt><trkpt lat="41.83522281472784" lon="13.090280440536723"><ele>424.00000000000006</ele><time>2026-03-29T10:03:58.99Z</time></trkpt><trkpt lat="41.83518870626824" lon="13.090361775886"><ele>424.0</ele><time>2026-03-29T10:04:14.994Z</time></trkpt><trkpt lat="41.835104729759315" lon="13.090356048384594"><ele>424.0</ele><time>2026-03-29T10:16:11.028Z</time></trkpt><trkpt lat="41.83521026072904" lon="13.090254326818075"><ele>424.0</ele><time>2026-03-29T10:17:08.999Z</time></trkpt><trkpt lat="41.83526728398234" lon="13.090192351157308"><ele>424.0</ele><time>2026-03-29T10:17:11.999Z</time></trkpt><trkpt lat="41.835306745329724" lon="13.090118367781828"><ele>424.0</ele><time>2026-03-29T10:17:15.999Z</time></trkpt><trkpt lat="41.835351017953066" lon="13.090002051098827"><ele>424.0</ele><time>2026-03-29T10:17:19.998Z</time></trkpt><trkpt lat="41.83538334249881" lon="13.089879022622481"><ele>423.1666666666667</ele><time>2026-03-29T10:17:21.998Z</time></trkpt><trkpt lat="41.835408341206254" lon="13.08973155527988"><ele>422.33333333333337</ele><time>2026-03-29T10:17:23.998Z</time></trkpt><trkpt lat="41.83541785364345" lon="13.089644222043596"><ele>421.5</ele><time>2026-03-29T10:17:24.998Z</time></trkpt><trkpt lat="41.83543151843871" lon="13.089476003000248"><ele>420.66666666666663</ele><time>2026-03-29T10:17:26.998Z</time></trkpt><trkpt lat="41.8354357529069" lon="13.089384415672747"><ele>419.8333333333333</ele><time>2026-03-29T10:17:27.998Z</time></trkpt><trkpt lat="41.83543454923162" lon="13.089287119652075"><ele>419.0</ele><time>2026-03-29T10:17:28.998Z</time></trkpt><trkpt lat="41.835427168358606" lon="13.089131403189997"><ele>418.0</ele><time>2026-03-29T10:17:30.998Z</time></trkpt><trkpt lat="41.83542416278592" lon="13.08897614420627"><ele>417.0</ele><time>2026-03-29T10:17:32.998Z</time></trkpt><trkpt lat="41.835423485718344" lon="13.088860889805874"><ele>416.0</ele><time>2026-03-29T10:17:34.998Z</time></trkpt><trkpt lat="41.83542046797662" lon="13.088743780874085"><ele>415.0</ele><time>2026-03-29T10:17:36.998Z</time></trkpt><trkpt lat="41.83541967421501" lon="13.088611510751587"><ele>414.0</ele><time>2026-03-29T10:17:38.998Z</time></trkpt><trkpt lat="41.835417958645884" lon="13.088514792112"><ele>414.0</ele><time>2026-03-29T10:17:39.998Z</time></trkpt><trkpt lat="41.83542595118378" lon="13.088400668086884"><ele>414.0</ele><time>2026-03-29T10:17:40.998Z</time></trkpt><trkpt lat="41.83546353511197" lon="13.088292584817667"><ele>414.0</ele><time>2026-03-29T10:17:41.998Z</time></trkpt><trkpt lat="41.83552461107056" lon="13.088176461895282"><ele>414.0</ele><time>2026-03-29T10:17:42.998Z</time></trkpt><trkpt lat="41.83555415021145" lon="13.088038901895025"><ele>414.0</ele><time>2026-03-29T10:17:43.998Z</time></trkpt><trkpt lat="41.835642596671214" lon="13.087950837067128"><ele>412.79999999999995</ele><time>2026-03-29T10:17:44.998Z</time></trkpt><trkpt lat="41.83570586228834" lon="13.087845454567555"><ele>411.59999999999997</ele><time>2026-03-29T10:17:45.998Z</time></trkpt><trkpt lat="41.83576642123414" lon="13.087750827432886"><ele>410.4</ele><time>2026-03-29T10:17:46.998Z</time></trkpt><trkpt lat="41.835832854484" lon="13.087662594226716"><ele>409.2</ele><time>2026-03-29T10:17:47.998Z</time></trkpt><trkpt lat="41.835923134112065" lon="13.087605995670158"><ele>408.0</ele><time>2026-03-29T10:17:48.998Z</time></trkpt><trkpt lat="41.83602897812693" lon="13.087590731661981"><ele>407.79999999999995</ele><time>2026-03-29T10:17:49.998Z</time></trkpt><trkpt lat="41.836143937450636" lon="13.087598376257542"><ele>407.6</ele><time>2026-03-29T10:17:50.998Z</time></trkpt><trkpt lat="41.83625976269304" lon="13.087618095696051"><ele>407.4</ele><time>2026-03-29T10:17:51.998Z</time></trkpt><trkpt lat="41.83635571453419" lon="13.08766735508629"><ele>407.20000000000005</ele><time>2026-03-29T10:17:52.998Z</time></trkpt><trkpt lat="41.83645719574337" lon="13.087706963784306"><ele>407.0</ele><time>2026-03-29T10:17:53.998Z</time></trkpt><trkpt lat="41.83655943706504" lon="13.08773960292555"><ele>407.0</ele><time>2026-03-29T10:17:54.998Z</time></trkpt><trkpt lat="41.83667197675041" lon="13.08774535039901"><ele>407.0</ele><time>2026-03-29T10:17:55.998Z</time></trkpt><trkpt lat="41.83677237047557" lon="13.087676816573454"><ele>407.0</ele><time>2026-03-29T10:17:56.998Z</time></trkpt><trkpt lat="41.83684856232599" lon="13.087576784791615"><ele>407.0</ele><time>2026-03-29T10:17:57.998Z</time></trkpt><trkpt lat="41.8369197023135" lon="13.087462885124499"><ele>407.0</ele><time>2026-03-29T10:17:58.998Z</time></trkpt><trkpt lat="41.83699342107153" lon="13.087339615789634"><ele>407.5</ele><time>2026-03-29T10:17:59.998Z</time></trkpt><trkpt lat="41.8370762344158" lon="13.087213291566925"><ele>408.0</ele><time>2026-03-29T10:18:00.998Z</time></trkpt><trkpt lat="41.83716432089701" lon="13.08707915051627"><ele>408.5</ele><time>2026-03-29T10:18:01.998Z</time></trkpt><trkpt lat="41.837253032792304" lon="13.086942340970682"><ele>409.0</ele><time>2026-03-29T10:18:02.998Z</time></trkpt><trkpt lat="41.83734348011104" lon="13.086810979285781"><ele>409.0</ele><time>2026-03-29T10:18:03.998Z</time></trkpt><trkpt lat="41.837440766897394" lon="13.086692196980014"><ele>409.0</ele><time>2026-03-29T10:18:04.998Z</time></trkpt><trkpt lat="41.83755212713155" lon="13.086608441998909"><ele>409.0</ele><time>2026-03-29T10:18:05.998Z</time></trkpt><trkpt lat="41.83767386450365" lon="13.086531550544645"><ele>409.0</ele><time>2026-03-29T10:18:06.998Z</time></trkpt><trkpt lat="41.83779445439221" lon="13.08644131964517"><ele>406.5</ele><time>2026-03-29T10:18:07.998Z</time></trkpt><trkpt lat="41.83791893277483" lon="13.086346305517829"><ele>404.0</ele><time>2026-03-29T10:18:08.998Z</time></trkpt><trkpt lat="41.838033555496295" lon="13.086266618900856"><ele>401.5</ele><time>2026-03-29T10:18:09.998Z</time></trkpt><trkpt lat="41.83813813293306" lon="13.08621279470215"><ele>399.0</ele><time>2026-03-29T10:18:10.998Z</time></trkpt><trkpt lat="41.838251425365385" lon="13.086181462811313"><ele>399.0</ele><time>2026-03-29T10:18:11.998Z</time></trkpt><trkpt lat="41.83837109556299" lon="13.086189271015794"><ele>399.0</ele><time>2026-03-29T10:18:12.998Z</time></trkpt><trkpt lat="41.838477200117836" lon="13.086200243421574"><ele>399.0</ele><time>2026-03-29T10:18:13.999Z</time></trkpt><trkpt lat="41.83857920795248" lon="13.086195563775448"><ele>399.0</ele><time>2026-03-29T10:18:14.999Z</time></trkpt><trkpt lat="41.838673278305265" lon="13.086131138009474"><ele>399.0</ele><time>2026-03-29T10:18:15.999Z</time></trkpt><trkpt lat="41.83875094161054" lon="13.086011254443983"><ele>401.75</ele><time>2026-03-29T10:18:16.999Z</time></trkpt><trkpt lat="41.83881427263515" lon="13.08587202126558"><ele>404.5</ele><time>2026-03-29T10:18:17.999Z</time></trkpt><trkpt lat="41.83887727514406" lon="13.085718440420699"><ele>407.25</ele><time>2026-03-29T10:18:18.999Z</time></trkpt><trkpt lat="41.83894226246748" lon="13.085546021800429"><ele>410.0</ele><time>2026-03-29T10:18:19.999Z</time></trkpt><trkpt lat="41.83899423939629" lon="13.085362826593878"><ele>410.0</ele><time>2026-03-29T10:18:20.999Z</time></trkpt><trkpt lat="41.83903943386081" lon="13.085174319075279"><ele>410.0</ele><time>2026-03-29T10:18:21.999Z</time></trkpt><trkpt lat="41.83908921876303" lon="13.084985354284756"><ele>410.0</ele><time>2026-03-29T10:18:22.999Z</time></trkpt><trkpt lat="41.839142164804315" lon="13.084802268577231"><ele>410.0</ele><time>2026-03-29T10:18:23.999Z</time></trkpt><trkpt lat="41.83919796247192" lon="13.0846260731507"><ele>410.25</ele><time>2026-03-29T10:18:24.999Z</time></trkpt><trkpt lat="41.83924850346537" lon="13.084450356658474"><ele>410.5</ele><time>2026-03-29T10:18:25.999Z</time></trkpt><trkpt lat="41.83930757706976" lon="13.084284247519756"><ele>410.75</ele><time>2026-03-29T10:18:26.999Z</time></trkpt><trkpt lat="41.83938350754703" lon="13.084117978394396"><ele>411.0</ele><time>2026-03-29T10:18:27.999Z</time></trkpt><trkpt lat="41.83947112280862" lon="13.083964262458542"><ele>408.25</ele><time>2026-03-29T10:18:28.999Z</time></trkpt><trkpt lat="41.83954946975948" lon="13.083829779341752"><ele>405.5</ele><time>2026-03-29T10:18:29.999Z</time></trkpt><trkpt lat="41.83963343888486" lon="13.083702544233528"><ele>402.75</ele><time>2026-03-29T10:18:30.999Z</time></trkpt><trkpt lat="41.839726333422256" lon="13.083592357215553"><ele>400.0</ele><time>2026-03-29T10:18:31.999Z</time></trkpt><trkpt lat="41.839834939110915" lon="13.08350534497337"><ele>400.0</ele><time>2026-03-29T10:18:32.999Z</time></trkpt><trkpt lat="41.839964976801966" lon="13.083443143527758"><ele>400.0</ele><time>2026-03-29T10:18:33.999Z</time></trkpt><trkpt lat="41.84009717190253" lon="13.083409789980118"><ele>400.0</ele><time>2026-03-29T10:18:34.999Z</time></trkpt><trkpt lat="41.84022725409167" lon="13.083383767561987"><ele>400.0</ele><time>2026-03-29T10:18:35.999Z</time></trkpt><trkpt lat="41.840356091642214" lon="13.083345202025157"><ele>401.0</ele><time>2026-03-29T10:18:36.999Z</time></trkpt><trkpt lat="41.84048730017956" lon="13.08329531205967"><ele>402.0</ele><time>2026-03-29T10:18:37.999Z</time></trkpt><trkpt lat="41.84062455372856" lon="13.083202569110535"><ele>403.0</ele><time>2026-03-29T10:18:39Z</time></trkpt><trkpt lat="41.84074534044886" lon="13.083065635146676"><ele>404.0</ele><time>2026-03-29T10:18:40Z</time></trkpt><trkpt lat="41.84083429195582" lon="13.082897082401061"><ele>404.5</ele><time>2026-03-29T10:18:41Z</time></trkpt><trkpt lat="41.84089041557776" lon="13.082706320635914"><ele>405.0</ele><time>2026-03-29T10:18:42Z</time></trkpt><trkpt lat="41.84092287634099" lon="13.08250745294484"><ele>405.5</ele><time>2026-03-29T10:18:43Z</time></trkpt><trkpt lat="41.84094111366191" lon="13.082314867656763"><ele>406.0</ele><time>2026-03-29T10:18:44Z</time></trkpt><trkpt lat="41.84096592015447" lon="13.082138129939661"><ele>406.0</ele><time>2026-03-29T10:18:45Z</time></trkpt><trkpt lat="41.84099242439364" lon="13.081978581746359"><ele>406.0</ele><time>2026-03-29T10:18:46Z</time></trkpt><trkpt lat="41.841027430457444" lon="13.0818351638713"><ele>406.0</ele><time>2026-03-29T10:18:47Z</time></trkpt><trkpt lat="41.84107639686175" lon="13.081698638228781"><ele>406.0</ele><time>2026-03-29T10:18:48Z</time></trkpt><trkpt lat="41.84114118122528" lon="13.081568174265977"><ele>403.75</ele><time>2026-03-29T10:18:49Z</time></trkpt><trkpt lat="41.84121279043374" lon="13.081434387256543"><ele>401.5</ele><time>2026-03-29T10:18:50Z</time></trkpt><trkpt lat="41.84128152557155" lon="13.081288744763937"><ele>399.25</ele><time>2026-03-29T10:18:51Z</time></trkpt><trkpt lat="41.84133863975538" lon="13.081124562696463"><ele>397.0</ele><time>2026-03-29T10:18:52Z</time></trkpt><trkpt lat="41.84138102468081" lon="13.080958337516877"><ele>397.0</ele><time>2026-03-29T10:18:53Z</time></trkpt><trkpt lat="41.8414235675369" lon="13.080796956015053"><ele>397.0</ele><time>2026-03-29T10:18:54Z</time></trkpt><trkpt lat="41.841466147123555" lon="13.080640309888253"><ele>397.0</ele><time>2026-03-29T10:18:55Z</time></trkpt><trkpt lat="41.84150642513564" lon="13.080486945688872"><ele>397.0</ele><time>2026-03-29T10:18:56Z</time></trkpt><trkpt lat="41.84154069104827" lon="13.080335355547238"><ele>396.75</ele><time>2026-03-29T10:18:57Z</time></trkpt><trkpt lat="41.841567256823005" lon="13.080176916033823"><ele>396.5</ele><time>2026-03-29T10:18:58Z</time></trkpt><trkpt lat="41.84158714037601" lon="13.080013356882793"><ele>396.25</ele><time>2026-03-29T10:18:59Z</time></trkpt><trkpt lat="41.84160851669764" lon="13.079845198839616"><ele>396.0</ele><time>2026-03-29T10:19:00Z</time></trkpt><trkpt lat="41.841633795573074" lon="13.079679679042398"><ele>395.5</ele><time>2026-03-29T10:19:01Z</time></trkpt><trkpt lat="41.84166478359689" lon="13.079508391606373"><ele>395.0</ele><time>2026-03-29T10:19:02Z</time></trkpt><trkpt lat="41.8416924039092" lon="13.079318381315478"><ele>394.5</ele><time>2026-03-29T10:19:03Z</time></trkpt><trkpt lat="41.84172373049983" lon="13.079123455086354"><ele>394.0</ele><time>2026-03-29T10:19:04Z</time></trkpt><trkpt lat="41.841763153764155" lon="13.07893113421474"><ele>396.5</ele><time>2026-03-29T10:19:05Z</time></trkpt><trkpt lat="41.84180468675389" lon="13.078743605266252"><ele>399.0</ele><time>2026-03-29T10:19:06Z</time></trkpt><trkpt lat="41.841852380447854" lon="13.078565007601872"><ele>401.5</ele><time>2026-03-29T10:19:07Z</time></trkpt><trkpt lat="41.84190117397702" lon="13.07839741580179"><ele>404.0</ele><time>2026-03-29T10:19:08Z</time></trkpt><trkpt lat="41.84195283064604" lon="13.07823648632289"><ele>404.0</ele><time>2026-03-29T10:19:09Z</time></trkpt><trkpt lat="41.84201641655476" lon="13.078085738660855"><ele>404.0</ele><time>2026-03-29T10:19:10Z</time></trkpt><trkpt lat="41.842104634606784" lon="13.07793765446347"><ele>404.0</ele><time>2026-03-29T10:19:11Z</time></trkpt><trkpt lat="41.842217720607906" lon="13.077777919551389"><ele>404.0</ele><time>2026-03-29T10:19:12Z</time></trkpt><trkpt lat="41.842332259580296" lon="13.07756748137406"><ele>402.3333333333333</ele><time>2026-03-29T10:19:13Z</time></trkpt><trkpt lat="41.84242003902912" lon="13.077330338019998"><ele>400.66666666666663</ele><time>2026-03-29T10:19:14Z</time></trkpt><trkpt lat="41.842510894881826" lon="13.077090997826263"><ele>399.0</ele><time>2026-03-29T10:19:15Z</time></trkpt><trkpt lat="41.8425939412734" lon="13.076886417490838"><ele>400.33333333333337</ele><time>2026-03-29T10:19:16Z</time></trkpt><trkpt lat="41.84267629732491" lon="13.076694813851867"><ele>401.6666666666667</ele><time>2026-03-29T10:19:17Z</time></trkpt><trkpt lat="41.84275853449088" lon="13.076496409531979"><ele>403.0</ele><time>2026-03-29T10:19:18Z</time></trkpt><trkpt lat="41.84283612022242" lon="13.076294420409717"><ele>403.0</ele><time>2026-03-29T10:19:19Z</time></trkpt><trkpt lat="41.84290537111774" lon="13.076110107952852"><ele>403.0</ele><time>2026-03-29T10:19:20Z</time></trkpt><trkpt lat="41.84297183878888" lon="13.075948237677755"><ele>403.0</ele><time>2026-03-29T10:19:21Z</time></trkpt><trkpt lat="41.84303682206766" lon="13.075792863823956"><ele>403.0</ele><time>2026-03-29T10:19:22Z</time></trkpt><trkpt lat="41.843131141820265" lon="13.075661811198142"><ele>402.75</ele><time>2026-03-29T10:19:23Z</time></trkpt><trkpt lat="41.843249165030436" lon="13.07554326479284"><ele>402.5</ele><time>2026-03-29T10:19:24Z</time></trkpt><trkpt lat="41.84337733557249" lon="13.075452787526775"><ele>402.25</ele><time>2026-03-29T10:19:25Z</time></trkpt><trkpt lat="41.84349795852022" lon="13.075388826232217"><ele>402.0</ele><time>2026-03-29T10:19:26Z</time></trkpt><trkpt lat="41.84363027636987" lon="13.075352024335277"><ele>402.0</ele><time>2026-03-29T10:19:26.999Z</time></trkpt><trkpt lat="41.84377498082823" lon="13.075324848309323"><ele>402.0</ele><time>2026-03-29T10:19:27.999Z</time></trkpt><trkpt lat="41.84392711200578" lon="13.075279957794358"><ele>402.0</ele><time>2026-03-29T10:19:28.999Z</time></trkpt><trkpt lat="41.84407562199344" lon="13.075207171332544"><ele>402.0</ele><time>2026-03-29T10:19:29.999Z</time></trkpt><trkpt lat="41.84421809056979" lon="13.075112748266008"><ele>402.0</ele><time>2026-03-29T10:19:30.999Z</time></trkpt><trkpt lat="41.844350935310985" lon="13.075002416891438"><ele>402.0</ele><time>2026-03-29T10:19:31.999Z</time></trkpt><trkpt lat="41.84447625344782" lon="13.074872268685557"><ele>405.75</ele><time>2026-03-29T10:19:32.999Z</time></trkpt><trkpt lat="41.844590895612754" lon="13.074732112653992"><ele>409.5</ele><time>2026-03-29T10:19:33.999Z</time></trkpt><trkpt lat="41.84468653962285" lon="13.074593168718687"><ele>413.25</ele><time>2026-03-29T10:19:34.999Z</time></trkpt><trkpt lat="41.844752809329954" lon="13.074459395775127"><ele>417.0</ele><time>2026-03-29T10:19:35.999Z</time></trkpt><trkpt lat="41.844798126319475" lon="13.074330271442522"><ele>417.0</ele><time>2026-03-29T10:19:36.999Z</time></trkpt><trkpt lat="41.84482222725004" lon="13.074213865310988"><ele>417.0</ele><time>2026-03-29T10:19:37.999Z</time></trkpt><trkpt lat="41.84481886748354" lon="13.074102529912315"><ele>417.0</ele><time>2026-03-29T10:19:38.999Z</time></trkpt><trkpt lat="41.84476743005965" lon="13.074000374136375"><ele>417.0</ele><time>2026-03-29T10:19:39.999Z</time></trkpt><trkpt lat="41.84466917965305" lon="13.073947748957337"><ele>417.0</ele><time>2026-03-29T10:19:40.999Z</time></trkpt><trkpt lat="41.84453365828726" lon="13.073926760729334"><ele>416.8</ele><time>2026-03-29T10:19:41.999Z</time></trkpt><trkpt lat="41.844409784757126" lon="13.07392362043687"><ele>416.6</ele><time>2026-03-29T10:19:42.999Z</time></trkpt><trkpt lat="41.844317050949606" lon="13.073901847634561"><ele>416.40000000000003</ele><time>2026-03-29T10:19:43.999Z</time></trkpt><trkpt lat="41.84424514635346" lon="13.07385576348901"><ele>416.20000000000005</ele><time>2026-03-29T10:19:44.999Z</time></trkpt><trkpt lat="41.84418548356562" lon="13.073768487726879"><ele>416.0</ele><time>2026-03-29T10:19:45.999Z</time></trkpt><trkpt lat="41.84413134189669" lon="13.073639892216281"><ele>416.0</ele><time>2026-03-29T10:19:46.999Z</time></trkpt><trkpt lat="41.84410650171367" lon="13.073475488210546"><ele>416.0</ele><time>2026-03-29T10:19:47.999Z</time></trkpt><trkpt lat="41.84409020317727" lon="13.073292044626388"><ele>416.0</ele><time>2026-03-29T10:19:48.999Z</time></trkpt><trkpt lat="41.844091128463795" lon="13.073108922604755"><ele>416.0</ele><time>2026-03-29T10:19:49.999Z</time></trkpt><trkpt lat="41.84411261869517" lon="13.072940756789606"><ele>415.99999999999994</ele><time>2026-03-29T10:19:50.999Z</time></trkpt><trkpt lat="41.844136654656026" lon="13.072812806568608"><ele>416.0</ele><time>2026-03-29T10:19:51.999Z</time></trkpt><trkpt lat="41.844160531029594" lon="13.0727039179682"><ele>416.0</ele><time>2026-03-29T10:19:52.999Z</time></trkpt><trkpt lat="41.844185715584786" lon="13.072604632916319"><ele>416.0</ele><time>2026-03-29T10:19:53.999Z</time></trkpt><trkpt lat="41.84421751924985" lon="13.072522914049593"><ele>415.99999999999994</ele><time>2026-03-29T10:19:54.999Z</time></trkpt><trkpt lat="41.844276195704715" lon="13.072458874034776"><ele>416.0</ele><time>2026-03-29T10:19:55.999Z</time></trkpt><trkpt lat="41.84434348766168" lon="13.072439443377789"><ele>418.4</ele><time>2026-03-29T10:19:56.999Z</time></trkpt><trkpt lat="41.84441091815414" lon="13.072477794484113"><ele>420.8</ele><time>2026-03-29T10:19:57.999Z</time></trkpt><trkpt lat="41.84447960146601" lon="13.072560480035976"><ele>423.19999999999993</ele><time>2026-03-29T10:19:58.999Z</time></trkpt><trkpt lat="41.84455812929739" lon="13.072655430784858"><ele>425.59999999999997</ele><time>2026-03-29T10:19:59.999Z</time></trkpt><trkpt lat="41.844649157031284" lon="13.072729448864461"><ele>428.0</ele><time>2026-03-29T10:20:00.999Z</time></trkpt><trkpt lat="41.844732752912094" lon="13.072769138306683"><ele>428.0</ele><time>2026-03-29T10:20:01.999Z</time></trkpt><trkpt lat="41.844840409410715" lon="13.07282443915969"><ele>428.0</ele><time>2026-03-29T10:20:02.999Z</time></trkpt><trkpt lat="41.84496468822915" lon="13.072888240761452"><ele>428.0</ele><time>2026-03-29T10:20:03.999Z</time></trkpt><trkpt lat="41.845102856315265" lon="13.072907320827014"><ele>428.0</ele><time>2026-03-29T10:20:04.999Z</time></trkpt><trkpt lat="41.845257480312604" lon="13.072939221587859"><ele>429.75</ele><time>2026-03-29T10:20:05.999Z</time></trkpt><trkpt lat="41.84540681686774" lon="13.072950235993101"><ele>431.5</ele><time>2026-03-29T10:20:06.999Z</time></trkpt><trkpt lat="41.845532099074674" lon="13.072950260083486"><ele>433.25</ele><time>2026-03-29T10:20:07.999Z</time></trkpt><trkpt lat="41.845665684787434" lon="13.072958560029777"><ele>435.0</ele><time>2026-03-29T10:20:08.999Z</time></trkpt><trkpt lat="41.845767941315515" lon="13.072959529493282"><ele>435.0</ele><time>2026-03-29T10:20:09.999Z</time></trkpt><trkpt lat="41.845848813126835" lon="13.07295902113438"><ele>435.0</ele><time>2026-03-29T10:20:10.999Z</time></trkpt><trkpt lat="41.84592344549737" lon="13.072961767746458"><ele>435.0</ele><time>2026-03-29T10:20:11.999Z</time></trkpt><trkpt lat="41.84603406705779" lon="13.072972555218053"><ele>435.0</ele><time>2026-03-29T10:20:13.999Z</time></trkpt><trkpt lat="41.846113642604415" lon="13.07289216081126"><ele>435.0</ele><time>2026-03-29T10:20:15.999Z</time></trkpt><trkpt lat="41.846146383380095" lon="13.07279905279429"><ele>435.0</ele><time>2026-03-29T10:20:17Z</time></trkpt><trkpt lat="41.84618677235729" lon="13.0727211625157"><ele>434.75</ele><time>2026-03-29T10:20:18Z</time></trkpt><trkpt lat="41.84623764740348" lon="13.072565853322546"><ele>434.5</ele><time>2026-03-29T10:20:19Z</time></trkpt><trkpt lat="41.84630769956966" lon="13.07243402478227"><ele>434.25</ele><time>2026-03-29T10:20:20Z</time></trkpt><trkpt lat="41.846385468715276" lon="13.072305945298234"><ele>434.0</ele><time>2026-03-29T10:20:21Z</time></trkpt><trkpt lat="41.84648176109514" lon="13.072183547436182"><ele>434.0</ele><time>2026-03-29T10:20:22Z</time></trkpt><trkpt lat="41.846576268733784" lon="13.072051232369457"><ele>434.0</ele><time>2026-03-29T10:20:23Z</time></trkpt><trkpt lat="41.84668211974756" lon="13.07189914081487"><ele>434.0</ele><time>2026-03-29T10:20:24Z</time></trkpt><trkpt lat="41.84677845692333" lon="13.071708745752096"><ele>433.66666666666663</ele><time>2026-03-29T10:20:25Z</time></trkpt><trkpt lat="41.846901781494246" lon="13.071554122278132"><ele>433.33333333333337</ele><time>2026-03-29T10:20:26Z</time></trkpt><trkpt lat="41.84703333080471" lon="13.071397552934052"><ele>433.0</ele><time>2026-03-29T10:20:27Z</time></trkpt><trkpt lat="41.847158763162675" lon="13.07122588109423"><ele>433.0</ele><time>2026-03-29T10:20:28Z</time></trkpt><trkpt lat="41.84726794162284" lon="13.07103644958219"><ele>433.0</ele><time>2026-03-29T10:20:29Z</time></trkpt><trkpt lat="41.84735977731638" lon="13.070826849189995"><ele>433.0</ele><time>2026-03-29T10:20:30Z</time></trkpt><trkpt lat="41.847435617466424" lon="13.070605253053918"><ele>429.0</ele><time>2026-03-29T10:20:31Z</time></trkpt><trkpt lat="41.847494102403516" lon="13.070401298442139"><ele>425.0</ele><time>2026-03-29T10:20:32Z</time></trkpt><trkpt lat="41.84755432844492" lon="13.07020521442366"><ele>421.0</ele><time>2026-03-29T10:20:33Z</time></trkpt><trkpt lat="41.84761876995535" lon="13.070004781437857"><ele>425.0</ele><time>2026-03-29T10:20:34Z</time></trkpt><trkpt lat="41.84768561937498" lon="13.069799813678554"><ele>429.0</ele><time>2026-03-29T10:20:35Z</time></trkpt><trkpt lat="41.84775372476676" lon="13.069585348784958"><ele>433.0</ele><time>2026-03-29T10:20:36Z</time></trkpt><trkpt lat="41.84782507772577" lon="13.069363663236818"><ele>433.0</ele><time>2026-03-29T10:20:37Z</time></trkpt><trkpt lat="41.84789807885466" lon="13.069143965001096"><ele>433.0</ele><time>2026-03-29T10:20:38Z</time></trkpt><trkpt lat="41.847972734976615" lon="13.068930598648512"><ele>433.0</ele><time>2026-03-29T10:20:39Z</time></trkpt><trkpt lat="41.848039961474264" lon="13.068720311884645"><ele>429.33333333333337</ele><time>2026-03-29T10:20:40Z</time></trkpt><trkpt lat="41.848103814253875" lon="13.06851686558046"><ele>425.66666666666663</ele><time>2026-03-29T10:20:41Z</time></trkpt><trkpt lat="41.84817861939379" lon="13.068327505342822"><ele>422.0</ele><time>2026-03-29T10:20:42Z</time></trkpt><trkpt lat="41.84827594343168" lon="13.06816706320307"><ele>420.66666666666663</ele><time>2026-03-29T10:20:43Z</time></trkpt><trkpt lat="41.84838611603652" lon="13.068017463265592"><ele>419.33333333333337</ele><time>2026-03-29T10:20:44Z</time></trkpt><trkpt lat="41.84850100921674" lon="13.06788223347117"><ele>418.0</ele><time>2026-03-29T10:20:45Z</time></trkpt><trkpt lat="41.84861667655351" lon="13.067753672699098"><ele>418.0</ele><time>2026-03-29T10:20:46Z</time></trkpt><trkpt lat="41.848736894442766" lon="13.06764806995692"><ele>418.0</ele><time>2026-03-29T10:20:47Z</time></trkpt><trkpt lat="41.84886879497023" lon="13.067583410978246"><ele>418.0</ele><time>2026-03-29T10:20:48Z</time></trkpt><trkpt lat="41.84901126399001" lon="13.067553140709554"><ele>418.0</ele><time>2026-03-29T10:20:49Z</time></trkpt><trkpt lat="41.849159560358416" lon="13.067556411761284"><ele>418.5</ele><time>2026-03-29T10:20:50Z</time></trkpt><trkpt lat="41.84930393913757" lon="13.067585627340442"><ele>419.0</ele><time>2026-03-29T10:20:51Z</time></trkpt><trkpt lat="41.849451088842464" lon="13.067600819737153"><ele>419.5</ele><time>2026-03-29T10:20:52Z</time></trkpt><trkpt lat="41.8496043780168" lon="13.067620738581104"><ele>420.0</ele><time>2026-03-29T10:20:53Z</time></trkpt><trkpt lat="41.84976988717849" lon="13.067640180963844"><ele>420.0</ele><time>2026-03-29T10:20:54Z</time></trkpt><trkpt lat="41.84993948354473" lon="13.06764984959857"><ele>420.0</ele><time>2026-03-29T10:20:55Z</time></trkpt><trkpt lat="41.85010585677182" lon="13.067660233970447"><ele>420.0</ele><time>2026-03-29T10:20:56Z</time></trkpt><trkpt lat="41.850269778069915" lon="13.067677193650889"><ele>424.0</ele><time>2026-03-29T10:20:57Z</time></trkpt><trkpt lat="41.85042999173987" lon="13.067689243034282"><ele>428.0</ele><time>2026-03-29T10:20:58Z</time></trkpt><trkpt lat="41.85058725705669" lon="13.06770320742998"><ele>432.0</ele><time>2026-03-29T10:20:59Z</time></trkpt><trkpt lat="41.85073742048468" lon="13.06771546989152"><ele>432.0</ele><time>2026-03-29T10:21:00Z</time></trkpt><trkpt lat="41.850867948971526" lon="13.067734744885572"><ele>432.0</ele><time>2026-03-29T10:21:01Z</time></trkpt><trkpt lat="41.85098271281177" lon="13.067751545063267"><ele>432.0</ele><time>2026-03-29T10:21:02Z</time></trkpt><trkpt lat="41.851101207513636" lon="13.067762098518187"><ele>432.0</ele><time>2026-03-29T10:21:03Z</time></trkpt><trkpt lat="41.851213358432965" lon="13.067800189031779"><ele>433.0</ele><time>2026-03-29T10:21:04Z</time></trkpt><trkpt lat="41.85130809768091" lon="13.0679003923666"><ele>434.0</ele><time>2026-03-29T10:21:05Z</time></trkpt><trkpt lat="41.85138034936131" lon="13.068036083895157"><ele>435.0</ele><time>2026-03-29T10:21:06Z</time></trkpt><trkpt lat="41.851426190858206" lon="13.068207717975406"><ele>436.0</ele><time>2026-03-29T10:21:07Z</time></trkpt><trkpt lat="41.85146456014222" lon="13.06839440743403"><ele>438.6666666666667</ele><time>2026-03-29T10:21:08Z</time></trkpt><trkpt lat="41.85150217483355" lon="13.068583488945029"><ele>441.33333333333337</ele><time>2026-03-29T10:21:09Z</time></trkpt><trkpt lat="41.85154965903326" lon="13.068776834766158"><ele>444.0</ele><time>2026-03-29T10:21:10Z</time></trkpt><trkpt lat="41.851603939471865" lon="13.068984355827777"><ele>448.66666666666663</ele><time>2026-03-29T10:21:11Z</time></trkpt><trkpt lat="41.851673115844854" lon="13.069214308487831"><ele>453.3333333333333</ele><time>2026-03-29T10:21:12Z</time></trkpt><trkpt lat="41.85175998439059" lon="13.06941915146097"><ele>458.0</ele><time>2026-03-29T10:21:13Z</time></trkpt><trkpt lat="41.85185367802191" lon="13.069563482216164"><ele>458.75</ele><time>2026-03-29T10:21:14Z</time></trkpt><trkpt lat="41.85196054428603" lon="13.069665338412886"><ele>459.5</ele><time>2026-03-29T10:21:15Z</time></trkpt><trkpt lat="41.852077470815956" lon="13.069739133734203"><ele>460.25</ele><time>2026-03-29T10:21:16Z</time></trkpt><trkpt lat="41.852186019491654" lon="13.06976947104275"><ele>461.0</ele><time>2026-03-29T10:21:17Z</time></trkpt><trkpt lat="41.85229270470747" lon="13.069751123212797"><ele>461.0</ele><time>2026-03-29T10:21:18Z</time></trkpt><trkpt lat="41.8524127337693" lon="13.069686940345774"><ele>461.0</ele><time>2026-03-29T10:21:18.999Z</time></trkpt><trkpt lat="41.85255556157916" lon="13.069580180115768"><ele>461.0</ele><time>2026-03-29T10:21:19.999Z</time></trkpt><trkpt lat="41.8527040154811" lon="13.069453583297728"><ele>468.3333333333333</ele><time>2026-03-29T10:21:20.999Z</time></trkpt><trkpt lat="41.8528152476637" lon="13.069307571032358"><ele>475.66666666666663</ele><time>2026-03-29T10:21:21.999Z</time></trkpt><trkpt lat="41.85288989462429" lon="13.06911108641027"><ele>483.0</ele><time>2026-03-29T10:21:22.999Z</time></trkpt><trkpt lat="41.852937766265434" lon="13.068878053799487"><ele>483.0</ele><time>2026-03-29T10:21:23.999Z</time></trkpt><trkpt lat="41.852976679747215" lon="13.068607360150944"><ele>483.0</ele><time>2026-03-29T10:21:24.999Z</time></trkpt><trkpt lat="41.85300759421466" lon="13.068360728774271"><ele>483.0</ele><time>2026-03-29T10:21:25.999Z</time></trkpt><trkpt lat="41.85304991926446" lon="13.068153066322685"><ele>477.33333333333337</ele><time>2026-03-29T10:21:26.999Z</time></trkpt><trkpt lat="41.85312371341966" lon="13.067975498759274"><ele>471.6666666666667</ele><time>2026-03-29T10:21:27.999Z</time></trkpt><trkpt lat="41.853245409270855" lon="13.067830054063375"><ele>466.0</ele><time>2026-03-29T10:21:28.999Z</time></trkpt><trkpt lat="41.85340139880266" lon="13.067713525863054"><ele>472.6666666666667</ele><time>2026-03-29T10:21:29.999Z</time></trkpt><trkpt lat="41.85359702362619" lon="13.067636831776936"><ele>479.33333333333337</ele><time>2026-03-29T10:21:30.999Z</time></trkpt><trkpt lat="41.85382145864761" lon="13.067578450713553"><ele>486.0</ele><time>2026-03-29T10:21:31.999Z</time></trkpt><trkpt lat="41.85401199664072" lon="13.067522634319324"><ele>486.0</ele><time>2026-03-29T10:21:32.999Z</time></trkpt><trkpt lat="41.85417048531651" lon="13.067484679027176"><ele>486.0</ele><time>2026-03-29T10:21:33.999Z</time></trkpt><trkpt lat="41.85433878901006" lon="13.067430769421215"><ele>486.0</ele><time>2026-03-29T10:21:34.999Z</time></trkpt><trkpt lat="41.85449835816865" lon="13.06738960336208"><ele>488.33333333333337</ele><time>2026-03-29T10:21:35.999Z</time></trkpt><trkpt lat="41.854652220144715" lon="13.067406431923887"><ele>490.6666666666667</ele><time>2026-03-29T10:21:36.999Z</time></trkpt><trkpt lat="41.85481317194122" lon="13.067472801131833"><ele>493.0</ele><time>2026-03-29T10:21:37.999Z</time></trkpt><trkpt lat="41.85498926827163" lon="13.067551032836036"><ele>496.33333333333337</ele><time>2026-03-29T10:21:38.999Z</time></trkpt><trkpt lat="41.855183779489145" lon="13.067595107920793"><ele>499.66666666666663</ele><time>2026-03-29T10:21:39.999Z</time></trkpt><trkpt lat="41.85539155865865" lon="13.067583931731779"><ele>503.0</ele><time>2026-03-29T10:21:40.999Z</time></trkpt><trkpt lat="41.85559073371503" lon="13.06755244197069"><ele>503.0</ele><time>2026-03-29T10:21:41.999Z</time></trkpt><trkpt lat="41.85578683502758" lon="13.067524843820093"><ele>503.0</ele><time>2026-03-29T10:21:42.999Z</time></trkpt><trkpt lat="41.85595760195728" lon="13.067511693877215"><ele>503.0</ele><time>2026-03-29T10:21:43.999Z</time></trkpt><trkpt lat="41.85610402503459" lon="13.067510264072133"><ele>504.5</ele><time>2026-03-29T10:21:44.999Z</time></trkpt><trkpt lat="41.85622933678229" lon="13.06750703027164"><ele>506.0</ele><time>2026-03-29T10:21:45.999Z</time></trkpt><trkpt lat="41.8563441868545" lon="13.067499051946674"><ele>507.5</ele><time>2026-03-29T10:21:46.999Z</time></trkpt><trkpt lat="41.8564553405197" lon="13.06750608065592"><ele>509.0</ele><time>2026-03-29T10:21:47.999Z</time></trkpt><trkpt lat="41.85654883237579" lon="13.067557080673986"><ele>509.0</ele><time>2026-03-29T10:21:48.999Z</time></trkpt><trkpt lat="41.85662988845114" lon="13.067637978344578"><ele>509.0</ele><time>2026-03-29T10:21:49.999Z</time></trkpt><trkpt lat="41.85669005207674" lon="13.067753876749064"><ele>509.0</ele><time>2026-03-29T10:21:50.999Z</time></trkpt><trkpt lat="41.85673299590889" lon="13.067901044439738"><ele>509.0</ele><time>2026-03-29T10:21:51.999Z</time></trkpt><trkpt lat="41.85675400503037" lon="13.068070584320424"><ele>509.0</ele><time>2026-03-29T10:21:52.999Z</time></trkpt><trkpt lat="41.85676943533707" lon="13.068259406728753"><ele>509.0</ele><time>2026-03-29T10:21:53.999Z</time></trkpt><trkpt lat="41.856791353100924" lon="13.068451031180496"><ele>509.0</ele><time>2026-03-29T10:21:54.999Z</time></trkpt><trkpt lat="41.85683160564848" lon="13.068608660380786"><ele>509.0</ele><time>2026-03-29T10:21:55.999Z</time></trkpt><trkpt lat="41.85689803789318" lon="13.068741901996582"><ele>511.5</ele><time>2026-03-29T10:21:56.999Z</time></trkpt><trkpt lat="41.856994413269405" lon="13.068850619504907"><ele>514.0</ele><time>2026-03-29T10:21:57.999Z</time></trkpt><trkpt lat="41.85711999655851" lon="13.068916571685978"><ele>516.5</ele><time>2026-03-29T10:21:58.999Z</time></trkpt><trkpt lat="41.85725778889902" lon="13.068949081350565"><ele>519.0</ele><time>2026-03-29T10:21:59.999Z</time></trkpt><trkpt lat="41.85740806290687" lon="13.068941052164355"><ele>519.0</ele><time>2026-03-29T10:22:00.999Z</time></trkpt><trkpt lat="41.85758863800964" lon="13.068878418115691"><ele>519.0</ele><time>2026-03-29T10:22:01.999Z</time></trkpt><trkpt lat="41.857803759685" lon="13.068775338548273"><ele>519.0</ele><time>2026-03-29T10:22:02.999Z</time></trkpt><trkpt lat="41.85802426674098" lon="13.068677561962463"><ele>524.0</ele><time>2026-03-29T10:22:03.999Z</time></trkpt><trkpt lat="41.85826525689435" lon="13.068593821345258"><ele>529.0</ele><time>2026-03-29T10:22:04.999Z</time></trkpt><trkpt lat="41.858522432617065" lon="13.068525087026096"><ele>529.0</ele><time>2026-03-29T10:22:05.999Z</time></trkpt><trkpt lat="41.85874226381184" lon="13.068458291891028"><ele>529.0</ele><time>2026-03-29T10:22:06.999Z</time></trkpt><trkpt lat="41.85892970562745" lon="13.068360900903167"><ele>529.0</ele><time>2026-03-29T10:22:07.999Z</time></trkpt><trkpt lat="41.859108353390056" lon="13.068191231983878"><ele>549.0</ele><time>2026-03-29T10:22:08.999Z</time></trkpt><trkpt lat="41.85928468734061" lon="13.067991481702643"><ele>569.0</ele><time>2026-03-29T10:22:09.999Z</time></trkpt><trkpt lat="41.8594706217232" lon="13.067798018063717"><ele>569.0</ele><time>2026-03-29T10:22:10.999Z</time></trkpt><trkpt lat="41.85966531448423" lon="13.067617091977617"><ele>569.0</ele><time>2026-03-29T10:22:11.999Z</time></trkpt><trkpt lat="41.859852106589535" lon="13.067411068537341"><ele>572.5</ele><time>2026-03-29T10:22:12.999Z</time></trkpt><trkpt lat="41.860023843745225" lon="13.06719656711444"><ele>576.0</ele><time>2026-03-29T10:22:13.999Z</time></trkpt><trkpt lat="41.86018707097011" lon="13.066994013610659"><ele>576.0</ele><time>2026-03-29T10:22:14.999Z</time></trkpt><trkpt lat="41.860333930547505" lon="13.066808075735503"><ele>576.0</ele><time>2026-03-29T10:22:15.999Z</time></trkpt><trkpt lat="41.860468990680694" lon="13.066637119743666"><ele>576.0</ele><time>2026-03-29T10:22:16.999Z</time></trkpt><trkpt lat="41.86062449501522" lon="13.066510920576993"><ele>571.6666666666666</ele><time>2026-03-29T10:22:17.999Z</time></trkpt><trkpt lat="41.860783042008165" lon="13.066381099502014"><ele>567.3333333333333</ele><time>2026-03-29T10:22:18.999Z</time></trkpt><trkpt lat="41.860955200846846" lon="13.06629257467088"><ele>563.0</ele><time>2026-03-29T10:22:19.999Z</time></trkpt><trkpt lat="41.86110600119855" lon="13.06623082137933"><ele>563.0</ele><time>2026-03-29T10:22:20.999Z</time></trkpt><trkpt lat="41.86123861866837" lon="13.066215870427673"><ele>563.0</ele><time>2026-03-29T10:22:22Z</time></trkpt><trkpt lat="41.861353594789605" lon="13.066264643211143"><ele>563.0</ele><time>2026-03-29T10:22:23Z</time></trkpt><trkpt lat="41.86147109108209" lon="13.066319938986533"><ele>563.0</ele><time>2026-03-29T10:22:24Z</time></trkpt><trkpt lat="41.861557000737825" lon="13.066512313015702"><ele>570.3333333333333</ele><time>2026-03-29T10:22:25Z</time></trkpt><trkpt lat="41.861689396955526" lon="13.066691442795175"><ele>577.6666666666666</ele><time>2026-03-29T10:22:26Z</time></trkpt><trkpt lat="41.86183646696237" lon="13.066842283909882"><ele>585.0</ele><time>2026-03-29T10:22:27Z</time></trkpt><trkpt lat="41.8619835530615" lon="13.066912780959774"><ele>585.0</ele><time>2026-03-29T10:22:28Z</time></trkpt><trkpt lat="41.86215927681415" lon="13.066934914406927"><ele>585.0</ele><time>2026-03-29T10:22:29Z</time></trkpt><trkpt lat="41.862357498200076" lon="13.066911558833759"><ele>585.0</ele><time>2026-03-29T10:22:30Z</time></trkpt><trkpt lat="41.862554742396945" lon="13.066833020354306"><ele>580.6666666666666</ele><time>2026-03-29T10:22:31Z</time></trkpt><trkpt lat="41.86271383486344" lon="13.06667596352596"><ele>576.3333333333333</ele><time>2026-03-29T10:22:32Z</time></trkpt><trkpt lat="41.86286884995795" lon="13.066564665434178"><ele>572.0</ele><time>2026-03-29T10:22:33Z</time></trkpt><trkpt lat="41.86302369224471" lon="13.06646422534246"><ele>572.0</ele><time>2026-03-29T10:22:34Z</time></trkpt><trkpt lat="41.86314786112915" lon="13.066413426296583"><ele>572.0</ele><time>2026-03-29T10:22:35Z</time></trkpt><trkpt lat="41.863253177225644" lon="13.066390314431402"><ele>572.0</ele><time>2026-03-29T10:22:36Z</time></trkpt><trkpt lat="41.86338329614969" lon="13.066430115358635"><ele>572.0</ele><time>2026-03-29T10:22:37Z</time></trkpt><trkpt lat="41.86350472472075" lon="13.066494838177949"><ele>580.0</ele><time>2026-03-29T10:22:38Z</time></trkpt><trkpt lat="41.86361874736564" lon="13.066617980474472"><ele>588.0</ele><time>2026-03-29T10:22:39Z</time></trkpt><trkpt lat="41.86375224726475" lon="13.066760380229468"><ele>596.0</ele><time>2026-03-29T10:22:40Z</time></trkpt><trkpt lat="41.86388352709547" lon="13.066879778976105"><ele>596.0</ele><time>2026-03-29T10:22:41Z</time></trkpt><trkpt lat="41.86398518872425" lon="13.067030072732518"><ele>596.0</ele><time>2026-03-29T10:22:42Z</time></trkpt><trkpt lat="41.86405445277242" lon="13.067225510830253"><ele>596.0</ele><time>2026-03-29T10:22:43Z</time></trkpt><trkpt lat="41.864102553672694" lon="13.067446642923231"><ele>602.3333333333333</ele><time>2026-03-29T10:22:44Z</time></trkpt><trkpt lat="41.8641684943924" lon="13.067683166383555"><ele>608.6666666666666</ele><time>2026-03-29T10:22:45Z</time></trkpt><trkpt lat="41.8642082092919" lon="13.067859306057734"><ele>615.0</ele><time>2026-03-29T10:22:46Z</time></trkpt><trkpt lat="41.86424039466076" lon="13.068024424986488"><ele>613.25</ele><time>2026-03-29T10:22:47Z</time></trkpt><trkpt lat="41.86431098696237" lon="13.068162123041773"><ele>611.5</ele><time>2026-03-29T10:22:48Z</time></trkpt><trkpt lat="41.86440876942967" lon="13.068267738604563"><ele>609.75</ele><time>2026-03-29T10:22:49Z</time></trkpt><trkpt lat="41.86451425511412" lon="13.068348146275097"><ele>608.0</ele><time>2026-03-29T10:22:50Z</time></trkpt><trkpt lat="41.864631697344805" lon="13.068384843224203"><ele>608.0</ele><time>2026-03-29T10:22:51Z</time></trkpt><trkpt lat="41.86475607372745" lon="13.068394091353362"><ele>608.0</ele><time>2026-03-29T10:22:52Z</time></trkpt><trkpt lat="41.86489265884203" lon="13.068348599103354"><ele>608.0</ele><time>2026-03-29T10:22:53Z</time></trkpt><trkpt lat="41.86502319169446" lon="13.068236948340852"><ele>608.0</ele><time>2026-03-29T10:22:54Z</time></trkpt><trkpt lat="41.86514443470497" lon="13.068063844509288"><ele>618.6666666666666</ele><time>2026-03-29T10:22:55Z</time></trkpt><trkpt lat="41.86527477433012" lon="13.067864228472345"><ele>629.3333333333334</ele><time>2026-03-29T10:22:56Z</time></trkpt><trkpt lat="41.86542818069747" lon="13.067701903322824"><ele>640.0</ele><time>2026-03-29T10:22:57Z</time></trkpt><trkpt lat="41.865593633597655" lon="13.067572637952297"><ele>640.0</ele><time>2026-03-29T10:22:58Z</time></trkpt><trkpt lat="41.86576815433906" lon="13.067456694926381"><ele>640.0</ele><time>2026-03-29T10:22:59Z</time></trkpt><trkpt lat="41.86593460273608" lon="13.067324196783684"><ele>640.0</ele><time>2026-03-29T10:23:00Z</time></trkpt><trkpt lat="41.866095882839495" lon="13.067172023254189"><ele>641.6666666666667</ele><time>2026-03-29T10:23:01Z</time></trkpt><trkpt lat="41.86625661485164" lon="13.067018433879733"><ele>643.3333333333334</ele><time>2026-03-29T10:23:02Z</time></trkpt><trkpt lat="41.86640396321315" lon="13.066890435177445"><ele>645.0</ele><time>2026-03-29T10:23:03Z</time></trkpt><trkpt lat="41.86653697773829" lon="13.066805098982009"><ele>645.0</ele><time>2026-03-29T10:23:04Z</time></trkpt><trkpt lat="41.86667525927401" lon="13.066777545025523"><ele>645.0</ele><time>2026-03-29T10:23:05Z</time></trkpt><trkpt lat="41.86681440356983" lon="13.066818715028493"><ele>645.0</ele><time>2026-03-29T10:23:06Z</time></trkpt><trkpt lat="41.8669478666769" lon="13.06690524562618"><ele>645.0</ele><time>2026-03-29T10:23:07Z</time></trkpt><trkpt lat="41.867087972372964" lon="13.067013940340193"><ele>645.3333333333334</ele><time>2026-03-29T10:23:08Z</time></trkpt><trkpt lat="41.867264473836954" lon="13.067166981580272"><ele>645.6666666666667</ele><time>2026-03-29T10:23:09Z</time></trkpt><trkpt lat="41.86742761745029" lon="13.06727883310263"><ele>646.0</ele><time>2026-03-29T10:23:10Z</time></trkpt><trkpt lat="41.86757359930749" lon="13.067339318738108"><ele>647.6666666666667</ele><time>2026-03-29T10:23:11Z</time></trkpt><trkpt lat="41.86772915367152" lon="13.067351707262345"><ele>649.3333333333334</ele><time>2026-03-29T10:23:12Z</time></trkpt><trkpt lat="41.867882858566205" lon="13.067267055295464"><ele>651.0</ele><time>2026-03-29T10:23:13Z</time></trkpt><trkpt lat="41.868024551006776" lon="13.067119933879688"><ele>651.0</ele><time>2026-03-29T10:23:14Z</time></trkpt><trkpt lat="41.86815928279612" lon="13.066923130181795"><ele>651.0</ele><time>2026-03-29T10:23:15Z</time></trkpt><trkpt lat="41.86828906630428" lon="13.066747659353508"><ele>651.0</ele><time>2026-03-29T10:23:16Z</time></trkpt><trkpt lat="41.86842074162415" lon="13.06662959363483"><ele>646.6666666666666</ele><time>2026-03-29T10:23:17Z</time></trkpt><trkpt lat="41.868556258960226" lon="13.066588306872207"><ele>642.3333333333333</ele><time>2026-03-29T10:23:18Z</time></trkpt><trkpt lat="41.86872332768068" lon="13.066574015827614"><ele>638.0</ele><time>2026-03-29T10:23:19Z</time></trkpt><trkpt lat="41.86891297522733" lon="13.066566297210516"><ele>638.0</ele><time>2026-03-29T10:23:20Z</time></trkpt><trkpt lat="41.869110206706964" lon="13.066596847289695"><ele>638.0</ele><time>2026-03-29T10:23:21Z</time></trkpt><trkpt lat="41.86930490753041" lon="13.066630468687126"><ele>638.0</ele><time>2026-03-29T10:23:22Z</time></trkpt><trkpt lat="41.86949244458576" lon="13.066661256144725"><ele>645.3333333333333</ele><time>2026-03-29T10:23:22.999Z</time></trkpt><trkpt lat="41.86969879346682" lon="13.066742690132664"><ele>652.6666666666666</ele><time>2026-03-29T10:23:23.999Z</time></trkpt><trkpt lat="41.86991266084792" lon="13.066789392265022"><ele>660.0</ele><time>2026-03-29T10:23:24.999Z</time></trkpt><trkpt lat="41.87012796122402" lon="13.066834071602592"><ele>661.6666666666666</ele><time>2026-03-29T10:23:25.999Z</time></trkpt><trkpt lat="41.87032592660373" lon="13.066890518932714"><ele>663.3333333333333</ele><time>2026-03-29T10:23:26.999Z</time></trkpt><trkpt lat="41.87051204004018" lon="13.066943412513428"><ele>665.0</ele><time>2026-03-29T10:23:27.999Z</time></trkpt><trkpt lat="41.87068292495078" lon="13.066990330955639"><ele>665.0</ele><time>2026-03-29T10:23:28.999Z</time></trkpt><trkpt lat="41.87085726793642" lon="13.067032053619476"><ele>665.0</ele><time>2026-03-29T10:23:29.999Z</time></trkpt><trkpt lat="41.87103190756455" lon="13.06707064355386"><ele>665.0</ele><time>2026-03-29T10:23:30.999Z</time></trkpt><trkpt lat="41.87121581557982" lon="13.067110017601475"><ele>666.6666666666666</ele><time>2026-03-29T10:23:31.999Z</time></trkpt><trkpt lat="41.871393857849824" lon="13.067089837192583"><ele>668.3333333333334</ele><time>2026-03-29T10:23:32.999Z</time></trkpt><trkpt lat="41.87159015532677" lon="13.067067017630835"><ele>670.0</ele><time>2026-03-29T10:23:33.999Z</time></trkpt><trkpt lat="41.87177546987217" lon="13.067036518301693"><ele>673.0</ele><time>2026-03-29T10:23:34.999Z</time></trkpt><trkpt lat="41.871954808433586" lon="13.06700829520873"><ele>676.0</ele><time>2026-03-29T10:23:35.999Z</time></trkpt><trkpt lat="41.872138549230876" lon="13.066963735804"><ele>679.0</ele><time>2026-03-29T10:23:36.999Z</time></trkpt><trkpt lat="41.87233664333422" lon="13.066917260720828"><ele>679.0</ele><time>2026-03-29T10:23:37.999Z</time></trkpt><trkpt lat="41.87251371573525" lon="13.066795773347817"><ele>679.0</ele><time>2026-03-29T10:23:38.999Z</time></trkpt><trkpt lat="41.872698453729306" lon="13.066732471494007"><ele>679.0</ele><time>2026-03-29T10:23:39.999Z</time></trkpt><trkpt lat="41.872887642373456" lon="13.066588739629138"><ele>677.5</ele><time>2026-03-29T10:23:40.999Z</time></trkpt><trkpt lat="41.87308179205609" lon="13.066438682374367"><ele>676.0</ele><time>2026-03-29T10:23:41.999Z</time></trkpt><trkpt lat="41.87327925142421" lon="13.06627442115505"><ele>680.6666666666667</ele><time>2026-03-29T10:23:42.999Z</time></trkpt><trkpt lat="41.87346459173901" lon="13.066124565450243"><ele>685.3333333333334</ele><time>2026-03-29T10:23:43.999Z</time></trkpt><trkpt lat="41.87362720139689" lon="13.065996985980183"><ele>690.0</ele><time>2026-03-29T10:23:44.999Z</time></trkpt><trkpt lat="41.87377528140288" lon="13.065899358107531"><ele>690.0</ele><time>2026-03-29T10:23:45.999Z</time></trkpt><trkpt lat="41.87390161290564" lon="13.065793730201197"><ele>690.0</ele><time>2026-03-29T10:23:46.999Z</time></trkpt><trkpt lat="41.87401479458728" lon="13.065708541299323"><ele>690.0</ele><time>2026-03-29T10:23:47.999Z</time></trkpt><trkpt lat="41.87411357148293" lon="13.065638053548804"><ele>690.0</ele><time>2026-03-29T10:23:48.999Z</time></trkpt><trkpt lat="41.874183909741625" lon="13.065588617382708"><ele>688.4</ele><time>2026-03-29T10:23:49.999Z</time></trkpt><trkpt lat="41.874276135073565" lon="13.065536011582111"><ele>686.8</ele><time>2026-03-29T10:23:51.999Z</time></trkpt><trkpt lat="41.87442096428595" lon="13.06555748879243"><ele>685.2</ele><time>2026-03-29T10:23:53.999Z</time></trkpt><trkpt lat="41.87449931943943" lon="13.065621277046663"><ele>683.6</ele><time>2026-03-29T10:23:54.999Z</time></trkpt><trkpt lat="41.87457366420224" lon="13.065678675804124"><ele>682.0</ele><time>2026-03-29T10:23:56.999Z</time></trkpt><trkpt lat="41.87466258652434" lon="13.065724674712643"><ele>682.0</ele><time>2026-03-29T10:23:59.999Z</time></trkpt><trkpt lat="41.87473736253069" lon="13.065752878116596"><ele>682.0</ele><time>2026-03-29T10:24:01.999Z</time></trkpt><trkpt lat="41.87479437367017" lon="13.065798381478334"><ele>682.0</ele><time>2026-03-29T10:24:03.999Z</time></trkpt><trkpt lat="41.87486977402274" lon="13.06581044085138"><ele>682.0</ele><time>2026-03-29T10:24:19.999Z</time></trkpt><trkpt lat="41.87495041966721" lon="13.065884744513607"><ele>682.0</ele><time>2026-03-29T10:24:21.999Z</time></trkpt><trkpt lat="41.87506106822124" lon="13.066112610146766"><ele>679.6</ele><time>2026-03-29T10:24:23.999Z</time></trkpt><trkpt lat="41.875140203759514" lon="13.066191148424908"><ele>677.2</ele><time>2026-03-29T10:24:24.999Z</time></trkpt><trkpt lat="41.875207012787705" lon="13.06627161961076"><ele>674.8</ele><time>2026-03-29T10:24:25.999Z</time></trkpt><trkpt lat="41.87527917826218" lon="13.066359540897325"><ele>672.4</ele><time>2026-03-29T10:24:26.999Z</time></trkpt><trkpt lat="41.87536271619323" lon="13.066458645046113"><ele>670.0</ele><time>2026-03-29T10:24:28Z</time></trkpt><trkpt lat="41.8754704410369" lon="13.066604686517293"><ele>671.0</ele><time>2026-03-29T10:24:29Z</time></trkpt><trkpt lat="41.87553474152028" lon="13.066773375076473"><ele>672.0</ele><time>2026-03-29T10:24:30Z</time></trkpt><trkpt lat="41.87558947071736" lon="13.066943550566556"><ele>673.0</ele><time>2026-03-29T10:24:31Z</time></trkpt><trkpt lat="41.875599312698554" lon="13.067107369437677"><ele>674.0</ele><time>2026-03-29T10:24:32Z</time></trkpt><trkpt lat="41.87562565847785" lon="13.067274031589108"><ele>674.0</ele><time>2026-03-29T10:24:33Z</time></trkpt><trkpt lat="41.875654840415876" lon="13.067397694490996"><ele>674.0</ele><time>2026-03-29T10:24:34Z</time></trkpt><trkpt lat="41.875780136610004" lon="13.0674319138805"><ele>674.0</ele><time>2026-03-29T10:24:36Z</time></trkpt><trkpt lat="41.87586519129572" lon="13.067381753868471"><ele>674.0</ele><time>2026-03-29T10:24:37Z</time></trkpt><trkpt lat="41.87595691454295" lon="13.067268281542537"><ele>674.0</ele><time>2026-03-29T10:24:38Z</time></trkpt><trkpt lat="41.87607675362888" lon="13.067124233522925"><ele>670.6666666666666</ele><time>2026-03-29T10:24:39Z</time></trkpt><trkpt lat="41.8762030746104" lon="13.067043437990684"><ele>667.3333333333334</ele><time>2026-03-29T10:24:40Z</time></trkpt><trkpt lat="41.87635735847479" lon="13.066975193547009"><ele>664.0</ele><time>2026-03-29T10:24:41Z</time></trkpt><trkpt lat="41.87659094424234" lon="13.066839599678397"><ele>660.0</ele><time>2026-03-29T10:24:42Z</time></trkpt><trkpt lat="41.87677514851668" lon="13.066655473122253"><ele>656.0</ele><time>2026-03-29T10:24:43Z</time></trkpt><trkpt lat="41.876959301865035" lon="13.066452481390305"><ele>656.0</ele><time>2026-03-29T10:24:44Z</time></trkpt><trkpt lat="41.87714131599222" lon="13.066257991697825"><ele>656.0</ele><time>2026-03-29T10:24:45Z</time></trkpt><trkpt lat="41.87729255653233" lon="13.066135494380058"><ele>656.0</ele><time>2026-03-29T10:24:46Z</time></trkpt><trkpt lat="41.87743580427475" lon="13.06599201745629"><ele>662.0</ele><time>2026-03-29T10:24:47Z</time></trkpt><trkpt lat="41.87762614120554" lon="13.065867363423802"><ele>668.0</ele><time>2026-03-29T10:24:48Z</time></trkpt><trkpt lat="41.87783737660319" lon="13.065708675112559"><ele>659.6666666666666</ele><time>2026-03-29T10:24:49Z</time></trkpt><trkpt lat="41.87802819762702" lon="13.065576422554013"><ele>651.3333333333334</ele><time>2026-03-29T10:24:50Z</time></trkpt><trkpt lat="41.878196773970785" lon="13.065451778650884"><ele>643.0</ele><time>2026-03-29T10:24:51Z</time></trkpt><trkpt lat="41.8783543970424" lon="13.065333968800628"><ele>646.0</ele><time>2026-03-29T10:24:52Z</time></trkpt><trkpt lat="41.878494430838515" lon="13.06521529407546"><ele>649.0</ele><time>2026-03-29T10:24:53Z</time></trkpt><trkpt lat="41.8786249036477" lon="13.064997534565604"><ele>652.0</ele><time>2026-03-29T10:24:54Z</time></trkpt><trkpt lat="41.878738718987876" lon="13.064720150230453"><ele>652.0</ele><time>2026-03-29T10:24:55Z</time></trkpt><trkpt lat="41.878851015653325" lon="13.064465647040894"><ele>652.0</ele><time>2026-03-29T10:24:56Z</time></trkpt><trkpt lat="41.878993502578496" lon="13.064203792822887"><ele>661.5</ele><time>2026-03-29T10:24:57Z</time></trkpt><trkpt lat="41.87912433320148" lon="13.063914031379452"><ele>671.0</ele><time>2026-03-29T10:24:58Z</time></trkpt><trkpt lat="41.87927624645927" lon="13.063623623158135"><ele>671.0</ele><time>2026-03-29T10:24:59Z</time></trkpt><trkpt lat="41.879439928558085" lon="13.06334082334596"><ele>671.0</ele><time>2026-03-29T10:25:00Z</time></trkpt><trkpt lat="41.879581992722386" lon="13.063049183586465"><ele>654.5</ele><time>2026-03-29T10:25:01Z</time></trkpt><trkpt lat="41.87973269189275" lon="13.062785322430415"><ele>638.0</ele><time>2026-03-29T10:25:02Z</time></trkpt><trkpt lat="41.879892248748384" lon="13.062511919068138"><ele>644.0</ele><time>2026-03-29T10:25:03Z</time></trkpt><trkpt lat="41.8800748913764" lon="13.06224004535543"><ele>650.0</ele><time>2026-03-29T10:25:04Z</time></trkpt><trkpt lat="41.880233174202246" lon="13.061946614101043"><ele>650.0</ele><time>2026-03-29T10:25:05Z</time></trkpt><trkpt lat="41.88038101153998" lon="13.061641922934403"><ele>650.0</ele><time>2026-03-29T10:25:06Z</time></trkpt><trkpt lat="41.88052046068026" lon="13.061334932361826"><ele>633.5</ele><time>2026-03-29T10:25:07Z</time></trkpt><trkpt lat="41.880635595792405" lon="13.06101581953587"><ele>617.0</ele><time>2026-03-29T10:25:08Z</time></trkpt><trkpt lat="41.880795616929966" lon="13.060754904904421"><ele>629.0</ele><time>2026-03-29T10:25:09Z</time></trkpt><trkpt lat="41.880927002581046" lon="13.060442047513078"><ele>641.0</ele><time>2026-03-29T10:25:10Z</time></trkpt><trkpt lat="41.88104383301234" lon="13.06011722117919"><ele>627.0</ele><time>2026-03-29T10:25:11Z</time></trkpt><trkpt lat="41.88116725673366" lon="13.059794205935289"><ele>613.0</ele><time>2026-03-29T10:25:12Z</time></trkpt><trkpt lat="41.881287082266375" lon="13.059500328314266"><ele>613.0</ele><time>2026-03-29T10:25:13Z</time></trkpt><trkpt lat="41.881398868397504" lon="13.059221873169397"><ele>613.0</ele><time>2026-03-29T10:25:14Z</time></trkpt><trkpt lat="41.881513582880366" lon="13.058953896674739"><ele>600.5</ele><time>2026-03-29T10:25:15Z</time></trkpt><trkpt lat="41.88162134624367" lon="13.058674527806183"><ele>588.0</ele><time>2026-03-29T10:25:16Z</time></trkpt><trkpt lat="41.88171540580303" lon="13.05839199068119"><ele>589.6666666666666</ele><time>2026-03-29T10:25:17Z</time></trkpt><trkpt lat="41.88182483766479" lon="13.058134093041232"><ele>591.3333333333333</ele><time>2026-03-29T10:25:18Z</time></trkpt><trkpt lat="41.881950660058784" lon="13.057881423183696"><ele>593.0</ele><time>2026-03-29T10:25:19Z</time></trkpt><trkpt lat="41.882064327261624" lon="13.057672486517111"><ele>593.0</ele><time>2026-03-29T10:25:20Z</time></trkpt><trkpt lat="41.88216498329585" lon="13.057507218486855"><ele>593.0</ele><time>2026-03-29T10:25:20.999Z</time></trkpt><trkpt lat="41.88225571708077" lon="13.057384922566616"><ele>593.0</ele><time>2026-03-29T10:25:21.999Z</time></trkpt><trkpt lat="41.88236225431718" lon="13.057295078072015"><ele>593.0</ele><time>2026-03-29T10:25:22.999Z</time></trkpt><trkpt lat="41.88248282415742" lon="13.057228255773897"><ele>580.5</ele><time>2026-03-29T10:25:23.999Z</time></trkpt><trkpt lat="41.88273560894573" lon="13.057046784640766"><ele>568.0</ele><time>2026-03-29T10:25:24.999Z</time></trkpt><trkpt lat="41.88289282340521" lon="13.05691282416795"><ele>568.0</ele><time>2026-03-29T10:25:25.999Z</time></trkpt><trkpt lat="41.88302597677589" lon="13.056771386674004"><ele>568.0</ele><time>2026-03-29T10:25:26.999Z</time></trkpt><trkpt lat="41.88312620251584" lon="13.056684752313252"><ele>568.0</ele><time>2026-03-29T10:25:27.999Z</time></trkpt><trkpt lat="41.8832152844459" lon="13.056680247192118"><ele>568.0</ele><time>2026-03-29T10:25:28.999Z</time></trkpt><trkpt lat="41.88335231955853" lon="13.056705666315985"><ele>565.75</ele><time>2026-03-29T10:25:29.999Z</time></trkpt><trkpt lat="41.883502075157494" lon="13.056722810869973"><ele>563.5</ele><time>2026-03-29T10:25:30.999Z</time></trkpt><trkpt lat="41.883642220647" lon="13.056677842020582"><ele>561.25</ele><time>2026-03-29T10:25:31.999Z</time></trkpt><trkpt lat="41.88373779842072" lon="13.056555099174771"><ele>559.0</ele><time>2026-03-29T10:25:32.999Z</time></trkpt><trkpt lat="41.88381141243612" lon="13.05629440985478"><ele>559.0</ele><time>2026-03-29T10:25:33.999Z</time></trkpt><trkpt lat="41.88394348796743" lon="13.056083131674837"><ele>559.0</ele><time>2026-03-29T10:25:34.999Z</time></trkpt><trkpt lat="41.88406936735935" lon="13.055863414035379"><ele>559.0</ele><time>2026-03-29T10:25:35.999Z</time></trkpt><trkpt lat="41.884179749318186" lon="13.055663009791857"><ele>555.5</ele><time>2026-03-29T10:25:36.999Z</time></trkpt><trkpt lat="41.884280732255355" lon="13.055477997168309"><ele>552.0</ele><time>2026-03-29T10:25:37.999Z</time></trkpt><trkpt lat="41.884340503383456" lon="13.055378681533112"><ele>548.5</ele><time>2026-03-29T10:25:38.999Z</time></trkpt><trkpt lat="41.88442928523624" lon="13.055258567923934"><ele>545.0</ele><time>2026-03-29T10:25:39.999Z</time></trkpt><trkpt lat="41.884531784968146" lon="13.05520185812688"><ele>545.0</ele><time>2026-03-29T10:25:40.999Z</time></trkpt><trkpt lat="41.88465468914817" lon="13.05521274789612"><ele>545.0</ele><time>2026-03-29T10:25:41.999Z</time></trkpt><trkpt lat="41.884830466326875" lon="13.055222791654817"><ele>545.0</ele><time>2026-03-29T10:25:42.999Z</time></trkpt><trkpt lat="41.88507460238499" lon="13.055110621070087"><ele>546.3333333333333</ele><time>2026-03-29T10:25:43.999Z</time></trkpt><trkpt lat="41.88527255532122" lon="13.054994724336707"><ele>547.6666666666666</ele><time>2026-03-29T10:25:44.999Z</time></trkpt><trkpt lat="41.88547330994156" lon="13.054865546372415"><ele>549.0</ele><time>2026-03-29T10:25:45.999Z</time></trkpt><trkpt lat="41.88572169977696" lon="13.05470438142941"><ele>541.0</ele><time>2026-03-29T10:25:46.999Z</time></trkpt><trkpt lat="41.885928875177235" lon="13.054569958048692"><ele>533.0</ele><time>2026-03-29T10:25:47.999Z</time></trkpt><trkpt lat="41.886013309798706" lon="13.054499137446136"><ele>525.0</ele><time>2026-03-29T10:25:48.999Z</time></trkpt><trkpt lat="41.88613194024234" lon="13.054438202628255"><ele>525.0</ele><time>2026-03-29T10:25:49.999Z</time></trkpt><trkpt lat="41.88616461623605" lon="13.054212742549485"><ele>525.0</ele><time>2026-03-29T10:25:51.999Z</time></trkpt><trkpt lat="41.886136900137146" lon="13.054090894001654"><ele>525.0</ele><time>2026-03-29T10:25:52.999Z</time></trkpt><trkpt lat="41.88607563197615" lon="13.053988322248482"><ele>525.0</ele><time>2026-03-29T10:25:53.999Z</time></trkpt><trkpt lat="41.885957712536275" lon="13.053942057569547"><ele>525.25</ele><time>2026-03-29T10:25:54.999Z</time></trkpt><trkpt lat="41.88583093937421" lon="13.053992808525965"><ele>525.5</ele><time>2026-03-29T10:25:55.999Z</time></trkpt><trkpt lat="41.885696658639326" lon="13.054093745109885"><ele>525.75</ele><time>2026-03-29T10:25:56.999Z</time></trkpt><trkpt lat="41.88555984179508" lon="13.054206107829678"><ele>526.0</ele><time>2026-03-29T10:25:57.999Z</time></trkpt><trkpt lat="41.885391985306036" lon="13.054314523417023"><ele>526.0</ele><time>2026-03-29T10:25:58.999Z</time></trkpt><trkpt lat="41.88524348109357" lon="13.054371120859852"><ele>526.0</ele><time>2026-03-29T10:25:59.999Z</time></trkpt><trkpt lat="41.8850874938908" lon="13.05439648275773"><ele>526.0</ele><time>2026-03-29T10:26:00.999Z</time></trkpt><trkpt lat="41.88493447568698" lon="13.054401860724846"><ele>524.8</ele><time>2026-03-29T10:26:01.999Z</time></trkpt><trkpt lat="41.88479567453556" lon="13.054418268564701"><ele>523.6</ele><time>2026-03-29T10:26:02.999Z</time></trkpt><trkpt lat="41.88467710861171" lon="13.05440713491717"><ele>522.4</ele><time>2026-03-29T10:26:03.999Z</time></trkpt><trkpt lat="41.88461179074531" lon="13.054394594576332"><ele>521.2</ele><time>2026-03-29T10:26:04.999Z</time></trkpt><trkpt lat="41.8845546738959" lon="13.054252339560577"><ele>520.0</ele><time>2026-03-29T10:26:06.999Z</time></trkpt><trkpt lat="41.88462005252081" lon="13.054137697608814"><ele>516.75</ele><time>2026-03-29T10:26:07.999Z</time></trkpt><trkpt lat="41.88472252555813" lon="13.054090355337863"><ele>513.5</ele><time>2026-03-29T10:26:08.999Z</time></trkpt><trkpt lat="41.88487033064212" lon="13.054059719669286"><ele>510.25</ele><time>2026-03-29T10:26:09.999Z</time></trkpt><trkpt lat="41.8850080937163" lon="13.054030569701633"><ele>507.0</ele><time>2026-03-29T10:26:10.999Z</time></trkpt><trkpt lat="41.885183162187374" lon="13.053983241780317"><ele>507.0</ele><time>2026-03-29T10:26:11.999Z</time></trkpt><trkpt lat="41.8853447362325" lon="13.053852716250262"><ele>507.0</ele><time>2026-03-29T10:26:12.999Z</time></trkpt><trkpt lat="41.88552504742524" lon="13.053640159235899"><ele>507.0</ele><time>2026-03-29T10:26:13.999Z</time></trkpt><trkpt lat="41.88567164946471" lon="13.05347295793368"><ele>507.0</ele><time>2026-03-29T10:26:14.999Z</time></trkpt><trkpt lat="41.88582039195038" lon="13.053314613326405"><ele>507.0</ele><time>2026-03-29T10:26:15.999Z</time></trkpt><trkpt lat="41.88593740453274" lon="13.053186901900691"><ele>507.0</ele><time>2026-03-29T10:26:16.999Z</time></trkpt><trkpt lat="41.88604818007549" lon="13.053124658329741"><ele>507.0</ele><time>2026-03-29T10:26:17.999Z</time></trkpt><trkpt lat="41.88613652951989" lon="13.053103842394526"><ele>507.0</ele><time>2026-03-29T10:26:18.999Z</time></trkpt><trkpt lat="41.886272041712154" lon="13.053144593736386"><ele>507.0</ele><time>2026-03-29T10:26:19.999Z</time></trkpt><trkpt lat="41.88640206292007" lon="13.053210243843603"><ele>507.0</ele><time>2026-03-29T10:26:20.999Z</time></trkpt><trkpt lat="41.8865462837664" lon="13.053393972828935"><ele>506.75</ele><time>2026-03-29T10:26:21.999Z</time></trkpt><trkpt lat="41.88664685935314" lon="13.05355114827867"><ele>506.5</ele><time>2026-03-29T10:26:22.999Z</time></trkpt><trkpt lat="41.88671994540265" lon="13.053680823559096"><ele>506.25</ele><time>2026-03-29T10:26:23.999Z</time></trkpt><trkpt lat="41.88682342207821" lon="13.053790243841396"><ele>506.0</ele><time>2026-03-29T10:26:24.999Z</time></trkpt><trkpt lat="41.88692935127951" lon="13.053817836162791"><ele>503.0</ele><time>2026-03-29T10:26:25.999Z</time></trkpt><trkpt lat="41.88703341456779" lon="13.053842209145452"><ele>500.0</ele><time>2026-03-29T10:26:26.999Z</time></trkpt><trkpt lat="41.88714699596003" lon="13.0538811351495"><ele>497.0</ele><time>2026-03-29T10:26:27.999Z</time></trkpt><trkpt lat="41.88729375439391" lon="13.05394588732226"><ele>494.0</ele><time>2026-03-29T10:26:28.999Z</time></trkpt><trkpt lat="41.88744389222677" lon="13.05402193529245"><ele>494.0</ele><time>2026-03-29T10:26:29.999Z</time></trkpt><trkpt lat="41.88758914683563" lon="13.054097651195052"><ele>494.0</ele><time>2026-03-29T10:26:30.999Z</time></trkpt><trkpt lat="41.88774972356666" lon="13.054189360945376"><ele>494.0</ele><time>2026-03-29T10:26:31.999Z</time></trkpt><trkpt lat="41.887917432381414" lon="13.054244756699909"><ele>496.66666666666663</ele><time>2026-03-29T10:26:32.999Z</time></trkpt><trkpt lat="41.88810667020521" lon="13.0542293001424"><ele>499.33333333333337</ele><time>2026-03-29T10:26:34Z</time></trkpt><trkpt lat="41.888289781525415" lon="13.054151555813519"><ele>502.0</ele><time>2026-03-29T10:26:35Z</time></trkpt><trkpt lat="41.88846986355201" lon="13.054032802645334"><ele>489.0</ele><time>2026-03-29T10:26:36Z</time></trkpt><trkpt lat="41.88863423734862" lon="13.05397803738453"><ele>476.0</ele><time>2026-03-29T10:26:37Z</time></trkpt><trkpt lat="41.88880319598793" lon="13.053957850642073"><ele>463.0</ele><time>2026-03-29T10:26:38Z</time></trkpt><trkpt lat="41.888967618901816" lon="13.054017748613909"><ele>463.0</ele><time>2026-03-29T10:26:39Z</time></trkpt><trkpt lat="41.88909383865786" lon="13.054052243191856"><ele>463.0</ele><time>2026-03-29T10:26:40Z</time></trkpt><trkpt lat="41.88914598304218" lon="13.05417979165018"><ele>463.0</ele><time>2026-03-29T10:26:41Z</time></trkpt><trkpt lat="41.889183898114766" lon="13.054274898076871"><ele>463.0</ele><time>2026-03-29T10:26:42Z</time></trkpt><trkpt lat="41.88919500550381" lon="13.054456157543372"><ele>470.6666666666667</ele><time>2026-03-29T10:26:43Z</time></trkpt><trkpt lat="41.88920713189937" lon="13.05468459565577"><ele>478.33333333333337</ele><time>2026-03-29T10:26:44Z</time></trkpt><trkpt lat="41.889184357964524" lon="13.054916689189373"><ele>486.0</ele><time>2026-03-29T10:26:45Z</time></trkpt><trkpt lat="41.88913617486971" lon="13.055089647580584"><ele>488.66666666666663</ele><time>2026-03-29T10:26:46Z</time></trkpt><trkpt lat="41.88906454571868" lon="13.055242974864917"><ele>491.3333333333333</ele><time>2026-03-29T10:26:47Z</time></trkpt><trkpt lat="41.8889238178771" lon="13.055427609084933"><ele>494.0</ele><time>2026-03-29T10:26:48Z</time></trkpt><trkpt lat="41.88877897715924" lon="13.05560782715265"><ele>491.3333333333333</ele><time>2026-03-29T10:26:49Z</time></trkpt><trkpt lat="41.88864768599486" lon="13.055826798566956"><ele>488.66666666666663</ele><time>2026-03-29T10:26:50Z</time></trkpt><trkpt lat="41.88853186554193" lon="13.056039602764837"><ele>486.0</ele><time>2026-03-29T10:26:51Z</time></trkpt><trkpt lat="41.888448998425034" lon="13.056258014356864"><ele>491.66666666666663</ele><time>2026-03-29T10:26:52Z</time></trkpt><trkpt lat="41.888406656555546" lon="13.056486140989774"><ele>497.3333333333333</ele><time>2026-03-29T10:26:53Z</time></trkpt><trkpt lat="41.88839029614733" lon="13.056683815351084"><ele>503.0</ele><time>2026-03-29T10:26:54Z</time></trkpt><trkpt lat="41.88842956212557" lon="13.056912218438365"><ele>503.0</ele><time>2026-03-29T10:26:55Z</time></trkpt><trkpt lat="41.88850150376393" lon="13.057153258021458"><ele>503.0</ele><time>2026-03-29T10:26:56Z</time></trkpt><trkpt lat="41.88860972276591" lon="13.057476913715742"><ele>510.5</ele><time>2026-03-29T10:26:57Z</time></trkpt><trkpt lat="41.888706713379854" lon="13.05777715282774"><ele>518.0</ele><time>2026-03-29T10:26:58Z</time></trkpt><trkpt lat="41.888792774812615" lon="13.058083245276563"><ele>514.0</ele><time>2026-03-29T10:26:59Z</time></trkpt><trkpt lat="41.88889329423389" lon="13.058385375901295"><ele>510.0</ele><time>2026-03-29T10:27:00Z</time></trkpt><trkpt lat="41.88896373573277" lon="13.05866688940903"><ele>510.0</ele><time>2026-03-29T10:27:01Z</time></trkpt><trkpt lat="41.88901164606476" lon="13.05888170320727"><ele>510.0</ele><time>2026-03-29T10:27:02Z</time></trkpt><trkpt lat="41.889055241698074" lon="13.05912815299959"><ele>510.0</ele><time>2026-03-29T10:27:03Z</time></trkpt><trkpt lat="41.88908495572222" lon="13.059316143039984"><ele>507.33333333333337</ele><time>2026-03-29T10:27:04Z</time></trkpt><trkpt lat="41.8890992927511" lon="13.059495016496356"><ele>504.6666666666667</ele><time>2026-03-29T10:27:05Z</time></trkpt><trkpt lat="41.889050671818254" lon="13.059722135687263"><ele>502.0</ele><time>2026-03-29T10:27:06Z</time></trkpt><trkpt lat="41.888998205845866" lon="13.059955469722707"><ele>499.33333333333337</ele><time>2026-03-29T10:27:07Z</time></trkpt><trkpt lat="41.88892689211914" lon="13.060220279518331"><ele>496.66666666666663</ele><time>2026-03-29T10:27:08Z</time></trkpt><trkpt lat="41.888865030166905" lon="13.060508425545095"><ele>494.0</ele><time>2026-03-29T10:27:09Z</time></trkpt><trkpt lat="41.88877883836438" lon="13.060783704031019"><ele>493.66666666666663</ele><time>2026-03-29T10:27:10Z</time></trkpt><trkpt lat="41.88869335210908" lon="13.06106069225858"><ele>493.33333333333337</ele><time>2026-03-29T10:27:11Z</time></trkpt><trkpt lat="41.88860990403103" lon="13.061324516767446"><ele>493.0</ele><time>2026-03-29T10:27:12Z</time></trkpt><trkpt lat="41.8885183105875" lon="13.061556666024272"><ele>498.33333333333337</ele><time>2026-03-29T10:27:13Z</time></trkpt><trkpt lat="41.88840663741825" lon="13.06178832508918"><ele>503.66666666666663</ele><time>2026-03-29T10:27:14Z</time></trkpt><trkpt lat="41.88829245466859" lon="13.061996994655061"><ele>509.0</ele><time>2026-03-29T10:27:15Z</time></trkpt><trkpt lat="41.888196808694175" lon="13.062183139032637"><ele>509.0</ele><time>2026-03-29T10:27:16Z</time></trkpt><trkpt lat="41.88812020633417" lon="13.06234897062372"><ele>509.0</ele><time>2026-03-29T10:27:17Z</time></trkpt><trkpt lat="41.88810687527986" lon="13.062508815892304"><ele>509.0</ele><time>2026-03-29T10:27:18Z</time></trkpt><trkpt lat="41.88811083219382" lon="13.062667379349348"><ele>509.0</ele><time>2026-03-29T10:27:19Z</time></trkpt><trkpt lat="41.88815962208508" lon="13.06281696075575"><ele>509.5</ele><time>2026-03-29T10:27:20Z</time></trkpt><trkpt lat="41.888178834762925" lon="13.063021106240141"><ele>510.0</ele><time>2026-03-29T10:27:21Z</time></trkpt><trkpt lat="41.88815184484027" lon="13.063189371170406"><ele>510.5</ele><time>2026-03-29T10:27:22Z</time></trkpt><trkpt lat="41.88804999764624" lon="13.063329637679987"><ele>511.0</ele><time>2026-03-29T10:27:23Z</time></trkpt><trkpt lat="41.887963243583094" lon="13.063511382770022"><ele>511.0</ele><time>2026-03-29T10:27:23.999Z</time></trkpt><trkpt lat="41.88785548689184" lon="13.063717141512026"><ele>511.0</ele><time>2026-03-29T10:27:24.999Z</time></trkpt><trkpt lat="41.88776709590155" lon="13.063939618681301"><ele>511.0</ele><time>2026-03-29T10:27:25.999Z</time></trkpt><trkpt lat="41.88771517576146" lon="13.064197126296472"><ele>518.6666666666667</ele><time>2026-03-29T10:27:26.999Z</time></trkpt><trkpt lat="41.887671708509174" lon="13.064464353132406"><ele>526.3333333333334</ele><time>2026-03-29T10:27:27.999Z</time></trkpt><trkpt lat="41.88764194709587" lon="13.064727333981772"><ele>534.0</ele><time>2026-03-29T10:27:28.999Z</time></trkpt><trkpt lat="41.88765192667276" lon="13.065044048495634"><ele>539.0</ele><time>2026-03-29T10:27:29.999Z</time></trkpt><trkpt lat="41.887664450375304" lon="13.065383546933882"><ele>544.0</ele><time>2026-03-29T10:27:30.999Z</time></trkpt><trkpt lat="41.88769517860832" lon="13.065715297296512"><ele>542.0</ele><time>2026-03-29T10:27:31.999Z</time></trkpt><trkpt lat="41.887743674430034" lon="13.065995950312555"><ele>540.0</ele><time>2026-03-29T10:27:32.999Z</time></trkpt><trkpt lat="41.8877855963986" lon="13.066238045148415"><ele>538.0</ele><time>2026-03-29T10:27:33.999Z</time></trkpt><trkpt lat="41.8878587280438" lon="13.066481438365809"><ele>530.0</ele><time>2026-03-29T10:27:34.999Z</time></trkpt><trkpt lat="41.88798214240543" lon="13.06670389714806"><ele>522.0</ele><time>2026-03-29T10:27:35.999Z</time></trkpt><trkpt lat="41.888127407998766" lon="13.066973994137692"><ele>522.0</ele><time>2026-03-29T10:27:36.999Z</time></trkpt><trkpt lat="41.88824382810587" lon="13.06723758893389"><ele>522.0</ele><time>2026-03-29T10:27:37.999Z</time></trkpt><trkpt lat="41.88832539854946" lon="13.067460833836435"><ele>522.0</ele><time>2026-03-29T10:27:38.999Z</time></trkpt><trkpt lat="41.888438617879615" lon="13.067644555832084"><ele>523.3333333333334</ele><time>2026-03-29T10:27:39.999Z</time></trkpt><trkpt lat="41.88858792890047" lon="13.067802839841743"><ele>524.6666666666667</ele><time>2026-03-29T10:27:40.999Z</time></trkpt><trkpt lat="41.88877933090806" lon="13.067921288471235"><ele>526.0</ele><time>2026-03-29T10:27:41.999Z</time></trkpt><trkpt lat="41.888909485346275" lon="13.068040939305293"><ele>526.0</ele><time>2026-03-29T10:27:42.999Z</time></trkpt><trkpt lat="41.889063302896496" lon="13.068133528900251"><ele>526.0</ele><time>2026-03-29T10:27:43.999Z</time></trkpt><trkpt lat="41.8891687197387" lon="13.068232720924875"><ele>526.0</ele><time>2026-03-29T10:27:44.999Z</time></trkpt><trkpt lat="41.889233505575014" lon="13.068348061079543"><ele>526.0</ele><time>2026-03-29T10:27:45.999Z</time></trkpt><trkpt lat="41.88925967677827" lon="13.068478010979721"><ele>522.0</ele><time>2026-03-29T10:27:46.999Z</time></trkpt><trkpt lat="41.889240185334714" lon="13.068626267566504"><ele>518.0</ele><time>2026-03-29T10:27:47.999Z</time></trkpt><trkpt lat="41.889140481315266" lon="13.06875852914273"><ele>514.0</ele><time>2026-03-29T10:27:48.999Z</time></trkpt><trkpt lat="41.88898454868758" lon="13.069002205759263"><ele>517.6666666666667</ele><time>2026-03-29T10:27:49.999Z</time></trkpt><trkpt lat="41.8889059100846" lon="13.06921856834575"><ele>521.3333333333334</ele><time>2026-03-29T10:27:50.999Z</time></trkpt><trkpt lat="41.88885994758485" lon="13.069462310910549"><ele>525.0</ele><time>2026-03-29T10:27:51.999Z</time></trkpt><trkpt lat="41.88884825154518" lon="13.06972203159451"><ele>528.5</ele><time>2026-03-29T10:27:52.999Z</time></trkpt><trkpt lat="41.888871077843845" lon="13.070080551434037"><ele>532.0</ele><time>2026-03-29T10:27:53.999Z</time></trkpt><trkpt lat="41.88887705321262" lon="13.070359992815998"><ele>532.0</ele><time>2026-03-29T10:27:54.999Z</time></trkpt><trkpt lat="41.88889441322863" lon="13.070611291715164"><ele>532.0</ele><time>2026-03-29T10:27:55.999Z</time></trkpt><trkpt lat="41.88894027293218" lon="13.070787648578397"><ele>532.0</ele><time>2026-03-29T10:27:56.999Z</time></trkpt><trkpt lat="41.888998809530925" lon="13.070973964861317"><ele>532.8000000000001</ele><time>2026-03-29T10:27:57.999Z</time></trkpt><trkpt lat="41.88905386536846" lon="13.071077039130834"><ele>533.6</ele><time>2026-03-29T10:27:58.999Z</time></trkpt><trkpt lat="41.889123314572274" lon="13.071140958736473"><ele>534.4000000000001</ele><time>2026-03-29T10:27:59.999Z</time></trkpt><trkpt lat="41.88921826675042" lon="13.071124291672428"><ele>535.2</ele><time>2026-03-29T10:28:00.999Z</time></trkpt><trkpt lat="41.889309669408696" lon="13.071087739171023"><ele>536.0</ele><time>2026-03-29T10:28:01.999Z</time></trkpt><trkpt lat="41.889424783146765" lon="13.07099002810659"><ele>536.0</ele><time>2026-03-29T10:28:02.999Z</time></trkpt><trkpt lat="41.889554022675526" lon="13.070924008055638"><ele>536.0</ele><time>2026-03-29T10:28:03.999Z</time></trkpt><trkpt lat="41.88970138358698" lon="13.071004214461373"><ele>536.0</ele><time>2026-03-29T10:28:04.999Z</time></trkpt><trkpt lat="41.8898070640078" lon="13.071136973013603"><ele>536.0</ele><time>2026-03-29T10:28:05.999Z</time></trkpt><trkpt lat="41.889871776091304" lon="13.071355779521092"><ele>534.3333333333333</ele><time>2026-03-29T10:28:06.999Z</time></trkpt><trkpt lat="41.88994662588944" lon="13.07161849892764"><ele>532.6666666666666</ele><time>2026-03-29T10:28:07.999Z</time></trkpt><trkpt lat="41.89004488402312" lon="13.071850521466422"><ele>531.0</ele><time>2026-03-29T10:28:08.999Z</time></trkpt><trkpt lat="41.89021405527212" lon="13.07211004780468"><ele>533.3333333333334</ele><time>2026-03-29T10:28:09.999Z</time></trkpt><trkpt lat="41.89030524880364" lon="13.072370229597022"><ele>535.6666666666667</ele><time>2026-03-29T10:28:10.999Z</time></trkpt><trkpt lat="41.89035108939403" lon="13.07259247107033"><ele>538.0</ele><time>2026-03-29T10:28:11.999Z</time></trkpt><trkpt lat="41.89037503748245" lon="13.072832917958204"><ele>538.0</ele><time>2026-03-29T10:28:12.999Z</time></trkpt><trkpt lat="41.89038623824467" lon="13.073014259228936"><ele>538.0</ele><time>2026-03-29T10:28:13.999Z</time></trkpt><trkpt lat="41.890461870716095" lon="13.073172744916796"><ele>538.0</ele><time>2026-03-29T10:28:14.999Z</time></trkpt><trkpt lat="41.890566096492954" lon="13.073329545829507"><ele>538.0</ele><time>2026-03-29T10:28:15.999Z</time></trkpt><trkpt lat="41.89069435597924" lon="13.073470627395288"><ele>538.5</ele><time>2026-03-29T10:28:16.999Z</time></trkpt><trkpt lat="41.890841339877284" lon="13.073596891500847"><ele>539.0</ele><time>2026-03-29T10:28:17.999Z</time></trkpt><trkpt lat="41.8909689238685" lon="13.073698674975443"><ele>539.5</ele><time>2026-03-29T10:28:18.999Z</time></trkpt><trkpt lat="41.8910756836989" lon="13.073742213792338"><ele>540.0</ele><time>2026-03-29T10:28:19.999Z</time></trkpt><trkpt lat="41.89114524325549" lon="13.073759268819757"><ele>540.0</ele><time>2026-03-29T10:28:20.999Z</time></trkpt><trkpt lat="41.891246237621644" lon="13.073678943491876"><ele>540.0</ele><time>2026-03-29T10:28:21.999Z</time></trkpt><trkpt lat="41.89135272393485" lon="13.073515955095852"><ele>540.0</ele><time>2026-03-29T10:28:22.999Z</time></trkpt><trkpt lat="41.89143841652082" lon="13.073356272382135"><ele>540.0</ele><time>2026-03-29T10:28:23.999Z</time></trkpt><trkpt lat="41.8915540917815" lon="13.07312697745016"><ele>540.0</ele><time>2026-03-29T10:28:24.999Z</time></trkpt><trkpt lat="41.89164474842152" lon="13.072922950008193"><ele>540.0</ele><time>2026-03-29T10:28:25.999Z</time></trkpt><trkpt lat="41.891722219651996" lon="13.07280309368297"><ele>540.0</ele><time>2026-03-29T10:28:26.999Z</time></trkpt><trkpt lat="41.891799757163945" lon="13.072702338757304"><ele>540.0</ele><time>2026-03-29T10:28:27.999Z</time></trkpt><trkpt lat="41.8918666063137" lon="13.07266551172531"><ele>537.75</ele><time>2026-03-29T10:28:28.999Z</time></trkpt><trkpt lat="41.891958972734535" lon="13.072776767252943"><ele>535.5</ele><time>2026-03-29T10:28:30.999Z</time></trkpt><trkpt lat="41.89196311464601" lon="13.072914113738454"><ele>533.25</ele><time>2026-03-29T10:28:31.999Z</time></trkpt><trkpt lat="41.89192204550047" lon="13.073081686850314"><ele>531.0</ele><time>2026-03-29T10:28:32.999Z</time></trkpt><trkpt lat="41.891848747087415" lon="13.073247470765613"><ele>531.3333333333334</ele><time>2026-03-29T10:28:33.999Z</time></trkpt><trkpt lat="41.89176500532428" lon="13.073509726980657"><ele>531.6666666666667</ele><time>2026-03-29T10:28:34.999Z</time></trkpt><trkpt lat="41.8916823726939" lon="13.073736698606039"><ele>532.0</ele><time>2026-03-29T10:28:35.999Z</time></trkpt><trkpt lat="41.891616535378056" lon="13.073980877725107"><ele>529.0</ele><time>2026-03-29T10:28:36.999Z</time></trkpt><trkpt lat="41.89157493917396" lon="13.074212755260616"><ele>526.0</ele><time>2026-03-29T10:28:37.999Z</time></trkpt><trkpt lat="41.8915558143657" lon="13.074437350813877"><ele>523.0</ele><time>2026-03-29T10:28:38.999Z</time></trkpt><trkpt lat="41.89149228088155" lon="13.074638936778195"><ele>523.0</ele><time>2026-03-29T10:28:40Z</time></trkpt><trkpt lat="41.89138393137429" lon="13.074834144562168"><ele>523.0</ele><time>2026-03-29T10:28:41Z</time></trkpt><trkpt lat="41.891262498825334" lon="13.07505412745113"><ele>523.0</ele><time>2026-03-29T10:28:42Z</time></trkpt><trkpt lat="41.89115434517949" lon="13.075246058179447"><ele>518.0</ele><time>2026-03-29T10:28:43Z</time></trkpt><trkpt lat="41.89110363881041" lon="13.07549222574721"><ele>513.0</ele><time>2026-03-29T10:28:44Z</time></trkpt><trkpt lat="41.891066853707116" lon="13.075732806381088"><ele>508.0</ele><time>2026-03-29T10:28:45Z</time></trkpt><trkpt lat="41.89105599235392" lon="13.075999658574101"><ele>504.33333333333337</ele><time>2026-03-29T10:28:46Z</time></trkpt><trkpt lat="41.891054468307665" lon="13.076258015566808"><ele>500.66666666666663</ele><time>2026-03-29T10:28:47Z</time></trkpt><trkpt lat="41.891092407832424" lon="13.076489077270473"><ele>497.0</ele><time>2026-03-29T10:28:48Z</time></trkpt><trkpt lat="41.89113457153272" lon="13.07666965968243"><ele>495.3333333333333</ele><time>2026-03-29T10:28:49Z</time></trkpt><trkpt lat="41.891108441487674" lon="13.076868553442017"><ele>493.66666666666663</ele><time>2026-03-29T10:28:50Z</time></trkpt><trkpt lat="41.89106078495315" lon="13.077087681667711"><ele>492.0</ele><time>2026-03-29T10:28:51Z</time></trkpt><trkpt lat="41.89102116652932" lon="13.077309197241474"><ele>491.0</ele><time>2026-03-29T10:28:52Z</time></trkpt><trkpt lat="41.89096799586065" lon="13.077526299530897"><ele>490.0</ele><time>2026-03-29T10:28:53Z</time></trkpt><trkpt lat="41.89093145256215" lon="13.077702647219287"><ele>489.0</ele><time>2026-03-29T10:28:54Z</time></trkpt><trkpt lat="41.890896946849175" lon="13.077892428054701"><ele>494.4</ele><time>2026-03-29T10:28:55Z</time></trkpt><trkpt lat="41.89085714202747" lon="13.078058029242396"><ele>499.79999999999995</ele><time>2026-03-29T10:28:56Z</time></trkpt><trkpt lat="41.89082282278059" lon="13.07819170333227"><ele>505.20000000000005</ele><time>2026-03-29T10:28:57Z</time></trkpt><trkpt lat="41.89081446097784" lon="13.078326316978098"><ele>510.6</ele><time>2026-03-29T10:28:58Z</time></trkpt><trkpt lat="41.89080412555136" lon="13.078428559163008"><ele>516.0</ele><time>2026-03-29T10:28:59Z</time></trkpt><trkpt lat="41.890797024064625" lon="13.078558200063336"><ele>516.0</ele><time>2026-03-29T10:29:00Z</time></trkpt><trkpt lat="41.890787699076235" lon="13.07868195021044"><ele>516.0</ele><time>2026-03-29T10:29:01Z</time></trkpt><trkpt lat="41.890760176465" lon="13.07884474525778"><ele>516.0</ele><time>2026-03-29T10:29:03Z</time></trkpt><trkpt lat="41.89074183727053" lon="13.078928405958623"><ele>516.0</ele><time>2026-03-29T10:29:04Z</time></trkpt><trkpt lat="41.89072019317956" lon="13.079060177500127"><ele>516.0</ele><time>2026-03-29T10:29:06Z</time></trkpt><trkpt lat="41.890708201203964" lon="13.079145175700223"><ele>516.0</ele><time>2026-03-29T10:29:08Z</time></trkpt><trkpt lat="41.89069591316729" lon="13.07925488213205"><ele>515.1428571428571</ele><time>2026-03-29T10:29:11Z</time></trkpt><trkpt lat="41.89069176681744" lon="13.079343098163285"><ele>514.2857142857142</ele><time>2026-03-29T10:29:14Z</time></trkpt><trkpt lat="41.89069386907009" lon="13.079430685219522"><ele>513.4285714285714</ele><time>2026-03-29T10:29:18Z</time></trkpt><trkpt lat="41.89069113271266" lon="13.079517013398762"><ele>512.5714285714286</ele><time>2026-03-29T10:29:23Z</time></trkpt><trkpt lat="41.890738176805165" lon="13.079622474552306"><ele>511.7142857142858</ele><time>2026-03-29T10:30:04.999Z</time></trkpt><trkpt lat="41.8907225739797" lon="13.079709171732572"><ele>510.8571428571429</ele><time>2026-03-29T10:30:07.999Z</time></trkpt><trkpt lat="41.89076830734444" lon="13.079617484913044"><ele>510.0</ele><time>2026-03-29T10:30:18.999Z</time></trkpt><trkpt lat="41.89075400599421" lon="13.079505760697824"><ele>510.0</ele><time>2026-03-29T10:30:19.999Z</time></trkpt><trkpt lat="41.8907479719156" lon="13.079381725909153"><ele>510.0</ele><time>2026-03-29T10:30:20.999Z</time></trkpt><trkpt lat="41.8907506735279" lon="13.079262223701384"><ele>510.0</ele><time>2026-03-29T10:30:21.999Z</time></trkpt><trkpt lat="41.89076170429197" lon="13.079133526434365"><ele>510.0</ele><time>2026-03-29T10:30:22.999Z</time></trkpt><trkpt lat="41.89077463850889" lon="13.079006101826357"><ele>510.0</ele><time>2026-03-29T10:30:23.999Z</time></trkpt><trkpt lat="41.890793569298815" lon="13.078878495713077"><ele>511.2</ele><time>2026-03-29T10:30:24.999Z</time></trkpt><trkpt lat="41.890812660487505" lon="13.078739955002195"><ele>512.4</ele><time>2026-03-29T10:30:25.999Z</time></trkpt><trkpt lat="41.89082699300915" lon="13.078600529828199"><ele>513.6</ele><time>2026-03-29T10:30:26.999Z</time></trkpt><trkpt lat="41.89084489366558" lon="13.078465389381469"><ele>514.8</ele><time>2026-03-29T10:30:27.999Z</time></trkpt><trkpt lat="41.89086013416425" lon="13.078341434002821"><ele>516.0</ele><time>2026-03-29T10:30:28.999Z</time></trkpt><trkpt lat="41.890867167052484" lon="13.078237396744589"><ele>516.6666666666666</ele><time>2026-03-29T10:30:29.999Z</time></trkpt><trkpt lat="41.890899358172064" lon="13.078099662061419"><ele>517.3333333333334</ele><time>2026-03-29T10:30:31.999Z</time></trkpt><trkpt lat="41.89091536085472" lon="13.077989039762965"><ele>518.0</ele><time>2026-03-29T10:30:33.999Z</time></trkpt><trkpt lat="41.8909282030089" lon="13.07790249616094"><ele>518.6666666666667</ele><time>2026-03-29T10:30:35.999Z</time></trkpt><trkpt lat="41.89091299712504" lon="13.07800537946807"><ele>519.3333333333334</ele><time>2026-03-29T10:31:05Z</time></trkpt><trkpt lat="41.89089785962986" lon="13.078110021251442"><ele>520.0</ele><time>2026-03-29T10:31:09Z</time></trkpt><trkpt lat="41.89088352316596" lon="13.078209125368828"><ele>519.3333333333334</ele><time>2026-03-29T10:31:14Z</time></trkpt><trkpt lat="41.89082537022684" lon="13.078290163049008"><ele>518.6666666666667</ele><time>2026-03-29T10:34:02.999Z</time></trkpt><trkpt lat="41.8908258474703" lon="13.078387844080845"><ele>518.0</ele><time>2026-03-29T10:40:10.999Z</time></trkpt><trkpt lat="41.890793499983914" lon="13.078511866137667"><ele>517.3333333333334</ele><time>2026-03-29T10:40:12.999Z</time></trkpt><trkpt lat="41.890787346916746" lon="13.0785979226955"><ele>516.6666666666666</ele><time>2026-03-29T10:40:13.999Z</time></trkpt><trkpt lat="41.89077481328806" lon="13.078696419924908"><ele>516.0</ele><time>2026-03-29T10:40:14.999Z</time></trkpt><trkpt lat="41.89075779640785" lon="13.078797413447631"><ele>516.0</ele><time>2026-03-29T10:40:15.999Z</time></trkpt><trkpt lat="41.89074280789989" lon="13.078903464483638"><ele>516.0</ele><time>2026-03-29T10:40:16.999Z</time></trkpt><trkpt lat="41.890729581961565" lon="13.079015987814168"><ele>516.0</ele><time>2026-03-29T10:40:17.999Z</time></trkpt><trkpt lat="41.89071483316656" lon="13.079134136482088"><ele>516.0</ele><time>2026-03-29T10:40:18.999Z</time></trkpt><trkpt lat="41.890699246797936" lon="13.079257531459552"><ele>516.0</ele><time>2026-03-29T10:40:19.999Z</time></trkpt><trkpt lat="41.89069109993201" lon="13.079393981129424"><ele>516.0</ele><time>2026-03-29T10:40:20.999Z</time></trkpt><trkpt lat="41.89069898439933" lon="13.079551178448032"><ele>514.5</ele><time>2026-03-29T10:40:21.999Z</time></trkpt><trkpt lat="41.89071908145282" lon="13.07973013705573"><ele>513.0</ele><time>2026-03-29T10:40:22.999Z</time></trkpt><trkpt lat="41.890725424038685" lon="13.079922103865218"><ele>511.5</ele><time>2026-03-29T10:40:23.999Z</time></trkpt><trkpt lat="41.89071108003261" lon="13.080119632545273"><ele>510.0</ele><time>2026-03-29T10:40:24.999Z</time></trkpt><trkpt lat="41.890685094589216" lon="13.080334206826707"><ele>509.0</ele><time>2026-03-29T10:40:25.999Z</time></trkpt><trkpt lat="41.8906572591536" lon="13.080573341701651"><ele>508.0</ele><time>2026-03-29T10:40:26.999Z</time></trkpt><trkpt lat="41.890631317510405" lon="13.080839447259304"><ele>507.0</ele><time>2026-03-29T10:40:27.999Z</time></trkpt><trkpt lat="41.890605613160886" lon="13.081120665686443"><ele>506.0</ele><time>2026-03-29T10:40:28.999Z</time></trkpt><trkpt lat="41.890583051062045" lon="13.081385434467938"><ele>505.0</ele><time>2026-03-29T10:40:29.999Z</time></trkpt><trkpt lat="41.89055953365152" lon="13.081638402989137"><ele>504.0</ele><time>2026-03-29T10:40:30.999Z</time></trkpt><trkpt lat="41.89053540212323" lon="13.081875890872514"><ele>503.33333333333337</ele><time>2026-03-29T10:40:31.999Z</time></trkpt><trkpt lat="41.89050903815145" lon="13.082099730667762"><ele>502.6666666666667</ele><time>2026-03-29T10:40:32.999Z</time></trkpt><trkpt lat="41.89048051767413" lon="13.082327427284321"><ele>502.0</ele><time>2026-03-29T10:40:33.999Z</time></trkpt><trkpt lat="41.890454098377305" lon="13.082558559808742"><ele>500.33333333333337</ele><time>2026-03-29T10:40:34.999Z</time></trkpt><trkpt lat="41.89042541081094" lon="13.08279846818834"><ele>498.66666666666663</ele><time>2026-03-29T10:40:35.999Z</time></trkpt><trkpt lat="41.890392526528586" lon="13.083070649065863"><ele>497.0</ele><time>2026-03-29T10:40:36.999Z</time></trkpt><trkpt lat="41.89036577830575" lon="13.083345552664793"><ele>496.0</ele><time>2026-03-29T10:40:37.999Z</time></trkpt><trkpt lat="41.8903470084465" lon="13.083605961134062"><ele>495.0</ele><time>2026-03-29T10:40:38.999Z</time></trkpt><trkpt lat="41.89033306314428" lon="13.083844026871565"><ele>494.0</ele><time>2026-03-29T10:40:39.999Z</time></trkpt><trkpt lat="41.89032170696701" lon="13.084070482651326"><ele>494.3333333333333</ele><time>2026-03-29T10:40:40.999Z</time></trkpt><trkpt lat="41.89030654903767" lon="13.084301431643993"><ele>494.66666666666663</ele><time>2026-03-29T10:40:41.999Z</time></trkpt><trkpt lat="41.890304699094806" lon="13.084543102544796"><ele>495.0</ele><time>2026-03-29T10:40:42.999Z</time></trkpt><trkpt lat="41.890330175330604" lon="13.084777380515291"><ele>496.33333333333337</ele><time>2026-03-29T10:40:43.999Z</time></trkpt><trkpt lat="41.89036644235571" lon="13.085007172179981"><ele>497.6666666666667</ele><time>2026-03-29T10:40:44.999Z</time></trkpt><trkpt lat="41.890389221711054" lon="13.085231913558259"><ele>499.0</ele><time>2026-03-29T10:40:45.999Z</time></trkpt><trkpt lat="41.89040242339245" lon="13.085455088935435"><ele>499.0</ele><time>2026-03-29T10:40:46.999Z</time></trkpt><trkpt lat="41.89041561818715" lon="13.085682002291714"><ele>499.0</ele><time>2026-03-29T10:40:47.999Z</time></trkpt><trkpt lat="41.890424173582225" lon="13.085910950695174"><ele>499.0</ele><time>2026-03-29T10:40:48.999Z</time></trkpt><trkpt lat="41.89042936487737" lon="13.086140972679544"><ele>500.0</ele><time>2026-03-29T10:40:49.999Z</time></trkpt><trkpt lat="41.89043021182159" lon="13.086378995435059"><ele>501.0</ele><time>2026-03-29T10:40:50.999Z</time></trkpt><trkpt lat="41.89042443120144" lon="13.086625593705529"><ele>502.0</ele><time>2026-03-29T10:40:51.999Z</time></trkpt><trkpt lat="41.890400495063126" lon="13.086877847202551"><ele>503.0</ele><time>2026-03-29T10:40:52.999Z</time></trkpt><trkpt lat="41.890354034650464" lon="13.087131931246482"><ele>504.0</ele><time>2026-03-29T10:40:53.999Z</time></trkpt><trkpt lat="41.89031333403207" lon="13.087386565759603"><ele>505.0</ele><time>2026-03-29T10:40:54.999Z</time></trkpt><trkpt lat="41.890298879511214" lon="13.087631110225312"><ele>505.33333333333337</ele><time>2026-03-29T10:40:55.999Z</time></trkpt><trkpt lat="41.89029971059549" lon="13.087870188004475"><ele>505.66666666666663</ele><time>2026-03-29T10:40:56.999Z</time></trkpt><trkpt lat="41.89032720953401" lon="13.088100235447012"><ele>506.0</ele><time>2026-03-29T10:40:57.999Z</time></trkpt><trkpt lat="41.890362963976415" lon="13.088297952836223"><ele>507.25</ele><time>2026-03-29T10:40:58.999Z</time></trkpt><trkpt lat="41.89040478640851" lon="13.088471168729127"><ele>508.5</ele><time>2026-03-29T10:40:59.999Z</time></trkpt><trkpt lat="41.89047051941728" lon="13.088614770254878"><ele>509.75</ele><time>2026-03-29T10:41:00.999Z</time></trkpt><trkpt lat="41.89058515391647" lon="13.08873057756054"><ele>511.0</ele><time>2026-03-29T10:41:01.999Z</time></trkpt><trkpt lat="41.890724080102906" lon="13.088816718110337"><ele>511.0</ele><time>2026-03-29T10:41:02.999Z</time></trkpt><trkpt lat="41.89088535170085" lon="13.088884654804735"><ele>511.0</ele><time>2026-03-29T10:41:03.999Z</time></trkpt><trkpt lat="41.89103806018069" lon="13.08898272365737"><ele>511.0</ele><time>2026-03-29T10:41:04.999Z</time></trkpt><trkpt lat="41.89115636441391" lon="13.089127573300916"><ele>513.3333333333334</ele><time>2026-03-29T10:41:05.999Z</time></trkpt><trkpt lat="41.89128899980423" lon="13.089267823673467"><ele>515.6666666666666</ele><time>2026-03-29T10:41:06.999Z</time></trkpt><trkpt lat="41.89146232943016" lon="13.08935089609109"><ele>518.0</ele><time>2026-03-29T10:41:07.999Z</time></trkpt><trkpt lat="41.89165302810286" lon="13.089406747671827"><ele>517.3333333333333</ele><time>2026-03-29T10:41:08.999Z</time></trkpt><trkpt lat="41.891849847689976" lon="13.089437111883715"><ele>516.6666666666666</ele><time>2026-03-29T10:41:09.999Z</time></trkpt><trkpt lat="41.89205906323604" lon="13.089444380107452"><ele>516.0</ele><time>2026-03-29T10:41:10.999Z</time></trkpt><trkpt lat="41.89226498738593" lon="13.089441470559567"><ele>516.0</ele><time>2026-03-29T10:41:11.999Z</time></trkpt><trkpt lat="41.8924638414445" lon="13.089425230772854"><ele>516.0</ele><time>2026-03-29T10:41:12.999Z</time></trkpt><trkpt lat="41.892649177896544" lon="13.089414694889317"><ele>516.0</ele><time>2026-03-29T10:41:13.999Z</time></trkpt><trkpt lat="41.892831035058585" lon="13.0894258716819"><ele>514.6666666666666</ele><time>2026-03-29T10:41:15Z</time></trkpt><trkpt lat="41.89300406513409" lon="13.089476547108118"><ele>513.3333333333333</ele><time>2026-03-29T10:41:16Z</time></trkpt><trkpt lat="41.89316623817844" lon="13.089570413532556"><ele>512.0</ele><time>2026-03-29T10:41:17Z</time></trkpt><trkpt lat="41.89332710701467" lon="13.089705961772044"><ele>511.66666666666663</ele><time>2026-03-29T10:41:18Z</time></trkpt><trkpt lat="41.893484963759064" lon="13.089892909906329"><ele>511.33333333333337</ele><time>2026-03-29T10:41:19Z</time></trkpt><trkpt lat="41.89365885331267" lon="13.090112874020694"><ele>511.0</ele><time>2026-03-29T10:41:20Z</time></trkpt><trkpt lat="41.89382436840417" lon="13.090320095208678"><ele>509.33333333333337</ele><time>2026-03-29T10:41:21Z</time></trkpt><trkpt lat="41.89396557212055" lon="13.090498731028832"><ele>507.66666666666663</ele><time>2026-03-29T10:41:22Z</time></trkpt><trkpt lat="41.89408499936796" lon="13.090633344559558"><ele>506.0</ele><time>2026-03-29T10:41:23Z</time></trkpt><trkpt lat="41.89418610517121" lon="13.090740086143557"><ele>506.0</ele><time>2026-03-29T10:41:24Z</time></trkpt><trkpt lat="41.894292164287904" lon="13.090806492214089"><ele>506.0</ele><time>2026-03-29T10:41:25Z</time></trkpt><trkpt lat="41.89440788738101" lon="13.090832990755422"><ele>506.0</ele><time>2026-03-29T10:41:26Z</time></trkpt><trkpt lat="41.89457498304065" lon="13.09079353151687"><ele>506.0</ele><time>2026-03-29T10:41:27Z</time></trkpt><trkpt lat="41.89474830787494" lon="13.090742444707727"><ele>504.66666666666663</ele><time>2026-03-29T10:41:28Z</time></trkpt><trkpt lat="41.894909108777135" lon="13.09069915646765"><ele>503.33333333333337</ele><time>2026-03-29T10:41:29Z</time></trkpt><trkpt lat="41.895088247215284" lon="13.090649913739508"><ele>502.0</ele><time>2026-03-29T10:41:30Z</time></trkpt><trkpt lat="41.89527723202072" lon="13.090601557441985"><ele>498.0</ele><time>2026-03-29T10:41:31Z</time></trkpt><trkpt lat="41.89549122103909" lon="13.090548775891529"><ele>494.0</ele><time>2026-03-29T10:41:32Z</time></trkpt><trkpt lat="41.89569818338691" lon="13.090502074799545"><ele>490.0</ele><time>2026-03-29T10:41:33Z</time></trkpt><trkpt lat="41.89590281926318" lon="13.090471079273502"><ele>490.0</ele><time>2026-03-29T10:41:34Z</time></trkpt><trkpt lat="41.8961289493476" lon="13.090471644717402"><ele>490.0</ele><time>2026-03-29T10:41:35Z</time></trkpt><trkpt lat="41.896332232178" lon="13.090462182986037"><ele>490.0</ele><time>2026-03-29T10:41:36Z</time></trkpt><trkpt lat="41.89650418070247" lon="13.090437181971739"><ele>490.0</ele><time>2026-03-29T10:41:37Z</time></trkpt><trkpt lat="41.896671575553185" lon="13.090394044548743"><ele>490.0</ele><time>2026-03-29T10:41:38Z</time></trkpt><trkpt lat="41.896805609900305" lon="13.090308626511687"><ele>490.0</ele><time>2026-03-29T10:41:38.999Z</time></trkpt><trkpt lat="41.89691730026375" lon="13.090155987700454"><ele>489.0</ele><time>2026-03-29T10:41:39.999Z</time></trkpt><trkpt lat="41.89705950674254" lon="13.090057803739517"><ele>488.0</ele><time>2026-03-29T10:41:40.999Z</time></trkpt><trkpt lat="41.89725524295562" lon="13.089966745784796"><ele>487.0</ele><time>2026-03-29T10:41:41.999Z</time></trkpt><trkpt lat="41.89748799132696" lon="13.089889462286568"><ele>480.5</ele><time>2026-03-29T10:41:42.999Z</time></trkpt><trkpt lat="41.89771416215183" lon="13.089815468784964"><ele>474.0</ele><time>2026-03-29T10:41:43.999Z</time></trkpt><trkpt lat="41.89793401702228" lon="13.089738351363776"><ele>474.0</ele><time>2026-03-29T10:41:44.999Z</time></trkpt><trkpt lat="41.89814640310069" lon="13.089662942568633"><ele>474.0</ele><time>2026-03-29T10:41:45.999Z</time></trkpt><trkpt lat="41.89832112905815" lon="13.089581568666224"><ele>474.0</ele><time>2026-03-29T10:41:46.999Z</time></trkpt><trkpt lat="41.898491334647474" lon="13.089482183534267"><ele>473.5</ele><time>2026-03-29T10:41:47.999Z</time></trkpt><trkpt lat="41.89861888699712" lon="13.089398182233056"><ele>473.0</ele><time>2026-03-29T10:41:48.999Z</time></trkpt><trkpt lat="41.89876224142125" lon="13.089367632020178"><ele>472.5</ele><time>2026-03-29T10:41:49.999Z</time></trkpt><trkpt lat="41.89890481876046" lon="13.089384850022062"><ele>472.0</ele><time>2026-03-29T10:41:50.999Z</time></trkpt><trkpt lat="41.89902489277913" lon="13.089422874120665"><ele>472.0</ele><time>2026-03-29T10:41:51.999Z</time></trkpt><trkpt lat="41.8991211528709" lon="13.08949081138518"><ele>472.00000000000006</ele><time>2026-03-29T10:41:52.999Z</time></trkpt><trkpt lat="41.89919977708667" lon="13.089608657301413"><ele>472.00000000000006</ele><time>2026-03-29T10:41:53.999Z</time></trkpt><trkpt lat="41.899250004761655" lon="13.089743061010696"><ele>472.0</ele><time>2026-03-29T10:41:54.999Z</time></trkpt><trkpt lat="41.8993035722806" lon="13.089849146690222"><ele>472.0</ele><time>2026-03-29T10:41:55.999Z</time></trkpt><trkpt lat="41.89940852120619" lon="13.089871798405596"><ele>471.33333333333337</ele><time>2026-03-29T10:41:56.999Z</time></trkpt><trkpt lat="41.89954004486026" lon="13.089821618427298"><ele>470.66666666666663</ele><time>2026-03-29T10:41:57.999Z</time></trkpt><trkpt lat="41.899670137579506" lon="13.089684282955265"><ele>470.0</ele><time>2026-03-29T10:41:58.999Z</time></trkpt><trkpt lat="41.89981970131071" lon="13.089505172773075"><ele>470.0</ele><time>2026-03-29T10:41:59.999Z</time></trkpt><trkpt lat="41.90000383570734" lon="13.089399157455787"><ele>470.0</ele><time>2026-03-29T10:42:00.999Z</time></trkpt><trkpt lat="41.900218532738535" lon="13.08924917727564"><ele>470.0</ele><time>2026-03-29T10:42:01.999Z</time></trkpt><trkpt lat="41.90041215593478" lon="13.089080706945925"><ele>467.3333333333333</ele><time>2026-03-29T10:42:02.999Z</time></trkpt><trkpt lat="41.90058095376951" lon="13.088980725101234"><ele>464.66666666666663</ele><time>2026-03-29T10:42:03.999Z</time></trkpt><trkpt lat="41.90071984396956" lon="13.088874415846874"><ele>462.0</ele><time>2026-03-29T10:42:04.999Z</time></trkpt><trkpt lat="41.900875609702794" lon="13.088814346167831"><ele>464.66666666666663</ele><time>2026-03-29T10:42:05.999Z</time></trkpt><trkpt lat="41.901043773957916" lon="13.088806211543812"><ele>467.3333333333333</ele><time>2026-03-29T10:42:06.999Z</time></trkpt><trkpt lat="41.901228225546774" lon="13.0887831216741"><ele>470.0</ele><time>2026-03-29T10:42:07.999Z</time></trkpt><trkpt lat="41.90141457151009" lon="13.088722891039364"><ele>470.0</ele><time>2026-03-29T10:42:08.999Z</time></trkpt><trkpt lat="41.901582636203706" lon="13.088561262829563"><ele>470.0</ele><time>2026-03-29T10:42:09.999Z</time></trkpt><trkpt lat="41.901733057463154" lon="13.088363830719238"><ele>470.0</ele><time>2026-03-29T10:42:10.999Z</time></trkpt><trkpt lat="41.9018835835644" lon="13.088251356315903"><ele>466.3333333333333</ele><time>2026-03-29T10:42:11.999Z</time></trkpt><trkpt lat="41.90205859725196" lon="13.088110275600151"><ele>462.66666666666663</ele><time>2026-03-29T10:42:12.999Z</time></trkpt><trkpt lat="41.90227316394799" lon="13.088029112220289"><ele>459.0</ele><time>2026-03-29T10:42:13.999Z</time></trkpt><trkpt lat="41.90248261057924" lon="13.087920664278109"><ele>464.0</ele><time>2026-03-29T10:42:14.999Z</time></trkpt><trkpt lat="41.9026781142051" lon="13.087803166054837"><ele>469.0</ele><time>2026-03-29T10:42:15.999Z</time></trkpt><trkpt lat="41.90285417486033" lon="13.087700834789146"><ele>474.0</ele><time>2026-03-29T10:42:16.999Z</time></trkpt><trkpt lat="41.903032173280444" lon="13.087630016508234"><ele>474.0</ele><time>2026-03-29T10:42:17.999Z</time></trkpt><trkpt lat="41.903225187886044" lon="13.087572789366597"><ele>474.0</ele><time>2026-03-29T10:42:18.999Z</time></trkpt><trkpt lat="41.90343081327735" lon="13.087521285378264"><ele>474.0</ele><time>2026-03-29T10:42:19.999Z</time></trkpt><trkpt lat="41.90364344070704" lon="13.087489406433335"><ele>473.33333333333337</ele><time>2026-03-29T10:42:20.999Z</time></trkpt><trkpt lat="41.90386260318839" lon="13.087443280535059"><ele>472.6666666666667</ele><time>2026-03-29T10:42:21.999Z</time></trkpt><trkpt lat="41.904076230763465" lon="13.087347547145344"><ele>472.0</ele><time>2026-03-29T10:42:22.999Z</time></trkpt><trkpt lat="41.90427106643544" lon="13.087225156800477"><ele>472.0</ele><time>2026-03-29T10:42:23.999Z</time></trkpt><trkpt lat="41.90444507443883" lon="13.087107593615968"><ele>472.0</ele><time>2026-03-29T10:42:24.999Z</time></trkpt><trkpt lat="41.90460424557494" lon="13.087027535320606"><ele>472.0</ele><time>2026-03-29T10:42:25.999Z</time></trkpt><trkpt lat="41.9047780027013" lon="13.086995102741229"><ele>472.0</ele><time>2026-03-29T10:42:26.999Z</time></trkpt><trkpt lat="41.90494965398462" lon="13.086990135221319"><ele>472.0</ele><time>2026-03-29T10:42:27.999Z</time></trkpt><trkpt lat="41.905100197056754" lon="13.087004826106442"><ele>472.0</ele><time>2026-03-29T10:42:28.999Z</time></trkpt><trkpt lat="41.9052108686181" lon="13.087046101978482"><ele>472.0</ele><time>2026-03-29T10:42:29.999Z</time></trkpt><trkpt lat="41.90529966328041" lon="13.087140595218901"><ele>473.0</ele><time>2026-03-29T10:42:30.999Z</time></trkpt><trkpt lat="41.905374563327186" lon="13.087290312486372"><ele>474.0</ele><time>2026-03-29T10:42:31.999Z</time></trkpt><trkpt lat="41.90542459979534" lon="13.087465668221645"><ele>475.0</ele><time>2026-03-29T10:42:32.999Z</time></trkpt><trkpt lat="41.905460052066104" lon="13.087610323798437"><ele>476.0</ele><time>2026-03-29T10:42:33.999Z</time></trkpt><trkpt lat="41.90550431906056" lon="13.08771200028394"><ele>480.0</ele><time>2026-03-29T10:42:34.999Z</time></trkpt><trkpt lat="41.9055819675458" lon="13.087757895871718"><ele>484.0</ele><time>2026-03-29T10:42:35.999Z</time></trkpt><trkpt lat="41.9057093327182" lon="13.087716672567256"><ele>488.0</ele><time>2026-03-29T10:42:36.999Z</time></trkpt><trkpt lat="41.90587689925802" lon="13.087576712205223"><ele>492.0</ele><time>2026-03-29T10:42:37.999Z</time></trkpt><trkpt lat="41.906052416293" lon="13.087430109533718"><ele>488.0</ele><time>2026-03-29T10:42:38.999Z</time></trkpt><trkpt lat="41.9062625278031" lon="13.087340231699468"><ele>484.0</ele><time>2026-03-29T10:42:39.999Z</time></trkpt><trkpt lat="41.906507586638014" lon="13.087234590598632"><ele>490.0</ele><time>2026-03-29T10:42:40.999Z</time></trkpt><trkpt lat="41.90675491147824" lon="13.087112320627709"><ele>496.0</ele><time>2026-03-29T10:42:41.999Z</time></trkpt><trkpt lat="41.90701077068502" lon="13.086995662307134"><ele>496.0</ele><time>2026-03-29T10:42:42.999Z</time></trkpt><trkpt lat="41.90725364929435" lon="13.086907640673529"><ele>496.0</ele><time>2026-03-29T10:42:43.999Z</time></trkpt><trkpt lat="41.90746222369711" lon="13.08681083045461"><ele>497.6666666666667</ele><time>2026-03-29T10:42:44.999Z</time></trkpt><trkpt lat="41.90764289557446" lon="13.08672551327787"><ele>499.33333333333337</ele><time>2026-03-29T10:42:45.999Z</time></trkpt><trkpt lat="41.90778165204788" lon="13.086638513476059"><ele>501.0</ele><time>2026-03-29T10:42:46.999Z</time></trkpt><trkpt lat="41.90790544657022" lon="13.086603005084266"><ele>501.0</ele><time>2026-03-29T10:42:47.999Z</time></trkpt><trkpt lat="41.90802021721562" lon="13.086619122251614"><ele>501.0</ele><time>2026-03-29T10:42:48.999Z</time></trkpt><trkpt lat="41.90812507497913" lon="13.08668615551048"><ele>501.0</ele><time>2026-03-29T10:42:49.999Z</time></trkpt><trkpt lat="41.90820111403226" lon="13.086838767264242"><ele>501.0</ele><time>2026-03-29T10:42:50.999Z</time></trkpt><trkpt lat="41.90823506258255" lon="13.08701828170903"><ele>501.0</ele><time>2026-03-29T10:42:51.999Z</time></trkpt><trkpt lat="41.908217947476274" lon="13.08718643067968"><ele>501.0</ele><time>2026-03-29T10:42:52.999Z</time></trkpt><trkpt lat="41.90821466843105" lon="13.087409012083398"><ele>501.0</ele><time>2026-03-29T10:42:53.999Z</time></trkpt><trkpt lat="41.908226577313364" lon="13.087712344370107"><ele>502.0</ele><time>2026-03-29T10:42:54.999Z</time></trkpt><trkpt lat="41.90821114975762" lon="13.088024997880542"><ele>503.0</ele><time>2026-03-29T10:42:55.999Z</time></trkpt><trkpt lat="41.908212111190984" lon="13.088293872685046"><ele>504.0</ele><time>2026-03-29T10:42:56.999Z</time></trkpt><trkpt lat="41.90817585730781" lon="13.088536005154864"><ele>504.75</ele><time>2026-03-29T10:42:57.999Z</time></trkpt><trkpt lat="41.90810701577521" lon="13.088699687633646"><ele>505.5</ele><time>2026-03-29T10:42:58.999Z</time></trkpt><trkpt lat="41.90801261029426" lon="13.08882595262778"><ele>506.25</ele><time>2026-03-29T10:42:59.999Z</time></trkpt><trkpt lat="41.90789020872303" lon="13.088943862295391"><ele>507.0</ele><time>2026-03-29T10:43:00.999Z</time></trkpt><trkpt lat="41.90774266394883" lon="13.089053586185232"><ele>508.33333333333337</ele><time>2026-03-29T10:43:01.999Z</time></trkpt><trkpt lat="41.9075864208192" lon="13.08916429974173"><ele>509.6666666666667</ele><time>2026-03-29T10:43:02.999Z</time></trkpt><trkpt lat="41.90744298654985" lon="13.089265926988654"><ele>511.0</ele><time>2026-03-29T10:43:03.999Z</time></trkpt><trkpt lat="41.907325342632944" lon="13.089362834363225"><ele>512.0</ele><time>2026-03-29T10:43:04.999Z</time></trkpt><trkpt lat="41.907240119721365" lon="13.08948364347933"><ele>513.0</ele><time>2026-03-29T10:43:05.999Z</time></trkpt><trkpt lat="41.90717127914899" lon="13.089600851613616"><ele>514.0</ele><time>2026-03-29T10:43:06.999Z</time></trkpt><trkpt lat="41.90712973264628" lon="13.089759622681445"><ele>515.0</ele><time>2026-03-29T10:43:07.999Z</time></trkpt><trkpt lat="41.90709927387863" lon="13.089890626678455"><ele>513.6</ele><time>2026-03-29T10:43:08.999Z</time></trkpt><trkpt lat="41.907060546973995" lon="13.089989643403854"><ele>512.2</ele><time>2026-03-29T10:43:09.999Z</time></trkpt><trkpt lat="41.90702682201489" lon="13.09007685389954"><ele>510.79999999999995</ele><time>2026-03-29T10:43:11.999Z</time></trkpt><trkpt lat="41.90700640108213" lon="13.090183992220673"><ele>509.4</ele><time>2026-03-29T10:43:13.999Z</time></trkpt><trkpt lat="41.9070857456027" lon="13.090320364005988"><ele>508.0</ele><time>2026-03-29T10:43:14.999Z</time></trkpt><trkpt lat="41.907145267044136" lon="13.090458885589358"><ele>508.0</ele><time>2026-03-29T10:43:15.999Z</time></trkpt><trkpt lat="41.907147904306115" lon="13.090613348094388"><ele>508.0</ele><time>2026-03-29T10:43:16.999Z</time></trkpt><trkpt lat="41.907108126754885" lon="13.09078004051593"><ele>508.0</ele><time>2026-03-29T10:43:17.999Z</time></trkpt><trkpt lat="41.907032785531435" lon="13.090944135171403"><ele>508.0</ele><time>2026-03-29T10:43:18.999Z</time></trkpt><trkpt lat="41.90693861066293" lon="13.091114294094988"><ele>506.33333333333337</ele><time>2026-03-29T10:43:19.999Z</time></trkpt><trkpt lat="41.906891656131975" lon="13.091295923900029"><ele>504.66666666666663</ele><time>2026-03-29T10:43:21Z</time></trkpt><trkpt lat="41.90690030565924" lon="13.091506982390033"><ele>503.0</ele><time>2026-03-29T10:43:22Z</time></trkpt><trkpt lat="41.9069274563798" lon="13.091732814487084"><ele>502.0</ele><time>2026-03-29T10:43:23Z</time></trkpt><trkpt lat="41.906936379422255" lon="13.091959491985778"><ele>501.0</ele><time>2026-03-29T10:43:24Z</time></trkpt><trkpt lat="41.906934115142946" lon="13.092191771157458"><ele>500.0</ele><time>2026-03-29T10:43:25Z</time></trkpt><trkpt lat="41.906937215490984" lon="13.092417846916353"><ele>499.3333333333333</ele><time>2026-03-29T10:43:26Z</time></trkpt><trkpt lat="41.90695355497674" lon="13.092631249147042"><ele>498.66666666666663</ele><time>2026-03-29T10:43:27Z</time></trkpt><trkpt lat="41.90698321003093" lon="13.092840480956637"><ele>498.0</ele><time>2026-03-29T10:43:28Z</time></trkpt><trkpt lat="41.90701416831116" lon="13.093058407693194"><ele>497.0</ele><time>2026-03-29T10:43:29Z</time></trkpt><trkpt lat="41.907017007111634" lon="13.093282039455321"><ele>496.0</ele><time>2026-03-29T10:43:30Z</time></trkpt><trkpt lat="41.906982482197726" lon="13.093521057773392"><ele>495.0</ele><time>2026-03-29T10:43:31Z</time></trkpt><trkpt lat="41.90692226513685" lon="13.09379302797214"><ele>493.5</ele><time>2026-03-29T10:43:32Z</time></trkpt><trkpt lat="41.90684605961612" lon="13.094115617860373"><ele>492.0</ele><time>2026-03-29T10:43:33Z</time></trkpt><trkpt lat="41.90678855726213" lon="13.094429680043678"><ele>501.0</ele><time>2026-03-29T10:43:34Z</time></trkpt><trkpt lat="41.90673288982056" lon="13.094692640220194"><ele>510.0</ele><time>2026-03-29T10:43:35Z</time></trkpt><trkpt lat="41.9066868776042" lon="13.094946025715222"><ele>519.0</ele><time>2026-03-29T10:43:36Z</time></trkpt><trkpt lat="41.906660390505635" lon="13.095212107979723"><ele>519.0</ele><time>2026-03-29T10:43:37.001Z</time></trkpt><trkpt lat="41.90667926936809" lon="13.095497609752355"><ele>519.0</ele><time>2026-03-29T10:43:38.001Z</time></trkpt><trkpt lat="41.906719983031245" lon="13.0957798902956"><ele>519.0</ele><time>2026-03-29T10:43:39.001Z</time></trkpt><trkpt lat="41.9067534937686" lon="13.09606207032217"><ele>519.0</ele><time>2026-03-29T10:43:40Z</time></trkpt><trkpt lat="41.90675164285765" lon="13.096339994445461"><ele>519.0</ele><time>2026-03-29T10:43:41Z</time></trkpt><trkpt lat="41.906718455529465" lon="13.096608479597123"><ele>519.0</ele><time>2026-03-29T10:43:42Z</time></trkpt><trkpt lat="41.90668204486179" lon="13.096900294365577"><ele>519.0</ele><time>2026-03-29T10:43:43Z</time></trkpt><trkpt lat="41.90665325108938" lon="13.097188125934501"><ele>519.0</ele><time>2026-03-29T10:43:44Z</time></trkpt><trkpt lat="41.906633136957225" lon="13.097473790389849"><ele>519.0</ele><time>2026-03-29T10:43:45Z</time></trkpt><trkpt lat="41.9066383991077" lon="13.097762497841716"><ele>520.6666666666666</ele><time>2026-03-29T10:43:46Z</time></trkpt><trkpt lat="41.906659172161696" lon="13.098048103042991"><ele>522.3333333333333</ele><time>2026-03-29T10:43:47Z</time></trkpt><trkpt lat="41.906688339338466" lon="13.098318478770768"><ele>524.0</ele><time>2026-03-29T10:43:48Z</time></trkpt><trkpt lat="41.90669682243139" lon="13.098567067573352"><ele>525.0</ele><time>2026-03-29T10:43:49Z</time></trkpt><trkpt lat="41.906678018882275" lon="13.098817612877427"><ele>526.0</ele><time>2026-03-29T10:43:50Z</time></trkpt><trkpt lat="41.90664441342405" lon="13.099070178761412"><ele>527.0</ele><time>2026-03-29T10:43:51Z</time></trkpt><trkpt lat="41.90660985391221" lon="13.09933001877594"><ele>527.3333333333333</ele><time>2026-03-29T10:43:52Z</time></trkpt><trkpt lat="41.9066119628395" lon="13.099579653750158"><ele>527.6666666666666</ele><time>2026-03-29T10:43:53Z</time></trkpt><trkpt lat="41.906659127434544" lon="13.099833392128955"><ele>528.0</ele><time>2026-03-29T10:43:54Z</time></trkpt><trkpt lat="41.90674651077332" lon="13.100071377153009"><ele>523.3333333333334</ele><time>2026-03-29T10:43:55Z</time></trkpt><trkpt lat="41.90686866404487" lon="13.100243390255766"><ele>518.6666666666667</ele><time>2026-03-29T10:43:56Z</time></trkpt><trkpt lat="41.9070033363996" lon="13.100354232937285"><ele>514.0</ele><time>2026-03-29T10:43:57Z</time></trkpt><trkpt lat="41.90709188597151" lon="13.100458214930116"><ele>514.0</ele><time>2026-03-29T10:43:58Z</time></trkpt><trkpt lat="41.9071414161893" lon="13.100582441413035"><ele>514.0</ele><time>2026-03-29T10:43:59Z</time></trkpt><trkpt lat="41.907136329125144" lon="13.100736630168358"><ele>514.0</ele><time>2026-03-29T10:44:00Z</time></trkpt><trkpt lat="41.90707264990156" lon="13.100927051361987"><ele>514.0</ele><time>2026-03-29T10:44:01Z</time></trkpt><trkpt lat="41.90695807295697" lon="13.10113177103581"><ele>515.3333333333334</ele><time>2026-03-29T10:44:02Z</time></trkpt><trkpt lat="41.906854723226786" lon="13.101398056764113"><ele>516.6666666666666</ele><time>2026-03-29T10:44:03Z</time></trkpt><trkpt lat="41.906777529762564" lon="13.101673290729755"><ele>518.0</ele><time>2026-03-29T10:44:04Z</time></trkpt><trkpt lat="41.90672111589528" lon="13.101944928411186"><ele>522.0</ele><time>2026-03-29T10:44:05Z</time></trkpt><trkpt lat="41.906671855782555" lon="13.102184045661089"><ele>526.0</ele><time>2026-03-29T10:44:06Z</time></trkpt><trkpt lat="41.906636108148284" lon="13.102374558930737"><ele>530.0</ele><time>2026-03-29T10:44:07Z</time></trkpt><trkpt lat="41.90661133356229" lon="13.10253250139968"><ele>530.0</ele><time>2026-03-29T10:44:08Z</time></trkpt><trkpt lat="41.90663509001173" lon="13.102685270891666"><ele>530.0</ele><time>2026-03-29T10:44:09Z</time></trkpt><trkpt lat="41.90671944836547" lon="13.102824720943792"><ele>530.0</ele><time>2026-03-29T10:44:10Z</time></trkpt><trkpt lat="41.906866810759375" lon="13.102942698952415"><ele>530.0</ele><time>2026-03-29T10:44:11Z</time></trkpt><trkpt lat="41.9070416149615" lon="13.103061396205124"><ele>530.6666666666666</ele><time>2026-03-29T10:44:12Z</time></trkpt><trkpt lat="41.90721173571924" lon="13.103188680770259"><ele>531.3333333333334</ele><time>2026-03-29T10:44:13Z</time></trkpt><trkpt lat="41.90735011895774" lon="13.103288363694643"><ele>532.0</ele><time>2026-03-29T10:44:14Z</time></trkpt><trkpt lat="41.90748779661983" lon="13.10331714398419"><ele>531.25</ele><time>2026-03-29T10:44:15Z</time></trkpt><trkpt lat="41.90762233599219" lon="13.10326497670309"><ele>530.5</ele><time>2026-03-29T10:44:16Z</time></trkpt><trkpt lat="41.907737621421" lon="13.103229968825595"><ele>529.75</ele><time>2026-03-29T10:44:17Z</time></trkpt><trkpt lat="41.90784859483168" lon="13.10326884053214"><ele>529.0</ele><time>2026-03-29T10:44:18Z</time></trkpt><trkpt lat="41.907950212579536" lon="13.103405702537597"><ele>529.3333333333334</ele><time>2026-03-29T10:44:19Z</time></trkpt><trkpt lat="41.90800316730682" lon="13.10362085770542"><ele>529.6666666666666</ele><time>2026-03-29T10:44:20Z</time></trkpt><trkpt lat="41.908055166498585" lon="13.103864361283406"><ele>530.0</ele><time>2026-03-29T10:44:21Z</time></trkpt><trkpt lat="41.90809558927771" lon="13.10408901769709"><ele>530.0</ele><time>2026-03-29T10:44:22Z</time></trkpt><trkpt lat="41.90813259553494" lon="13.10424535355007"><ele>530.0</ele><time>2026-03-29T10:44:23Z</time></trkpt><trkpt lat="41.90820070533648" lon="13.10436057855626"><ele>530.0</ele><time>2026-03-29T10:44:24Z</time></trkpt><trkpt lat="41.90829995563851" lon="13.104436338868203"><ele>530.0</ele><time>2026-03-29T10:44:25Z</time></trkpt><trkpt lat="41.90844794141075" lon="13.104406743959457"><ele>530.3333333333333</ele><time>2026-03-29T10:44:26Z</time></trkpt><trkpt lat="41.90859101942476" lon="13.104315569263322"><ele>530.6666666666666</ele><time>2026-03-29T10:44:27Z</time></trkpt><trkpt lat="41.90876515940169" lon="13.104215092201198"><ele>531.0</ele><time>2026-03-29T10:44:28Z</time></trkpt><trkpt lat="41.90893279742925" lon="13.104215705841831"><ele>531.0</ele><time>2026-03-29T10:44:29Z</time></trkpt><trkpt lat="41.90908977647135" lon="13.10421675160525"><ele>531.0</ele><time>2026-03-29T10:44:30Z</time></trkpt><trkpt lat="41.909248652609655" lon="13.104191593741227"><ele>531.0</ele><time>2026-03-29T10:44:31Z</time></trkpt><trkpt lat="41.9094107514509" lon="13.104092492442419"><ele>528.0</ele><time>2026-03-29T10:44:32Z</time></trkpt><trkpt lat="41.909562192292576" lon="13.103920485180693"><ele>525.0</ele><time>2026-03-29T10:44:33Z</time></trkpt><trkpt lat="41.90972124273222" lon="13.103727617321935"><ele>522.0</ele><time>2026-03-29T10:44:34Z</time></trkpt><trkpt lat="41.90989867271099" lon="13.103522569183824"><ele>522.0</ele><time>2026-03-29T10:44:35Z</time></trkpt><trkpt lat="41.91006922192152" lon="13.103357646079417"><ele>522.0</ele><time>2026-03-29T10:44:36Z</time></trkpt><trkpt lat="41.9102551363069" lon="13.103195341727286"><ele>522.0</ele><time>2026-03-29T10:44:37Z</time></trkpt><trkpt lat="41.91044808578776" lon="13.103012612290602"><ele>521.0</ele><time>2026-03-29T10:44:38Z</time></trkpt><trkpt lat="41.91062739522509" lon="13.102843996445186"><ele>520.0</ele><time>2026-03-29T10:44:39Z</time></trkpt><trkpt lat="41.910786588252876" lon="13.102713344417582"><ele>519.0</ele><time>2026-03-29T10:44:40Z</time></trkpt><trkpt lat="41.910914210451665" lon="13.102570223642422"><ele>517.5</ele><time>2026-03-29T10:44:41Z</time></trkpt><trkpt lat="41.91102971198763" lon="13.102432242398853"><ele>516.0</ele><time>2026-03-29T10:44:42Z</time></trkpt><trkpt lat="41.911133159911934" lon="13.102299675023698"><ele>514.5</ele><time>2026-03-29T10:44:43Z</time></trkpt><trkpt lat="41.9112174514926" lon="13.102172006198629"><ele>513.0</ele><time>2026-03-29T10:44:44Z</time></trkpt><trkpt lat="41.91130360582805" lon="13.102042811660594"><ele>513.0</ele><time>2026-03-29T10:44:45Z</time></trkpt><trkpt lat="41.911411206095565" lon="13.101938380782467"><ele>513.0</ele><time>2026-03-29T10:44:46Z</time></trkpt><trkpt lat="41.911536092142825" lon="13.10192218249783"><ele>513.0</ele><time>2026-03-29T10:44:47Z</time></trkpt><trkpt lat="41.9116958355938" lon="13.101919396799351"><ele>513.0</ele><time>2026-03-29T10:44:48Z</time></trkpt><trkpt lat="41.91187979738062" lon="13.101916566664094"><ele>512.3333333333334</ele><time>2026-03-29T10:44:49Z</time></trkpt><trkpt lat="41.91207006818899" lon="13.101929219924452"><ele>511.6666666666667</ele><time>2026-03-29T10:44:50Z</time></trkpt><trkpt lat="41.91227975521672" lon="13.101950528632376"><ele>511.0</ele><time>2026-03-29T10:44:51Z</time></trkpt><trkpt lat="41.912501768342125" lon="13.10197518383043"><ele>511.6666666666667</ele><time>2026-03-29T10:44:52Z</time></trkpt><trkpt lat="41.91271160539561" lon="13.101986707945168"><ele>512.3333333333334</ele><time>2026-03-29T10:44:53Z</time></trkpt><trkpt lat="41.91290290627459" lon="13.101982885541295"><ele>513.0</ele><time>2026-03-29T10:44:54Z</time></trkpt><trkpt lat="41.91309917296935" lon="13.101949239855038"><ele>513.0</ele><time>2026-03-29T10:44:55Z</time></trkpt><trkpt lat="41.91329649720523" lon="13.101890376270163"><ele>513.0</ele><time>2026-03-29T10:44:56Z</time></trkpt><trkpt lat="41.91350095420582" lon="13.101837154415595"><ele>513.0</ele><time>2026-03-29T10:44:57Z</time></trkpt><trkpt lat="41.9136968130848" lon="13.101788686830758"><ele>514.0</ele><time>2026-03-29T10:44:58Z</time></trkpt><trkpt lat="41.9138843220726" lon="13.10172332024262"><ele>515.0</ele><time>2026-03-29T10:44:59Z</time></trkpt><trkpt lat="41.91406024491873" lon="13.101647808194675"><ele>516.0</ele><time>2026-03-29T10:45:00Z</time></trkpt><trkpt lat="41.914230173120124" lon="13.101542303368127"><ele>513.0</ele><time>2026-03-29T10:45:01Z</time></trkpt><trkpt lat="41.914389270066394" lon="13.101437333942796"><ele>510.0</ele><time>2026-03-29T10:45:02Z</time></trkpt><trkpt lat="41.91454530845294" lon="13.101351065059529"><ele>507.0</ele><time>2026-03-29T10:45:03Z</time></trkpt><trkpt lat="41.91467979328318" lon="13.101283249497804"><ele>507.0</ele><time>2026-03-29T10:45:04Z</time></trkpt><trkpt lat="41.91479182226231" lon="13.101248938811787"><ele>507.0</ele><time>2026-03-29T10:45:05Z</time></trkpt><trkpt lat="41.91486347453625" lon="13.101228202420616"><ele>507.0</ele><time>2026-03-29T10:45:06Z</time></trkpt><trkpt lat="41.91496585499094" lon="13.101298153295339"><ele>507.0</ele><time>2026-03-29T10:45:07Z</time></trkpt><trkpt lat="41.91508516503258" lon="13.101422656263072"><ele>508.0</ele><time>2026-03-29T10:45:08Z</time></trkpt><trkpt lat="41.91522215840601" lon="13.101548386775688"><ele>509.0</ele><time>2026-03-29T10:45:09Z</time></trkpt><trkpt lat="41.91536090464035" lon="13.101635223900065"><ele>510.0</ele><time>2026-03-29T10:45:10Z</time></trkpt><trkpt lat="41.9154979412807" lon="13.101682195996592"><ele>510.0</ele><time>2026-03-29T10:45:11Z</time></trkpt><trkpt lat="41.91563341111336" lon="13.101661683191162"><ele>510.0</ele><time>2026-03-29T10:45:12Z</time></trkpt><trkpt lat="41.91577117590158" lon="13.101573796397606"><ele>510.0</ele><time>2026-03-29T10:45:13Z</time></trkpt><trkpt lat="41.91590106336547" lon="13.101443730200051"><ele>509.5</ele><time>2026-03-29T10:45:14Z</time></trkpt><trkpt lat="41.91602017394167" lon="13.101337937162942"><ele>509.0</ele><time>2026-03-29T10:45:15Z</time></trkpt><trkpt lat="41.91612235322925" lon="13.101262057569347"><ele>508.5</ele><time>2026-03-29T10:45:16Z</time></trkpt><trkpt lat="41.916227574772094" lon="13.101235394796635"><ele>508.0</ele><time>2026-03-29T10:45:17Z</time></trkpt><trkpt lat="41.91633243878351" lon="13.101239159314005"><ele>508.0</ele><time>2026-03-29T10:45:18Z</time></trkpt><trkpt lat="41.91642310110191" lon="13.101260841469852"><ele>507.99999999999994</ele><time>2026-03-29T10:45:19Z</time></trkpt><trkpt lat="41.916499538125514" lon="13.101327675036382"><ele>507.99999999999994</ele><time>2026-03-29T10:45:20Z</time></trkpt><trkpt lat="41.91655612985967" lon="13.101446862560131"><ele>508.0</ele><time>2026-03-29T10:45:21Z</time></trkpt><trkpt lat="41.91658750629064" lon="13.101623473680382"><ele>508.0</ele><time>2026-03-29T10:45:22Z</time></trkpt><trkpt lat="41.91661711769172" lon="13.10182062355829"><ele>507.6666666666667</ele><time>2026-03-29T10:45:23Z</time></trkpt><trkpt lat="41.91667693412444" lon="13.102018789821233"><ele>507.33333333333337</ele><time>2026-03-29T10:45:24Z</time></trkpt><trkpt lat="41.916757776563" lon="13.102193557545869"><ele>507.0</ele><time>2026-03-29T10:45:25Z</time></trkpt><trkpt lat="41.916864960548786" lon="13.102336042778045"><ele>504.75</ele><time>2026-03-29T10:45:26Z</time></trkpt><trkpt lat="41.91698838748454" lon="13.102450828484288"><ele>502.5</ele><time>2026-03-29T10:45:27Z</time></trkpt><trkpt lat="41.917116430826404" lon="13.102552078581104"><ele>500.25</ele><time>2026-03-29T10:45:28.001Z</time></trkpt><trkpt lat="41.91723553159559" lon="13.10265411257858"><ele>498.0</ele><time>2026-03-29T10:45:29Z</time></trkpt><trkpt lat="41.917351574540156" lon="13.102752246202241"><ele>498.0</ele><time>2026-03-29T10:45:30Z</time></trkpt><trkpt lat="41.917483970222406" lon="13.102836698815283"><ele>498.0</ele><time>2026-03-29T10:45:31.001Z</time></trkpt><trkpt lat="41.91764531287186" lon="13.10288021179477"><ele>498.0</ele><time>2026-03-29T10:45:32Z</time></trkpt><trkpt lat="41.91780938257975" lon="13.102856699925367"><ele>493.66666666666663</ele><time>2026-03-29T10:45:33Z</time></trkpt><trkpt lat="41.91796337366339" lon="13.102784529721175"><ele>489.3333333333333</ele><time>2026-03-29T10:45:34.001Z</time></trkpt><trkpt lat="41.918107580122275" lon="13.102683090563836"><ele>485.0</ele><time>2026-03-29T10:45:35Z</time></trkpt><trkpt lat="41.91825318207709" lon="13.102574684419091"><ele>485.0</ele><time>2026-03-29T10:45:36.001Z</time></trkpt><trkpt lat="41.91839995199497" lon="13.102486615037694"><ele>485.0</ele><time>2026-03-29T10:45:37.001Z</time></trkpt><trkpt lat="41.91853430120479" lon="13.102408110963966"><ele>485.0</ele><time>2026-03-29T10:45:38Z</time></trkpt><trkpt lat="41.918665562804094" lon="13.102332547709453"><ele>481.5</ele><time>2026-03-29T10:45:39.001Z</time></trkpt><trkpt lat="41.91879948342325" lon="13.102256128982738"><ele>478.0</ele><time>2026-03-29T10:45:40.001Z</time></trkpt><trkpt lat="41.91893114669741" lon="13.102223854432609"><ele>474.5</ele><time>2026-03-29T10:45:41Z</time></trkpt><trkpt lat="41.91906999640102" lon="13.10219915716055"><ele>471.0</ele><time>2026-03-29T10:45:42Z</time></trkpt><trkpt lat="41.919201741946026" lon="13.102199829625114"><ele>469.75</ele><time>2026-03-29T10:45:43Z</time></trkpt><trkpt lat="41.91932280946995" lon="13.10225517811254"><ele>468.5</ele><time>2026-03-29T10:45:44Z</time></trkpt><trkpt lat="41.91942746047728" lon="13.102352608456659"><ele>467.25</ele><time>2026-03-29T10:45:45Z</time></trkpt><trkpt lat="41.91952442016587" lon="13.102472429437253"><ele>466.0</ele><time>2026-03-29T10:45:46Z</time></trkpt><trkpt lat="41.9195952482155" lon="13.10261656473765"><ele>468.5</ele><time>2026-03-29T10:45:47Z</time></trkpt><trkpt lat="41.91963799235019" lon="13.102779847398907"><ele>471.0</ele><time>2026-03-29T10:45:48Z</time></trkpt><trkpt lat="41.91966045493491" lon="13.102954446985425"><ele>473.5</ele><time>2026-03-29T10:45:49Z</time></trkpt><trkpt lat="41.91965985338972" lon="13.103140751133445"><ele>476.0</ele><time>2026-03-29T10:45:50Z</time></trkpt><trkpt lat="41.91963543086977" lon="13.1033393124252"><ele>480.3333333333333</ele><time>2026-03-29T10:45:51Z</time></trkpt><trkpt lat="41.91958407010445" lon="13.103552414588597"><ele>484.66666666666663</ele><time>2026-03-29T10:45:52Z</time></trkpt><trkpt lat="41.919529489977265" lon="13.103789742656412"><ele>489.0</ele><time>2026-03-29T10:45:53Z</time></trkpt><trkpt lat="41.91947923864524" lon="13.10406982229938"><ele>488.66666666666663</ele><time>2026-03-29T10:45:54Z</time></trkpt><trkpt lat="41.91942835187347" lon="13.104321255695645"><ele>488.3333333333333</ele><time>2026-03-29T10:45:55Z</time></trkpt><trkpt lat="41.919376120131524" lon="13.104558335997732"><ele>488.0</ele><time>2026-03-29T10:45:56Z</time></trkpt><trkpt lat="41.91932444509125" lon="13.104798887449109"><ele>486.66666666666663</ele><time>2026-03-29T10:45:57Z</time></trkpt><trkpt lat="41.91927668319138" lon="13.105041545472222"><ele>485.33333333333337</ele><time>2026-03-29T10:45:58Z</time></trkpt><trkpt lat="41.91923044099886" lon="13.105278619529955"><ele>484.0</ele><time>2026-03-29T10:45:59Z</time></trkpt><trkpt lat="41.91920102824316" lon="13.105410286050516"><ele>484.0</ele><time>2026-03-29T10:46:00Z</time></trkpt><trkpt lat="41.91911106428241" lon="13.105635593292718"><ele>484.0</ele><time>2026-03-29T10:46:01Z</time></trkpt><trkpt lat="41.91903677040909" lon="13.105830235935757"><ele>484.0</ele><time>2026-03-29T10:46:02Z</time></trkpt><trkpt lat="41.919012559809914" lon="13.106023196628703"><ele>476.6666666666667</ele><time>2026-03-29T10:46:03Z</time></trkpt><trkpt lat="41.91899426831135" lon="13.106217112779257"><ele>469.33333333333337</ele><time>2026-03-29T10:46:04Z</time></trkpt><trkpt lat="41.91897980814724" lon="13.106405194654222"><ele>462.0</ele><time>2026-03-29T10:46:05Z</time></trkpt><trkpt lat="41.919008615962355" lon="13.106630960645589"><ele>460.0</ele><time>2026-03-29T10:46:06Z</time></trkpt><trkpt lat="41.919017499084305" lon="13.106836999274964"><ele>458.0</ele><time>2026-03-29T10:46:07Z</time></trkpt><trkpt lat="41.9190294959455" lon="13.106998263257523"><ele>456.0</ele><time>2026-03-29T10:46:08Z</time></trkpt><trkpt lat="41.9190290647463" lon="13.107136964459073"><ele>454.0</ele><time>2026-03-29T10:46:09Z</time></trkpt><trkpt lat="41.91903904941817" lon="13.107253023090228"><ele>454.0</ele><time>2026-03-29T10:46:10Z</time></trkpt><trkpt lat="41.91911235410675" lon="13.10732886914755"><ele>454.0</ele><time>2026-03-29T10:46:11Z</time></trkpt><trkpt lat="41.91919318700618" lon="13.107388166479916"><ele>454.0</ele><time>2026-03-29T10:46:12Z</time></trkpt><trkpt lat="41.91933685488741" lon="13.10740471506227"><ele>454.0</ele><time>2026-03-29T10:46:13Z</time></trkpt><trkpt lat="41.91945409785718" lon="13.107396173637918"><ele>454.0</ele><time>2026-03-29T10:46:14Z</time></trkpt><trkpt lat="41.91956782645201" lon="13.107380330602357"><ele>448.25</ele><time>2026-03-29T10:46:15Z</time></trkpt><trkpt lat="41.919673349401734" lon="13.107370628670683"><ele>442.5</ele><time>2026-03-29T10:46:16Z</time></trkpt><trkpt lat="41.91978140167977" lon="13.107363417490308"><ele>436.75</ele><time>2026-03-29T10:46:17Z</time></trkpt><trkpt lat="41.91991620785474" lon="13.10735303519188"><ele>431.0</ele><time>2026-03-29T10:46:18Z</time></trkpt><trkpt lat="41.92007565791015" lon="13.107348838670749"><ele>429.0</ele><time>2026-03-29T10:46:19Z</time></trkpt><trkpt lat="41.92021739385111" lon="13.107328974498305"><ele>427.0</ele><time>2026-03-29T10:46:20Z</time></trkpt><trkpt lat="41.92038669297378" lon="13.107321462273672"><ele>425.0</ele><time>2026-03-29T10:46:21Z</time></trkpt><trkpt lat="41.92053662364093" lon="13.107290150514693"><ele>425.0</ele><time>2026-03-29T10:46:22Z</time></trkpt><trkpt lat="41.92066688617375" lon="13.10727215334855"><ele>425.0</ele><time>2026-03-29T10:46:23Z</time></trkpt><trkpt lat="41.92079884813446" lon="13.107217765708043"><ele>425.0</ele><time>2026-03-29T10:46:24Z</time></trkpt><trkpt lat="41.9208986761651" lon="13.107144518546722"><ele>425.0</ele><time>2026-03-29T10:46:25Z</time></trkpt><trkpt lat="41.9209984869057" lon="13.107044849345142"><ele>430.0</ele><time>2026-03-29T10:46:26Z</time></trkpt><trkpt lat="41.92108916592407" lon="13.106958104569888"><ele>435.0</ele><time>2026-03-29T10:46:27Z</time></trkpt><trkpt lat="41.921202210822855" lon="13.10685386213372"><ele>440.0</ele><time>2026-03-29T10:46:28Z</time></trkpt><trkpt lat="41.921321374048375" lon="13.106777693350352"><ele>445.0</ele><time>2026-03-29T10:46:29Z</time></trkpt><trkpt lat="41.92145716734746" lon="13.10671989764566"><ele>445.0</ele><time>2026-03-29T10:46:30Z</time></trkpt><trkpt lat="41.92159890637459" lon="13.1066422614957"><ele>445.0</ele><time>2026-03-29T10:46:31Z</time></trkpt><trkpt lat="41.92174463558704" lon="13.106587848921542"><ele>445.0</ele><time>2026-03-29T10:46:32Z</time></trkpt><trkpt lat="41.92189266842084" lon="13.106544693247596"><ele>440.75</ele><time>2026-03-29T10:46:33Z</time></trkpt><trkpt lat="41.92200124385452" lon="13.106496633369945"><ele>436.5</ele><time>2026-03-29T10:46:34Z</time></trkpt><trkpt lat="41.922127405421044" lon="13.106452312643368"><ele>432.25</ele><time>2026-03-29T10:46:35Z</time></trkpt><trkpt lat="41.92226504567635" lon="13.106409448756342"><ele>428.0</ele><time>2026-03-29T10:46:36Z</time></trkpt><trkpt lat="41.9224040144994" lon="13.106367645139363"><ele>428.0</ele><time>2026-03-29T10:46:37Z</time></trkpt><trkpt lat="41.922529201284405" lon="13.106320167251523"><ele>428.0</ele><time>2026-03-29T10:46:38Z</time></trkpt><trkpt lat="41.922657268339755" lon="13.10627843499009"><ele>428.0</ele><time>2026-03-29T10:46:39Z</time></trkpt><trkpt lat="41.922788994923515" lon="13.106232267707128"><ele>428.0</ele><time>2026-03-29T10:46:40Z</time></trkpt><trkpt lat="41.92291998420857" lon="13.106191634689901"><ele>429.5</ele><time>2026-03-29T10:46:41Z</time></trkpt><trkpt lat="41.9230394774441" lon="13.106120831085418"><ele>431.0</ele><time>2026-03-29T10:46:42Z</time></trkpt><trkpt lat="41.923153058529344" lon="13.106039767984733"><ele>432.5</ele><time>2026-03-29T10:46:43Z</time></trkpt><trkpt lat="41.92326323903729" lon="13.10595015032713"><ele>434.0</ele><time>2026-03-29T10:46:44Z</time></trkpt><trkpt lat="41.92336434417796" lon="13.10586064736513"><ele>437.0</ele><time>2026-03-29T10:46:45Z</time></trkpt><trkpt lat="41.92347115931718" lon="13.105790097491912"><ele>440.0</ele><time>2026-03-29T10:46:46Z</time></trkpt><trkpt lat="41.9235788802975" lon="13.105715977515889"><ele>443.0</ele><time>2026-03-29T10:46:47Z</time></trkpt><trkpt lat="41.92370045783504" lon="13.10565339907403"><ele>446.0</ele><time>2026-03-29T10:46:48Z</time></trkpt><trkpt lat="41.92381953598263" lon="13.105598305953956"><ele>440.75</ele><time>2026-03-29T10:46:49Z</time></trkpt><trkpt lat="41.9239463278243" lon="13.105547704181669"><ele>435.5</ele><time>2026-03-29T10:46:50Z</time></trkpt><trkpt lat="41.924066196321235" lon="13.105490036309254"><ele>430.25</ele><time>2026-03-29T10:46:51Z</time></trkpt><trkpt lat="41.92417714317822" lon="13.105403885538754"><ele>425.0</ele><time>2026-03-29T10:46:52Z</time></trkpt><trkpt lat="41.9242765192178" lon="13.105316741147387"><ele>425.0</ele><time>2026-03-29T10:46:53Z</time></trkpt><trkpt lat="41.92437509358546" lon="13.105258194029005"><ele>425.0</ele><time>2026-03-29T10:46:54Z</time></trkpt><trkpt lat="41.92448931039608" lon="13.105250442973272"><ele>425.0</ele><time>2026-03-29T10:46:55Z</time></trkpt><trkpt lat="41.92461430283048" lon="13.105256690412014"><ele>425.0</ele><time>2026-03-29T10:46:56Z</time></trkpt><trkpt lat="41.92473056539846" lon="13.10526294308178"><ele>425.0</ele><time>2026-03-29T10:46:57Z</time></trkpt><trkpt lat="41.924849599878534" lon="13.105229340324346"><ele>425.0</ele><time>2026-03-29T10:46:58Z</time></trkpt><trkpt lat="41.92496495282173" lon="13.10520320966466"><ele>425.0</ele><time>2026-03-29T10:46:59Z</time></trkpt><trkpt lat="41.92508331184741" lon="13.105168360129124"><ele>425.0</ele><time>2026-03-29T10:47:00Z</time></trkpt><trkpt lat="41.92519607881555" lon="13.105126934323144"><ele>425.5</ele><time>2026-03-29T10:47:01Z</time></trkpt><trkpt lat="41.92530921038561" lon="13.10506401945182"><ele>426.0</ele><time>2026-03-29T10:47:02Z</time></trkpt><trkpt lat="41.92542282538358" lon="13.104993450509383"><ele>426.5</ele><time>2026-03-29T10:47:03Z</time></trkpt><trkpt lat="41.925536445117835" lon="13.104904354247761"><ele>427.0</ele><time>2026-03-29T10:47:04Z</time></trkpt><trkpt lat="41.925635982454956" lon="13.104782801142566"><ele>427.0</ele><time>2026-03-29T10:47:05Z</time></trkpt><trkpt lat="41.92571218823238" lon="13.104595177653277"><ele>427.0</ele><time>2026-03-29T10:47:06Z</time></trkpt><trkpt lat="41.92577345764956" lon="13.104380018266518"><ele>427.0</ele><time>2026-03-29T10:47:07Z</time></trkpt><trkpt lat="41.925833527403974" lon="13.104169083344875"><ele>430.5</ele><time>2026-03-29T10:47:08Z</time></trkpt><trkpt lat="41.92588844650448" lon="13.103982227447355"><ele>434.0</ele><time>2026-03-29T10:47:09Z</time></trkpt><trkpt lat="41.925937852646896" lon="13.103809866827982"><ele>437.5</ele><time>2026-03-29T10:47:10Z</time></trkpt><trkpt lat="41.925987124107216" lon="13.103640477050662"><ele>441.0</ele><time>2026-03-29T10:47:11Z</time></trkpt><trkpt lat="41.92602671105799" lon="13.103471810307582"><ele>441.0</ele><time>2026-03-29T10:47:12Z</time></trkpt><trkpt lat="41.926049581038455" lon="13.1032925074211"><ele>441.0</ele><time>2026-03-29T10:47:13Z</time></trkpt><trkpt lat="41.926054578452224" lon="13.103111340385505"><ele>441.0</ele><time>2026-03-29T10:47:14Z</time></trkpt><trkpt lat="41.92605873796551" lon="13.10294499848475"><ele>441.0</ele><time>2026-03-29T10:47:15Z</time></trkpt><trkpt lat="41.92606232205072" lon="13.102788051275226"><ele>437.0</ele><time>2026-03-29T10:47:16Z</time></trkpt><trkpt lat="41.926067092008125" lon="13.102635490867897"><ele>433.0</ele><time>2026-03-29T10:47:17Z</time></trkpt><trkpt lat="41.92606769160797" lon="13.102493103373172"><ele>429.0</ele><time>2026-03-29T10:47:18Z</time></trkpt><trkpt lat="41.926055630481414" lon="13.102357221964546"><ele>425.0</ele><time>2026-03-29T10:47:19Z</time></trkpt><trkpt lat="41.92604818037014" lon="13.102230280401137"><ele>421.0</ele><time>2026-03-29T10:47:20Z</time></trkpt><trkpt lat="41.92599147819318" lon="13.102101259871423"><ele>421.00000000000006</ele><time>2026-03-29T10:47:21Z</time></trkpt><trkpt lat="41.925913266825866" lon="13.102000293952358"><ele>421.0</ele><time>2026-03-29T10:47:22Z</time></trkpt><trkpt lat="41.925851554993564" lon="13.101919752378397"><ele>421.0</ele><time>2026-03-29T10:47:23Z</time></trkpt><trkpt lat="41.92579014689837" lon="13.10184555470519"><ele>421.0</ele><time>2026-03-29T10:47:24Z</time></trkpt><trkpt lat="41.92573821531836" lon="13.101779584984207"><ele>421.00000000000006</ele><time>2026-03-29T10:47:25Z</time></trkpt><trkpt lat="41.92569400659206" lon="13.101718240947498"><ele>421.0</ele><time>2026-03-29T10:47:26Z</time></trkpt><trkpt lat="41.92565486243057" lon="13.101642817317948"><ele>418.83333333333337</ele><time>2026-03-29T10:47:27Z</time></trkpt><trkpt lat="41.92562085057549" lon="13.10155572960192"><ele>416.6666666666667</ele><time>2026-03-29T10:47:28Z</time></trkpt><trkpt lat="41.9255929132635" lon="13.101446974755476"><ele>414.5</ele><time>2026-03-29T10:47:29Z</time></trkpt><trkpt lat="41.92557799438578" lon="13.101325624918529"><ele>412.33333333333337</ele><time>2026-03-29T10:47:30Z</time></trkpt><trkpt lat="41.92559820529961" lon="13.101202548489447"><ele>410.1666666666667</ele><time>2026-03-29T10:47:31Z</time></trkpt><trkpt lat="41.92560705598551" lon="13.101083938390365"><ele>408.0</ele><time>2026-03-29T10:47:32Z</time></trkpt><trkpt lat="41.92561917216926" lon="13.100925044020586"><ele>408.0</ele><time>2026-03-29T10:47:33Z</time></trkpt><trkpt lat="41.92562870819037" lon="13.100799987070697"><ele>408.0</ele><time>2026-03-29T10:47:34Z</time></trkpt><trkpt lat="41.92563730270035" lon="13.100687460947551"><ele>408.0</ele><time>2026-03-29T10:47:35Z</time></trkpt><trkpt lat="41.925657010059865" lon="13.100574019506562"><ele>408.0</ele><time>2026-03-29T10:47:36Z</time></trkpt><trkpt lat="41.925681682450154" lon="13.100487310988495"><ele>408.0</ele><time>2026-03-29T10:47:37Z</time></trkpt><trkpt lat="41.925703473051776" lon="13.100391713214288"><ele>408.0</ele><time>2026-03-29T10:47:38Z</time></trkpt><trkpt lat="41.925721152213654" lon="13.10029460669794"><ele>406.79999999999995</ele><time>2026-03-29T10:47:39Z</time></trkpt><trkpt lat="41.92575240538631" lon="13.10019042574475"><ele>405.6</ele><time>2026-03-29T10:47:40Z</time></trkpt><trkpt lat="41.925776094057454" lon="13.100065753397356"><ele>404.4</ele><time>2026-03-29T10:47:41Z</time></trkpt><trkpt lat="41.925790461737904" lon="13.099929710779278"><ele>403.20000000000005</ele><time>2026-03-29T10:47:42Z</time></trkpt><trkpt lat="41.925795898094464" lon="13.099784421235253"><ele>402.0</ele><time>2026-03-29T10:47:43Z</time></trkpt><trkpt lat="41.92580857859872" lon="13.099649373698833"><ele>401.8</ele><time>2026-03-29T10:47:44Z</time></trkpt><trkpt lat="41.92581675977385" lon="13.09950083375941"><ele>401.6</ele><time>2026-03-29T10:47:45Z</time></trkpt><trkpt lat="41.92582525974692" lon="13.099355259379326"><ele>401.40000000000003</ele><time>2026-03-29T10:47:46Z</time></trkpt><trkpt lat="41.925833893176915" lon="13.099209224760507"><ele>401.20000000000005</ele><time>2026-03-29T10:47:47Z</time></trkpt><trkpt lat="41.925846016348" lon="13.099067796382915"><ele>401.0</ele><time>2026-03-29T10:47:48Z</time></trkpt><trkpt lat="41.92583945760984" lon="13.09896322943931"><ele>400.8</ele><time>2026-03-29T10:47:49Z</time></trkpt><trkpt lat="41.92582709835327" lon="13.098839208672233"><ele>400.6</ele><time>2026-03-29T10:47:50Z</time></trkpt><trkpt lat="41.92580253070946" lon="13.098707859154112"><ele>400.4</ele><time>2026-03-29T10:47:51Z</time></trkpt><trkpt lat="41.92581870757581" lon="13.098582377188988"><ele>400.2</ele><time>2026-03-29T10:47:53Z</time></trkpt><trkpt lat="41.92582599202808" lon="13.09844618832078"><ele>400.0</ele><time>2026-03-29T10:47:55Z</time></trkpt><trkpt lat="41.925802062283616" lon="13.098343402556582"><ele>401.6</ele><time>2026-03-29T10:47:57Z</time></trkpt><trkpt lat="41.925822858826386" lon="13.098198604075836"><ele>403.2</ele><time>2026-03-29T10:47:59Z</time></trkpt><trkpt lat="41.92587654879343" lon="13.098087560286793"><ele>404.79999999999995</ele><time>2026-03-29T10:48:01Z</time></trkpt><trkpt lat="41.925940805685734" lon="13.097988598652151"><ele>406.4</ele><time>2026-03-29T10:48:03Z</time></trkpt><trkpt lat="41.92599769892353" lon="13.097941376716921"><ele>408.0</ele><time>2026-03-29T10:48:05Z</time></trkpt><trkpt lat="41.92610616789556" lon="13.097833104128425"><ele>409.1666666666667</ele><time>2026-03-29T10:48:07Z</time></trkpt><trkpt lat="41.926158728641184" lon="13.097759413166811"><ele>410.33333333333337</ele><time>2026-03-29T10:48:08Z</time></trkpt><trkpt lat="41.92621521108739" lon="13.097683611371398"><ele>411.5</ele><time>2026-03-29T10:48:09Z</time></trkpt><trkpt lat="41.9262874527966" lon="13.097615355164367"><ele>412.6666666666667</ele><time>2026-03-29T10:48:10Z</time></trkpt><trkpt lat="41.92634310996177" lon="13.097533108652936"><ele>413.83333333333337</ele><time>2026-03-29T10:48:11Z</time></trkpt><trkpt lat="41.9264028072627" lon="13.097459352764995"><ele>415.0</ele><time>2026-03-29T10:48:12Z</time></trkpt><trkpt lat="41.92648597913377" lon="13.097425108003529"><ele>418.0</ele><time>2026-03-29T10:48:13Z</time></trkpt><trkpt lat="41.926556818844126" lon="13.097377858893351"><ele>421.0</ele><time>2026-03-29T10:48:14Z</time></trkpt><trkpt lat="41.9266190643622" lon="13.09733110181751"><ele>424.0</ele><time>2026-03-29T10:48:15Z</time></trkpt><trkpt lat="41.926706423127335" lon="13.097198617490431"><ele>427.0</ele><time>2026-03-29T10:48:17Z</time></trkpt><trkpt lat="41.926803650357336" lon="13.097161661400111"><ele>430.0</ele><time>2026-03-29T10:48:18Z</time></trkpt><trkpt lat="41.926937990822935" lon="13.09719306039205"><ele>430.83333333333337</ele><time>2026-03-29T10:48:20Z</time></trkpt><trkpt lat="41.927044481065344" lon="13.097133994664574"><ele>431.6666666666667</ele><time>2026-03-29T10:48:22Z</time></trkpt><trkpt lat="41.92708704040726" lon="13.097066582306526"><ele>432.5</ele><time>2026-03-29T10:48:23Z</time></trkpt><trkpt lat="41.927111601239325" lon="13.096972558864138"><ele>433.33333333333337</ele><time>2026-03-29T10:48:24Z</time></trkpt><trkpt lat="41.92712956964001" lon="13.096876425273644"><ele>434.1666666666667</ele><time>2026-03-29T10:48:25Z</time></trkpt><trkpt lat="41.9271356845029" lon="13.09678397706133"><ele>435.0</ele><time>2026-03-29T10:48:26Z</time></trkpt><trkpt lat="41.927105532906495" lon="13.096696682116436"><ele>435.0</ele><time>2026-03-29T10:48:27Z</time></trkpt><trkpt lat="41.9270822725008" lon="13.096614029087444"><ele>435.0</ele><time>2026-03-29T10:48:28Z</time></trkpt><trkpt lat="41.926975874904485" lon="13.096599239563094"><ele>435.0</ele><time>2026-03-29T10:48:29Z</time></trkpt><trkpt lat="41.92690026561551" lon="13.096692250491317"><ele>435.0</ele><time>2026-03-29T10:48:30Z</time></trkpt><trkpt lat="41.926831931163484" lon="13.096746650325167"><ele>435.0</ele><time>2026-03-29T10:48:31Z</time></trkpt><trkpt lat="41.92676719412282" lon="13.09676399520951"><ele>435.0</ele><time>2026-03-29T10:48:32Z</time></trkpt><trkpt lat="41.92663143292195" lon="13.096803953641956"><ele>434.0</ele><time>2026-03-29T10:48:34Z</time></trkpt><trkpt lat="41.92652342588384" lon="13.096851970786958"><ele>433.0</ele><time>2026-03-29T10:48:35Z</time></trkpt><trkpt lat="41.926422599975865" lon="13.096906763119726"><ele>432.0</ele><time>2026-03-29T10:48:36Z</time></trkpt><trkpt lat="41.92633904279858" lon="13.096949816399022"><ele>431.0</ele><time>2026-03-29T10:48:37Z</time></trkpt><trkpt lat="41.92624662869606" lon="13.096957722910268"><ele>430.0</ele><time>2026-03-29T10:48:38Z</time></trkpt><trkpt lat="41.92615967626851" lon="13.09697861142891"><ele>430.00000000000006</ele><time>2026-03-29T10:48:39Z</time></trkpt><trkpt lat="41.92607382515696" lon="13.097008470635181"><ele>430.0</ele><time>2026-03-29T10:48:40Z</time></trkpt><trkpt lat="41.92598921681782" lon="13.097009491311718"><ele>430.0</ele><time>2026-03-29T10:48:41Z</time></trkpt><trkpt lat="41.925908313860184" lon="13.097010138558925"><ele>430.0</ele><time>2026-03-29T10:48:42Z</time></trkpt><trkpt lat="41.925831955461625" lon="13.096997394590488"><ele>430.00000000000006</ele><time>2026-03-29T10:48:43Z</time></trkpt><trkpt lat="41.9257543684218" lon="13.096999588324884"><ele>430.0</ele><time>2026-03-29T10:48:44Z</time></trkpt><trkpt lat="41.92568835861946" lon="13.096986194053864"><ele>430.6666666666667</ele><time>2026-03-29T10:48:45Z</time></trkpt><trkpt lat="41.92561480339183" lon="13.096960885200678"><ele>431.33333333333337</ele><time>2026-03-29T10:48:46Z</time></trkpt><trkpt lat="41.92554621257673" lon="13.09692248906556"><ele>432.0</ele><time>2026-03-29T10:48:47Z</time></trkpt><trkpt lat="41.92547419617877" lon="13.096877354425791"><ele>432.66666666666663</ele><time>2026-03-29T10:48:48Z</time></trkpt><trkpt lat="41.92540130996848" lon="13.096833344965374"><ele>433.3333333333333</ele><time>2026-03-29T10:48:49Z</time></trkpt><trkpt lat="41.925330110046566" lon="13.096794183049262"><ele>434.0</ele><time>2026-03-29T10:48:50Z</time></trkpt><trkpt lat="41.92526501876632" lon="13.096769040341215"><ele>434.0</ele><time>2026-03-29T10:48:51Z</time></trkpt><trkpt lat="41.925190655484066" lon="13.096739617689115"><ele>434.0</ele><time>2026-03-29T10:48:52Z</time></trkpt><trkpt lat="41.9251268549286" lon="13.096714991109243"><ele>434.0</ele><time>2026-03-29T10:48:53Z</time></trkpt><trkpt lat="41.92505641684925" lon="13.09668431724475"><ele>434.0</ele><time>2026-03-29T10:48:54Z</time></trkpt><trkpt lat="41.92499025247386" lon="13.0966504809523"><ele>434.0</ele><time>2026-03-29T10:48:55Z</time></trkpt><trkpt lat="41.924924529142714" lon="13.09660679115657"><ele>434.0</ele><time>2026-03-29T10:48:56Z</time></trkpt><trkpt lat="41.924881346842895" lon="13.096517570083583"><ele>434.0</ele><time>2026-03-29T10:48:57Z</time></trkpt><trkpt lat="41.92481643845689" lon="13.096431870374436"><ele>435.49999999999994</ele><time>2026-03-29T10:48:58Z</time></trkpt><trkpt lat="41.92475457127516" lon="13.096373555669144"><ele>437.0</ele><time>2026-03-29T10:48:59Z</time></trkpt><trkpt lat="41.92469305442386" lon="13.096304467218564"><ele>438.5</ele><time>2026-03-29T10:49:00Z</time></trkpt><trkpt lat="41.92462936121005" lon="13.09625690037507"><ele>440.0</ele><time>2026-03-29T10:49:01Z</time></trkpt><trkpt lat="41.92452730299202" lon="13.096166849436344"><ele>441.49999999999994</ele><time>2026-03-29T10:49:03Z</time></trkpt><trkpt lat="41.924453764031185" lon="13.096088541807175"><ele>443.0</ele><time>2026-03-29T10:49:05Z</time></trkpt><trkpt lat="41.924362245764094" lon="13.096060231462767"><ele>442.99999999999994</ele><time>2026-03-29T10:49:08Z</time></trkpt><trkpt lat="41.92429552425485" lon="13.096101662382125"><ele>443.0</ele><time>2026-03-29T10:49:19Z</time></trkpt><trkpt lat="41.92421680606079" lon="13.096113926906165"><ele>443.0</ele><time>2026-03-29T10:49:23Z</time></trkpt><trkpt lat="41.924129224133374" lon="13.096070243033276"><ele>443.0</ele><time>2026-03-29T10:49:27Z</time></trkpt><trkpt lat="41.92412576176829" lon="13.095963770807048"><ele>442.99999999999994</ele><time>2026-03-29T10:49:29Z</time></trkpt><trkpt lat="41.924122842555725" lon="13.095854788789437"><ele>443.0</ele><time>2026-03-29T10:49:31Z</time></trkpt><trkpt lat="41.92412171568472" lon="13.095736855694044"><ele>438.99999999999994</ele><time>2026-03-29T10:49:33Z</time></trkpt><trkpt lat="41.9241290590837" lon="13.09558411051001"><ele>435.0</ele><time>2026-03-29T10:49:35Z</time></trkpt><trkpt lat="41.92413353915718" lon="13.095492960644062"><ele>431.0</ele><time>2026-03-29T10:49:36Z</time></trkpt><trkpt lat="41.924139355453235" lon="13.095387616036318"><ele>427.0</ele><time>2026-03-29T10:49:37Z</time></trkpt><trkpt lat="41.924142063344256" lon="13.095282500158376"><ele>422.99999999999994</ele><time>2026-03-29T10:49:38Z</time></trkpt><trkpt lat="41.92414984189933" lon="13.095188225479298"><ele>419.0</ele><time>2026-03-29T10:49:39Z</time></trkpt><trkpt lat="41.92415659583283" lon="13.095055854190365"><ele>417.79999999999995</ele><time>2026-03-29T10:49:41Z</time></trkpt><trkpt lat="41.92417052135494" lon="13.094897009877315"><ele>416.59999999999997</ele><time>2026-03-29T10:49:43Z</time></trkpt><trkpt lat="41.924184988625" lon="13.094794536711756"><ele>415.4</ele><time>2026-03-29T10:49:44Z</time></trkpt><trkpt lat="41.924201920257694" lon="13.094690331175174"><ele>414.2</ele><time>2026-03-29T10:49:45Z</time></trkpt><trkpt lat="41.92421768849143" lon="13.094575033587699"><ele>413.0</ele><time>2026-03-29T10:49:46Z</time></trkpt><trkpt lat="41.924222487426675" lon="13.094452234099718"><ele>412.99999999999994</ele><time>2026-03-29T10:49:47Z</time></trkpt><trkpt lat="41.92422232398338" lon="13.094344882167757"><ele>413.0</ele><time>2026-03-29T10:49:48Z</time></trkpt><trkpt lat="41.924222583951774" lon="13.094237722269355"><ele>413.0</ele><time>2026-03-29T10:49:49Z</time></trkpt><trkpt lat="41.92422325210261" lon="13.094138648247398"><ele>413.0</ele><time>2026-03-29T10:49:50Z</time></trkpt><trkpt lat="41.92422320208603" lon="13.094038027341398"><ele>412.99999999999994</ele><time>2026-03-29T10:49:51Z</time></trkpt><trkpt lat="41.92423374188917" lon="13.09392393989047"><ele>413.0</ele><time>2026-03-29T10:49:52Z</time></trkpt><trkpt lat="41.92424005430094" lon="13.093778537925854"><ele>413.2</ele><time>2026-03-29T10:49:53Z</time></trkpt><trkpt lat="41.924254043892894" lon="13.093628778680912"><ele>413.4</ele><time>2026-03-29T10:49:54Z</time></trkpt><trkpt lat="41.924255763487224" lon="13.093506235844583"><ele>413.59999999999997</ele><time>2026-03-29T10:49:55Z</time></trkpt><trkpt lat="41.924265396696754" lon="13.093391020611085"><ele>413.79999999999995</ele><time>2026-03-29T10:49:56Z</time></trkpt><trkpt lat="41.924280834020244" lon="13.093263044420276"><ele>414.0</ele><time>2026-03-29T10:49:57Z</time></trkpt><trkpt lat="41.924287995947125" lon="13.093130397003266"><ele>414.0</ele><time>2026-03-29T10:49:58Z</time></trkpt><trkpt lat="41.92430358073438" lon="13.092986070037924"><ele>414.0</ele><time>2026-03-29T10:49:59Z</time></trkpt><trkpt lat="41.92431413729652" lon="13.092833728196627"><ele>414.0</ele><time>2026-03-29T10:50:00Z</time></trkpt><trkpt lat="41.92432938924519" lon="13.092697047580648"><ele>414.0</ele><time>2026-03-29T10:50:01Z</time></trkpt><trkpt lat="41.92433494732249" lon="13.092597931309788"><ele>414.0</ele><time>2026-03-29T10:50:02Z</time></trkpt><trkpt lat="41.92438019875146" lon="13.092440824054572"><ele>410.79999999999995</ele><time>2026-03-29T10:50:03Z</time></trkpt><trkpt lat="41.924392489696906" lon="13.092317177229566"><ele>407.59999999999997</ele><time>2026-03-29T10:50:04Z</time></trkpt><trkpt lat="41.924414134246234" lon="13.092172344988182"><ele>404.4</ele><time>2026-03-29T10:50:05Z</time></trkpt><trkpt lat="41.9244514671654" lon="13.092046713229239"><ele>401.2</ele><time>2026-03-29T10:50:06Z</time></trkpt><trkpt lat="41.92447261006958" lon="13.091946309924634"><ele>398.0</ele><time>2026-03-29T10:50:07Z</time></trkpt><trkpt lat="41.92448431599783" lon="13.091846607380164"><ele>398.0</ele><time>2026-03-29T10:50:08Z</time></trkpt><trkpt lat="41.924470748862554" lon="13.09173006439196"><ele>398.0</ele><time>2026-03-29T10:50:09Z</time></trkpt><trkpt lat="41.92444313937725" lon="13.091532934688955"><ele>398.0</ele><time>2026-03-29T10:50:10Z</time></trkpt><trkpt lat="41.92443635572171" lon="13.091394700175897"><ele>398.0</ele><time>2026-03-29T10:50:11Z</time></trkpt><trkpt lat="41.92444086211446" lon="13.091273805468242"><ele>398.0</ele><time>2026-03-29T10:50:12Z</time></trkpt><trkpt lat="41.92444500431188" lon="13.09113377085623"><ele>397.59999999999997</ele><time>2026-03-29T10:50:13Z</time></trkpt><trkpt lat="41.92445604574334" lon="13.090992847723419"><ele>397.2</ele><time>2026-03-29T10:50:14Z</time></trkpt><trkpt lat="41.92445613979083" lon="13.090860956512318"><ele>396.8</ele><time>2026-03-29T10:50:15Z</time></trkpt><trkpt lat="41.92445683022014" lon="13.090749330352711"><ele>396.4</ele><time>2026-03-29T10:50:16Z</time></trkpt><trkpt lat="41.9244654816838" lon="13.09063961332351"><ele>396.0</ele><time>2026-03-29T10:50:17Z</time></trkpt><trkpt lat="41.924493263865756" lon="13.090500113415274"><ele>394.0</ele><time>2026-03-29T10:50:19Z</time></trkpt><trkpt lat="41.92450080485933" lon="13.090373736558956"><ele>392.0</ele><time>2026-03-29T10:50:21Z</time></trkpt><trkpt lat="41.924510422351965" lon="13.09021255996104"><ele>390.0</ele><time>2026-03-29T10:50:23Z</time></trkpt><trkpt lat="41.92451973826433" lon="13.090056437631532"><ele>388.0</ele><time>2026-03-29T10:50:25Z</time></trkpt><trkpt lat="41.92452974200608" lon="13.089888787838543"><ele>387.2</ele><time>2026-03-29T10:50:27Z</time></trkpt><trkpt lat="41.924536751908875" lon="13.089771306378589"><ele>386.4</ele><time>2026-03-29T10:50:28Z</time></trkpt><trkpt lat="41.924544083011476" lon="13.089649217842025"><ele>385.59999999999997</ele><time>2026-03-29T10:50:29Z</time></trkpt><trkpt lat="41.92455307157725" lon="13.089499092205559"><ele>384.79999999999995</ele><time>2026-03-29T10:50:30Z</time></trkpt><trkpt lat="41.924563619866205" lon="13.089322916426708"><ele>384.0</ele><time>2026-03-29T10:50:31Z</time></trkpt><trkpt lat="41.92457569813072" lon="13.089124705399168"><ele>383.0</ele><time>2026-03-29T10:50:32Z</time></trkpt><trkpt lat="41.924587890297516" lon="13.088927033395958"><ele>382.0</ele><time>2026-03-29T10:50:33Z</time></trkpt><trkpt lat="41.924599308592576" lon="13.088745400229543"><ele>381.0</ele><time>2026-03-29T10:50:34Z</time></trkpt><trkpt lat="41.92461166090658" lon="13.088550653339384"><ele>380.0</ele><time>2026-03-29T10:50:35Z</time></trkpt><trkpt lat="41.92459921739435" lon="13.088362230522739"><ele>379.0</ele><time>2026-03-29T10:50:36Z</time></trkpt><trkpt lat="41.92461713961531" lon="13.088176083903472"><ele>378.0</ele><time>2026-03-29T10:50:37Z</time></trkpt><trkpt lat="41.924632211796244" lon="13.08798086485334"><ele>377.0</ele><time>2026-03-29T10:50:38Z</time></trkpt><trkpt lat="41.924649438686906" lon="13.08778576402874"><ele>376.0</ele><time>2026-03-29T10:50:39Z</time></trkpt><trkpt lat="41.924666059692214" lon="13.08758118774519"><ele>375.25</ele><time>2026-03-29T10:50:40Z</time></trkpt><trkpt lat="41.924682093172414" lon="13.087384732760048"><ele>374.5</ele><time>2026-03-29T10:50:41Z</time></trkpt><trkpt lat="41.924686994090635" lon="13.087190992631395"><ele>373.75</ele><time>2026-03-29T10:50:42Z</time></trkpt><trkpt lat="41.92469583638931" lon="13.087036233525874"><ele>373.0</ele><time>2026-03-29T10:50:43Z</time></trkpt><trkpt lat="41.92470627916844" lon="13.086866813058744"><ele>373.0</ele><time>2026-03-29T10:50:44Z</time></trkpt><trkpt lat="41.924714289390494" lon="13.08668267586149"><ele>373.0</ele><time>2026-03-29T10:50:45Z</time></trkpt><trkpt lat="41.924730472197936" lon="13.08649692682843"><ele>373.0</ele><time>2026-03-29T10:50:46Z</time></trkpt><trkpt lat="41.92474430945106" lon="13.086340117045197"><ele>373.0</ele><time>2026-03-29T10:50:47Z</time></trkpt><trkpt lat="41.924769954424185" lon="13.086187237979033"><ele>372.75</ele><time>2026-03-29T10:50:48Z</time></trkpt><trkpt lat="41.92483122766797" lon="13.08605495437593"><ele>372.5</ele><time>2026-03-29T10:50:49Z</time></trkpt><trkpt lat="41.92488133691848" lon="13.085961924434889"><ele>372.25</ele><time>2026-03-29T10:50:50Z</time></trkpt><trkpt lat="41.92496151418133" lon="13.085813719812352"><ele>372.0</ele><time>2026-03-29T10:50:51Z</time></trkpt><trkpt lat="41.92505558493075" lon="13.085649006074943"><ele>371.5</ele><time>2026-03-29T10:50:52Z</time></trkpt><trkpt lat="41.925142437833024" lon="13.085496925521129"><ele>371.0</ele><time>2026-03-29T10:50:53Z</time></trkpt><trkpt lat="41.92521786405725" lon="13.085364853280387"><ele>370.5</ele><time>2026-03-29T10:50:54Z</time></trkpt><trkpt lat="41.92528318608077" lon="13.085250471559446"><ele>370.0</ele><time>2026-03-29T10:50:55Z</time></trkpt><trkpt lat="41.925338292914304" lon="13.085157617336177"><ele>370.0</ele><time>2026-03-29T10:50:56Z</time></trkpt><trkpt lat="41.92539259507976" lon="13.085064983024312"><ele>370.0</ele><time>2026-03-29T10:50:57Z</time></trkpt><trkpt lat="41.92544167591169" lon="13.084981255000717"><ele>370.0</ele><time>2026-03-29T10:50:58Z</time></trkpt><trkpt lat="41.925477673757285" lon="13.084888586943439"><ele>370.0</ele><time>2026-03-29T10:50:59Z</time></trkpt><trkpt lat="41.92553651461462" lon="13.084833581906652"><ele>370.0</ele><time>2026-03-29T10:51:00Z</time></trkpt><trkpt lat="41.925623938756" lon="13.084756402445038"><ele>370.0</ele><time>2026-03-29T10:51:02Z</time></trkpt><trkpt lat="41.92571768417923" lon="13.084761551070972"><ele>369.66666666666663</ele><time>2026-03-29T10:51:04Z</time></trkpt><trkpt lat="41.925773364451835" lon="13.084709497787074"><ele>369.3333333333333</ele><time>2026-03-29T11:01:11Z</time></trkpt><trkpt lat="41.92584580431605" lon="13.084663292937616"><ele>369.0</ele><time>2026-03-29T11:01:15Z</time></trkpt><trkpt lat="41.92586418735198" lon="13.084540519694935"><ele>368.6666666666667</ele><time>2026-03-29T11:01:38Z</time></trkpt><trkpt lat="41.9258218360681" lon="13.084444979965996"><ele>368.33333333333337</ele><time>2026-03-29T11:01:49Z</time></trkpt><trkpt lat="41.9258393137286" lon="13.08432898426763"><ele>368.0</ele><time>2026-03-29T11:01:56Z</time></trkpt><trkpt lat="41.92592012436848" lon="13.084185920281085"><ele>371.0</ele><time>2026-03-29T11:01:58Z</time></trkpt><trkpt lat="41.92596938925781" lon="13.084089084052248"><ele>374.0</ele><time>2026-03-29T11:01:59Z</time></trkpt><trkpt lat="41.92602739467924" lon="13.083975704412094"><ele>377.0</ele><time>2026-03-29T11:02:00Z</time></trkpt><trkpt lat="41.926091164382946" lon="13.083856552517217"><ele>380.0</ele><time>2026-03-29T11:02:01Z</time></trkpt><trkpt lat="41.92616041069416" lon="13.083736446315688"><ele>383.0</ele><time>2026-03-29T11:02:02Z</time></trkpt><trkpt lat="41.92622672340082" lon="13.083603634764629"><ele>383.0</ele><time>2026-03-29T11:02:03Z</time></trkpt><trkpt lat="41.926288516909196" lon="13.083456649065594"><ele>383.0</ele><time>2026-03-29T11:02:04Z</time></trkpt><trkpt lat="41.926342145698364" lon="13.08330494689428"><ele>383.0</ele><time>2026-03-29T11:02:05Z</time></trkpt><trkpt lat="41.92638979378337" lon="13.083148696023844"><ele>383.0</ele><time>2026-03-29T11:02:06Z</time></trkpt><trkpt lat="41.926437392512405" lon="13.08298863951964"><ele>381.25</ele><time>2026-03-29T11:02:07Z</time></trkpt><trkpt lat="41.92648902936471" lon="13.082826858421889"><ele>379.5</ele><time>2026-03-29T11:02:08Z</time></trkpt><trkpt lat="41.926539210602655" lon="13.082663708866468"><ele>377.75</ele><time>2026-03-29T11:02:09Z</time></trkpt><trkpt lat="41.92658687104396" lon="13.082501861695844"><ele>376.0</ele><time>2026-03-29T11:02:10Z</time></trkpt><trkpt lat="41.92663716477192" lon="13.082343741311021"><ele>377.25</ele><time>2026-03-29T11:02:11Z</time></trkpt><trkpt lat="41.926687450257624" lon="13.082182839247348"><ele>378.5</ele><time>2026-03-29T11:02:12Z</time></trkpt><trkpt lat="41.92673312494797" lon="13.082015357613809"><ele>379.75</ele><time>2026-03-29T11:02:13Z</time></trkpt><trkpt lat="41.9267852372471" lon="13.081854122801461"><ele>381.0</ele><time>2026-03-29T11:02:14Z</time></trkpt><trkpt lat="41.92683655414384" lon="13.081695652636563"><ele>379.5</ele><time>2026-03-29T11:02:15Z</time></trkpt><trkpt lat="41.92688645449421" lon="13.081527637118041"><ele>378.0</ele><time>2026-03-29T11:02:16Z</time></trkpt><trkpt lat="41.926931493152296" lon="13.081356013243436"><ele>376.5</ele><time>2026-03-29T11:02:17Z</time></trkpt><trkpt lat="41.926970278867536" lon="13.08118369338343"><ele>375.0</ele><time>2026-03-29T11:02:18Z</time></trkpt><trkpt lat="41.926998414386595" lon="13.08101368895777"><ele>375.0</ele><time>2026-03-29T11:02:19Z</time></trkpt><trkpt lat="41.92701414583934" lon="13.080847232431923"><ele>375.0</ele><time>2026-03-29T11:02:20Z</time></trkpt><trkpt lat="41.92702601816819" lon="13.080665360712251"><ele>375.0</ele><time>2026-03-29T11:02:21Z</time></trkpt><trkpt lat="41.92703954629887" lon="13.080474748157433"><ele>375.0</ele><time>2026-03-29T11:02:22Z</time></trkpt><trkpt lat="41.927052049303775" lon="13.080281159660808"><ele>375.0</ele><time>2026-03-29T11:02:23Z</time></trkpt><trkpt lat="41.92706298066676" lon="13.080085651702099"><ele>375.0</ele><time>2026-03-29T11:02:24Z</time></trkpt><trkpt lat="41.92707262926097" lon="13.079889784386456"><ele>375.0</ele><time>2026-03-29T11:02:25Z</time></trkpt><trkpt lat="41.92708167016827" lon="13.079689266422246"><ele>375.0</ele><time>2026-03-29T11:02:26Z</time></trkpt><trkpt lat="41.92708787654705" lon="13.079487842356006"><ele>375.6666666666667</ele><time>2026-03-29T11:02:27Z</time></trkpt><trkpt lat="41.9270840374962" lon="13.079282026248524"><ele>376.33333333333337</ele><time>2026-03-29T11:02:28Z</time></trkpt><trkpt lat="41.92707410324379" lon="13.079077991678961"><ele>377.0</ele><time>2026-03-29T11:02:29Z</time></trkpt><trkpt lat="41.927056510651774" lon="13.078878627386933"><ele>378.75</ele><time>2026-03-29T11:02:30Z</time></trkpt><trkpt lat="41.927035338269256" lon="13.078680815399872"><ele>380.5</ele><time>2026-03-29T11:02:31Z</time></trkpt><trkpt lat="41.92701089398524" lon="13.078486434759892"><ele>382.25</ele><time>2026-03-29T11:02:32Z</time></trkpt><trkpt lat="41.92698159406737" lon="13.078290062825511"><ele>384.0</ele><time>2026-03-29T11:02:33Z</time></trkpt><trkpt lat="41.926945689587164" lon="13.078090075634593"><ele>384.66666666666663</ele><time>2026-03-29T11:02:34Z</time></trkpt><trkpt lat="41.92691238528308" lon="13.077889565177106"><ele>385.3333333333333</ele><time>2026-03-29T11:02:35Z</time></trkpt><trkpt lat="41.92687173836081" lon="13.077691351784074"><ele>386.0</ele><time>2026-03-29T11:02:36Z</time></trkpt><trkpt lat="41.926820451596036" lon="13.077492371145958"><ele>385.0</ele><time>2026-03-29T11:02:37Z</time></trkpt><trkpt lat="41.92676456697868" lon="13.077295885607391"><ele>384.0</ele><time>2026-03-29T11:02:38Z</time></trkpt><trkpt lat="41.92669162563058" lon="13.077102121114256"><ele>383.0</ele><time>2026-03-29T11:02:39Z</time></trkpt><trkpt lat="41.92660993865848" lon="13.07691393411528"><ele>381.33333333333337</ele><time>2026-03-29T11:02:40Z</time></trkpt><trkpt lat="41.92651849059861" lon="13.076726453205023"><ele>379.6666666666667</ele><time>2026-03-29T11:02:41Z</time></trkpt><trkpt lat="41.926426879019445" lon="13.076544363876993"><ele>378.0</ele><time>2026-03-29T11:02:42Z</time></trkpt><trkpt lat="41.9263290115614" lon="13.07636670521589"><ele>378.0</ele><time>2026-03-29T11:02:43Z</time></trkpt><trkpt lat="41.926236935034" lon="13.07618733357957"><ele>378.0</ele><time>2026-03-29T11:02:44Z</time></trkpt><trkpt lat="41.92614532162403" lon="13.076016395006004"><ele>378.0</ele><time>2026-03-29T11:02:45Z</time></trkpt><trkpt lat="41.9260553005775" lon="13.075848485220963"><ele>377.75</ele><time>2026-03-29T11:02:46Z</time></trkpt><trkpt lat="41.925972088657254" lon="13.075680149289822"><ele>377.5</ele><time>2026-03-29T11:02:47Z</time></trkpt><trkpt lat="41.92590337620351" lon="13.0755080606656"><ele>377.25</ele><time>2026-03-29T11:02:48Z</time></trkpt><trkpt lat="41.92585369891383" lon="13.075329847061445"><ele>377.0</ele><time>2026-03-29T11:02:49Z</time></trkpt><trkpt lat="41.92583262020349" lon="13.075135723259681"><ele>377.0</ele><time>2026-03-29T11:02:50Z</time></trkpt><trkpt lat="41.92583810229504" lon="13.0749356301624"><ele>377.0</ele><time>2026-03-29T11:02:51Z</time></trkpt><trkpt lat="41.92587859215904" lon="13.074741858847938"><ele>377.0</ele><time>2026-03-29T11:02:52Z</time></trkpt><trkpt lat="41.925938486874465" lon="13.074564308667"><ele>377.0</ele><time>2026-03-29T11:02:53Z</time></trkpt><trkpt lat="41.92601530611345" lon="13.074394060483911"><ele>377.0</ele><time>2026-03-29T11:02:54Z</time></trkpt><trkpt lat="41.9260958213409" lon="13.074219350077827"><ele>377.0</ele><time>2026-03-29T11:02:55Z</time></trkpt><trkpt lat="41.92617589005382" lon="13.074049942559341"><ele>377.0</ele><time>2026-03-29T11:02:56Z</time></trkpt><trkpt lat="41.926255771194924" lon="13.073880306080124"><ele>376.0</ele><time>2026-03-29T11:02:57Z</time></trkpt><trkpt lat="41.9263330462232" lon="13.073709554555336"><ele>375.0</ele><time>2026-03-29T11:02:58Z</time></trkpt><trkpt lat="41.92641101017203" lon="13.073538618484774"><ele>374.0</ele><time>2026-03-29T11:02:59Z</time></trkpt><trkpt lat="41.92649014672966" lon="13.073367673172239"><ele>373.0</ele><time>2026-03-29T11:03:00Z</time></trkpt><trkpt lat="41.9265652699061" lon="13.073200124107746"><ele>373.25</ele><time>2026-03-29T11:03:01Z</time></trkpt><trkpt lat="41.926638513142336" lon="13.073034527460141"><ele>373.5</ele><time>2026-03-29T11:03:02Z</time></trkpt><trkpt lat="41.92671166595305" lon="13.072868098710009"><ele>373.75</ele><time>2026-03-29T11:03:03Z</time></trkpt><trkpt lat="41.92679002001199" lon="13.072702045436195"><ele>374.0</ele><time>2026-03-29T11:03:04Z</time></trkpt><trkpt lat="41.92687471606031" lon="13.072534287896028"><ele>371.0</ele><time>2026-03-29T11:03:05Z</time></trkpt><trkpt lat="41.92696991703186" lon="13.072372639410922"><ele>368.0</ele><time>2026-03-29T11:03:06Z</time></trkpt><trkpt lat="41.927078064222584" lon="13.072224368554936"><ele>365.0</ele><time>2026-03-29T11:03:07Z</time></trkpt><trkpt lat="41.9272032575818" lon="13.072105864726096"><ele>365.0</ele><time>2026-03-29T11:03:08Z</time></trkpt><trkpt lat="41.92733680035737" lon="13.072012769975949"><ele>365.0</ele><time>2026-03-29T11:03:09Z</time></trkpt><trkpt lat="41.927474401793646" lon="13.071943655048818"><ele>365.0</ele><time>2026-03-29T11:03:10Z</time></trkpt><trkpt lat="41.92761845395725" lon="13.071903804927"><ele>365.0</ele><time>2026-03-29T11:03:11Z</time></trkpt><trkpt lat="41.92776510953951" lon="13.07188766259071"><ele>363.33333333333337</ele><time>2026-03-29T11:03:12Z</time></trkpt><trkpt lat="41.92791731118015" lon="13.07190554189714"><ele>361.6666666666667</ele><time>2026-03-29T11:03:13Z</time></trkpt><trkpt lat="41.92807314318833" lon="13.071943915537288"><ele>360.0</ele><time>2026-03-29T11:03:14Z</time></trkpt><trkpt lat="41.92823072409953" lon="13.071993782176298"><ele>360.0</ele><time>2026-03-29T11:03:15Z</time></trkpt><trkpt lat="41.92838664620768" lon="13.072042503352705"><ele>360.0</ele><time>2026-03-29T11:03:16Z</time></trkpt><trkpt lat="41.92854517723261" lon="13.072086896077828"><ele>360.0</ele><time>2026-03-29T11:03:17Z</time></trkpt><trkpt lat="41.92870377766484" lon="13.072135928520863"><ele>359.6666666666667</ele><time>2026-03-29T11:03:18Z</time></trkpt><trkpt lat="41.92885924404455" lon="13.072186772194351"><ele>359.33333333333337</ele><time>2026-03-29T11:03:19Z</time></trkpt><trkpt lat="41.929016944507076" lon="13.07223480180043"><ele>359.0</ele><time>2026-03-29T11:03:20Z</time></trkpt><trkpt lat="41.929174610453856" lon="13.072283896144409"><ele>358.33333333333337</ele><time>2026-03-29T11:03:21Z</time></trkpt><trkpt lat="41.929337659192406" lon="13.072336713902436"><ele>357.6666666666667</ele><time>2026-03-29T11:03:22Z</time></trkpt><trkpt lat="41.92950284950287" lon="13.072387082873364"><ele>357.0</ele><time>2026-03-29T11:03:23Z</time></trkpt><trkpt lat="41.92966897488516" lon="13.072432123861377"><ele>358.3333333333333</ele><time>2026-03-29T11:03:24Z</time></trkpt><trkpt lat="41.92983278069384" lon="13.072475094868615"><ele>359.66666666666663</ele><time>2026-03-29T11:03:25Z</time></trkpt><trkpt lat="41.92999805811723" lon="13.072508982029266"><ele>361.0</ele><time>2026-03-29T11:03:26Z</time></trkpt><trkpt lat="41.93016598615743" lon="13.07252876912"><ele>361.0</ele><time>2026-03-29T11:03:27Z</time></trkpt><trkpt lat="41.9303369918644" lon="13.072532672275237"><ele>361.0</ele><time>2026-03-29T11:03:28Z</time></trkpt><trkpt lat="41.930510052964046" lon="13.07251050017119"><ele>361.0</ele><time>2026-03-29T11:03:29Z</time></trkpt><trkpt lat="41.93067893992088" lon="13.072472735488704"><ele>360.3333333333333</ele><time>2026-03-29T11:03:30Z</time></trkpt><trkpt lat="41.93084516922713" lon="13.072415562618128"><ele>359.6666666666667</ele><time>2026-03-29T11:03:31Z</time></trkpt><trkpt lat="41.93100755191473" lon="13.072347948400079"><ele>359.0</ele><time>2026-03-29T11:03:32Z</time></trkpt><trkpt lat="41.931168558936854" lon="13.072269812356737"><ele>359.0</ele><time>2026-03-29T11:03:33Z</time></trkpt><trkpt lat="41.93132818711804" lon="13.072191864394622"><ele>359.0</ele><time>2026-03-29T11:03:34Z</time></trkpt><trkpt lat="41.93148882061138" lon="13.07211886011508"><ele>359.0</ele><time>2026-03-29T11:03:35Z</time></trkpt><trkpt lat="41.93164936737445" lon="13.072047494726341"><ele>359.6666666666667</ele><time>2026-03-29T11:03:36Z</time></trkpt><trkpt lat="41.93180991208672" lon="13.071977996616015"><ele>360.3333333333333</ele><time>2026-03-29T11:03:37Z</time></trkpt><trkpt lat="41.93196877100582" lon="13.071909566715497"><ele>361.0</ele><time>2026-03-29T11:03:38Z</time></trkpt><trkpt lat="41.93212764059522" lon="13.071845306148195"><ele>361.0</ele><time>2026-03-29T11:03:39Z</time></trkpt><trkpt lat="41.93228627256726" lon="13.071788641836816"><ele>361.0</ele><time>2026-03-29T11:03:40Z</time></trkpt><trkpt lat="41.93244603486764" lon="13.071739406945847"><ele>361.0</ele><time>2026-03-29T11:03:41Z</time></trkpt><trkpt lat="41.93260808389808" lon="13.071691846805386"><ele>361.0</ele><time>2026-03-29T11:03:42Z</time></trkpt><trkpt lat="41.932768924636974" lon="13.07164543467904"><ele>361.0</ele><time>2026-03-29T11:03:43Z</time></trkpt><trkpt lat="41.93293051128855" lon="13.07160377185811"><ele>361.0</ele><time>2026-03-29T11:03:44Z</time></trkpt><trkpt lat="41.933097232996666" lon="13.071561123392781"><ele>359.3333333333333</ele><time>2026-03-29T11:03:45Z</time></trkpt><trkpt lat="41.933263207117456" lon="13.07151555675526"><ele>357.6666666666667</ele><time>2026-03-29T11:03:46Z</time></trkpt><trkpt lat="41.93342917252707" lon="13.071475350915737"><ele>356.0</ele><time>2026-03-29T11:03:47Z</time></trkpt><trkpt lat="41.93359460088191" lon="13.071441004319855"><ele>356.0</ele><time>2026-03-29T11:03:48Z</time></trkpt><trkpt lat="41.933759735737" lon="13.071406941034251"><ele>356.0</ele><time>2026-03-29T11:03:49Z</time></trkpt><trkpt lat="41.93392449253242" lon="13.071369392211201"><ele>356.0</ele><time>2026-03-29T11:03:50Z</time></trkpt><trkpt lat="41.934083992404254" lon="13.071308300141665"><ele>357.33333333333337</ele><time>2026-03-29T11:03:51Z</time></trkpt><trkpt lat="41.934238670014935" lon="13.071211941727165"><ele>358.6666666666667</ele><time>2026-03-29T11:03:52Z</time></trkpt><trkpt lat="41.93438216821502" lon="13.071082811691427"><ele>360.0</ele><time>2026-03-29T11:03:53Z</time></trkpt><trkpt lat="41.93451370413794" lon="13.0709327577604"><ele>358.6666666666667</ele><time>2026-03-29T11:03:54Z</time></trkpt><trkpt lat="41.93463997740618" lon="13.07076964714927"><ele>357.33333333333337</ele><time>2026-03-29T11:03:55Z</time></trkpt><trkpt lat="41.93476797869961" lon="13.07060581413376"><ele>356.0</ele><time>2026-03-29T11:03:56Z</time></trkpt><trkpt lat="41.93489433356756" lon="13.070438315681516"><ele>356.0</ele><time>2026-03-29T11:03:57Z</time></trkpt><trkpt lat="41.93502717015674" lon="13.070269759131534"><ele>356.0</ele><time>2026-03-29T11:03:58Z</time></trkpt><trkpt lat="41.93516137712195" lon="13.070097226284078"><ele>356.0</ele><time>2026-03-29T11:03:59Z</time></trkpt><trkpt lat="41.935295999971785" lon="13.06992332739727"><ele>357.0</ele><time>2026-03-29T11:04:00Z</time></trkpt><trkpt lat="41.935432895617424" lon="13.069749170039634"><ele>358.0</ele><time>2026-03-29T11:04:01Z</time></trkpt><trkpt lat="41.935574410607934" lon="13.069571051323926"><ele>359.0</ele><time>2026-03-29T11:04:02Z</time></trkpt><trkpt lat="41.93571775218736" lon="13.069384548864642"><ele>359.0</ele><time>2026-03-29T11:04:03Z</time></trkpt><trkpt lat="41.9358663097133" lon="13.069195550951742"><ele>359.0</ele><time>2026-03-29T11:04:04Z</time></trkpt><trkpt lat="41.936016967119464" lon="13.069006714870145"><ele>359.0</ele><time>2026-03-29T11:04:05Z</time></trkpt><trkpt lat="41.93617320192217" lon="13.068819891463257"><ele>359.6666666666667</ele><time>2026-03-29T11:04:06Z</time></trkpt><trkpt lat="41.93633498729456" lon="13.068636156085175"><ele>360.3333333333333</ele><time>2026-03-29T11:04:07Z</time></trkpt><trkpt lat="41.93650186836277" lon="13.068453312629147"><ele>361.0</ele><time>2026-03-29T11:04:08Z</time></trkpt><trkpt lat="41.93667707102046" lon="13.068270463645668"><ele>360.5</ele><time>2026-03-29T11:04:09Z</time></trkpt><trkpt lat="41.936862830211595" lon="13.068088848562923"><ele>360.0</ele><time>2026-03-29T11:04:10Z</time></trkpt><trkpt lat="41.93706076796319" lon="13.067906575732344"><ele>360.0</ele><time>2026-03-29T11:04:11Z</time></trkpt><trkpt lat="41.937252652462895" lon="13.067726693493087"><ele>360.0</ele><time>2026-03-29T11:04:12Z</time></trkpt><trkpt lat="41.93743052095215" lon="13.067566468135206"><ele>360.0</ele><time>2026-03-29T11:04:13Z</time></trkpt><trkpt lat="41.937604278794716" lon="13.067413591755086"><ele>359.0</ele><time>2026-03-29T11:04:14Z</time></trkpt><trkpt lat="41.93777315168097" lon="13.067255567391241"><ele>358.0</ele><time>2026-03-29T11:04:15Z</time></trkpt><trkpt lat="41.93793266186184" lon="13.067094565040437"><ele>357.0</ele><time>2026-03-29T11:04:16Z</time></trkpt><trkpt lat="41.93808831066169" lon="13.06692231233077"><ele>357.0</ele><time>2026-03-29T11:04:17Z</time></trkpt><trkpt lat="41.938232587439614" lon="13.066751668972639"><ele>357.0</ele><time>2026-03-29T11:04:18Z</time></trkpt><trkpt lat="41.93837148729613" lon="13.066596489323475"><ele>357.0</ele><time>2026-03-29T11:04:19Z</time></trkpt><trkpt lat="41.938518950921264" lon="13.066439752809721"><ele>355.6666666666667</ele><time>2026-03-29T11:04:20Z</time></trkpt><trkpt lat="41.93868227842444" lon="13.066289809195323"><ele>354.33333333333337</ele><time>2026-03-29T11:04:21Z</time></trkpt><trkpt lat="41.938853802566435" lon="13.066158739945436"><ele>353.0</ele><time>2026-03-29T11:04:22Z</time></trkpt><trkpt lat="41.9390360034615" lon="13.066036647146674"><ele>353.33333333333337</ele><time>2026-03-29T11:04:23Z</time></trkpt><trkpt lat="41.93922601084536" lon="13.065918243053572"><ele>353.6666666666667</ele><time>2026-03-29T11:04:24Z</time></trkpt><trkpt lat="41.93942110022892" lon="13.065802498415326"><ele>354.0</ele><time>2026-03-29T11:04:25Z</time></trkpt><trkpt lat="41.9396194850225" lon="13.065686477559886"><ele>353.6666666666667</ele><time>2026-03-29T11:04:26Z</time></trkpt><trkpt lat="41.939822722277945" lon="13.065565085257163"><ele>353.33333333333337</ele><time>2026-03-29T11:04:27Z</time></trkpt><trkpt lat="41.94003103237229" lon="13.06544618953663"><ele>353.0</ele><time>2026-03-29T11:04:28Z</time></trkpt><trkpt lat="41.94024117144756" lon="13.065324295207649"><ele>353.0</ele><time>2026-03-29T11:04:29Z</time></trkpt><trkpt lat="41.940452576120215" lon="13.065198084494765"><ele>353.0</ele><time>2026-03-29T11:04:30Z</time></trkpt><trkpt lat="41.94066564395788" lon="13.065074015914984"><ele>353.0</ele><time>2026-03-29T11:04:31Z</time></trkpt><trkpt lat="41.94087963255649" lon="13.0649495810408"><ele>353.0</ele><time>2026-03-29T11:04:32Z</time></trkpt><trkpt lat="41.94109113439232" lon="13.0648250282136"><ele>352.33333333333337</ele><time>2026-03-29T11:04:33Z</time></trkpt><trkpt lat="41.94129586042617" lon="13.06469821072621"><ele>351.6666666666667</ele><time>2026-03-29T11:04:34Z</time></trkpt><trkpt lat="41.94149912627355" lon="13.064576610074782"><ele>351.0</ele><time>2026-03-29T11:04:35Z</time></trkpt><trkpt lat="41.941697948876524" lon="13.064468867460965"><ele>354.0</ele><time>2026-03-29T11:04:36Z</time></trkpt><trkpt lat="41.94189150870645" lon="13.064372673876305"><ele>357.0</ele><time>2026-03-29T11:04:37Z</time></trkpt><trkpt lat="41.94208138490146" lon="13.064287195798157"><ele>360.0</ele><time>2026-03-29T11:04:38Z</time></trkpt><trkpt lat="41.94226774822746" lon="13.064215603421458"><ele>360.0</ele><time>2026-03-29T11:04:39Z</time></trkpt><trkpt lat="41.942456583558815" lon="13.064135743031564"><ele>360.0</ele><time>2026-03-29T11:04:40Z</time></trkpt><trkpt lat="41.9426301133201" lon="13.064052460561015"><ele>360.0</ele><time>2026-03-29T11:04:41Z</time></trkpt><trkpt lat="41.94280476599889" lon="13.063959856945182"><ele>357.6666666666667</ele><time>2026-03-29T11:04:42Z</time></trkpt><trkpt lat="41.9429747122912" lon="13.063855139962643"><ele>355.33333333333337</ele><time>2026-03-29T11:04:43Z</time></trkpt><trkpt lat="41.94314196767951" lon="13.063740015824948"><ele>353.0</ele><time>2026-03-29T11:04:44Z</time></trkpt><trkpt lat="41.94330960217203" lon="13.063609253277843"><ele>352.6666666666667</ele><time>2026-03-29T11:04:45Z</time></trkpt><trkpt lat="41.94346238939611" lon="13.063473676792208"><ele>352.3333333333333</ele><time>2026-03-29T11:04:46Z</time></trkpt><trkpt lat="41.94360480319119" lon="13.063345293169341"><ele>352.0</ele><time>2026-03-29T11:04:47Z</time></trkpt><trkpt lat="41.943748151009906" lon="13.063210620114562"><ele>352.0</ele><time>2026-03-29T11:04:48Z</time></trkpt><trkpt lat="41.94388337462638" lon="13.063064634765198"><ele>352.0</ele><time>2026-03-29T11:04:49Z</time></trkpt><trkpt lat="41.94401318048989" lon="13.062921572310113"><ele>352.0</ele><time>2026-03-29T11:04:50Z</time></trkpt><trkpt lat="41.94414004867039" lon="13.062785168000593"><ele>351.5</ele><time>2026-03-29T11:04:51Z</time></trkpt><trkpt lat="41.94425870446163" lon="13.062658736962112"><ele>351.0</ele><time>2026-03-29T11:04:52Z</time></trkpt><trkpt lat="41.94437113827465" lon="13.062540809409821"><ele>350.5</ele><time>2026-03-29T11:04:53Z</time></trkpt><trkpt lat="41.94448576229961" lon="13.062439527046786"><ele>350.0</ele><time>2026-03-29T11:04:54Z</time></trkpt><trkpt lat="41.944621679729266" lon="13.06235742043839"><ele>350.0</ele><time>2026-03-29T11:04:55Z</time></trkpt><trkpt lat="41.944775459498146" lon="13.062307645824841"><ele>350.0</ele><time>2026-03-29T11:04:56Z</time></trkpt><trkpt lat="41.94494124784202" lon="13.062282613111453"><ele>350.0</ele><time>2026-03-29T11:04:57Z</time></trkpt><trkpt lat="41.94511729506249" lon="13.062272482961388"><ele>350.0</ele><time>2026-03-29T11:04:58Z</time></trkpt><trkpt lat="41.94530502007079" lon="13.062268720217487"><ele>350.0</ele><time>2026-03-29T11:04:59Z</time></trkpt><trkpt lat="41.945500955039705" lon="13.062258346753547"><ele>350.0</ele><time>2026-03-29T11:05:00Z</time></trkpt><trkpt lat="41.945693366510184" lon="13.062239711335502"><ele>350.0</ele><time>2026-03-29T11:05:01Z</time></trkpt><trkpt lat="41.945872365221945" lon="13.062222308256272"><ele>350.0</ele><time>2026-03-29T11:05:02Z</time></trkpt><trkpt lat="41.94604079583452" lon="13.062208209299996"><ele>350.0</ele><time>2026-03-29T11:05:03Z</time></trkpt><trkpt lat="41.946209495808695" lon="13.06217375283618"><ele>350.33333333333337</ele><time>2026-03-29T11:05:04Z</time></trkpt><trkpt lat="41.94636648596591" lon="13.062091282661939"><ele>350.6666666666667</ele><time>2026-03-29T11:05:05Z</time></trkpt><trkpt lat="41.9465122317511" lon="13.061975832262744"><ele>351.0</ele><time>2026-03-29T11:05:06Z</time></trkpt><trkpt lat="41.94663949948816" lon="13.061837938093467"><ele>351.0</ele><time>2026-03-29T11:05:07Z</time></trkpt><trkpt lat="41.946748631224075" lon="13.061668742489395"><ele>351.0</ele><time>2026-03-29T11:05:08Z</time></trkpt><trkpt lat="41.94683514605024" lon="13.061467817138185"><ele>351.0</ele><time>2026-03-29T11:05:09Z</time></trkpt><trkpt lat="41.946906914320856" lon="13.061250305411715"><ele>351.0</ele><time>2026-03-29T11:05:10Z</time></trkpt><trkpt lat="41.94699275162717" lon="13.0610360919933"><ele>351.0</ele><time>2026-03-29T11:05:11Z</time></trkpt><trkpt lat="41.94709063122768" lon="13.060826770245244"><ele>351.0</ele><time>2026-03-29T11:05:12Z</time></trkpt><trkpt lat="41.94719611449717" lon="13.060621954362736"><ele>351.0</ele><time>2026-03-29T11:05:13Z</time></trkpt><trkpt lat="41.94731259080453" lon="13.060432561746186"><ele>351.0</ele><time>2026-03-29T11:05:14Z</time></trkpt><trkpt lat="41.94744185759543" lon="13.060275437246776"><ele>351.0</ele><time>2026-03-29T11:05:15Z</time></trkpt><trkpt lat="41.94756961857383" lon="13.060136314935862"><ele>351.0</ele><time>2026-03-29T11:05:16Z</time></trkpt><trkpt lat="41.947686994927146" lon="13.06001238095647"><ele>351.0</ele><time>2026-03-29T11:05:17Z</time></trkpt><trkpt lat="41.94780243962278" lon="13.059886286650787"><ele>351.0</ele><time>2026-03-29T11:05:18Z</time></trkpt><trkpt lat="41.947922941131665" lon="13.05975653646359"><ele>349.6666666666667</ele><time>2026-03-29T11:05:19Z</time></trkpt><trkpt lat="41.94804963925404" lon="13.059626979116125"><ele>348.33333333333337</ele><time>2026-03-29T11:05:20Z</time></trkpt><trkpt lat="41.94817491241917" lon="13.05949405815179"><ele>347.0</ele><time>2026-03-29T11:05:21Z</time></trkpt><trkpt lat="41.94829982102262" lon="13.059367604445304"><ele>347.33333333333337</ele><time>2026-03-29T11:05:22Z</time></trkpt><trkpt lat="41.94842939616842" lon="13.059250465980156"><ele>347.6666666666667</ele><time>2026-03-29T11:05:23Z</time></trkpt><trkpt lat="41.94857240073348" lon="13.059139095684863"><ele>348.0</ele><time>2026-03-29T11:05:24Z</time></trkpt><trkpt lat="41.9487244987439" lon="13.059025727455616"><ele>348.0</ele><time>2026-03-29T11:05:25Z</time></trkpt><trkpt lat="41.94888335587321" lon="13.058905141025225"><ele>348.0</ele><time>2026-03-29T11:05:26Z</time></trkpt><trkpt lat="41.949047419554795" lon="13.058774525138471"><ele>348.0</ele><time>2026-03-29T11:05:27Z</time></trkpt><trkpt lat="41.94921939627166" lon="13.058629993671326"><ele>348.0</ele><time>2026-03-29T11:05:28Z</time></trkpt><trkpt lat="41.94940219031391" lon="13.058469834454593"><ele>348.0</ele><time>2026-03-29T11:05:29Z</time></trkpt><trkpt lat="41.94958458789987" lon="13.058295452654836"><ele>348.0</ele><time>2026-03-29T11:05:30Z</time></trkpt><trkpt lat="41.94976497552339" lon="13.058106984804336"><ele>348.5</ele><time>2026-03-29T11:05:31Z</time></trkpt><trkpt lat="41.94994710316986" lon="13.057913379292335"><ele>349.0</ele><time>2026-03-29T11:05:32Z</time></trkpt><trkpt lat="41.950133939696265" lon="13.057722853407752"><ele>349.0</ele><time>2026-03-29T11:05:33Z</time></trkpt><trkpt lat="41.95032217961698" lon="13.057529948735938"><ele>349.0</ele><time>2026-03-29T11:05:34Z</time></trkpt><trkpt lat="41.95050371533749" lon="13.057336368565188"><ele>347.5</ele><time>2026-03-29T11:05:35Z</time></trkpt><trkpt lat="41.95067967325086" lon="13.05714303870866"><ele>346.0</ele><time>2026-03-29T11:05:36Z</time></trkpt><trkpt lat="41.950851024336366" lon="13.056942992517806"><ele>346.0</ele><time>2026-03-29T11:05:37Z</time></trkpt><trkpt lat="41.95101623668807" lon="13.056737989529383"><ele>346.0</ele><time>2026-03-29T11:05:38Z</time></trkpt><trkpt lat="41.95117577673203" lon="13.056527857681196"><ele>346.0</ele><time>2026-03-29T11:05:39Z</time></trkpt><trkpt lat="41.95133116564552" lon="13.056317182100306"><ele>346.0</ele><time>2026-03-29T11:05:40Z</time></trkpt><trkpt lat="41.951485262740945" lon="13.056108408404068"><ele>346.0</ele><time>2026-03-29T11:05:41Z</time></trkpt><trkpt lat="41.95163454137735" lon="13.055906248234203"><ele>346.0</ele><time>2026-03-29T11:05:42Z</time></trkpt><trkpt lat="41.951779634903104" lon="13.055707942542188"><ele>346.0</ele><time>2026-03-29T11:05:43Z</time></trkpt><trkpt lat="41.95192186887286" lon="13.055516240734926"><ele>346.0</ele><time>2026-03-29T11:05:44Z</time></trkpt><trkpt lat="41.952063287780916" lon="13.055324851040988"><ele>346.0</ele><time>2026-03-29T11:05:45Z</time></trkpt><trkpt lat="41.95220291770256" lon="13.055137206868013"><ele>345.66666666666663</ele><time>2026-03-29T11:05:46Z</time></trkpt><trkpt lat="41.952347219520675" lon="13.054953423026257"><ele>345.3333333333333</ele><time>2026-03-29T11:05:47Z</time></trkpt><trkpt lat="41.95249818073404" lon="13.054782805523601"><ele>345.0</ele><time>2026-03-29T11:05:48Z</time></trkpt><trkpt lat="41.95265276754285" lon="13.054618288211394"><ele>345.0</ele><time>2026-03-29T11:05:49Z</time></trkpt><trkpt lat="41.95281170314739" lon="13.054464886777874"><ele>345.0</ele><time>2026-03-29T11:05:50Z</time></trkpt><trkpt lat="41.9529722062903" lon="13.054321954849868"><ele>345.0</ele><time>2026-03-29T11:05:51Z</time></trkpt><trkpt lat="41.95313538064818" lon="13.054190588035514"><ele>344.6666666666667</ele><time>2026-03-29T11:05:52Z</time></trkpt><trkpt lat="41.953293858686536" lon="13.054072590420237"><ele>344.33333333333337</ele><time>2026-03-29T11:05:53Z</time></trkpt><trkpt lat="41.95344742522" lon="13.053966649166343"><ele>344.0</ele><time>2026-03-29T11:05:54Z</time></trkpt><trkpt lat="41.95360120056785" lon="13.053871784309363"><ele>345.33333333333337</ele><time>2026-03-29T11:05:55Z</time></trkpt><trkpt lat="41.95375354886041" lon="13.053791000995087"><ele>346.6666666666667</ele><time>2026-03-29T11:05:56Z</time></trkpt><trkpt lat="41.953900952903815" lon="13.053720610245866"><ele>348.0</ele><time>2026-03-29T11:05:57Z</time></trkpt><trkpt lat="41.954053290856635" lon="13.053658194257695"><ele>348.0</ele><time>2026-03-29T11:05:58Z</time></trkpt><trkpt lat="41.95420700731594" lon="13.053604392793188"><ele>348.0</ele><time>2026-03-29T11:05:59Z</time></trkpt><trkpt lat="41.95436084974509" lon="13.053555450566616"><ele>348.0</ele><time>2026-03-29T11:06:00Z</time></trkpt><trkpt lat="41.95451363367055" lon="13.053516172691884"><ele>348.0</ele><time>2026-03-29T11:06:01Z</time></trkpt><trkpt lat="41.954664895094815" lon="13.053481317220202"><ele>348.0</ele><time>2026-03-29T11:06:02Z</time></trkpt><trkpt lat="41.954812195584395" lon="13.05344195652529"><ele>348.0</ele><time>2026-03-29T11:06:03Z</time></trkpt><trkpt lat="41.95495368453297" lon="13.053380755389444"><ele>347.3333333333333</ele><time>2026-03-29T11:06:04Z</time></trkpt><trkpt lat="41.955089168432394" lon="13.053303093524644"><ele>346.66666666666663</ele><time>2026-03-29T11:06:05Z</time></trkpt><trkpt lat="41.95522235570528" lon="13.05320803961665"><ele>346.0</ele><time>2026-03-29T11:06:06Z</time></trkpt><trkpt lat="41.95535229639573" lon="13.0531027162802"><ele>345.5</ele><time>2026-03-29T11:06:07Z</time></trkpt><trkpt lat="41.955482645247194" lon="13.052994844203047"><ele>345.0</ele><time>2026-03-29T11:06:08Z</time></trkpt><trkpt lat="41.95560546138498" lon="13.052884936561993"><ele>344.5</ele><time>2026-03-29T11:06:09Z</time></trkpt><trkpt lat="41.955729074072465" lon="13.052780059176072"><ele>344.0</ele><time>2026-03-29T11:06:10Z</time></trkpt><trkpt lat="41.95584890493092" lon="13.052683473972547"><ele>344.0</ele><time>2026-03-29T11:06:11Z</time></trkpt><trkpt lat="41.95597535676364" lon="13.052597567654031"><ele>344.0</ele><time>2026-03-29T11:06:12Z</time></trkpt><trkpt lat="41.95610876576722" lon="13.052520182272774"><ele>344.0</ele><time>2026-03-29T11:06:13Z</time></trkpt><trkpt lat="41.95625083695053" lon="13.052446084096896"><ele>344.0</ele><time>2026-03-29T11:06:14Z</time></trkpt><trkpt lat="41.95639953835498" lon="13.052370592631746"><ele>343.75</ele><time>2026-03-29T11:06:15Z</time></trkpt><trkpt lat="41.956545851580955" lon="13.052293583898965"><ele>343.5</ele><time>2026-03-29T11:06:16Z</time></trkpt><trkpt lat="41.95667882337033" lon="13.052220675026676"><ele>343.25</ele><time>2026-03-29T11:06:17Z</time></trkpt><trkpt lat="41.95680203883042" lon="13.052156704191988"><ele>343.0</ele><time>2026-03-29T11:06:18Z</time></trkpt><trkpt lat="41.956914955306765" lon="13.052098538265124"><ele>343.0</ele><time>2026-03-29T11:06:19Z</time></trkpt><trkpt lat="41.957024889310574" lon="13.05203948823609"><ele>343.0</ele><time>2026-03-29T11:06:20Z</time></trkpt><trkpt lat="41.95713277121245" lon="13.051975366746206"><ele>343.0</ele><time>2026-03-29T11:06:21Z</time></trkpt><trkpt lat="41.95724050170453" lon="13.051910647439765"><ele>343.0</ele><time>2026-03-29T11:06:22Z</time></trkpt><trkpt lat="41.95734375422678" lon="13.05186340298933"><ele>343.0</ele><time>2026-03-29T11:06:23Z</time></trkpt><trkpt lat="41.95746682283378" lon="13.051808886431342"><ele>343.0</ele><time>2026-03-29T11:06:24Z</time></trkpt><trkpt lat="41.95759169383638" lon="13.051741475521144"><ele>343.0</ele><time>2026-03-29T11:06:25Z</time></trkpt><trkpt lat="41.957718409416586" lon="13.051665328551547"><ele>343.0</ele><time>2026-03-29T11:06:26Z</time></trkpt><trkpt lat="41.95784483041909" lon="13.051580829820761"><ele>343.25</ele><time>2026-03-29T11:06:27Z</time></trkpt><trkpt lat="41.957967331419134" lon="13.051481637598119"><ele>343.5</ele><time>2026-03-29T11:06:28Z</time></trkpt><trkpt lat="41.95808733104326" lon="13.051367217951737"><ele>343.75</ele><time>2026-03-29T11:06:29Z</time></trkpt><trkpt lat="41.95820418912755" lon="13.05124046339697"><ele>344.0</ele><time>2026-03-29T11:06:30Z</time></trkpt><trkpt lat="41.95831185647219" lon="13.051092440231313"><ele>346.6666666666667</ele><time>2026-03-29T11:06:31Z</time></trkpt><trkpt lat="41.95841459795393" lon="13.050934356638367"><ele>349.3333333333333</ele><time>2026-03-29T11:06:32Z</time></trkpt><trkpt lat="41.95851226664605" lon="13.050762468314147"><ele>352.0</ele><time>2026-03-29T11:06:33Z</time></trkpt><trkpt lat="41.95860302653044" lon="13.050576329488424"><ele>352.0</ele><time>2026-03-29T11:06:34Z</time></trkpt><trkpt lat="41.95869046042557" lon="13.050383030488321"><ele>352.0</ele><time>2026-03-29T11:06:35Z</time></trkpt><trkpt lat="41.95878075064485" lon="13.050188245897717"><ele>352.0</ele><time>2026-03-29T11:06:36Z</time></trkpt><trkpt lat="41.95887449916931" lon="13.049996671956647"><ele>351.0</ele><time>2026-03-29T11:06:37Z</time></trkpt><trkpt lat="41.95897292596511" lon="13.049807652679323"><ele>350.0</ele><time>2026-03-29T11:06:38Z</time></trkpt><trkpt lat="41.95907932029671" lon="13.04962481110814"><ele>349.0</ele><time>2026-03-29T11:06:39Z</time></trkpt><trkpt lat="41.95919474148909" lon="13.049451647191807"><ele>350.0</ele><time>2026-03-29T11:06:40Z</time></trkpt><trkpt lat="41.95931959013824" lon="13.049284982641947"><ele>351.0</ele><time>2026-03-29T11:06:41Z</time></trkpt><trkpt lat="41.959450232097005" lon="13.04913105607788"><ele>352.0</ele><time>2026-03-29T11:06:42Z</time></trkpt><trkpt lat="41.959584742523596" lon="13.048985377332967"><ele>352.0</ele><time>2026-03-29T11:06:43Z</time></trkpt><trkpt lat="41.959722972224455" lon="13.048848816376676"><ele>352.0</ele><time>2026-03-29T11:06:44Z</time></trkpt><trkpt lat="41.95985887559131" lon="13.048715428603353"><ele>352.0</ele><time>2026-03-29T11:06:45Z</time></trkpt><trkpt lat="41.95999594851816" lon="13.048586210033866"><ele>352.3333333333333</ele><time>2026-03-29T11:06:46Z</time></trkpt><trkpt lat="41.96013206447406" lon="13.048477768704208"><ele>352.6666666666667</ele><time>2026-03-29T11:06:47Z</time></trkpt><trkpt lat="41.960285848873916" lon="13.048384934998408"><ele>353.0</ele><time>2026-03-29T11:06:48Z</time></trkpt><trkpt lat="41.96045219600394" lon="13.048299032287355"><ele>353.33333333333337</ele><time>2026-03-29T11:06:49Z</time></trkpt><trkpt lat="41.96062825517079" lon="13.048207564319966"><ele>353.6666666666667</ele><time>2026-03-29T11:06:50Z</time></trkpt><trkpt lat="41.96080838134386" lon="13.048109220618002"><ele>354.0</ele><time>2026-03-29T11:06:51Z</time></trkpt><trkpt lat="41.960990843408204" lon="13.048008406826549"><ele>351.0</ele><time>2026-03-29T11:06:52Z</time></trkpt><trkpt lat="41.9611761002762" lon="13.047907744945611"><ele>348.0</ele><time>2026-03-29T11:06:53Z</time></trkpt><trkpt lat="41.961359815998925" lon="13.047807984445116"><ele>345.0</ele><time>2026-03-29T11:06:54Z</time></trkpt><trkpt lat="41.96153758255615" lon="13.04770798000961"><ele>345.3333333333333</ele><time>2026-03-29T11:06:55Z</time></trkpt><trkpt lat="41.96171473749077" lon="13.047609666982806"><ele>345.66666666666663</ele><time>2026-03-29T11:06:56Z</time></trkpt><trkpt lat="41.961896859924856" lon="13.047511441027575"><ele>346.0</ele><time>2026-03-29T11:06:57Z</time></trkpt><trkpt lat="41.96207963714581" lon="13.047412930091314"><ele>344.3333333333333</ele><time>2026-03-29T11:06:58Z</time></trkpt><trkpt lat="41.9622662813818" lon="13.047310587891984"><ele>342.6666666666667</ele><time>2026-03-29T11:06:59Z</time></trkpt><trkpt lat="41.96245321886357" lon="13.047213186688126"><ele>341.0</ele><time>2026-03-29T11:07:00Z</time></trkpt><trkpt lat="41.9626422882863" lon="13.047118592308971"><ele>341.0</ele><time>2026-03-29T11:07:01Z</time></trkpt><trkpt lat="41.96282546781179" lon="13.047020832493734"><ele>341.0</ele><time>2026-03-29T11:07:02Z</time></trkpt><trkpt lat="41.963010317585955" lon="13.046923320024488"><ele>341.0</ele><time>2026-03-29T11:07:03Z</time></trkpt><trkpt lat="41.96319382052273" lon="13.046825921283927"><ele>341.0</ele><time>2026-03-29T11:07:04Z</time></trkpt><trkpt lat="41.96337777623298" lon="13.046727988063239"><ele>341.0</ele><time>2026-03-29T11:07:05Z</time></trkpt><trkpt lat="41.963567328065" lon="13.046631673541283"><ele>341.0</ele><time>2026-03-29T11:07:06Z</time></trkpt><trkpt lat="41.96375808304454" lon="13.04653499591437"><ele>341.0</ele><time>2026-03-29T11:07:07Z</time></trkpt><trkpt lat="41.963939946910635" lon="13.04642139043864"><ele>341.0</ele><time>2026-03-29T11:07:08Z</time></trkpt><trkpt lat="41.96411185049592" lon="13.046283460066736"><ele>341.0</ele><time>2026-03-29T11:07:09Z</time></trkpt><trkpt lat="41.96426804904283" lon="13.046122693029623"><ele>343.33333333333337</ele><time>2026-03-29T11:07:10Z</time></trkpt><trkpt lat="41.96441416217954" lon="13.045945213630484"><ele>345.6666666666667</ele><time>2026-03-29T11:07:11Z</time></trkpt><trkpt lat="41.96455086826177" lon="13.045754899185848"><ele>348.0</ele><time>2026-03-29T11:07:12Z</time></trkpt><trkpt lat="41.96466998195641" lon="13.045541499135302"><ele>347.3333333333333</ele><time>2026-03-29T11:07:13Z</time></trkpt><trkpt lat="41.96477634353768" lon="13.045313394576736"><ele>346.66666666666663</ele><time>2026-03-29T11:07:14Z</time></trkpt><trkpt lat="41.964862411693865" lon="13.045073920414936"><ele>346.0</ele><time>2026-03-29T11:07:15Z</time></trkpt><trkpt lat="41.96493754876657" lon="13.044832594336501"><ele>346.0</ele><time>2026-03-29T11:07:16Z</time></trkpt><trkpt lat="41.96500442539983" lon="13.044578259914319"><ele>346.0</ele><time>2026-03-29T11:07:17Z</time></trkpt><trkpt lat="41.96506213935642" lon="13.044313059590454"><ele>346.0</ele><time>2026-03-29T11:07:18Z</time></trkpt><trkpt lat="41.965134843642545" lon="13.044050167605553"><ele>348.0</ele><time>2026-03-29T11:07:19Z</time></trkpt><trkpt lat="41.965201791249264" lon="13.043773077297796"><ele>350.0</ele><time>2026-03-29T11:07:20Z</time></trkpt><trkpt lat="41.96528750543426" lon="13.043483513355255"><ele>352.0</ele><time>2026-03-29T11:07:21Z</time></trkpt><trkpt lat="41.96542371372728" lon="13.043242237818689"><ele>345.0</ele><time>2026-03-29T11:07:22Z</time></trkpt><trkpt lat="41.96558011901763" lon="13.04304273015384"><ele>338.0</ele><time>2026-03-29T11:07:23Z</time></trkpt><trkpt lat="41.96577265441056" lon="13.0428584059685"><ele>338.5</ele><time>2026-03-29T11:07:24Z</time></trkpt><trkpt lat="41.96600457635749" lon="13.042681934445792"><ele>339.0</ele><time>2026-03-29T11:07:25Z</time></trkpt><trkpt lat="41.96625758501317" lon="13.04249173279815"><ele>337.5</ele><time>2026-03-29T11:07:26Z</time></trkpt><trkpt lat="41.96651147828442" lon="13.042290330064537"><ele>336.0</ele><time>2026-03-29T11:07:27Z</time></trkpt><trkpt lat="41.966776142705946" lon="13.042068998517149"><ele>336.0</ele><time>2026-03-29T11:07:28Z</time></trkpt><trkpt lat="41.96703963955056" lon="13.041854226226285"><ele>336.0</ele><time>2026-03-29T11:07:29Z</time></trkpt><trkpt lat="41.9672993001911" lon="13.041642509492242"><ele>336.5</ele><time>2026-03-29T11:07:30Z</time></trkpt><trkpt lat="41.96757071187092" lon="13.041423925707212"><ele>337.0</ele><time>2026-03-29T11:07:31Z</time></trkpt><trkpt lat="41.96785165985145" lon="13.041194225431852"><ele>337.0</ele><time>2026-03-29T11:07:32Z</time></trkpt><trkpt lat="41.968140903636204" lon="13.040967611529895"><ele>337.0</ele><time>2026-03-29T11:07:33Z</time></trkpt><trkpt lat="41.96841440008979" lon="13.04076103244545"><ele>338.5</ele><time>2026-03-29T11:07:34Z</time></trkpt><trkpt lat="41.96866054590445" lon="13.0405784003593"><ele>340.0</ele><time>2026-03-29T11:07:35Z</time></trkpt><trkpt lat="41.96889647587705" lon="13.040432990439333"><ele>340.0</ele><time>2026-03-29T11:07:36Z</time></trkpt><trkpt lat="41.96911162320471" lon="13.040290871075166"><ele>340.0</ele><time>2026-03-29T11:07:37Z</time></trkpt><trkpt lat="41.96927056716738" lon="13.040137944687809"><ele>340.0</ele><time>2026-03-29T11:07:38Z</time></trkpt><trkpt lat="41.96943488863672" lon="13.039914130333697"><ele>342.0</ele><time>2026-03-29T11:07:39Z</time></trkpt><trkpt lat="41.96959136778503" lon="13.03964093437029"><ele>344.0</ele><time>2026-03-29T11:07:40Z</time></trkpt><trkpt lat="41.96974118238185" lon="13.039371988315812"><ele>343.5</ele><time>2026-03-29T11:07:41Z</time></trkpt><trkpt lat="41.9698955851792" lon="13.039114636832958"><ele>343.0</ele><time>2026-03-29T11:07:42Z</time></trkpt><trkpt lat="41.97006031208373" lon="13.038871132966994"><ele>343.0</ele><time>2026-03-29T11:07:43Z</time></trkpt><trkpt lat="41.97022426084102" lon="13.038681115419218"><ele>343.0</ele><time>2026-03-29T11:07:44Z</time></trkpt><trkpt lat="41.970394065074686" lon="13.038530117734066"><ele>343.0</ele><time>2026-03-29T11:07:45Z</time></trkpt><trkpt lat="41.97058215186781" lon="13.038400486245669"><ele>343.0</ele><time>2026-03-29T11:07:46Z</time></trkpt><trkpt lat="41.97078519453317" lon="13.038305268813287"><ele>343.0</ele><time>2026-03-29T11:07:47Z</time></trkpt><trkpt lat="41.97100706282852" lon="13.0382386870415"><ele>343.0</ele><time>2026-03-29T11:07:48Z</time></trkpt><trkpt lat="41.97124604838751" lon="13.038208375425388"><ele>341.5</ele><time>2026-03-29T11:07:49Z</time></trkpt><trkpt lat="41.971512044980045" lon="13.038202948302105"><ele>340.0</ele><time>2026-03-29T11:07:50Z</time></trkpt><trkpt lat="41.971803960925804" lon="13.038175329264233"><ele>339.0</ele><time>2026-03-29T11:07:51Z</time></trkpt><trkpt lat="41.97210636905817" lon="13.038175390766451"><ele>338.0</ele><time>2026-03-29T11:07:52Z</time></trkpt><trkpt lat="41.97240374414577" lon="13.038171510990836"><ele>336.5</ele><time>2026-03-29T11:07:53Z</time></trkpt><trkpt lat="41.97268765397104" lon="13.0381715901233"><ele>335.0</ele><time>2026-03-29T11:07:54Z</time></trkpt><trkpt lat="41.97294860964059" lon="13.038174319028673"><ele>335.0</ele><time>2026-03-29T11:07:55Z</time></trkpt><trkpt lat="41.973202552359304" lon="13.038170873298672"><ele>335.0</ele><time>2026-03-29T11:07:56Z</time></trkpt><trkpt lat="41.973453698214165" lon="13.038163731336974"><ele>336.0</ele><time>2026-03-29T11:07:57Z</time></trkpt><trkpt lat="41.97369875410336" lon="13.03812598666929"><ele>337.0</ele><time>2026-03-29T11:07:58Z</time></trkpt><trkpt lat="41.97393942443772" lon="13.038056050710791"><ele>337.0</ele><time>2026-03-29T11:07:59Z</time></trkpt><trkpt lat="41.97418021690344" lon="13.037942607304975"><ele>337.0</ele><time>2026-03-29T11:08:00Z</time></trkpt><trkpt lat="41.974423730988136" lon="13.037776128983788"><ele>336.5</ele><time>2026-03-29T11:08:01Z</time></trkpt><trkpt lat="41.97465690197196" lon="13.037590416833426"><ele>336.0</ele><time>2026-03-29T11:08:02Z</time></trkpt><trkpt lat="41.974868286806114" lon="13.037371843122308"><ele>340.5</ele><time>2026-03-29T11:08:03Z</time></trkpt><trkpt lat="41.975089378578126" lon="13.037144641058935"><ele>345.0</ele><time>2026-03-29T11:08:04Z</time></trkpt><trkpt lat="41.97532093914545" lon="13.036920105351877"><ele>345.0</ele><time>2026-03-29T11:08:05Z</time></trkpt><trkpt lat="41.97553153432364" lon="13.036723450641107"><ele>345.0</ele><time>2026-03-29T11:08:06Z</time></trkpt><trkpt lat="41.9757303761046" lon="13.036543983777731"><ele>343.0</ele><time>2026-03-29T11:08:07Z</time></trkpt><trkpt lat="41.97593048366059" lon="13.036357845605778"><ele>341.0</ele><time>2026-03-29T11:08:08Z</time></trkpt><trkpt lat="41.976134486346545" lon="13.036169120602732"><ele>341.0</ele><time>2026-03-29T11:08:09Z</time></trkpt><trkpt lat="41.97633010800557" lon="13.035974084397523"><ele>341.0</ele><time>2026-03-29T11:08:10Z</time></trkpt><trkpt lat="41.97652944920848" lon="13.035786547902397"><ele>339.33333333333337</ele><time>2026-03-29T11:08:11Z</time></trkpt><trkpt lat="41.97672085696343" lon="13.035627007560143"><ele>337.6666666666667</ele><time>2026-03-29T11:08:12Z</time></trkpt><trkpt lat="41.9768909104003" lon="13.035484414954071"><ele>336.0</ele><time>2026-03-29T11:08:13Z</time></trkpt><trkpt lat="41.97706268792865" lon="13.03535490214253"><ele>336.0</ele><time>2026-03-29T11:08:14Z</time></trkpt><trkpt lat="41.97724204307015" lon="13.035215941263006"><ele>336.0</ele><time>2026-03-29T11:08:15Z</time></trkpt><trkpt lat="41.97742829516734" lon="13.035073064726143"><ele>336.0</ele><time>2026-03-29T11:08:16Z</time></trkpt><trkpt lat="41.97761388524017" lon="13.034927029353165"><ele>336.0</ele><time>2026-03-29T11:08:17Z</time></trkpt><trkpt lat="41.977797929624515" lon="13.034759093511616"><ele>336.0</ele><time>2026-03-29T11:08:18Z</time></trkpt><trkpt lat="41.97798336036033" lon="13.034604089240425"><ele>336.0</ele><time>2026-03-29T11:08:19Z</time></trkpt><trkpt lat="41.97816212732225" lon="13.034450615401369"><ele>336.0</ele><time>2026-03-29T11:08:20Z</time></trkpt><trkpt lat="41.97831782783384" lon="13.034287229988351"><ele>336.0</ele><time>2026-03-29T11:08:21Z</time></trkpt><trkpt lat="41.9784756473889" lon="13.034105037996339"><ele>336.0</ele><time>2026-03-29T11:08:22Z</time></trkpt><trkpt lat="41.97862830349144" lon="13.03389860238848"><ele>338.5</ele><time>2026-03-29T11:08:23Z</time></trkpt><trkpt lat="41.97877988791217" lon="13.033674307094332"><ele>341.0</ele><time>2026-03-29T11:08:24Z</time></trkpt><trkpt lat="41.978938658478135" lon="13.033440343601773"><ele>341.33333333333337</ele><time>2026-03-29T11:08:25Z</time></trkpt><trkpt lat="41.97910015885377" lon="13.033212501865084"><ele>341.6666666666667</ele><time>2026-03-29T11:08:26Z</time></trkpt><trkpt lat="41.97924772787509" lon="13.033003199723597"><ele>342.0</ele><time>2026-03-29T11:08:27Z</time></trkpt><trkpt lat="41.97937535882252" lon="13.03283381276826"><ele>342.0</ele><time>2026-03-29T11:08:28Z</time></trkpt><trkpt lat="41.97945262341815" lon="13.032728970743571"><ele>342.0</ele><time>2026-03-29T11:08:29Z</time></trkpt><trkpt lat="41.979517664920756" lon="13.032638252446507"><ele>342.0</ele><time>2026-03-29T11:08:30Z</time></trkpt><trkpt lat="41.97958050279954" lon="13.032550230352998"><ele>342.0</ele><time>2026-03-29T11:08:31Z</time></trkpt><trkpt lat="41.97964082151783" lon="13.032460003703479"><ele>342.0</ele><time>2026-03-29T11:08:32Z</time></trkpt><trkpt lat="41.97970413763357" lon="13.03236793771968"><ele>340.8</ele><time>2026-03-29T11:08:33Z</time></trkpt><trkpt lat="41.97977284623667" lon="13.032273108045997"><ele>339.6</ele><time>2026-03-29T11:08:34Z</time></trkpt><trkpt lat="41.97984139456176" lon="13.03217404205024"><ele>338.40000000000003</ele><time>2026-03-29T11:08:35Z</time></trkpt><trkpt lat="41.979918691779076" lon="13.032062895528941"><ele>337.20000000000005</ele><time>2026-03-29T11:08:36Z</time></trkpt><trkpt lat="41.980000196945674" lon="13.031941871100614"><ele>336.0</ele><time>2026-03-29T11:08:37Z</time></trkpt><trkpt lat="41.980085626989315" lon="13.03181777799036"><ele>339.25</ele><time>2026-03-29T11:08:38Z</time></trkpt><trkpt lat="41.980176082735596" lon="13.031690133528706"><ele>342.5</ele><time>2026-03-29T11:08:39Z</time></trkpt><trkpt lat="41.98027217382008" lon="13.031560926281783"><ele>345.75</ele><time>2026-03-29T11:08:40Z</time></trkpt><trkpt lat="41.980372511217006" lon="13.0314250923545"><ele>349.0</ele><time>2026-03-29T11:08:41Z</time></trkpt><trkpt lat="41.98048191921199" lon="13.03127762095517"><ele>349.0</ele><time>2026-03-29T11:08:42Z</time></trkpt><trkpt lat="41.980599384576415" lon="13.03111310994182"><ele>349.0</ele><time>2026-03-29T11:08:43Z</time></trkpt><trkpt lat="41.980713441875594" lon="13.030938070841476"><ele>349.0</ele><time>2026-03-29T11:08:44Z</time></trkpt><trkpt lat="41.98082846198446" lon="13.030745051496167"><ele>347.0</ele><time>2026-03-29T11:08:45Z</time></trkpt><trkpt lat="41.98094464704841" lon="13.030544165601174"><ele>345.0</ele><time>2026-03-29T11:08:46Z</time></trkpt><trkpt lat="41.98107044103341" lon="13.030344807032854"><ele>343.0</ele><time>2026-03-29T11:08:47Z</time></trkpt><trkpt lat="41.98121205298957" lon="13.03017278078181"><ele>343.0</ele><time>2026-03-29T11:08:48Z</time></trkpt><trkpt lat="41.981370091973375" lon="13.03003635429159"><ele>343.0</ele><time>2026-03-29T11:08:49Z</time></trkpt><trkpt lat="41.981542224115124" lon="13.029936038280457"><ele>343.0</ele><time>2026-03-29T11:08:50Z</time></trkpt><trkpt lat="41.981726963915285" lon="13.029865984133286"><ele>339.0</ele><time>2026-03-29T11:08:51Z</time></trkpt><trkpt lat="41.98192483024309" lon="13.029829974035279"><ele>335.0</ele><time>2026-03-29T11:08:52Z</time></trkpt><trkpt lat="41.98211776200248" lon="13.029824208050325"><ele>331.0</ele><time>2026-03-29T11:08:53Z</time></trkpt><trkpt lat="41.98229294001154" lon="13.02983441859902"><ele>331.0</ele><time>2026-03-29T11:08:54Z</time></trkpt><trkpt lat="41.9824717197773" lon="13.029852270414143"><ele>331.0</ele><time>2026-03-29T11:08:55Z</time></trkpt><trkpt lat="41.98266409281945" lon="13.029860741381649"><ele>331.0</ele><time>2026-03-29T11:08:56Z</time></trkpt><trkpt lat="41.982868773935564" lon="13.029869785013618"><ele>331.3333333333333</ele><time>2026-03-29T11:08:57Z</time></trkpt><trkpt lat="41.98306709647947" lon="13.029879430045098"><ele>331.6666666666667</ele><time>2026-03-29T11:08:58Z</time></trkpt><trkpt lat="41.983257947839256" lon="13.02988909228032"><ele>332.0</ele><time>2026-03-29T11:08:59Z</time></trkpt><trkpt lat="41.98345508049265" lon="13.029898455126727"><ele>333.0</ele><time>2026-03-29T11:09:00Z</time></trkpt><trkpt lat="41.98366816333688" lon="13.029907967931571"><ele>334.0</ele><time>2026-03-29T11:09:01Z</time></trkpt><trkpt lat="41.983902852360686" lon="13.029917996469795"><ele>335.0</ele><time>2026-03-29T11:09:02Z</time></trkpt><trkpt lat="41.98415945226085" lon="13.029934798269823"><ele>334.5</ele><time>2026-03-29T11:09:03Z</time></trkpt><trkpt lat="41.984442698558965" lon="13.029965634631171"><ele>334.0</ele><time>2026-03-29T11:09:04Z</time></trkpt><trkpt lat="41.98475317524588" lon="13.029992633716752"><ele>333.5</ele><time>2026-03-29T11:09:05Z</time></trkpt><trkpt lat="41.98508432110398" lon="13.030013776880613"><ele>333.0</ele><time>2026-03-29T11:09:06Z</time></trkpt><trkpt lat="41.98542213340117" lon="13.030033282390844"><ele>333.0</ele><time>2026-03-29T11:09:07Z</time></trkpt><trkpt lat="41.98577836727977" lon="13.030055798398115"><ele>333.0</ele><time>2026-03-29T11:09:08Z</time></trkpt><trkpt lat="41.986127790958406" lon="13.030070803949538"><ele>331.5</ele><time>2026-03-29T11:09:09Z</time></trkpt><trkpt lat="41.98643307382609" lon="13.03008451959974"><ele>330.0</ele><time>2026-03-29T11:09:10Z</time></trkpt><trkpt lat="41.986727054390336" lon="13.030095209560209"><ele>329.5</ele><time>2026-03-29T11:09:11Z</time></trkpt><trkpt lat="41.98702486697812" lon="13.030087860703949"><ele>329.0</ele><time>2026-03-29T11:09:12Z</time></trkpt><trkpt lat="41.98732574115389" lon="13.030062465506944"><ele>329.0</ele><time>2026-03-29T11:09:13Z</time></trkpt><trkpt lat="41.98763073564854" lon="13.030007855318587"><ele>329.0</ele><time>2026-03-29T11:09:14Z</time></trkpt><trkpt lat="41.98793623417096" lon="13.02992947811937"><ele>329.0</ele><time>2026-03-29T11:09:15Z</time></trkpt><trkpt lat="41.98824076988628" lon="13.029822958925852"><ele>329.0</ele><time>2026-03-29T11:09:16Z</time></trkpt><trkpt lat="41.98853010545298" lon="13.029698656080466"><ele>331.0</ele><time>2026-03-29T11:09:17Z</time></trkpt><trkpt lat="41.98878968822548" lon="13.0295675675394"><ele>333.0</ele><time>2026-03-29T11:09:18Z</time></trkpt><trkpt lat="41.989027521285195" lon="13.029424019291774"><ele>333.0</ele><time>2026-03-29T11:09:19Z</time></trkpt><trkpt lat="41.98926095225923" lon="13.029270921964738"><ele>333.0</ele><time>2026-03-29T11:09:20Z</time></trkpt><trkpt lat="41.98948464606621" lon="13.029105932302748"><ele>333.0</ele><time>2026-03-29T11:09:21Z</time></trkpt><trkpt lat="41.98969683422011" lon="13.028926640845548"><ele>333.0</ele><time>2026-03-29T11:09:22Z</time></trkpt><trkpt lat="41.98989983214296" lon="13.028742085980673"><ele>337.5</ele><time>2026-03-29T11:09:23Z</time></trkpt><trkpt lat="41.99008080652497" lon="13.028555249595037"><ele>342.0</ele><time>2026-03-29T11:09:24Z</time></trkpt><trkpt lat="41.99026156395475" lon="13.028356420702613"><ele>339.0</ele><time>2026-03-29T11:09:25Z</time></trkpt><trkpt lat="41.990431593341135" lon="13.028133112385396"><ele>336.0</ele><time>2026-03-29T11:09:26Z</time></trkpt><trkpt lat="41.99061343264701" lon="13.027916953268488"><ele>336.0</ele><time>2026-03-29T11:09:27Z</time></trkpt><trkpt lat="41.99077542183982" lon="13.027670521981754"><ele>336.0</ele><time>2026-03-29T11:09:28Z</time></trkpt><trkpt lat="41.99095002438023" lon="13.027431159480686"><ele>336.0</ele><time>2026-03-29T11:09:29Z</time></trkpt><trkpt lat="41.9911175031639" lon="13.02719038386038"><ele>336.0</ele><time>2026-03-29T11:09:30Z</time></trkpt><trkpt lat="41.99127947745629" lon="13.026949091968936"><ele>336.0</ele><time>2026-03-29T11:09:31Z</time></trkpt><trkpt lat="41.99143809915279" lon="13.026705640697841"><ele>336.0</ele><time>2026-03-29T11:09:32Z</time></trkpt><trkpt lat="41.99157086681551" lon="13.02646244064726"><ele>336.0</ele><time>2026-03-29T11:09:33Z</time></trkpt><trkpt lat="41.99167718749013" lon="13.026196611878108"><ele>336.0</ele><time>2026-03-29T11:09:34Z</time></trkpt><trkpt lat="41.99175859826139" lon="13.02589544259218"><ele>334.5</ele><time>2026-03-29T11:09:35Z</time></trkpt><trkpt lat="41.99182587684126" lon="13.025574875728951"><ele>333.0</ele><time>2026-03-29T11:09:36Z</time></trkpt><trkpt lat="41.991885647015636" lon="13.025241024288311"><ele>331.5</ele><time>2026-03-29T11:09:37Z</time></trkpt><trkpt lat="41.99195376864052" lon="13.02490749731245"><ele>330.0</ele><time>2026-03-29T11:09:38Z</time></trkpt><trkpt lat="41.992019204033234" lon="13.024587578311056"><ele>330.0</ele><time>2026-03-29T11:09:39Z</time></trkpt><trkpt lat="41.99207766551053" lon="13.024300975733984"><ele>330.0</ele><time>2026-03-29T11:09:40Z</time></trkpt><trkpt lat="41.99213419189356" lon="13.024039732765605"><ele>330.0</ele><time>2026-03-29T11:09:41Z</time></trkpt><trkpt lat="41.992220886078904" lon="13.023806289652903"><ele>330.0</ele><time>2026-03-29T11:09:42Z</time></trkpt><trkpt lat="41.99232186556149" lon="13.023575728208755"><ele>330.0</ele><time>2026-03-29T11:09:43Z</time></trkpt><trkpt lat="41.992447899908626" lon="13.02334661547725"><ele>330.0</ele><time>2026-03-29T11:09:44Z</time></trkpt><trkpt lat="41.99261173655213" lon="13.023164439059919"><ele>330.0</ele><time>2026-03-29T11:09:45Z</time></trkpt><trkpt lat="41.99280120625184" lon="13.023033394729476"><ele>330.0</ele><time>2026-03-29T11:09:46Z</time></trkpt><trkpt lat="41.992997838277276" lon="13.022900639493235"><ele>330.0</ele><time>2026-03-29T11:09:47Z</time></trkpt><trkpt lat="41.99321207797133" lon="13.022796395313739"><ele>330.5</ele><time>2026-03-29T11:09:48Z</time></trkpt><trkpt lat="41.9934324869651" lon="13.022690145070637"><ele>331.0</ele><time>2026-03-29T11:09:49Z</time></trkpt><trkpt lat="41.99364786739931" lon="13.02257348012544"><ele>331.0</ele><time>2026-03-29T11:09:50Z</time></trkpt><trkpt lat="41.99385670131997" lon="13.022458660663915"><ele>331.0</ele><time>2026-03-29T11:09:51Z</time></trkpt><trkpt lat="41.99406596950242" lon="13.0223433784404"><ele>332.0</ele><time>2026-03-29T11:09:52Z</time></trkpt><trkpt lat="41.994278024154646" lon="13.022228743864781"><ele>333.0</ele><time>2026-03-29T11:09:53Z</time></trkpt><trkpt lat="41.99448915368428" lon="13.022116492478775"><ele>333.0</ele><time>2026-03-29T11:09:54Z</time></trkpt><trkpt lat="41.99470120188625" lon="13.022000146110642"><ele>333.0</ele><time>2026-03-29T11:09:55Z</time></trkpt><trkpt lat="41.99491599771081" lon="13.021881174335594"><ele>333.5</ele><time>2026-03-29T11:09:56Z</time></trkpt><trkpt lat="41.99513512777244" lon="13.021759434352626"><ele>334.0</ele><time>2026-03-29T11:09:57Z</time></trkpt><trkpt lat="41.99535836229343" lon="13.021639819703234"><ele>332.5</ele><time>2026-03-29T11:09:58Z</time></trkpt><trkpt lat="41.99558122187464" lon="13.021515004525991"><ele>331.0</ele><time>2026-03-29T11:09:59Z</time></trkpt><trkpt lat="41.99580832753787" lon="13.021390855692074"><ele>332.0</ele><time>2026-03-29T11:10:00Z</time></trkpt><trkpt lat="41.9960416159316" lon="13.021292950390364"><ele>333.0</ele><time>2026-03-29T11:10:01Z</time></trkpt><trkpt lat="41.99628060213939" lon="13.021233247731983"><ele>333.0</ele><time>2026-03-29T11:10:02Z</time></trkpt><trkpt lat="41.99652674747226" lon="13.021204000778988"><ele>333.0</ele><time>2026-03-29T11:10:03Z</time></trkpt><trkpt lat="41.99678562985096" lon="13.021191273946656"><ele>334.0</ele><time>2026-03-29T11:10:04Z</time></trkpt><trkpt lat="41.997057474586" lon="13.021173288104139"><ele>335.0</ele><time>2026-03-29T11:10:05Z</time></trkpt><trkpt lat="41.997332949959194" lon="13.02114780142963"><ele>335.0</ele><time>2026-03-29T11:10:06Z</time></trkpt><trkpt lat="41.997589169282854" lon="13.02112247795747"><ele>335.0</ele><time>2026-03-29T11:10:07Z</time></trkpt><trkpt lat="41.997820099052404" lon="13.021110178177091"><ele>335.0</ele><time>2026-03-29T11:10:08Z</time></trkpt><trkpt lat="41.99805407431573" lon="13.021130905204476"><ele>335.0</ele><time>2026-03-29T11:10:09Z</time></trkpt><trkpt lat="41.99828726468743" lon="13.021196085480222"><ele>336.0</ele><time>2026-03-29T11:10:10Z</time></trkpt><trkpt lat="41.9985169413328" lon="13.021303892985067"><ele>337.0</ele><time>2026-03-29T11:10:11Z</time></trkpt><trkpt lat="41.9987357046303" lon="13.021466691341034"><ele>339.0</ele><time>2026-03-29T11:10:12Z</time></trkpt><trkpt lat="41.99895398059175" lon="13.021652290848222"><ele>341.0</ele><time>2026-03-29T11:10:13Z</time></trkpt><trkpt lat="41.99918654224126" lon="13.021814475255617"><ele>336.5</ele><time>2026-03-29T11:10:14Z</time></trkpt><trkpt lat="41.99942131985204" lon="13.0219601492398"><ele>332.0</ele><time>2026-03-29T11:10:15Z</time></trkpt><trkpt lat="41.99965127302182" lon="13.022110766025586"><ele>332.0</ele><time>2026-03-29T11:10:16Z</time></trkpt><trkpt lat="41.99987921790821" lon="13.022264175405633"><ele>332.0</ele><time>2026-03-29T11:10:17Z</time></trkpt><trkpt lat="42.00011237127922" lon="13.022404967903299"><ele>334.0</ele><time>2026-03-29T11:10:18Z</time></trkpt><trkpt lat="42.000353862331416" lon="13.022525871867824"><ele>336.0</ele><time>2026-03-29T11:10:19Z</time></trkpt><trkpt lat="42.00060307072859" lon="13.022615514046569"><ele>332.5</ele><time>2026-03-29T11:10:20Z</time></trkpt><trkpt lat="42.000848714065306" lon="13.02272583143063"><ele>329.0</ele><time>2026-03-29T11:10:21Z</time></trkpt><trkpt lat="42.00111368151055" lon="13.022744997017615"><ele>329.0</ele><time>2026-03-29T11:10:22Z</time></trkpt><trkpt lat="42.001364252665475" lon="13.022803878803465"><ele>329.0</ele><time>2026-03-29T11:10:23Z</time></trkpt><trkpt lat="42.00162523641426" lon="13.022854082930674"><ele>330.0</ele><time>2026-03-29T11:10:24Z</time></trkpt><trkpt lat="42.00187629412795" lon="13.022924150842291"><ele>331.0</ele><time>2026-03-29T11:10:25Z</time></trkpt><trkpt lat="42.00212144861401" lon="13.023032392369883"><ele>331.0</ele><time>2026-03-29T11:10:26Z</time></trkpt><trkpt lat="42.002360550060374" lon="13.02318727218513"><ele>331.0</ele><time>2026-03-29T11:10:27Z</time></trkpt><trkpt lat="42.0025940261556" lon="13.023351379127494"><ele>332.5</ele><time>2026-03-29T11:10:28Z</time></trkpt><trkpt lat="42.00283205902805" lon="13.02350131827297"><ele>334.0</ele><time>2026-03-29T11:10:29Z</time></trkpt><trkpt lat="42.00306857801915" lon="13.02365018285786"><ele>334.0</ele><time>2026-03-29T11:10:30Z</time></trkpt><trkpt lat="42.003302515813544" lon="13.023794004633663"><ele>334.0</ele><time>2026-03-29T11:10:31Z</time></trkpt><trkpt lat="42.00353228754877" lon="13.02393284384047"><ele>332.0</ele><time>2026-03-29T11:10:32Z</time></trkpt><trkpt lat="42.00374264666759" lon="13.024054541145658"><ele>330.0</ele><time>2026-03-29T11:10:33Z</time></trkpt><trkpt lat="42.00396279483618" lon="13.024112888679044"><ele>329.0</ele><time>2026-03-29T11:10:34Z</time></trkpt><trkpt lat="42.004191526292324" lon="13.024106468410277"><ele>328.0</ele><time>2026-03-29T11:10:35Z</time></trkpt><trkpt lat="42.004415935727124" lon="13.024033325561234"><ele>328.0</ele><time>2026-03-29T11:10:36Z</time></trkpt><trkpt lat="42.00464398720181" lon="13.023916774851816"><ele>328.0</ele><time>2026-03-29T11:10:37Z</time></trkpt><trkpt lat="42.00487045187958" lon="13.023795792236996"><ele>328.0</ele><time>2026-03-29T11:10:38Z</time></trkpt><trkpt lat="42.00508123516283" lon="13.023714006831465"><ele>328.0</ele><time>2026-03-29T11:10:39Z</time></trkpt><trkpt lat="42.005280918925706" lon="13.023686408791296"><ele>328.0</ele><time>2026-03-29T11:10:40Z</time></trkpt><trkpt lat="42.00546877943529" lon="13.023721361360053"><ele>328.0</ele><time>2026-03-29T11:10:41Z</time></trkpt><trkpt lat="42.00566019225536" lon="13.023816071382651"><ele>328.0</ele><time>2026-03-29T11:10:42Z</time></trkpt><trkpt lat="42.00584449276459" lon="13.023970290049343"><ele>328.0</ele><time>2026-03-29T11:10:43Z</time></trkpt><trkpt lat="42.00603769158673" lon="13.02414089533346"><ele>328.66666666666663</ele><time>2026-03-29T11:10:44Z</time></trkpt><trkpt lat="42.006245540106" lon="13.024240627402277"><ele>329.3333333333333</ele><time>2026-03-29T11:10:45Z</time></trkpt><trkpt lat="42.006462780358355" lon="13.024288506617955"><ele>330.0</ele><time>2026-03-29T11:10:46Z</time></trkpt><trkpt lat="42.00666224700259" lon="13.024326371499306"><ele>330.0</ele><time>2026-03-29T11:10:47Z</time></trkpt><trkpt lat="42.00684287676586" lon="13.024382407092403"><ele>330.0</ele><time>2026-03-29T11:10:48Z</time></trkpt><trkpt lat="42.00702062270119" lon="13.024480293998122"><ele>330.0</ele><time>2026-03-29T11:10:49Z</time></trkpt><trkpt lat="42.00719043106365" lon="13.024628424821188"><ele>330.0</ele><time>2026-03-29T11:10:50Z</time></trkpt><trkpt lat="42.0073614485805" lon="13.024832158099791"><ele>330.0</ele><time>2026-03-29T11:10:51Z</time></trkpt><trkpt lat="42.00754249595925" lon="13.025055491209633"><ele>329.5</ele><time>2026-03-29T11:10:52Z</time></trkpt><trkpt lat="42.007713542840975" lon="13.025282653239222"><ele>329.0</ele><time>2026-03-29T11:10:53Z</time></trkpt><trkpt lat="42.00788875192372" lon="13.025509912738817"><ele>329.0</ele><time>2026-03-29T11:10:54Z</time></trkpt><trkpt lat="42.00806163732416" lon="13.025730033414012"><ele>329.0</ele><time>2026-03-29T11:10:55Z</time></trkpt><trkpt lat="42.00821676339806" lon="13.02593262784404"><ele>328.0</ele><time>2026-03-29T11:10:56Z</time></trkpt><trkpt lat="42.00835640432415" lon="13.026122417290782"><ele>327.0</ele><time>2026-03-29T11:10:57Z</time></trkpt><trkpt lat="42.00849467506939" lon="13.026299382317012"><ele>326.0</ele><time>2026-03-29T11:10:58Z</time></trkpt><trkpt lat="42.008640957897754" lon="13.026469232661807"><ele>326.0</ele><time>2026-03-29T11:10:59Z</time></trkpt><trkpt lat="42.00879856276928" lon="13.026613237316013"><ele>326.0</ele><time>2026-03-29T11:11:00Z</time></trkpt><trkpt lat="42.008964623712885" lon="13.026725793361125"><ele>326.0</ele><time>2026-03-29T11:11:01Z</time></trkpt><trkpt lat="42.009142103386445" lon="13.02681836281678"><ele>326.0</ele><time>2026-03-29T11:11:02Z</time></trkpt><trkpt lat="42.00933605747527" lon="13.02687605160442"><ele>326.0</ele><time>2026-03-29T11:11:03Z</time></trkpt><trkpt lat="42.00954015533054" lon="13.026895876076196"><ele>326.0</ele><time>2026-03-29T11:11:04Z</time></trkpt><trkpt lat="42.00974954503451" lon="13.026886444690922"><ele>326.0</ele><time>2026-03-29T11:11:05Z</time></trkpt><trkpt lat="42.00995561193742" lon="13.026841932308612"><ele>326.0</ele><time>2026-03-29T11:11:06Z</time></trkpt><trkpt lat="42.010137210763595" lon="13.02676647642695"><ele>326.0</ele><time>2026-03-29T11:11:07Z</time></trkpt><trkpt lat="42.010307515712334" lon="13.026662651276462"><ele>328.0</ele><time>2026-03-29T11:11:08Z</time></trkpt><trkpt lat="42.01047340855954" lon="13.02652376509549"><ele>330.0</ele><time>2026-03-29T11:11:09Z</time></trkpt><trkpt lat="42.01063289704237" lon="13.026343159050779"><ele>332.0</ele><time>2026-03-29T11:11:10Z</time></trkpt><trkpt lat="42.01079061560885" lon="13.026129141781453"><ele>331.0</ele><time>2026-03-29T11:11:11Z</time></trkpt><trkpt lat="42.01095419786273" lon="13.025898419326927"><ele>330.0</ele><time>2026-03-29T11:11:12Z</time></trkpt><trkpt lat="42.01112081325397" lon="13.025663069224203"><ele>328.0</ele><time>2026-03-29T11:11:13Z</time></trkpt><trkpt lat="42.011301339307934" lon="13.02543900897528"><ele>326.0</ele><time>2026-03-29T11:11:14Z</time></trkpt><trkpt lat="42.011482509716174" lon="13.02522089838777"><ele>327.5</ele><time>2026-03-29T11:11:15Z</time></trkpt><trkpt lat="42.01166788304074" lon="13.025003680763826"><ele>329.0</ele><time>2026-03-29T11:11:16Z</time></trkpt><trkpt lat="42.01185679909111" lon="13.024789115026019"><ele>326.0</ele><time>2026-03-29T11:11:17Z</time></trkpt><trkpt lat="42.012048110693804" lon="13.024558814671545"><ele>323.0</ele><time>2026-03-29T11:11:18Z</time></trkpt><trkpt lat="42.01224056711962" lon="13.024328173850844"><ele>322.5</ele><time>2026-03-29T11:11:19Z</time></trkpt><trkpt lat="42.01243733332266" lon="13.024095621746056"><ele>322.0</ele><time>2026-03-29T11:11:20Z</time></trkpt><trkpt lat="42.012639008550735" lon="13.023858843023344"><ele>323.0</ele><time>2026-03-29T11:11:21Z</time></trkpt><trkpt lat="42.012844737039636" lon="13.023616107159938"><ele>324.0</ele><time>2026-03-29T11:11:22Z</time></trkpt><trkpt lat="42.01305815735958" lon="13.023354348020005"><ele>323.0</ele><time>2026-03-29T11:11:23Z</time></trkpt><trkpt lat="42.01328728007964" lon="13.02308394148202"><ele>322.0</ele><time>2026-03-29T11:11:24Z</time></trkpt><trkpt lat="42.013531935387256" lon="13.022791969744885"><ele>324.0</ele><time>2026-03-29T11:11:25Z</time></trkpt><trkpt lat="42.01378208368787" lon="13.02248624176141"><ele>326.0</ele><time>2026-03-29T11:11:26Z</time></trkpt><trkpt lat="42.0140070563992" lon="13.022213354729589"><ele>327.0</ele><time>2026-03-29T11:11:27Z</time></trkpt><trkpt lat="42.01421579675127" lon="13.021963832189186"><ele>328.0</ele><time>2026-03-29T11:11:28Z</time></trkpt><trkpt lat="42.014416816501964" lon="13.021722594981638"><ele>327.5</ele><time>2026-03-29T11:11:29Z</time></trkpt><trkpt lat="42.01461203162363" lon="13.021489696267365"><ele>327.0</ele><time>2026-03-29T11:11:30Z</time></trkpt><trkpt lat="42.0148051750953" lon="13.021256955013481"><ele>328.5</ele><time>2026-03-29T11:11:31Z</time></trkpt><trkpt lat="42.014992828700294" lon="13.021031156837406"><ele>330.0</ele><time>2026-03-29T11:11:32Z</time></trkpt><trkpt lat="42.01517709683309" lon="13.02081428894476"><ele>330.0</ele><time>2026-03-29T11:11:33Z</time></trkpt><trkpt lat="42.01534795815816" lon="13.0205965405119"><ele>330.0</ele><time>2026-03-29T11:11:34Z</time></trkpt><trkpt lat="42.01550687302537" lon="13.020370270018532"><ele>330.0</ele><time>2026-03-29T11:11:35Z</time></trkpt><trkpt lat="42.015651534587086" lon="13.020129703143434"><ele>330.0</ele><time>2026-03-29T11:11:36Z</time></trkpt><trkpt lat="42.015785139775005" lon="13.019877995615266"><ele>329.5</ele><time>2026-03-29T11:11:37Z</time></trkpt><trkpt lat="42.01592075564689" lon="13.019627127212598"><ele>329.0</ele><time>2026-03-29T11:11:38Z</time></trkpt><trkpt lat="42.01604512117596" lon="13.019369573249351"><ele>329.5</ele><time>2026-03-29T11:11:39Z</time></trkpt><trkpt lat="42.0161473990386" lon="13.019088321745928"><ele>330.0</ele><time>2026-03-29T11:11:40Z</time></trkpt><trkpt lat="42.01624939550427" lon="13.018788518952688"><ele>330.0</ele><time>2026-03-29T11:11:41Z</time></trkpt><trkpt lat="42.01632808410762" lon="13.01847080345161"><ele>330.0</ele><time>2026-03-29T11:11:42Z</time></trkpt><trkpt lat="42.01640578013866" lon="13.018157095131158"><ele>328.5</ele><time>2026-03-29T11:11:43Z</time></trkpt><trkpt lat="42.01648175523406" lon="13.017843256414984"><ele>327.0</ele><time>2026-03-29T11:11:44Z</time></trkpt><trkpt lat="42.01655747545273" lon="13.0175317701556"><ele>326.5</ele><time>2026-03-29T11:11:45Z</time></trkpt><trkpt lat="42.01663131287922" lon="13.017235649678558"><ele>326.0</ele><time>2026-03-29T11:11:46Z</time></trkpt><trkpt lat="42.01670914195625" lon="13.016958450830591"><ele>326.6666666666667</ele><time>2026-03-29T11:11:47Z</time></trkpt><trkpt lat="42.016782373693374" lon="13.016699728616421"><ele>327.3333333333333</ele><time>2026-03-29T11:11:48Z</time></trkpt><trkpt lat="42.016832831377435" lon="13.016451182960953"><ele>328.0</ele><time>2026-03-29T11:11:49Z</time></trkpt><trkpt lat="42.01690115278434" lon="13.016216959823367"><ele>328.3333333333333</ele><time>2026-03-29T11:11:50Z</time></trkpt><trkpt lat="42.01696884275243" lon="13.01599298379493"><ele>328.6666666666667</ele><time>2026-03-29T11:11:51Z</time></trkpt><trkpt lat="42.017034818191966" lon="13.01578551168551"><ele>329.0</ele><time>2026-03-29T11:11:52Z</time></trkpt><trkpt lat="42.01710780468341" lon="13.015576969765847"><ele>328.33333333333337</ele><time>2026-03-29T11:11:53Z</time></trkpt><trkpt lat="42.017200323730954" lon="13.015370162514174"><ele>327.6666666666667</ele><time>2026-03-29T11:11:54Z</time></trkpt><trkpt lat="42.01731448829838" lon="13.01518635348073"><ele>327.0</ele><time>2026-03-29T11:11:55Z</time></trkpt><trkpt lat="42.017426563485614" lon="13.01503159359072"><ele>326.8</ele><time>2026-03-29T11:11:56Z</time></trkpt><trkpt lat="42.017522045640824" lon="13.014903760640992"><ele>326.6</ele><time>2026-03-29T11:11:57Z</time></trkpt><trkpt lat="42.01758876644494" lon="13.014811775218806"><ele>326.40000000000003</ele><time>2026-03-29T11:11:58Z</time></trkpt><trkpt lat="42.01764713623594" lon="13.014738772183772"><ele>326.20000000000005</ele><time>2026-03-29T11:11:59Z</time></trkpt><trkpt lat="42.017702289651666" lon="13.014692503831313"><ele>326.0</ele><time>2026-03-29T11:12:00Z</time></trkpt><trkpt lat="42.01777546291686" lon="13.014622704443134"><ele>326.0</ele><time>2026-03-29T11:12:02Z</time></trkpt><trkpt lat="42.01788306597352" lon="13.014665805790125"><ele>326.0</ele><time>2026-03-29T11:12:03Z</time></trkpt><trkpt lat="42.01799277010406" lon="13.014684336897492"><ele>326.0</ele><time>2026-03-29T11:12:05Z</time></trkpt><trkpt lat="42.01803183327776" lon="13.014803672115145"><ele>326.0</ele><time>2026-03-29T11:12:06Z</time></trkpt><trkpt lat="42.01813913223518" lon="13.014871573085722"><ele>326.0</ele><time>2026-03-29T11:12:08Z</time></trkpt><trkpt lat="42.018230232603884" lon="13.014903515799771"><ele>327.5</ele><time>2026-03-29T11:12:09Z</time></trkpt><trkpt lat="42.01834175227812" lon="13.01491925344098"><ele>329.0</ele><time>2026-03-29T11:12:10Z</time></trkpt><trkpt lat="42.01846717376525" lon="13.014935533124447"><ele>330.5</ele><time>2026-03-29T11:12:11Z</time></trkpt><trkpt lat="42.01862387584646" lon="13.014953502148527"><ele>332.0</ele><time>2026-03-29T11:12:12Z</time></trkpt><trkpt lat="42.01881694402091" lon="13.014980635333977"><ele>332.6666666666667</ele><time>2026-03-29T11:12:13Z</time></trkpt><trkpt lat="42.01899761171221" lon="13.015006384861762"><ele>333.3333333333333</ele><time>2026-03-29T11:12:14Z</time></trkpt><trkpt lat="42.01917181868106" lon="13.015032100304147"><ele>334.0</ele><time>2026-03-29T11:12:15Z</time></trkpt><trkpt lat="42.01935033284281" lon="13.01505953498751"><ele>335.0</ele><time>2026-03-29T11:12:16Z</time></trkpt><trkpt lat="42.01952928265884" lon="13.015083654382707"><ele>336.0</ele><time>2026-03-29T11:12:17Z</time></trkpt><trkpt lat="42.01971152171158" lon="13.015109541882032"><ele>337.0</ele><time>2026-03-29T11:12:18Z</time></trkpt><trkpt lat="42.01989804339738" lon="13.015137471468945"><ele>338.66666666666663</ele><time>2026-03-29T11:12:19Z</time></trkpt><trkpt lat="42.02007960866297" lon="13.01516607843259"><ele>340.3333333333333</ele><time>2026-03-29T11:12:20Z</time></trkpt><trkpt lat="42.02026640756737" lon="13.01519249507967"><ele>342.0</ele><time>2026-03-29T11:12:21Z</time></trkpt><trkpt lat="42.02045958027168" lon="13.015220427460994"><ele>342.0</ele><time>2026-03-29T11:12:22Z</time></trkpt><trkpt lat="42.02066191688055" lon="13.01525388426543"><ele>342.0</ele><time>2026-03-29T11:12:23Z</time></trkpt><trkpt lat="42.02086718266174" lon="13.015281847211334"><ele>342.0</ele><time>2026-03-29T11:12:24Z</time></trkpt><trkpt lat="42.021073038882" lon="13.015309675104096"><ele>343.6666666666667</ele><time>2026-03-29T11:12:25Z</time></trkpt><trkpt lat="42.02126936892234" lon="13.015342645459189"><ele>345.33333333333337</ele><time>2026-03-29T11:12:26Z</time></trkpt><trkpt lat="42.02143946263584" lon="13.01536936033944"><ele>347.0</ele><time>2026-03-29T11:12:27Z</time></trkpt><trkpt lat="42.02158965701164" lon="13.015399372990082"><ele>347.5</ele><time>2026-03-29T11:12:28Z</time></trkpt><trkpt lat="42.02172673030829" lon="13.015446301217349"><ele>348.0</ele><time>2026-03-29T11:12:29Z</time></trkpt><trkpt lat="42.02186128245831" lon="13.015511706192072"><ele>348.5</ele><time>2026-03-29T11:12:30Z</time></trkpt><trkpt lat="42.021996444349476" lon="13.015589456055496"><ele>349.0</ele><time>2026-03-29T11:12:31Z</time></trkpt><trkpt lat="42.02212978522405" lon="13.015677070064466"><ele>349.0</ele><time>2026-03-29T11:12:32Z</time></trkpt><trkpt lat="42.0222651083744" lon="13.015763361727183"><ele>349.0</ele><time>2026-03-29T11:12:33Z</time></trkpt><trkpt lat="42.022403077995726" lon="13.015839359026916"><ele>349.0</ele><time>2026-03-29T11:12:34Z</time></trkpt><trkpt lat="42.022554293416924" lon="13.015887703838692"><ele>350.0</ele><time>2026-03-29T11:12:35Z</time></trkpt><trkpt lat="42.022711729840175" lon="13.015927437874192"><ele>351.0</ele><time>2026-03-29T11:12:36Z</time></trkpt><trkpt lat="42.02287419185394" lon="13.015949308878113"><ele>352.0</ele><time>2026-03-29T11:12:37Z</time></trkpt><trkpt lat="42.02303544631989" lon="13.015970267110974"><ele>352.0</ele><time>2026-03-29T11:12:38Z</time></trkpt><trkpt lat="42.02319410997997" lon="13.015989453884277"><ele>352.0</ele><time>2026-03-29T11:12:39Z</time></trkpt><trkpt lat="42.02335215562041" lon="13.016002105222059"><ele>352.0</ele><time>2026-03-29T11:12:40Z</time></trkpt><trkpt lat="42.0235084706198" lon="13.016011350071182"><ele>352.25</ele><time>2026-03-29T11:12:41Z</time></trkpt><trkpt lat="42.02366073278355" lon="13.016014549667222"><ele>352.5</ele><time>2026-03-29T11:12:42Z</time></trkpt><trkpt lat="42.02380748426005" lon="13.016010851174979"><ele>352.75</ele><time>2026-03-29T11:12:43Z</time></trkpt><trkpt lat="42.02394182043944" lon="13.01599465186815"><ele>353.0</ele><time>2026-03-29T11:12:44Z</time></trkpt><trkpt lat="42.02405807957886" lon="13.01597303696911"><ele>352.83333333333337</ele><time>2026-03-29T11:12:45Z</time></trkpt><trkpt lat="42.02415231763865" lon="13.015953065302265"><ele>352.6666666666667</ele><time>2026-03-29T11:12:46Z</time></trkpt><trkpt lat="42.02421753596258" lon="13.015936402364389"><ele>352.5</ele><time>2026-03-29T11:12:47Z</time></trkpt><trkpt lat="42.02430740397191" lon="13.01591510840241"><ele>352.3333333333333</ele><time>2026-03-29T11:12:49Z</time></trkpt><trkpt lat="42.024414721958195" lon="13.015903281240915"><ele>352.16666666666663</ele><time>2026-03-29T11:12:51Z</time></trkpt><trkpt lat="42.02448357399402" lon="13.015894651905997"><ele>352.0</ele><time>2026-03-29T11:12:52Z</time></trkpt><trkpt lat="42.02455875756202" lon="13.015886682887745"><ele>352.0</ele><time>2026-03-29T11:12:53Z</time></trkpt><trkpt lat="42.02463613195108" lon="13.015875898365959"><ele>352.0</ele><time>2026-03-29T11:12:54Z</time></trkpt><trkpt lat="42.02471510846366" lon="13.015862939804546"><ele>352.0</ele><time>2026-03-29T11:12:55Z</time></trkpt><trkpt lat="42.02479655345628" lon="13.015853301789178"><ele>352.0</ele><time>2026-03-29T11:12:56Z</time></trkpt><trkpt lat="42.024879821334366" lon="13.015844001323831"><ele>352.0</ele><time>2026-03-29T11:12:57Z</time></trkpt><trkpt lat="42.024961104167744" lon="13.015835836942983"><ele>352.0</ele><time>2026-03-29T11:12:58Z</time></trkpt><trkpt lat="42.02503960232715" lon="13.015827421019289"><ele>352.8333333333333</ele><time>2026-03-29T11:12:59Z</time></trkpt><trkpt lat="42.02511851213659" lon="13.015815557780552"><ele>353.66666666666663</ele><time>2026-03-29T11:13:00Z</time></trkpt><trkpt lat="42.02519811934916" lon="13.01579976888096"><ele>354.5</ele><time>2026-03-29T11:13:01Z</time></trkpt><trkpt lat="42.02527872410343" lon="13.015772499963106"><ele>355.3333333333333</ele><time>2026-03-29T11:13:02Z</time></trkpt><trkpt lat="42.02535931731622" lon="13.015729991239533"><ele>356.1666666666667</ele><time>2026-03-29T11:13:03Z</time></trkpt><trkpt lat="42.02543882383357" lon="13.015676639483043"><ele>357.0</ele><time>2026-03-29T11:13:04Z</time></trkpt><trkpt lat="42.02551150742388" lon="13.015615653685316"><ele>357.0</ele><time>2026-03-29T11:13:05Z</time></trkpt><trkpt lat="42.025584328700766" lon="13.0155502115112"><ele>357.0</ele><time>2026-03-29T11:13:06Z</time></trkpt><trkpt lat="42.02565919969023" lon="13.015480241361706"><ele>357.0</ele><time>2026-03-29T11:13:07Z</time></trkpt><trkpt lat="42.02574113217526" lon="13.015421509938735"><ele>357.0</ele><time>2026-03-29T11:13:08Z</time></trkpt><trkpt lat="42.02583112055945" lon="13.01539684761869"><ele>357.0</ele><time>2026-03-29T11:13:09Z</time></trkpt><trkpt lat="42.025927994138684" lon="13.015415117624139"><ele>358.40000000000003</ele><time>2026-03-29T11:13:10Z</time></trkpt><trkpt lat="42.02602128035389" lon="13.015459726041716"><ele>359.8</ele><time>2026-03-29T11:13:11Z</time></trkpt><trkpt lat="42.02611091368578" lon="13.015532511735529"><ele>361.2</ele><time>2026-03-29T11:13:12Z</time></trkpt><trkpt lat="42.02619807691146" lon="13.01561812903763"><ele>362.6</ele><time>2026-03-29T11:13:13Z</time></trkpt><trkpt lat="42.02628531896688" lon="13.015723590405859"><ele>364.0</ele><time>2026-03-29T11:13:14Z</time></trkpt><trkpt lat="42.02637684910803" lon="13.01583741051405"><ele>364.0</ele><time>2026-03-29T11:13:15Z</time></trkpt><trkpt lat="42.026471501192326" lon="13.015944958590035"><ele>364.0</ele><time>2026-03-29T11:13:16Z</time></trkpt><trkpt lat="42.026568611556016" lon="13.016043553681424"><ele>364.0</ele><time>2026-03-29T11:13:17Z</time></trkpt><trkpt lat="42.02666951847873" lon="13.016131820891001"><ele>364.0</ele><time>2026-03-29T11:13:18Z</time></trkpt><trkpt lat="42.02677978197414" lon="13.016194271458199"><ele>367.0</ele><time>2026-03-29T11:13:19Z</time></trkpt><trkpt lat="42.02690521612229" lon="13.016225785359968"><ele>370.0</ele><time>2026-03-29T11:13:20Z</time></trkpt><trkpt lat="42.02703499077743" lon="13.016245710685979"><ele>373.0</ele><time>2026-03-29T11:13:21Z</time></trkpt><trkpt lat="42.02716593698385" lon="13.01625273967212"><ele>376.0</ele><time>2026-03-29T11:13:22Z</time></trkpt><trkpt lat="42.0272917361507" lon="13.01623316660558"><ele>376.0</ele><time>2026-03-29T11:13:23Z</time></trkpt><trkpt lat="42.02740899906612" lon="13.016175509071102"><ele>376.0</ele><time>2026-03-29T11:13:24Z</time></trkpt><trkpt lat="42.02752819205267" lon="13.01609401550669"><ele>376.0</ele><time>2026-03-29T11:13:25Z</time></trkpt><trkpt lat="42.02765381565735" lon="13.01601563731854"><ele>376.0</ele><time>2026-03-29T11:13:26Z</time></trkpt><trkpt lat="42.02779060003005" lon="13.01594694014204"><ele>377.66666666666663</ele><time>2026-03-29T11:13:27Z</time></trkpt><trkpt lat="42.02793711016701" lon="13.015922983414239"><ele>379.3333333333333</ele><time>2026-03-29T11:13:28Z</time></trkpt><trkpt lat="42.02809291468057" lon="13.01596127531273"><ele>381.0</ele><time>2026-03-29T11:13:29Z</time></trkpt><trkpt lat="42.02824578904491" lon="13.01603721108399"><ele>383.25</ele><time>2026-03-29T11:13:30Z</time></trkpt><trkpt lat="42.02838672850674" lon="13.016143797848612"><ele>385.5</ele><time>2026-03-29T11:13:31Z</time></trkpt><trkpt lat="42.02850022655281" lon="13.016255370501264"><ele>387.75</ele><time>2026-03-29T11:13:32Z</time></trkpt><trkpt lat="42.028601745783476" lon="13.016346080397227"><ele>390.0</ele><time>2026-03-29T11:13:33Z</time></trkpt><trkpt lat="42.02872776402737" lon="13.01638792392809"><ele>390.0</ele><time>2026-03-29T11:13:34Z</time></trkpt><trkpt lat="42.02886674343909" lon="13.016370998603552"><ele>390.0</ele><time>2026-03-29T11:13:35Z</time></trkpt><trkpt lat="42.02901340325859" lon="13.016281043084616"><ele>390.0</ele><time>2026-03-29T11:13:36Z</time></trkpt><trkpt lat="42.02916144553948" lon="13.016137945572105"><ele>391.66666666666663</ele><time>2026-03-29T11:13:37Z</time></trkpt><trkpt lat="42.029311520439734" lon="13.015983056178902"><ele>393.3333333333333</ele><time>2026-03-29T11:13:38Z</time></trkpt><trkpt lat="42.029474032813866" lon="13.015810865631554"><ele>395.0</ele><time>2026-03-29T11:13:39Z</time></trkpt><trkpt lat="42.02963079689711" lon="13.01564114158935"><ele>397.6</ele><time>2026-03-29T11:13:40Z</time></trkpt><trkpt lat="42.029737812135544" lon="13.015515056469283"><ele>400.2</ele><time>2026-03-29T11:13:41Z</time></trkpt><trkpt lat="42.02980264878345" lon="13.015415022179251"><ele>402.79999999999995</ele><time>2026-03-29T11:13:42Z</time></trkpt><trkpt lat="42.02985375707389" lon="13.015324372865924"><ele>405.4</ele><time>2026-03-29T11:13:43Z</time></trkpt><trkpt lat="42.02990058520879" lon="13.015251474624394"><ele>408.0</ele><time>2026-03-29T11:13:44Z</time></trkpt><trkpt lat="42.0299680019131" lon="13.015149278467891"><ele>408.0</ele><time>2026-03-29T11:13:46Z</time></trkpt><trkpt lat="42.029919927647036" lon="13.015213738136735"><ele>408.0</ele><time>2026-03-29T11:14:21Z</time></trkpt><trkpt lat="42.029860378520155" lon="13.015245941133534"><ele>408.0</ele><time>2026-03-29T11:14:27Z</time></trkpt><trkpt lat="42.029926421368785" lon="13.015201988602056"><ele>408.0</ele><time>2026-03-29T11:15:03Z</time></trkpt><trkpt lat="42.029980136366575" lon="13.015152065097519"><ele>408.0</ele><time>2026-03-29T11:15:08Z</time></trkpt><trkpt lat="42.03001010881111" lon="13.01507428810862"><ele>408.0</ele><time>2026-03-29T11:15:21Z</time></trkpt><trkpt lat="42.03002802089289" lon="13.014992507861493"><ele>408.0</ele><time>2026-03-29T11:15:27Z</time></trkpt><trkpt lat="42.03008223722408" lon="13.014927022170488"><ele>407.14285714285717</ele><time>2026-03-29T11:15:35Z</time></trkpt><trkpt lat="42.03003456679495" lon="13.014987938190353"><ele>406.28571428571433</ele><time>2026-03-29T11:16:17Z</time></trkpt><trkpt lat="42.03008323427075" lon="13.014917108987673"><ele>405.42857142857144</ele><time>2026-03-29T11:16:23Z</time></trkpt><trkpt lat="42.030101074084904" lon="13.014820536651378"><ele>404.57142857142856</ele><time>2026-03-29T11:19:58Z</time></trkpt><trkpt lat="42.03007507266333" lon="13.014916483526289"><ele>403.7142857142857</ele><time>2026-03-29T11:23:48Z</time></trkpt><trkpt lat="42.03007515350074" lon="13.015009642906174"><ele>402.85714285714283</ele><time>2026-03-29T11:23:56Z</time></trkpt><trkpt lat="42.030025297524" lon="13.015078611912266"><ele>402.0</ele><time>2026-03-29T11:24:03Z</time></trkpt><trkpt lat="42.030024766022095" lon="13.014987646008503"><ele>405.1428571428571</ele><time>2026-03-29T11:24:48Z</time></trkpt><trkpt lat="42.030074567969166" lon="13.01492171794464"><ele>408.28571428571433</ele><time>2026-03-29T11:24:52Z</time></trkpt><trkpt lat="42.030138466643734" lon="13.014883798251528"><ele>411.42857142857144</ele><time>2026-03-29T11:25:04Z</time></trkpt><trkpt lat="42.03014641252218" lon="13.014795584462417"><ele>414.57142857142856</ele><time>2026-03-29T11:27:01Z</time></trkpt><trkpt lat="42.030205722330514" lon="13.01475637998287"><ele>417.71428571428567</ele><time>2026-03-29T11:27:21Z</time></trkpt><trkpt lat="42.03016603695494" lon="13.014828729265624"><ele>420.8571428571429</ele><time>2026-03-29T11:31:34Z</time></trkpt><trkpt lat="42.03011315412073" lon="13.014876626862826"><ele>424.0</ele><time>2026-03-29T11:32:35Z</time></trkpt><trkpt lat="42.030058894270084" lon="13.014956640886117"><ele>424.00000000000006</ele><time>2026-03-29T11:32:57Z</time></trkpt><trkpt lat="42.030057646156806" lon="13.015043104882489"><ele>424.0</ele><time>2026-03-29T11:33:54Z</time></trkpt><trkpt lat="42.03001813449532" lon="13.015118714417985"><ele>424.0</ele><time>2026-03-29T11:34:11Z</time></trkpt><trkpt lat="42.03005469193564" lon="13.01504518083912"><ele>424.0</ele><time>2026-03-29T11:38:34Z</time></trkpt><trkpt lat="42.03014698218967" lon="13.01492457543194"><ele>424.00000000000006</ele><time>2026-03-29T11:38:37Z</time></trkpt><trkpt lat="42.03021004697596" lon="13.014848971262305"><ele>424.0</ele><time>2026-03-29T11:38:38Z</time></trkpt><trkpt lat="42.0302807419965" lon="13.01479433625138"><ele>424.0</ele><time>2026-03-29T11:38:39Z</time></trkpt><trkpt lat="42.03036615367067" lon="13.014753875643155"><ele>424.0</ele><time>2026-03-29T11:38:40Z</time></trkpt><trkpt lat="42.03045899369884" lon="13.014737847103026"><ele>424.0</ele><time>2026-03-29T11:38:41Z</time></trkpt><trkpt lat="42.030549586710585" lon="13.014733848790542"><ele>424.0</ele><time>2026-03-29T11:38:42Z</time></trkpt><trkpt lat="42.03064253820133" lon="13.014707764570304"><ele>424.0</ele><time>2026-03-29T11:38:43Z</time></trkpt><trkpt lat="42.03074439197504" lon="13.014671413878146"><ele>422.25</ele><time>2026-03-29T11:38:44Z</time></trkpt><trkpt lat="42.03084962855034" lon="13.014606626611434"><ele>420.5</ele><time>2026-03-29T11:38:45Z</time></trkpt><trkpt lat="42.03094830568826" lon="13.014534411732905"><ele>418.75</ele><time>2026-03-29T11:38:46Z</time></trkpt><trkpt lat="42.03104846726773" lon="13.014440268761758"><ele>417.0</ele><time>2026-03-29T11:38:47Z</time></trkpt><trkpt lat="42.031158741430495" lon="13.014347948341767"><ele>417.0</ele><time>2026-03-29T11:38:48Z</time></trkpt><trkpt lat="42.03128069790732" lon="13.014251251448776"><ele>417.0</ele><time>2026-03-29T11:38:49Z</time></trkpt><trkpt lat="42.03140568271702" lon="13.014159363016221"><ele>417.0</ele><time>2026-03-29T11:38:50Z</time></trkpt><trkpt lat="42.031536033001444" lon="13.014061993089614"><ele>417.0</ele><time>2026-03-29T11:38:51Z</time></trkpt><trkpt lat="42.03167617855155" lon="13.013956486510953"><ele>420.0</ele><time>2026-03-29T11:38:52Z</time></trkpt><trkpt lat="42.03182177534419" lon="13.013849697569626"><ele>423.0</ele><time>2026-03-29T11:38:53Z</time></trkpt><trkpt lat="42.031973609659126" lon="13.013739131970722"><ele>426.0</ele><time>2026-03-29T11:38:54Z</time></trkpt><trkpt lat="42.03213472083693" lon="13.013647909389103"><ele>426.0</ele><time>2026-03-29T11:38:55Z</time></trkpt><trkpt lat="42.0323043813562" lon="13.01357874040517"><ele>426.0</ele><time>2026-03-29T11:38:56Z</time></trkpt><trkpt lat="42.03248348720088" lon="13.013535167421512"><ele>426.0</ele><time>2026-03-29T11:38:57Z</time></trkpt><trkpt lat="42.03266682244632" lon="13.013517106824946"><ele>423.66666666666663</ele><time>2026-03-29T11:38:58Z</time></trkpt><trkpt lat="42.03285273517462" lon="13.01349835537403"><ele>421.3333333333333</ele><time>2026-03-29T11:38:59Z</time></trkpt><trkpt lat="42.03303635719291" lon="13.013473843384292"><ele>419.0</ele><time>2026-03-29T11:39:00Z</time></trkpt><trkpt lat="42.033215220548705" lon="13.013431244724922"><ele>419.0</ele><time>2026-03-29T11:39:01Z</time></trkpt><trkpt lat="42.033386546719015" lon="13.013358259130904"><ele>419.0</ele><time>2026-03-29T11:39:02Z</time></trkpt><trkpt lat="42.033537435307785" lon="13.013250789519251"><ele>419.0</ele><time>2026-03-29T11:39:03Z</time></trkpt><trkpt lat="42.033675477684646" lon="13.013129555834341"><ele>422.4</ele><time>2026-03-29T11:39:04Z</time></trkpt><trkpt lat="42.03379881822296" lon="13.013028922539814"><ele>425.79999999999995</ele><time>2026-03-29T11:39:05Z</time></trkpt><trkpt lat="42.033896510521835" lon="13.01296007795775"><ele>429.20000000000005</ele><time>2026-03-29T11:39:06Z</time></trkpt><trkpt lat="42.03398158069685" lon="13.01291277911704"><ele>432.6</ele><time>2026-03-29T11:39:07Z</time></trkpt><trkpt lat="42.03406671014913" lon="13.012906220265487"><ele>436.0</ele><time>2026-03-29T11:39:08Z</time></trkpt><trkpt lat="42.034165294337534" lon="13.012947095312398"><ele>436.25</ele><time>2026-03-29T11:39:09Z</time></trkpt><trkpt lat="42.034262227869505" lon="13.013047993869046"><ele>436.5</ele><time>2026-03-29T11:39:10Z</time></trkpt><trkpt lat="42.03438327557788" lon="13.013167433623913"><ele>436.75</ele><time>2026-03-29T11:39:11Z</time></trkpt><trkpt lat="42.03450549736358" lon="13.013276946740657"><ele>437.0</ele><time>2026-03-29T11:39:12Z</time></trkpt><trkpt lat="42.0346292521424" lon="13.01339258286584"><ele>437.3333333333333</ele><time>2026-03-29T11:39:13Z</time></trkpt><trkpt lat="42.03475953638466" lon="13.013509739230692"><ele>437.66666666666663</ele><time>2026-03-29T11:39:14Z</time></trkpt><trkpt lat="42.03489193144948" lon="13.013635577919347"><ele>438.0</ele><time>2026-03-29T11:39:15Z</time></trkpt><trkpt lat="42.0350181024537" lon="13.013772017766716"><ele>438.0</ele><time>2026-03-29T11:39:16Z</time></trkpt><trkpt lat="42.03511802440738" lon="13.01390003418256"><ele>438.0</ele><time>2026-03-29T11:39:17Z</time></trkpt><trkpt lat="42.035203045910926" lon="13.01401036658574"><ele>438.0</ele><time>2026-03-29T11:39:18Z</time></trkpt><trkpt lat="42.0352975671325" lon="13.014117533059622"><ele>438.0</ele><time>2026-03-29T11:39:19Z</time></trkpt><trkpt lat="42.0354250861115" lon="13.01419336885228"><ele>438.0</ele><time>2026-03-29T11:39:20Z</time></trkpt><trkpt lat="42.03556537530562" lon="13.014253398020273"><ele>438.0</ele><time>2026-03-29T11:39:21Z</time></trkpt><trkpt lat="42.035703093836474" lon="13.014313914475382"><ele>438.0</ele><time>2026-03-29T11:39:22Z</time></trkpt><trkpt lat="42.03584009583824" lon="13.01436282933236"><ele>438.0</ele><time>2026-03-29T11:39:23Z</time></trkpt><trkpt lat="42.03597837889696" lon="13.014387511714807"><ele>438.0</ele><time>2026-03-29T11:39:24Z</time></trkpt><trkpt lat="42.03611877957883" lon="13.014369536149474"><ele>438.0</ele><time>2026-03-29T11:39:25Z</time></trkpt><trkpt lat="42.036254053728875" lon="13.014316062045634"><ele>438.0</ele><time>2026-03-29T11:39:26Z</time></trkpt><trkpt lat="42.03638726275533" lon="13.014252977197705"><ele>438.0</ele><time>2026-03-29T11:39:27Z</time></trkpt><trkpt lat="42.03651085978769" lon="13.01421556952495"><ele>438.0</ele><time>2026-03-29T11:39:28Z</time></trkpt><trkpt lat="42.03662178789929" lon="13.014196998525634"><ele>438.0</ele><time>2026-03-29T11:39:29Z</time></trkpt><trkpt lat="42.03673416920815" lon="13.014222692554164"><ele>438.0</ele><time>2026-03-29T11:39:30Z</time></trkpt><trkpt lat="42.03683844069472" lon="13.014301518312923"><ele>438.0</ele><time>2026-03-29T11:39:31Z</time></trkpt><trkpt lat="42.03692150948278" lon="13.014438718754612"><ele>436.75</ele><time>2026-03-29T11:39:32Z</time></trkpt><trkpt lat="42.03698882584894" lon="13.014611091965339"><ele>435.5</ele><time>2026-03-29T11:39:33Z</time></trkpt><trkpt lat="42.03706470952573" lon="13.014773883078812"><ele>434.25</ele><time>2026-03-29T11:39:34Z</time></trkpt><trkpt lat="42.03714400944116" lon="13.014932107478993"><ele>433.0</ele><time>2026-03-29T11:39:35Z</time></trkpt><trkpt lat="42.03723442653585" lon="13.015074996671117"><ele>433.0</ele><time>2026-03-29T11:39:36Z</time></trkpt><trkpt lat="42.037347753969016" lon="13.015175357565141"><ele>433.0</ele><time>2026-03-29T11:39:37Z</time></trkpt><trkpt lat="42.03747631199038" lon="13.015223247211035"><ele>433.0</ele><time>2026-03-29T11:39:38Z</time></trkpt><trkpt lat="42.03761285829696" lon="13.015216264739648"><ele>433.0</ele><time>2026-03-29T11:39:39Z</time></trkpt><trkpt lat="42.03772986033924" lon="13.01520793704665"><ele>436.79999999999995</ele><time>2026-03-29T11:39:40Z</time></trkpt><trkpt lat="42.03782386974398" lon="13.01522990795575"><ele>440.59999999999997</ele><time>2026-03-29T11:39:41Z</time></trkpt><trkpt lat="42.03790646983685" lon="13.015279806230874"><ele>444.40000000000003</ele><time>2026-03-29T11:39:42Z</time></trkpt><trkpt lat="42.03798960025725" lon="13.015337049342069"><ele>448.20000000000005</ele><time>2026-03-29T11:39:43Z</time></trkpt><trkpt lat="42.03807213415407" lon="13.015416537668795"><ele>452.0</ele><time>2026-03-29T11:39:44Z</time></trkpt><trkpt lat="42.03815819930928" lon="13.015515815154851"><ele>452.0</ele><time>2026-03-29T11:39:45Z</time></trkpt><trkpt lat="42.03824332354109" lon="13.015630105822849"><ele>452.00000000000006</ele><time>2026-03-29T11:39:46Z</time></trkpt><trkpt lat="42.03832512156265" lon="13.015751576493026"><ele>452.00000000000006</ele><time>2026-03-29T11:39:47Z</time></trkpt><trkpt lat="42.03836786100631" lon="13.01588671516249"><ele>452.0</ele><time>2026-03-29T11:39:48Z</time></trkpt><trkpt lat="42.03837469647514" lon="13.01600999743071"><ele>452.0</ele><time>2026-03-29T11:39:49Z</time></trkpt><trkpt lat="42.038392469902156" lon="13.016127769921303"><ele>452.8</ele><time>2026-03-29T11:39:50Z</time></trkpt><trkpt lat="42.038456769749814" lon="13.016223881968319"><ele>453.6</ele><time>2026-03-29T11:39:51Z</time></trkpt><trkpt lat="42.038557173668636" lon="13.016291540207003"><ele>454.40000000000003</ele><time>2026-03-29T11:39:52Z</time></trkpt><trkpt lat="42.03866388483717" lon="13.016335957303433"><ele>455.20000000000005</ele><time>2026-03-29T11:39:53Z</time></trkpt><trkpt lat="42.038780438421455" lon="13.016379180531228"><ele>456.0</ele><time>2026-03-29T11:39:54Z</time></trkpt><trkpt lat="42.038897624612154" lon="13.016424031528347"><ele>456.0</ele><time>2026-03-29T11:39:55Z</time></trkpt><trkpt lat="42.03901480984476" lon="13.016472562817764"><ele>456.0</ele><time>2026-03-29T11:39:56Z</time></trkpt><trkpt lat="42.0391303863161" lon="13.016531112636908"><ele>456.0</ele><time>2026-03-29T11:39:57Z</time></trkpt><trkpt lat="42.03924422700544" lon="13.016589570174666"><ele>456.0</ele><time>2026-03-29T11:39:58Z</time></trkpt><trkpt lat="42.039364566308656" lon="13.016617966006379"><ele>461.5</ele><time>2026-03-29T11:39:59Z</time></trkpt><trkpt lat="42.039488197396345" lon="13.016604791291138"><ele>467.0</ele><time>2026-03-29T11:40:00Z</time></trkpt><trkpt lat="42.039610962161696" lon="13.016572501683651"><ele>472.5</ele><time>2026-03-29T11:40:01Z</time></trkpt><trkpt lat="42.039730467726486" lon="13.016519726191827"><ele>478.0</ele><time>2026-03-29T11:40:02Z</time></trkpt><trkpt lat="42.039845437713474" lon="13.016449129012749"><ele>478.0</ele><time>2026-03-29T11:40:03Z</time></trkpt><trkpt lat="42.03995708197721" lon="13.01636768011779"><ele>478.0</ele><time>2026-03-29T11:40:04Z</time></trkpt><trkpt lat="42.040072042179304" lon="13.016292653831941"><ele>478.0</ele><time>2026-03-29T11:40:05Z</time></trkpt><trkpt lat="42.04019188284491" lon="13.01622807878951"><ele>478.0</ele><time>2026-03-29T11:40:06Z</time></trkpt><trkpt lat="42.04030904182835" lon="13.016181021436509"><ele>478.4</ele><time>2026-03-29T11:40:07Z</time></trkpt><trkpt lat="42.040423256217004" lon="13.016176568725985"><ele>478.79999999999995</ele><time>2026-03-29T11:40:08Z</time></trkpt><trkpt lat="42.040530403617886" lon="13.016157376172968"><ele>479.2</ele><time>2026-03-29T11:40:09Z</time></trkpt><trkpt lat="42.04063478509499" lon="13.016116323506365"><ele>479.6</ele><time>2026-03-29T11:40:10Z</time></trkpt><trkpt lat="42.040737887893364" lon="13.016100326439133"><ele>480.0</ele><time>2026-03-29T11:40:11Z</time></trkpt><trkpt lat="42.04083431698211" lon="13.016085065450287"><ele>480.0</ele><time>2026-03-29T11:40:12Z</time></trkpt><trkpt lat="42.04091788993362" lon="13.016071960540541"><ele>480.0</ele><time>2026-03-29T11:40:13Z</time></trkpt><trkpt lat="42.040993444495754" lon="13.01606460686815"><ele>480.0</ele><time>2026-03-29T11:40:14Z</time></trkpt><trkpt lat="42.04105934770487" lon="13.016067109238989"><ele>480.0</ele><time>2026-03-29T11:40:15Z</time></trkpt><trkpt lat="42.04112172597513" lon="13.016084945809082"><ele>480.0</ele><time>2026-03-29T11:40:16Z</time></trkpt><trkpt lat="42.0412320570166" lon="13.016105768687964"><ele>480.0</ele><time>2026-03-29T11:40:18Z</time></trkpt><trkpt lat="42.04129645015213" lon="13.01608113342"><ele>480.0</ele><time>2026-03-29T11:40:20Z</time></trkpt><trkpt lat="42.041354057891795" lon="13.016039825917424"><ele>480.0</ele><time>2026-03-29T11:40:23Z</time></trkpt><trkpt lat="42.04129812377799" lon="13.015956649998849"><ele>480.0</ele><time>2026-03-29T11:51:08Z</time></trkpt><trkpt lat="42.04121190940272" lon="13.015827812924623"><ele>480.0</ele><time>2026-03-29T11:51:10Z</time></trkpt><trkpt lat="42.04114116478353" lon="13.015781725181421"><ele>480.0</ele><time>2026-03-29T11:51:11Z</time></trkpt><trkpt lat="42.041058295036706" lon="13.015767300551067"><ele>480.0</ele><time>2026-03-29T11:51:12Z</time></trkpt><trkpt lat="42.04098575348206" lon="13.015782373935062"><ele>480.6</ele><time>2026-03-29T11:51:13Z</time></trkpt><trkpt lat="42.040896540261755" lon="13.015790760463235"><ele>481.2</ele><time>2026-03-29T11:51:14Z</time></trkpt><trkpt lat="42.04081249071731" lon="13.015805268511187"><ele>481.79999999999995</ele><time>2026-03-29T11:51:15Z</time></trkpt><trkpt lat="42.04071963011174" lon="13.015807488825283"><ele>482.4</ele><time>2026-03-29T11:51:16Z</time></trkpt><trkpt lat="42.040620825941744" lon="13.015816260676019"><ele>483.0</ele><time>2026-03-29T11:51:17Z</time></trkpt><trkpt lat="42.040517318617916" lon="13.015822309262765"><ele>483.0</ele><time>2026-03-29T11:51:18Z</time></trkpt><trkpt lat="42.04041710138452" lon="13.01581892102547"><ele>482.99999999999994</ele><time>2026-03-29T11:51:19Z</time></trkpt><trkpt lat="42.04032612922737" lon="13.01582441498011"><ele>482.99999999999994</ele><time>2026-03-29T11:51:20Z</time></trkpt><trkpt lat="42.04023156786192" lon="13.015862300422544"><ele>483.0</ele><time>2026-03-29T11:51:21Z</time></trkpt><trkpt lat="42.040153089691785" lon="13.015936688321855"><ele>483.0</ele><time>2026-03-29T11:51:22Z</time></trkpt><trkpt lat="42.04007944095513" lon="13.016023471667504"><ele>483.0</ele><time>2026-03-29T11:51:23Z</time></trkpt><trkpt lat="42.03999977178498" lon="13.016074438188713"><ele>482.99999999999994</ele><time>2026-03-29T11:51:24Z</time></trkpt><trkpt lat="42.03989716592123" lon="13.016079644188853"><ele>482.99999999999994</ele><time>2026-03-29T11:51:25Z</time></trkpt><trkpt lat="42.0397966836386" lon="13.016084083174224"><ele>483.0</ele><time>2026-03-29T11:51:26Z</time></trkpt><trkpt lat="42.03970317008108" lon="13.016058136542842"><ele>483.0</ele><time>2026-03-29T11:51:27Z</time></trkpt><trkpt lat="42.03961488580182" lon="13.016057115206538"><ele>482.0</ele><time>2026-03-29T11:51:28Z</time></trkpt><trkpt lat="42.03953277052147" lon="13.016031744945094"><ele>480.99999999999994</ele><time>2026-03-29T11:51:29Z</time></trkpt><trkpt lat="42.03946437076958" lon="13.015971716504586"><ele>479.99999999999994</ele><time>2026-03-29T11:51:30Z</time></trkpt><trkpt lat="42.039403113991575" lon="13.015880851846505"><ele>479.0</ele><time>2026-03-29T11:51:31Z</time></trkpt><trkpt lat="42.039339731779606" lon="13.01576241440022"><ele>478.0</ele><time>2026-03-29T11:51:32Z</time></trkpt><trkpt lat="42.03926503881426" lon="13.015640744425616"><ele>475.75</ele><time>2026-03-29T11:51:33Z</time></trkpt><trkpt lat="42.03919070054808" lon="13.015470682114955"><ele>473.5</ele><time>2026-03-29T11:51:34Z</time></trkpt><trkpt lat="42.039120545934864" lon="13.0153373157673"><ele>471.25</ele><time>2026-03-29T11:51:35Z</time></trkpt><trkpt lat="42.0390679634393" lon="13.015194515590945"><ele>469.0</ele><time>2026-03-29T11:51:36Z</time></trkpt><trkpt lat="42.039019675016526" lon="13.015088210556497"><ele>469.00000000000006</ele><time>2026-03-29T11:51:37Z</time></trkpt><trkpt lat="42.038981353706376" lon="13.015000575184875"><ele>469.0</ele><time>2026-03-29T11:51:38Z</time></trkpt><trkpt lat="42.038952720816184" lon="13.014923033238968"><ele>469.0</ele><time>2026-03-29T11:51:39Z</time></trkpt><trkpt lat="42.038958043437496" lon="13.014769584385421"><ele>469.0</ele><time>2026-03-29T11:51:41Z</time></trkpt><trkpt lat="42.039031746057155" lon="13.014730556472035"><ele>469.00000000000006</ele><time>2026-03-29T11:51:42Z</time></trkpt><trkpt lat="42.03910956618716" lon="13.014768411677318"><ele>469.0</ele><time>2026-03-29T11:51:43Z</time></trkpt><trkpt lat="42.03916312289229" lon="13.014866286795522"><ele>474.75</ele><time>2026-03-29T11:51:44Z</time></trkpt><trkpt lat="42.039206659030256" lon="13.015005035150587"><ele>480.5</ele><time>2026-03-29T11:51:45Z</time></trkpt><trkpt lat="42.03927267525318" lon="13.015163703035425"><ele>486.25</ele><time>2026-03-29T11:51:45.999Z</time></trkpt><trkpt lat="42.039364007662854" lon="13.015323672530206"><ele>492.0</ele><time>2026-03-29T11:51:46.999Z</time></trkpt><trkpt lat="42.03945183194985" lon="13.015463406755508"><ele>492.0</ele><time>2026-03-29T11:51:47.999Z</time></trkpt><trkpt lat="42.039544541014" lon="13.015564905167775"><ele>492.0</ele><time>2026-03-29T11:51:48.999Z</time></trkpt><trkpt lat="42.039652807105945" lon="13.01563703627708"><ele>492.0</ele><time>2026-03-29T11:51:49.999Z</time></trkpt><trkpt lat="42.039781677983804" lon="13.015650420573188"><ele>492.0</ele><time>2026-03-29T11:51:50.999Z</time></trkpt><trkpt lat="42.03991652752991" lon="13.01560850359497"><ele>496.5</ele><time>2026-03-29T11:51:51.999Z</time></trkpt><trkpt lat="42.040044223793885" lon="13.01552803729791"><ele>501.0</ele><time>2026-03-29T11:51:52.999Z</time></trkpt><trkpt lat="42.04016283207076" lon="13.015406616815218"><ele>505.5</ele><time>2026-03-29T11:51:53.999Z</time></trkpt><trkpt lat="42.04027799977739" lon="13.015266361192348"><ele>510.0</ele><time>2026-03-29T11:51:54.999Z</time></trkpt><trkpt lat="42.04040758570701" lon="13.015176156879129"><ele>510.0</ele><time>2026-03-29T11:51:55.999Z</time></trkpt><trkpt lat="42.040547605347825" lon="13.015135439298302"><ele>510.0</ele><time>2026-03-29T11:51:56.999Z</time></trkpt><trkpt lat="42.04068416594053" lon="13.015121858450309"><ele>510.0</ele><time>2026-03-29T11:51:57.999Z</time></trkpt><trkpt lat="42.04081407393083" lon="13.015097030191649"><ele>510.0</ele><time>2026-03-29T11:51:58.999Z</time></trkpt><trkpt lat="42.04091925932223" lon="13.015034310617212"><ele>515.25</ele><time>2026-03-29T11:51:59.999Z</time></trkpt><trkpt lat="42.04101864746605" lon="13.01492667426923"><ele>520.5</ele><time>2026-03-29T11:52:00.999Z</time></trkpt><trkpt lat="42.04110053637779" lon="13.014769916469648"><ele>525.75</ele><time>2026-03-29T11:52:01.999Z</time></trkpt><trkpt lat="42.04118344691861" lon="13.014668422643282"><ele>531.0</ele><time>2026-03-29T11:52:02.999Z</time></trkpt><trkpt lat="42.0412846513469" lon="13.014551044743992"><ele>531.0</ele><time>2026-03-29T11:52:03.999Z</time></trkpt><trkpt lat="42.041384050886165" lon="13.014429551681463"><ele>531.0</ele><time>2026-03-29T11:52:04.999Z</time></trkpt><trkpt lat="42.04149379964543" lon="13.014365034865948"><ele>531.0</ele><time>2026-03-29T11:52:05.999Z</time></trkpt><trkpt lat="42.04161592744136" lon="13.014326074355541"><ele>531.0</ele><time>2026-03-29T11:52:06.999Z</time></trkpt><trkpt lat="42.041744720781416" lon="13.01432059560933"><ele>528.6</ele><time>2026-03-29T11:52:07.999Z</time></trkpt><trkpt lat="42.041861356738146" lon="13.014297000314084"><ele>526.2</ele><time>2026-03-29T11:52:08.999Z</time></trkpt><trkpt lat="42.041962077369824" lon="13.014279240648412"><ele>523.8</ele><time>2026-03-29T11:52:09.999Z</time></trkpt><trkpt lat="42.04206229941343" lon="13.014270909530996"><ele>521.4</ele><time>2026-03-29T11:52:10.999Z</time></trkpt><trkpt lat="42.04217527076268" lon="13.01427344940598"><ele>519.0</ele><time>2026-03-29T11:52:11.999Z</time></trkpt><trkpt lat="42.042286917491516" lon="13.014329346636371"><ele>519.0</ele><time>2026-03-29T11:52:12.999Z</time></trkpt><trkpt lat="42.04239780038398" lon="13.014397100141329"><ele>519.0</ele><time>2026-03-29T11:52:13.999Z</time></trkpt><trkpt lat="42.04251498124817" lon="13.014452433322646"><ele>519.0</ele><time>2026-03-29T11:52:14.999Z</time></trkpt><trkpt lat="42.04264440137036" lon="13.014451778416694"><ele>519.0</ele><time>2026-03-29T11:52:15.999Z</time></trkpt><trkpt lat="42.042780187311784" lon="13.014408211199523"><ele>519.25</ele><time>2026-03-29T11:52:16.999Z</time></trkpt><trkpt lat="42.04292327718846" lon="13.014343535816245"><ele>519.5</ele><time>2026-03-29T11:52:17.999Z</time></trkpt><trkpt lat="42.04306736235596" lon="13.014297616317467"><ele>519.75</ele><time>2026-03-29T11:52:18.999Z</time></trkpt><trkpt lat="42.043196706244686" lon="13.014304158436063"><ele>520.0</ele><time>2026-03-29T11:52:19.999Z</time></trkpt><trkpt lat="42.04332536798993" lon="13.014345002539718"><ele>521.25</ele><time>2026-03-29T11:52:20.999Z</time></trkpt><trkpt lat="42.04345460351873" lon="13.014390175031211"><ele>522.5</ele><time>2026-03-29T11:52:21.999Z</time></trkpt><trkpt lat="42.04358579224679" lon="13.014440591364057"><ele>523.75</ele><time>2026-03-29T11:52:22.999Z</time></trkpt><trkpt lat="42.04370634562441" lon="13.014508936850577"><ele>525.0</ele><time>2026-03-29T11:52:23.999Z</time></trkpt><trkpt lat="42.04381495081146" lon="13.01460368769015"><ele>525.0</ele><time>2026-03-29T11:52:24.999Z</time></trkpt><trkpt lat="42.04392023838335" lon="13.014720108904895"><ele>525.0</ele><time>2026-03-29T11:52:25.999Z</time></trkpt><trkpt lat="42.04403189728533" lon="13.014817858095046"><ele>525.0</ele><time>2026-03-29T11:52:26.999Z</time></trkpt><trkpt lat="42.04417080975954" lon="13.01486038829661"><ele>525.0</ele><time>2026-03-29T11:52:27.999Z</time></trkpt><trkpt lat="42.04433082597886" lon="13.014851349888902"><ele>526.3333333333334</ele><time>2026-03-29T11:52:28.999Z</time></trkpt><trkpt lat="42.0444940142746" lon="13.014816151211836"><ele>527.6666666666667</ele><time>2026-03-29T11:52:29.999Z</time></trkpt><trkpt lat="42.044656694451994" lon="13.014810552512417"><ele>529.0</ele><time>2026-03-29T11:52:30.999Z</time></trkpt><trkpt lat="42.04480286852778" lon="13.01480263670724"><ele>529.0</ele><time>2026-03-29T11:52:31.999Z</time></trkpt><trkpt lat="42.0449491931218" lon="13.014806694787456"><ele>529.0</ele><time>2026-03-29T11:52:33Z</time></trkpt><trkpt lat="42.04507672788369" lon="13.014890721462057"><ele>529.0</ele><time>2026-03-29T11:52:34Z</time></trkpt><trkpt lat="42.045189769623484" lon="13.015007138477344"><ele>529.0</ele><time>2026-03-29T11:52:35Z</time></trkpt><trkpt lat="42.04530415448128" lon="13.01509914067928"><ele>528.75</ele><time>2026-03-29T11:52:36Z</time></trkpt><trkpt lat="42.045448219657416" lon="13.015115341598168"><ele>528.5</ele><time>2026-03-29T11:52:37Z</time></trkpt><trkpt lat="42.04559052692826" lon="13.01512840738745"><ele>528.25</ele><time>2026-03-29T11:52:38Z</time></trkpt><trkpt lat="42.04569969078958" lon="13.015127621691207"><ele>528.0</ele><time>2026-03-29T11:52:39Z</time></trkpt><trkpt lat="42.04579238302265" lon="13.015111611944254"><ele>528.5</ele><time>2026-03-29T11:52:40Z</time></trkpt><trkpt lat="42.0458755622021" lon="13.0150318544477"><ele>529.0</ele><time>2026-03-29T11:52:41Z</time></trkpt><trkpt lat="42.04592911298164" lon="13.014893298739725"><ele>529.5</ele><time>2026-03-29T11:52:42Z</time></trkpt><trkpt lat="42.045946694969864" lon="13.014715736458413"><ele>530.0</ele><time>2026-03-29T11:52:43Z</time></trkpt><trkpt lat="42.04597431998143" lon="13.014507423843845"><ele>533.3333333333333</ele><time>2026-03-29T11:52:44Z</time></trkpt><trkpt lat="42.046028544822946" lon="13.014302805910138"><ele>536.6666666666666</ele><time>2026-03-29T11:52:45Z</time></trkpt><trkpt lat="42.046097674959505" lon="13.01410080148588"><ele>540.0</ele><time>2026-03-29T11:52:46Z</time></trkpt><trkpt lat="42.04617895518543" lon="13.013917623625812"><ele>542.25</ele><time>2026-03-29T11:52:47Z</time></trkpt><trkpt lat="42.04627090425382" lon="13.013763345520887"><ele>544.5</ele><time>2026-03-29T11:52:48Z</time></trkpt><trkpt lat="42.04634918283064" lon="13.013644547289164"><ele>546.75</ele><time>2026-03-29T11:52:49Z</time></trkpt><trkpt lat="42.046417714854485" lon="13.013532892793997"><ele>549.0</ele><time>2026-03-29T11:52:50Z</time></trkpt><trkpt lat="42.04654670386985" lon="13.013531439492446"><ele>549.0</ele><time>2026-03-29T11:52:51Z</time></trkpt><trkpt lat="42.046658942724584" lon="13.013610551847751"><ele>549.0</ele><time>2026-03-29T11:52:52Z</time></trkpt><trkpt lat="42.04674937326472" lon="13.01370507891771"><ele>549.0</ele><time>2026-03-29T11:52:53Z</time></trkpt><trkpt lat="42.04683777992079" lon="13.013811236269307"><ele>549.0</ele><time>2026-03-29T11:52:54Z</time></trkpt><trkpt lat="42.04689819456863" lon="13.01396667119254"><ele>549.0</ele><time>2026-03-29T11:52:55Z</time></trkpt><trkpt lat="42.0469775149885" lon="13.01414233024522"><ele>549.0</ele><time>2026-03-29T11:52:56Z</time></trkpt><trkpt lat="42.047042681393044" lon="13.014296961261465"><ele>549.0</ele><time>2026-03-29T11:52:57Z</time></trkpt><trkpt lat="42.04711141745261" lon="13.01442280614928"><ele>549.0</ele><time>2026-03-29T11:52:58Z</time></trkpt><trkpt lat="42.047183285330775" lon="13.014516689292282"><ele>548.5</ele><time>2026-03-29T11:52:59Z</time></trkpt><trkpt lat="42.04726780981387" lon="13.014543122508787"><ele>548.0</ele><time>2026-03-29T11:53:00Z</time></trkpt><trkpt lat="42.04738164715152" lon="13.014483377538651"><ele>547.5</ele><time>2026-03-29T11:53:01Z</time></trkpt><trkpt lat="42.047479610336495" lon="13.014382069919034"><ele>547.0</ele><time>2026-03-29T11:53:02Z</time></trkpt><trkpt lat="42.04758178357167" lon="13.014224684617668"><ele>550.0</ele><time>2026-03-29T11:53:03Z</time></trkpt><trkpt lat="42.04769534368634" lon="13.014056172622611"><ele>553.0</ele><time>2026-03-29T11:53:04Z</time></trkpt><trkpt lat="42.047813432194374" lon="13.013898587844007"><ele>556.0</ele><time>2026-03-29T11:53:05Z</time></trkpt><trkpt lat="42.04793219298919" lon="13.013732556322282"><ele>556.0</ele><time>2026-03-29T11:53:06Z</time></trkpt><trkpt lat="42.04805486737941" lon="13.013574334961096"><ele>556.0</ele><time>2026-03-29T11:53:07Z</time></trkpt><trkpt lat="42.048171196725754" lon="13.013419360711946"><ele>556.0</ele><time>2026-03-29T11:53:08Z</time></trkpt><trkpt lat="42.04836495491014" lon="13.013395078884301"><ele>557.3333333333334</ele><time>2026-03-29T11:53:09Z</time></trkpt><trkpt lat="42.04852383952305" lon="13.013333029813833"><ele>558.6666666666666</ele><time>2026-03-29T11:53:10Z</time></trkpt><trkpt lat="42.048717324548186" lon="13.013257015831089"><ele>560.0</ele><time>2026-03-29T11:53:11Z</time></trkpt><trkpt lat="42.04889361384724" lon="13.013188663969586"><ele>567.0</ele><time>2026-03-29T11:53:12Z</time></trkpt><trkpt lat="42.04904498954801" lon="13.013127679889092"><ele>574.0</ele><time>2026-03-29T11:53:13Z</time></trkpt><trkpt lat="42.04917499509581" lon="13.013018716175976"><ele>581.0</ele><time>2026-03-29T11:53:14Z</time></trkpt><trkpt lat="42.04930376433213" lon="13.012863726700086"><ele>581.0</ele><time>2026-03-29T11:53:15Z</time></trkpt><trkpt lat="42.049456749524225" lon="13.012754339512233"><ele>581.0</ele><time>2026-03-29T11:53:16Z</time></trkpt><trkpt lat="42.04961355437649" lon="13.012679009326673"><ele>581.0</ele><time>2026-03-29T11:53:17Z</time></trkpt><trkpt lat="42.049779484868715" lon="13.01263244748808"><ele>581.0</ele><time>2026-03-29T11:53:18Z</time></trkpt><trkpt lat="42.049955395119426" lon="13.01263943239377"><ele>581.0</ele><time>2026-03-29T11:53:19Z</time></trkpt><trkpt lat="42.05013554219975" lon="13.012660258826365"><ele>581.0</ele><time>2026-03-29T11:53:20Z</time></trkpt><trkpt lat="42.05035000834325" lon="13.012692776510347"><ele>580.6666666666666</ele><time>2026-03-29T11:53:21Z</time></trkpt><trkpt lat="42.05054407470733" lon="13.012778182645082"><ele>580.3333333333334</ele><time>2026-03-29T11:53:22Z</time></trkpt><trkpt lat="42.05070635129194" lon="13.012885847604668"><ele>580.0</ele><time>2026-03-29T11:53:23Z</time></trkpt><trkpt lat="42.050856710609025" lon="13.012934243928532"><ele>582.0</ele><time>2026-03-29T11:53:24Z</time></trkpt><trkpt lat="42.051022886935705" lon="13.012977957709857"><ele>584.0</ele><time>2026-03-29T11:53:25Z</time></trkpt><trkpt lat="42.05117532149785" lon="13.013087583422282"><ele>586.0</ele><time>2026-03-29T11:53:26Z</time></trkpt><trkpt lat="42.05132344980374" lon="13.013204202316905"><ele>583.75</ele><time>2026-03-29T11:53:27Z</time></trkpt><trkpt lat="42.051473780391326" lon="13.013323759096412"><ele>581.5</ele><time>2026-03-29T11:53:28Z</time></trkpt><trkpt lat="42.05156652348327" lon="13.013483242882904"><ele>579.25</ele><time>2026-03-29T11:53:29Z</time></trkpt><trkpt lat="42.05165100528224" lon="13.01360618367906"><ele>577.0</ele><time>2026-03-29T11:53:30Z</time></trkpt><trkpt lat="42.05175361910932" lon="13.01377530393269"><ele>577.0</ele><time>2026-03-29T11:53:31Z</time></trkpt><trkpt lat="42.05188721785213" lon="13.013918695540015"><ele>577.0</ele><time>2026-03-29T11:53:32Z</time></trkpt><trkpt lat="42.052030429136146" lon="13.014054437235899"><ele>577.0</ele><time>2026-03-29T11:53:33Z</time></trkpt><trkpt lat="42.05224596301406" lon="13.014138423351733"><ele>573.3333333333334</ele><time>2026-03-29T11:53:34Z</time></trkpt><trkpt lat="42.05245826483788" lon="13.014255458777207"><ele>569.6666666666666</ele><time>2026-03-29T11:53:35Z</time></trkpt><trkpt lat="42.05265852967371" lon="13.014365681800088"><ele>566.0</ele><time>2026-03-29T11:53:36Z</time></trkpt><trkpt lat="42.05285658077142" lon="13.014468507585557"><ele>566.0</ele><time>2026-03-29T11:53:37Z</time></trkpt><trkpt lat="42.05305558260516" lon="13.014581043202785"><ele>566.0</ele><time>2026-03-29T11:53:38Z</time></trkpt><trkpt lat="42.05325453991986" lon="13.014695678958237"><ele>566.0</ele><time>2026-03-29T11:53:39Z</time></trkpt><trkpt lat="42.05345379869493" lon="13.014801683158828"><ele>565.6666666666666</ele><time>2026-03-29T11:53:40Z</time></trkpt><trkpt lat="42.053654019149455" lon="13.014910293193857"><ele>565.3333333333334</ele><time>2026-03-29T11:53:41Z</time></trkpt><trkpt lat="42.05385335062608" lon="13.015009312244684"><ele>565.0</ele><time>2026-03-29T11:53:42Z</time></trkpt><trkpt lat="42.054052581243596" lon="13.015112194718736"><ele>567.0</ele><time>2026-03-29T11:53:43Z</time></trkpt><trkpt lat="42.054254842910794" lon="13.015225514429774"><ele>569.0</ele><time>2026-03-29T11:53:44Z</time></trkpt><trkpt lat="42.05446041093295" lon="13.015341219479136"><ele>571.0</ele><time>2026-03-29T11:53:45Z</time></trkpt><trkpt lat="42.054680823177044" lon="13.015458144770658"><ele>571.0</ele><time>2026-03-29T11:53:45.999Z</time></trkpt><trkpt lat="42.054905506487366" lon="13.015537704581524"><ele>571.0</ele><time>2026-03-29T11:53:46.999Z</time></trkpt><trkpt lat="42.05513058229704" lon="13.015588111410883"><ele>570.5</ele><time>2026-03-29T11:53:47.999Z</time></trkpt><trkpt lat="42.055377613396715" lon="13.015621778014014"><ele>570.0</ele><time>2026-03-29T11:53:48.999Z</time></trkpt><trkpt lat="42.05562488183265" lon="13.015629043442331"><ele>570.5</ele><time>2026-03-29T11:53:49.999Z</time></trkpt><trkpt lat="42.0558598865701" lon="13.015609837421307"><ele>571.0</ele><time>2026-03-29T11:53:50.999Z</time></trkpt><trkpt lat="42.056076097559114" lon="13.01557599130249"><ele>571.0</ele><time>2026-03-29T11:53:51.999Z</time></trkpt><trkpt lat="42.05627230871024" lon="13.015543096176687"><ele>571.0</ele><time>2026-03-29T11:53:52.999Z</time></trkpt><trkpt lat="42.05644602036847" lon="13.015516022614356"><ele>571.0</ele><time>2026-03-29T11:53:53.999Z</time></trkpt><trkpt lat="42.05660072344868" lon="13.015494485333534"><ele>571.8</ele><time>2026-03-29T11:53:54.999Z</time></trkpt><trkpt lat="42.05672814819772" lon="13.015480488289286"><ele>572.6</ele><time>2026-03-29T11:53:55.999Z</time></trkpt><trkpt lat="42.05684247924766" lon="13.015464133731163"><ele>573.4</ele><time>2026-03-29T11:53:56.999Z</time></trkpt><trkpt lat="42.05694130258549" lon="13.015448411711203"><ele>574.2</ele><time>2026-03-29T11:53:57.999Z</time></trkpt><trkpt lat="42.05702064004067" lon="13.015436517540428"><ele>575.0</ele><time>2026-03-29T11:53:58.999Z</time></trkpt><trkpt lat="42.05712640082661" lon="13.015422916714927"><ele>575.0</ele><time>2026-03-29T11:54:00.999Z</time></trkpt><trkpt lat="42.05719588099657" lon="13.015398755920407"><ele>575.0</ele><time>2026-03-29T11:54:03.999Z</time></trkpt><trkpt lat="42.05711454973005" lon="13.015189363911844"><ele>575.0</ele><time>2026-03-29T11:54:04.999Z</time></trkpt><trkpt lat="42.05713013198586" lon="13.015099452685613"><ele>575.0</ele><time>2026-03-29T11:54:08.999Z</time></trkpt><trkpt lat="42.05715696861676" lon="13.014967472791376"><ele>575.0</ele><time>2026-03-29T11:54:30.999Z</time></trkpt><trkpt lat="42.057196680814606" lon="13.01480882617051"><ele>574.4</ele><time>2026-03-29T11:54:32.999Z</time></trkpt><trkpt lat="42.057223590617006" lon="13.01471188508748"><ele>573.8</ele><time>2026-03-29T11:54:33.999Z</time></trkpt><trkpt lat="42.057268092442264" lon="13.014608759576605"><ele>573.2</ele><time>2026-03-29T11:54:34.999Z</time></trkpt><trkpt lat="42.05733438875608" lon="13.014507927707948"><ele>572.6</ele><time>2026-03-29T11:54:35.999Z</time></trkpt><trkpt lat="42.05742108084184" lon="13.01442013633828"><ele>572.0</ele><time>2026-03-29T11:54:36.999Z</time></trkpt><trkpt lat="42.05752235225094" lon="13.0143609834126"><ele>574.75</ele><time>2026-03-29T11:54:37.999Z</time></trkpt><trkpt lat="42.05763509250154" lon="13.014348722973278"><ele>577.5</ele><time>2026-03-29T11:54:39Z</time></trkpt><trkpt lat="42.057755432722715" lon="13.014398400735839"><ele>580.25</ele><time>2026-03-29T11:54:40Z</time></trkpt><trkpt lat="42.05789270632068" lon="13.0144463220584"><ele>583.0</ele><time>2026-03-29T11:54:41Z</time></trkpt><trkpt lat="42.05803841940671" lon="13.014522903483218"><ele>583.0</ele><time>2026-03-29T11:54:42Z</time></trkpt><trkpt lat="42.05819208241156" lon="13.014581148642943"><ele>583.0</ele><time>2026-03-29T11:54:43Z</time></trkpt><trkpt lat="42.05835327801783" lon="13.014620931644302"><ele>583.0</ele><time>2026-03-29T11:54:44Z</time></trkpt><trkpt lat="42.058523575544186" lon="13.014635265277315"><ele>586.3333333333334</ele><time>2026-03-29T11:54:45Z</time></trkpt><trkpt lat="42.05869470766043" lon="13.014627618183056"><ele>589.6666666666666</ele><time>2026-03-29T11:54:46Z</time></trkpt><trkpt lat="42.05886731411586" lon="13.01460367527073"><ele>593.0</ele><time>2026-03-29T11:54:47Z</time></trkpt><trkpt lat="42.05904010817183" lon="13.014567401526492"><ele>593.6666666666666</ele><time>2026-03-29T11:54:48Z</time></trkpt><trkpt lat="42.05920442348298" lon="13.014544396934184"><ele>594.3333333333334</ele><time>2026-03-29T11:54:49Z</time></trkpt><trkpt lat="42.05937553127503" lon="13.014534514297392"><ele>595.0</ele><time>2026-03-29T11:54:50Z</time></trkpt><trkpt lat="42.059556543464474" lon="13.014603877491467"><ele>595.0</ele><time>2026-03-29T11:54:51Z</time></trkpt><trkpt lat="42.05973061850373" lon="13.014650258301167"><ele>595.0</ele><time>2026-03-29T11:54:52Z</time></trkpt><trkpt lat="42.05985442054449" lon="13.014750916383647"><ele>595.0</ele><time>2026-03-29T11:54:53Z</time></trkpt><trkpt lat="42.05995907912081" lon="13.014851994158375"><ele>595.0</ele><time>2026-03-29T11:54:54Z</time></trkpt><trkpt lat="42.06003270366363" lon="13.015045454180008"><ele>595.0</ele><time>2026-03-29T11:54:55Z</time></trkpt><trkpt lat="42.06005053920155" lon="13.015283036212551"><ele>595.0</ele><time>2026-03-29T11:54:56Z</time></trkpt><trkpt lat="42.06005451458901" lon="13.015521862698968"><ele>595.0</ele><time>2026-03-29T11:54:57Z</time></trkpt><trkpt lat="42.06006093764165" lon="13.015731126901981"><ele>595.0</ele><time>2026-03-29T11:54:58Z</time></trkpt><trkpt lat="42.06005148913043" lon="13.015893680615935"><ele>595.0</ele><time>2026-03-29T11:54:59Z</time></trkpt><trkpt lat="42.060056573058446" lon="13.016022164997917"><ele>595.0</ele><time>2026-03-29T11:55:00Z</time></trkpt><trkpt lat="42.06009371021558" lon="13.016123674776884"><ele>595.5</ele><time>2026-03-29T11:55:01Z</time></trkpt><trkpt lat="42.06018584505901" lon="13.016210812844497"><ele>596.0</ele><time>2026-03-29T11:55:02Z</time></trkpt><trkpt lat="42.0602992479207" lon="13.016232516296416"><ele>596.5</ele><time>2026-03-29T11:55:03Z</time></trkpt><trkpt lat="42.060401611706" lon="13.016176242977407"><ele>597.0</ele><time>2026-03-29T11:55:04Z</time></trkpt><trkpt lat="42.06049909814461" lon="13.016055044292662"><ele>597.0</ele><time>2026-03-29T11:55:05Z</time></trkpt><trkpt lat="42.06056770162307" lon="13.01586322166823"><ele>597.0</ele><time>2026-03-29T11:55:06Z</time></trkpt><trkpt lat="42.06060621093508" lon="13.01566458434862"><ele>597.0</ele><time>2026-03-29T11:55:07Z</time></trkpt><trkpt lat="42.06063261067817" lon="13.015486805580943"><ele>597.0</ele><time>2026-03-29T11:55:08Z</time></trkpt><trkpt lat="42.06066165999417" lon="13.015352144142557"><ele>596.5</ele><time>2026-03-29T11:55:09Z</time></trkpt><trkpt lat="42.06068820897635" lon="13.015259580465665"><ele>596.0</ele><time>2026-03-29T11:55:10Z</time></trkpt><trkpt lat="42.06073876186376" lon="13.015147162181405"><ele>595.5</ele><time>2026-03-29T11:55:12Z</time></trkpt><trkpt lat="42.06093364520745" lon="13.015154758020934"><ele>595.0</ele><time>2026-03-29T11:55:14Z</time></trkpt><trkpt lat="42.060999549390175" lon="13.015254013569077"><ele>596.6</ele><time>2026-03-29T11:55:15Z</time></trkpt><trkpt lat="42.0610684041367" lon="13.01536434289193"><ele>598.2</ele><time>2026-03-29T11:55:16Z</time></trkpt><trkpt lat="42.06114455017253" lon="13.01547949454085"><ele>599.8</ele><time>2026-03-29T11:55:17Z</time></trkpt><trkpt lat="42.06121445610262" lon="13.01557635349593"><ele>601.4</ele><time>2026-03-29T11:55:18Z</time></trkpt><trkpt lat="42.061302465606" lon="13.015619807097417"><ele>603.0</ele><time>2026-03-29T11:55:19Z</time></trkpt><trkpt lat="42.06140445481959" lon="13.015610997075632"><ele>603.0</ele><time>2026-03-29T11:55:20Z</time></trkpt><trkpt lat="42.06150715187372" lon="13.015560212685749"><ele>603.0</ele><time>2026-03-29T11:55:21Z</time></trkpt><trkpt lat="42.06160251189598" lon="13.015462967889137"><ele>603.0</ele><time>2026-03-29T11:55:22Z</time></trkpt><trkpt lat="42.0616974437144" lon="13.015331286327038"><ele>603.0</ele><time>2026-03-29T11:55:23Z</time></trkpt><trkpt lat="42.06181228494321" lon="13.015203511914775"><ele>604.0</ele><time>2026-03-29T11:55:24Z</time></trkpt><trkpt lat="42.061915149840196" lon="13.01510694895129"><ele>605.0</ele><time>2026-03-29T11:55:25Z</time></trkpt><trkpt lat="42.06199604333636" lon="13.015017170962938"><ele>606.0</ele><time>2026-03-29T11:55:26Z</time></trkpt><trkpt lat="42.06206719486617" lon="13.014945043484783"><ele>607.0</ele><time>2026-03-29T11:55:27Z</time></trkpt><trkpt lat="42.06214337964667" lon="13.014888499522513"><ele>608.0</ele><time>2026-03-29T11:55:28Z</time></trkpt><trkpt lat="42.062210842549966" lon="13.014829713690315"><ele>608.75</ele><time>2026-03-29T11:55:29Z</time></trkpt><trkpt lat="42.06230659560533" lon="13.014797273094652"><ele>609.5</ele><time>2026-03-29T11:55:30Z</time></trkpt><trkpt lat="42.06240516788154" lon="13.014836590770644"><ele>610.25</ele><time>2026-03-29T11:55:31Z</time></trkpt><trkpt lat="42.06248989169464" lon="13.014937680415851"><ele>611.0</ele><time>2026-03-29T11:55:32Z</time></trkpt><trkpt lat="42.062607803407595" lon="13.015044605536291"><ele>611.0</ele><time>2026-03-29T11:55:33Z</time></trkpt><trkpt lat="42.06272394314861" lon="13.01519176305643"><ele>611.0</ele><time>2026-03-29T11:55:34Z</time></trkpt><trkpt lat="42.06285330526482" lon="13.01534928258865"><ele>611.0</ele><time>2026-03-29T11:55:35Z</time></trkpt><trkpt lat="42.0629738643782" lon="13.015479959798887"><ele>611.0</ele><time>2026-03-29T11:55:36Z</time></trkpt><trkpt lat="42.06309823249883" lon="13.015588736148993"><ele>611.0</ele><time>2026-03-29T11:55:37Z</time></trkpt><trkpt lat="42.06324593511316" lon="13.015655962007425"><ele>611.0</ele><time>2026-03-29T11:55:38Z</time></trkpt><trkpt lat="42.06341311647012" lon="13.015697140159734"><ele>609.6666666666666</ele><time>2026-03-29T11:55:39Z</time></trkpt><trkpt lat="42.06359972100168" lon="13.015745478539772"><ele>608.3333333333334</ele><time>2026-03-29T11:55:40Z</time></trkpt><trkpt lat="42.06380577779009" lon="13.015833673409947"><ele>607.0</ele><time>2026-03-29T11:55:41Z</time></trkpt><trkpt lat="42.064045985212545" lon="13.015942923287161"><ele>608.6666666666667</ele><time>2026-03-29T11:55:42Z</time></trkpt><trkpt lat="42.06426886293785" lon="13.016067187418193"><ele>610.3333333333334</ele><time>2026-03-29T11:55:43Z</time></trkpt><trkpt lat="42.064454898339726" lon="13.016165385030487"><ele>612.0</ele><time>2026-03-29T11:55:44Z</time></trkpt><trkpt lat="42.06462405100997" lon="13.016243813361017"><ele>612.0</ele><time>2026-03-29T11:55:45Z</time></trkpt><trkpt lat="42.06477160534287" lon="13.016333895623928"><ele>612.0</ele><time>2026-03-29T11:55:45.999Z</time></trkpt><trkpt lat="42.06491599445597" lon="13.01639631775471"><ele>612.0</ele><time>2026-03-29T11:55:46.999Z</time></trkpt><trkpt lat="42.065057208655254" lon="13.01644385285831"><ele>614.6666666666666</ele><time>2026-03-29T11:55:47.999Z</time></trkpt><trkpt lat="42.06521463324141" lon="13.016459520528674"><ele>617.3333333333333</ele><time>2026-03-29T11:55:48.999Z</time></trkpt><trkpt lat="42.06538424140912" lon="13.016452791252735"><ele>620.0</ele><time>2026-03-29T11:55:49.999Z</time></trkpt><trkpt lat="42.065568747244924" lon="13.016415670653767"><ele>620.0</ele><time>2026-03-29T11:55:50.999Z</time></trkpt><trkpt lat="42.06577448117971" lon="13.016408417381738"><ele>620.0</ele><time>2026-03-29T11:55:51.999Z</time></trkpt><trkpt lat="42.06596943501015" lon="13.016411296151594"><ele>620.0</ele><time>2026-03-29T11:55:52.999Z</time></trkpt><trkpt lat="42.066182770567714" lon="13.016430085230981"><ele>616.6666666666666</ele><time>2026-03-29T11:55:53.999Z</time></trkpt><trkpt lat="42.06639249151592" lon="13.016441653091368"><ele>613.3333333333334</ele><time>2026-03-29T11:55:54.999Z</time></trkpt><trkpt lat="42.066590535983295" lon="13.016452838660154"><ele>610.0</ele><time>2026-03-29T11:55:55.999Z</time></trkpt><trkpt lat="42.06678290254514" lon="13.01646190956141"><ele>608.3333333333334</ele><time>2026-03-29T11:55:56.999Z</time></trkpt><trkpt lat="42.06697321583866" lon="13.016475150046984"><ele>606.6666666666666</ele><time>2026-03-29T11:55:57.999Z</time></trkpt><trkpt lat="42.06714346192706" lon="13.016498641047818"><ele>605.0</ele><time>2026-03-29T11:55:58.999Z</time></trkpt><trkpt lat="42.06730624362842" lon="13.016532288901137"><ele>604.3333333333333</ele><time>2026-03-29T11:55:59.999Z</time></trkpt><trkpt lat="42.067469151061296" lon="13.01660721102739"><ele>603.6666666666666</ele><time>2026-03-29T11:56:00.999Z</time></trkpt><trkpt lat="42.06762209181627" lon="13.016729243919688"><ele>603.0</ele><time>2026-03-29T11:56:01.999Z</time></trkpt><trkpt lat="42.067781582126145" lon="13.016842860506069"><ele>600.6666666666666</ele><time>2026-03-29T11:56:02.999Z</time></trkpt><trkpt lat="42.06795019448432" lon="13.016915966252649"><ele>598.3333333333333</ele><time>2026-03-29T11:56:03.999Z</time></trkpt><trkpt lat="42.06812523048994" lon="13.01695773295152"><ele>596.0</ele><time>2026-03-29T11:56:04.999Z</time></trkpt><trkpt lat="42.06830346516715" lon="13.016987750093563"><ele>595.3333333333333</ele><time>2026-03-29T11:56:05.999Z</time></trkpt><trkpt lat="42.06847914343974" lon="13.01701744047104"><ele>594.6666666666666</ele><time>2026-03-29T11:56:06.999Z</time></trkpt><trkpt lat="42.068650999030716" lon="13.017067108043026"><ele>594.0</ele><time>2026-03-29T11:56:07.999Z</time></trkpt><trkpt lat="42.06880662233403" lon="13.017144928767895"><ele>594.0</ele><time>2026-03-29T11:56:08.999Z</time></trkpt><trkpt lat="42.0689481621782" lon="13.017229285627135"><ele>594.0</ele><time>2026-03-29T11:56:09.999Z</time></trkpt><trkpt lat="42.06908204736882" lon="13.01731289381272"><ele>594.0</ele><time>2026-03-29T11:56:10.999Z</time></trkpt><trkpt lat="42.06918820380258" lon="13.017444904933157"><ele>594.0</ele><time>2026-03-29T11:56:11.999Z</time></trkpt><trkpt lat="42.069308049148816" lon="13.017594836450003"><ele>592.6666666666666</ele><time>2026-03-29T11:56:12.999Z</time></trkpt><trkpt lat="42.069407122542444" lon="13.01781108035193"><ele>591.3333333333333</ele><time>2026-03-29T11:56:13.999Z</time></trkpt><trkpt lat="42.06952108330923" lon="13.018027517021931"><ele>590.0</ele><time>2026-03-29T11:56:14.999Z</time></trkpt><trkpt lat="42.069645821569125" lon="13.018247446122954"><ele>590.0</ele><time>2026-03-29T11:56:15.999Z</time></trkpt><trkpt lat="42.06978440818329" lon="13.018472898620095"><ele>590.0</ele><time>2026-03-29T11:56:16.999Z</time></trkpt><trkpt lat="42.06991874327587" lon="13.018695998974815"><ele>590.0</ele><time>2026-03-29T11:56:17.999Z</time></trkpt><trkpt lat="42.07004377124599" lon="13.01890577634993"><ele>589.6666666666666</ele><time>2026-03-29T11:56:18.999Z</time></trkpt><trkpt lat="42.07015687469396" lon="13.019100220361205"><ele>589.3333333333334</ele><time>2026-03-29T11:56:19.999Z</time></trkpt><trkpt lat="42.070271405371265" lon="13.01927229661068"><ele>589.0</ele><time>2026-03-29T11:56:20.999Z</time></trkpt><trkpt lat="42.070387681991384" lon="13.019429354015562"><ele>589.0</ele><time>2026-03-29T11:56:21.999Z</time></trkpt><trkpt lat="42.07051936062193" lon="13.019565614004055"><ele>589.0</ele><time>2026-03-29T11:56:22.999Z</time></trkpt><trkpt lat="42.07067604845796" lon="13.019678743789981"><ele>589.0</ele><time>2026-03-29T11:56:23.999Z</time></trkpt><trkpt lat="42.070853002566" lon="13.019764436520672"><ele>591.6666666666667</ele><time>2026-03-29T11:56:24.999Z</time></trkpt><trkpt lat="42.07103440867837" lon="13.019835997092693"><ele>594.3333333333334</ele><time>2026-03-29T11:56:25.999Z</time></trkpt><trkpt lat="42.071193743726774" lon="13.019896444778157"><ele>597.0</ele><time>2026-03-29T11:56:26.999Z</time></trkpt><trkpt lat="42.07134233410132" lon="13.019942810605565"><ele>597.0</ele><time>2026-03-29T11:56:27.999Z</time></trkpt><trkpt lat="42.071496415124074" lon="13.019970722661498"><ele>597.0</ele><time>2026-03-29T11:56:28.999Z</time></trkpt><trkpt lat="42.07165971371822" lon="13.019941312301098"><ele>597.0</ele><time>2026-03-29T11:56:29.999Z</time></trkpt><trkpt lat="42.071827023072" lon="13.019861726451415"><ele>599.0</ele><time>2026-03-29T11:56:30.999Z</time></trkpt><trkpt lat="42.071993604759214" lon="13.019752208858847"><ele>601.0</ele><time>2026-03-29T11:56:31.999Z</time></trkpt><trkpt lat="42.07215660269358" lon="13.019619230139723"><ele>603.0</ele><time>2026-03-29T11:56:32.999Z</time></trkpt><trkpt lat="42.072314421341716" lon="13.019491006351528"><ele>603.6666666666666</ele><time>2026-03-29T11:56:33.999Z</time></trkpt><trkpt lat="42.0724456934677" lon="13.019349387543974"><ele>604.3333333333333</ele><time>2026-03-29T11:56:34.999Z</time></trkpt><trkpt lat="42.072581334671966" lon="13.01923264171492"><ele>605.0</ele><time>2026-03-29T11:56:35.999Z</time></trkpt><trkpt lat="42.07269656139932" lon="13.019089842958557"><ele>605.0</ele><time>2026-03-29T11:56:36.999Z</time></trkpt><trkpt lat="42.072811340809245" lon="13.018967681469485"><ele>605.0</ele><time>2026-03-29T11:56:37.999Z</time></trkpt><trkpt lat="42.072902795995255" lon="13.01880738821226"><ele>605.0</ele><time>2026-03-29T11:56:38.999Z</time></trkpt><trkpt lat="42.07297267169375" lon="13.018638636077343"><ele>605.0</ele><time>2026-03-29T11:56:39.999Z</time></trkpt><trkpt lat="42.07308101322256" lon="13.018490336651816"><ele>605.0</ele><time>2026-03-29T11:56:40.999Z</time></trkpt><trkpt lat="42.07317890015953" lon="13.018364627555629"><ele>605.0</ele><time>2026-03-29T11:56:41.999Z</time></trkpt><trkpt lat="42.07330915395299" lon="13.018307181613961"><ele>605.0</ele><time>2026-03-29T11:56:42.999Z</time></trkpt><trkpt lat="42.07345783847982" lon="13.018318255507246"><ele>605.0</ele><time>2026-03-29T11:56:43.999Z</time></trkpt><trkpt lat="42.073616717440565" lon="13.018371185170487"><ele>598.6666666666666</ele><time>2026-03-29T11:56:45Z</time></trkpt><trkpt lat="42.073801741703306" lon="13.018405618393944"><ele>592.3333333333334</ele><time>2026-03-29T11:56:46Z</time></trkpt><trkpt lat="42.07398972434359" lon="13.018394590564498"><ele>586.0</ele><time>2026-03-29T11:56:47Z</time></trkpt><trkpt lat="42.0741679069795" lon="13.018358821320728"><ele>589.25</ele><time>2026-03-29T11:56:48Z</time></trkpt><trkpt lat="42.07433075666208" lon="13.018315721159354"><ele>592.5</ele><time>2026-03-29T11:56:49Z</time></trkpt><trkpt lat="42.07447378264545" lon="13.018263546173458"><ele>595.75</ele><time>2026-03-29T11:56:50Z</time></trkpt><trkpt lat="42.07458304061037" lon="13.01820008681201"><ele>599.0</ele><time>2026-03-29T11:56:51Z</time></trkpt><trkpt lat="42.07467211891067" lon="13.018123703814362"><ele>599.0</ele><time>2026-03-29T11:56:52Z</time></trkpt><trkpt lat="42.07474838715948" lon="13.018017275130354"><ele>599.0</ele><time>2026-03-29T11:56:53Z</time></trkpt><trkpt lat="42.07483142910183" lon="13.017900765535286"><ele>599.0</ele><time>2026-03-29T11:56:54Z</time></trkpt><trkpt lat="42.07491908551245" lon="13.01775727491803"><ele>599.0</ele><time>2026-03-29T11:56:55Z</time></trkpt><trkpt lat="42.07500322248257" lon="13.017602805204586"><ele>596.75</ele><time>2026-03-29T11:56:56Z</time></trkpt><trkpt lat="42.0750855676387" lon="13.017431686055115"><ele>594.5</ele><time>2026-03-29T11:56:57Z</time></trkpt><trkpt lat="42.07516657663538" lon="13.01727477265487"><ele>592.25</ele><time>2026-03-29T11:56:58Z</time></trkpt><trkpt lat="42.07523310668403" lon="13.017127770654529"><ele>590.0</ele><time>2026-03-29T11:56:59Z</time></trkpt><trkpt lat="42.075290704317666" lon="13.016999395590116"><ele>590.0</ele><time>2026-03-29T11:57:00Z</time></trkpt><trkpt lat="42.07535238669272" lon="13.016887788549042"><ele>590.0</ele><time>2026-03-29T11:57:01Z</time></trkpt><trkpt lat="42.075438991647815" lon="13.01679580956907"><ele>590.0</ele><time>2026-03-29T11:57:02Z</time></trkpt><trkpt lat="42.0755531156148" lon="13.016738155258018"><ele>590.0</ele><time>2026-03-29T11:57:03Z</time></trkpt><trkpt lat="42.075691002850355" lon="13.01671479517696"><ele>588.6666666666666</ele><time>2026-03-29T11:57:04Z</time></trkpt><trkpt lat="42.075839783406344" lon="13.016700956385188"><ele>587.3333333333334</ele><time>2026-03-29T11:57:05Z</time></trkpt><trkpt lat="42.075997770251796" lon="13.01670918868741"><ele>586.0</ele><time>2026-03-29T11:57:06Z</time></trkpt><trkpt lat="42.07615357517199" lon="13.01675209734306"><ele>586.0</ele><time>2026-03-29T11:57:07Z</time></trkpt><trkpt lat="42.07629417072656" lon="13.016776648715174"><ele>586.0</ele><time>2026-03-29T11:57:08Z</time></trkpt><trkpt lat="42.0764410764554" lon="13.016745318679368"><ele>586.0</ele><time>2026-03-29T11:57:09Z</time></trkpt><trkpt lat="42.07658658823922" lon="13.016665045226485"><ele>586.0</ele><time>2026-03-29T11:57:10Z</time></trkpt><trkpt lat="42.07672127745036" lon="13.016557547321916"><ele>586.0</ele><time>2026-03-29T11:57:11Z</time></trkpt><trkpt lat="42.076839224964985" lon="13.016470009569224"><ele>586.0</ele><time>2026-03-29T11:57:12Z</time></trkpt><trkpt lat="42.0769525733536" lon="13.016406248975445"><ele>586.0</ele><time>2026-03-29T11:57:13Z</time></trkpt><trkpt lat="42.07706883991487" lon="13.016386276040107"><ele>586.0</ele><time>2026-03-29T11:57:14Z</time></trkpt><trkpt lat="42.07718212171939" lon="13.016408998771512"><ele>586.0</ele><time>2026-03-29T11:57:15Z</time></trkpt><trkpt lat="42.07728679423143" lon="13.016482853301378"><ele>586.0</ele><time>2026-03-29T11:57:16Z</time></trkpt><trkpt lat="42.07738288740979" lon="13.016588247358387"><ele>586.0</ele><time>2026-03-29T11:57:17Z</time></trkpt><trkpt lat="42.07747193611986" lon="13.016735674498294"><ele>586.0</ele><time>2026-03-29T11:57:18Z</time></trkpt><trkpt lat="42.077560863707674" lon="13.016904765011331"><ele>585.0</ele><time>2026-03-29T11:57:19Z</time></trkpt><trkpt lat="42.07765828562183" lon="13.01708083150644"><ele>584.0</ele><time>2026-03-29T11:57:20Z</time></trkpt><trkpt lat="42.07775967793279" lon="13.0172495214372"><ele>583.0</ele><time>2026-03-29T11:57:21Z</time></trkpt><trkpt lat="42.07786219761286" lon="13.017412207925975"><ele>582.6666666666667</ele><time>2026-03-29T11:57:22Z</time></trkpt><trkpt lat="42.0780024608921" lon="13.017542492143555"><ele>582.3333333333334</ele><time>2026-03-29T11:57:23Z</time></trkpt><trkpt lat="42.07817710002284" lon="13.017660958127797"><ele>582.0</ele><time>2026-03-29T11:57:24Z</time></trkpt><trkpt lat="42.07832798397887" lon="13.017780632648044"><ele>582.0</ele><time>2026-03-29T11:57:25Z</time></trkpt><trkpt lat="42.07844189749136" lon="13.017919320181475"><ele>582.0</ele><time>2026-03-29T11:57:26Z</time></trkpt><trkpt lat="42.0785476578014" lon="13.018048131111904"><ele>582.0</ele><time>2026-03-29T11:57:27Z</time></trkpt><trkpt lat="42.078665818071784" lon="13.018153986705892"><ele>582.0</ele><time>2026-03-29T11:57:28Z</time></trkpt><trkpt lat="42.07880652258189" lon="13.018199128266657"><ele>582.0</ele><time>2026-03-29T11:57:29Z</time></trkpt><trkpt lat="42.07896204851036" lon="13.018199924719827"><ele>582.0</ele><time>2026-03-29T11:57:30Z</time></trkpt><trkpt lat="42.07912367542959" lon="13.018171605454873"><ele>582.0</ele><time>2026-03-29T11:57:31Z</time></trkpt><trkpt lat="42.07928617846476" lon="13.018141457702098"><ele>582.25</ele><time>2026-03-29T11:57:32Z</time></trkpt><trkpt lat="42.07943873686454" lon="13.018105712928396"><ele>582.5</ele><time>2026-03-29T11:57:33Z</time></trkpt><trkpt lat="42.07958434888324" lon="13.018070329791723"><ele>582.75</ele><time>2026-03-29T11:57:34Z</time></trkpt><trkpt lat="42.07972322828536" lon="13.018040302351379"><ele>583.0</ele><time>2026-03-29T11:57:35Z</time></trkpt><trkpt lat="42.07986960158136" lon="13.018029646409326"><ele>584.6666666666667</ele><time>2026-03-29T11:57:36Z</time></trkpt><trkpt lat="42.08001709677187" lon="13.018069078215639"><ele>586.3333333333334</ele><time>2026-03-29T11:57:37Z</time></trkpt><trkpt lat="42.08016785282094" lon="13.018165466807847"><ele>588.0</ele><time>2026-03-29T11:57:38Z</time></trkpt><trkpt lat="42.08033149936291" lon="13.018258373372657"><ele>588.0</ele><time>2026-03-29T11:57:39Z</time></trkpt><trkpt lat="42.08053059955186" lon="13.01831654081374"><ele>588.0</ele><time>2026-03-29T11:57:40Z</time></trkpt><trkpt lat="42.0807061775009" lon="13.01835300145719"><ele>588.0</ele><time>2026-03-29T11:57:41Z</time></trkpt><trkpt lat="42.08085069104952" lon="13.018380860279125"><ele>586.6666666666666</ele><time>2026-03-29T11:57:42Z</time></trkpt><trkpt lat="42.08097796349372" lon="13.018437152392107"><ele>585.3333333333333</ele><time>2026-03-29T11:57:43Z</time></trkpt><trkpt lat="42.08108374825132" lon="13.018560962642894"><ele>584.0</ele><time>2026-03-29T11:57:44Z</time></trkpt><trkpt lat="42.08119821343133" lon="13.018751987319622"><ele>584.0</ele><time>2026-03-29T11:57:45Z</time></trkpt><trkpt lat="42.08136097066821" lon="13.018947242217195"><ele>584.0</ele><time>2026-03-29T11:57:46Z</time></trkpt><trkpt lat="42.08154795598814" lon="13.019135479506254"><ele>582.6666666666666</ele><time>2026-03-29T11:57:47Z</time></trkpt><trkpt lat="42.08172730829101" lon="13.01931313960858"><ele>581.3333333333334</ele><time>2026-03-29T11:57:47.999Z</time></trkpt><trkpt lat="42.08191113404558" lon="13.019475439326955"><ele>580.0</ele><time>2026-03-29T11:57:48.999Z</time></trkpt><trkpt lat="42.08209528008067" lon="13.01960612340566"><ele>580.0</ele><time>2026-03-29T11:57:49.999Z</time></trkpt><trkpt lat="42.08226754719833" lon="13.019716672139229"><ele>580.0</ele><time>2026-03-29T11:57:50.999Z</time></trkpt><trkpt lat="42.08242592531977" lon="13.019830077363556"><ele>580.0</ele><time>2026-03-29T11:57:51.999Z</time></trkpt><trkpt lat="42.082571804229424" lon="13.019972090280424"><ele>580.0</ele><time>2026-03-29T11:57:52.999Z</time></trkpt><trkpt lat="42.082698907145" lon="13.020105571536167"><ele>580.0</ele><time>2026-03-29T11:57:53.999Z</time></trkpt><trkpt lat="42.08281607581053" lon="13.0202254958975"><ele>580.0</ele><time>2026-03-29T11:57:54.999Z</time></trkpt><trkpt lat="42.08292880343592" lon="13.02032708576622"><ele>580.0</ele><time>2026-03-29T11:57:55.999Z</time></trkpt><trkpt lat="42.083054400438435" lon="13.020404970098145"><ele>580.0</ele><time>2026-03-29T11:57:56.999Z</time></trkpt><trkpt lat="42.08319841959017" lon="13.02044928339358"><ele>580.0</ele><time>2026-03-29T11:57:57.999Z</time></trkpt><trkpt lat="42.08335314703249" lon="13.020457578742105"><ele>580.0</ele><time>2026-03-29T11:57:58.999Z</time></trkpt><trkpt lat="42.08351610104412" lon="13.020440537125197"><ele>582.0</ele><time>2026-03-29T11:57:59.999Z</time></trkpt><trkpt lat="42.08368341003695" lon="13.02041742836281"><ele>584.0</ele><time>2026-03-29T11:58:00.999Z</time></trkpt><trkpt lat="42.0838504078774" lon="13.02037593146357"><ele>586.0</ele><time>2026-03-29T11:58:01.999Z</time></trkpt><trkpt lat="42.08400989532418" lon="13.020311218555662"><ele>587.0</ele><time>2026-03-29T11:58:02.999Z</time></trkpt><trkpt lat="42.08416193293085" lon="13.020243022750318"><ele>588.0</ele><time>2026-03-29T11:58:03.999Z</time></trkpt><trkpt lat="42.0843109183698" lon="13.020191707500768"><ele>589.0</ele><time>2026-03-29T11:58:04.999Z</time></trkpt><trkpt lat="42.08446170422791" lon="13.02015685279009"><ele>589.0</ele><time>2026-03-29T11:58:05.999Z</time></trkpt><trkpt lat="42.084614436527986" lon="13.020142574870603"><ele>589.0</ele><time>2026-03-29T11:58:06.999Z</time></trkpt><trkpt lat="42.08477817624873" lon="13.020173452578275"><ele>589.0</ele><time>2026-03-29T11:58:07.999Z</time></trkpt><trkpt lat="42.08495492536258" lon="13.020227301601999"><ele>585.6666666666667</ele><time>2026-03-29T11:58:08.999Z</time></trkpt><trkpt lat="42.085145189433895" lon="13.02028221633039"><ele>582.3333333333334</ele><time>2026-03-29T11:58:09.999Z</time></trkpt><trkpt lat="42.08534728662565" lon="13.020297448045271"><ele>579.0</ele><time>2026-03-29T11:58:10.999Z</time></trkpt><trkpt lat="42.08555886190849" lon="13.02030137082527"><ele>577.6666666666666</ele><time>2026-03-29T11:58:11.999Z</time></trkpt><trkpt lat="42.08577180471926" lon="13.020312471963333"><ele>576.3333333333333</ele><time>2026-03-29T11:58:12.999Z</time></trkpt><trkpt lat="42.0859844610499" lon="13.020329921092296"><ele>575.0</ele><time>2026-03-29T11:58:13.999Z</time></trkpt><trkpt lat="42.086197102128466" lon="13.020346442038164"><ele>575.0</ele><time>2026-03-29T11:58:14.999Z</time></trkpt><trkpt lat="42.08641433501313" lon="13.020368267205114"><ele>575.0</ele><time>2026-03-29T11:58:15.999Z</time></trkpt><trkpt lat="42.08662973588535" lon="13.020399520040016"><ele>575.0</ele><time>2026-03-29T11:58:16.999Z</time></trkpt><trkpt lat="42.08683888418367" lon="13.020430658385044"><ele>575.6666666666666</ele><time>2026-03-29T11:58:17.999Z</time></trkpt><trkpt lat="42.087049000089365" lon="13.020459481156028"><ele>576.3333333333334</ele><time>2026-03-29T11:58:18.999Z</time></trkpt><trkpt lat="42.08724719381017" lon="13.020506755439014"><ele>577.0</ele><time>2026-03-29T11:58:19.999Z</time></trkpt><trkpt lat="42.08744786072098" lon="13.020539130306243"><ele>577.3333333333334</ele><time>2026-03-29T11:58:20.999Z</time></trkpt><trkpt lat="42.08765119332868" lon="13.020552346735704"><ele>577.6666666666666</ele><time>2026-03-29T11:58:21.999Z</time></trkpt><trkpt lat="42.087844955056816" lon="13.02058358782291"><ele>578.0</ele><time>2026-03-29T11:58:22.999Z</time></trkpt><trkpt lat="42.088027691524815" lon="13.020608106813635"><ele>578.0</ele><time>2026-03-29T11:58:23.999Z</time></trkpt><trkpt lat="42.0882044489113" lon="13.020634447398747"><ele>578.0</ele><time>2026-03-29T11:58:24.999Z</time></trkpt><trkpt lat="42.088370979409156" lon="13.020665525028477"><ele>578.0</ele><time>2026-03-29T11:58:25.999Z</time></trkpt><trkpt lat="42.088529123422035" lon="13.020698289120693"><ele>577.6666666666666</ele><time>2026-03-29T11:58:26.999Z</time></trkpt><trkpt lat="42.08868987985211" lon="13.020766642701002"><ele>577.3333333333334</ele><time>2026-03-29T11:58:27.999Z</time></trkpt><trkpt lat="42.088853124135284" lon="13.020842704759007"><ele>577.0</ele><time>2026-03-29T11:58:28.999Z</time></trkpt><trkpt lat="42.08903147171227" lon="13.020918738758189"><ele>578.3333333333334</ele><time>2026-03-29T11:58:29.999Z</time></trkpt><trkpt lat="42.08920447333349" lon="13.021042279598037"><ele>579.6666666666666</ele><time>2026-03-29T11:58:30.999Z</time></trkpt><trkpt lat="42.08940223698412" lon="13.021160010554084"><ele>581.0</ele><time>2026-03-29T11:58:31.999Z</time></trkpt><trkpt lat="42.08961365714862" lon="13.021255568575908"><ele>581.0</ele><time>2026-03-29T11:58:32.999Z</time></trkpt><trkpt lat="42.08979692299219" lon="13.02137333855928"><ele>581.0</ele><time>2026-03-29T11:58:33.999Z</time></trkpt><trkpt lat="42.0899649995947" lon="13.021485952934727"><ele>581.0</ele><time>2026-03-29T11:58:34.999Z</time></trkpt><trkpt lat="42.09012055754869" lon="13.021590134832303"><ele>580.3333333333333</ele><time>2026-03-29T11:58:35.999Z</time></trkpt><trkpt lat="42.09026167904187" lon="13.021691786041387"><ele>579.6666666666666</ele><time>2026-03-29T11:58:36.999Z</time></trkpt><trkpt lat="42.09041406607822" lon="13.021754898277534"><ele>579.0</ele><time>2026-03-29T11:58:37.999Z</time></trkpt><trkpt lat="42.090568227670474" lon="13.021816845296883"><ele>579.0</ele><time>2026-03-29T11:58:38.999Z</time></trkpt><trkpt lat="42.090734972797115" lon="13.021831495549172"><ele>579.0</ele><time>2026-03-29T11:58:39.999Z</time></trkpt><trkpt lat="42.090903227228026" lon="13.021842366244815"><ele>579.0</ele><time>2026-03-29T11:58:40.999Z</time></trkpt><trkpt lat="42.09107833988345" lon="13.021915152356522"><ele>579.0</ele><time>2026-03-29T11:58:41.999Z</time></trkpt><trkpt lat="42.09126189757273" lon="13.022013690702238"><ele>579.0</ele><time>2026-03-29T11:58:42.999Z</time></trkpt><trkpt lat="42.09144644698707" lon="13.022117995116835"><ele>579.0</ele><time>2026-03-29T11:58:43.999Z</time></trkpt><trkpt lat="42.091628775948124" lon="13.022230784098085"><ele>580.3333333333334</ele><time>2026-03-29T11:58:44.999Z</time></trkpt><trkpt lat="42.091818104059335" lon="13.022318010222735"><ele>581.6666666666667</ele><time>2026-03-29T11:58:45.999Z</time></trkpt><trkpt lat="42.09200177357498" lon="13.022374468990769"><ele>583.0</ele><time>2026-03-29T11:58:46.999Z</time></trkpt><trkpt lat="42.092169988351195" lon="13.02243998289229"><ele>583.0</ele><time>2026-03-29T11:58:47.999Z</time></trkpt><trkpt lat="42.09234601696987" lon="13.022432746744483"><ele>583.0</ele><time>2026-03-29T11:58:48.999Z</time></trkpt><trkpt lat="42.092524086274565" lon="13.02242341757656"><ele>583.0</ele><time>2026-03-29T11:58:49.999Z</time></trkpt><trkpt lat="42.092691528652765" lon="13.022432469466132"><ele>581.0</ele><time>2026-03-29T11:58:51Z</time></trkpt><trkpt lat="42.09284670965263" lon="13.02244200466327"><ele>579.0</ele><time>2026-03-29T11:58:52Z</time></trkpt><trkpt lat="42.09299352969052" lon="13.022485238865189"><ele>577.0</ele><time>2026-03-29T11:58:53Z</time></trkpt><trkpt lat="42.093142636302815" lon="13.022553583385319"><ele>577.25</ele><time>2026-03-29T11:58:54Z</time></trkpt><trkpt lat="42.09327557932258" lon="13.02262627981677"><ele>577.5</ele><time>2026-03-29T11:58:55Z</time></trkpt><trkpt lat="42.09341307320159" lon="13.022695080116636"><ele>577.75</ele><time>2026-03-29T11:58:56Z</time></trkpt><trkpt lat="42.0935674043034" lon="13.02274475392361"><ele>578.0</ele><time>2026-03-29T11:58:57Z</time></trkpt><trkpt lat="42.093725080071245" lon="13.022838026414046"><ele>578.0</ele><time>2026-03-29T11:58:58Z</time></trkpt><trkpt lat="42.09388865408843" lon="13.022925334745251"><ele>578.0</ele><time>2026-03-29T11:58:59Z</time></trkpt><trkpt lat="42.09402734648658" lon="13.02304819638234"><ele>578.0</ele><time>2026-03-29T11:59:00Z</time></trkpt><trkpt lat="42.094157999744866" lon="13.023155738439984"><ele>578.3333333333333</ele><time>2026-03-29T11:59:01Z</time></trkpt><trkpt lat="42.094291317441204" lon="13.023256768816111"><ele>578.6666666666666</ele><time>2026-03-29T11:59:02Z</time></trkpt><trkpt lat="42.0944488940174" lon="13.023332727187503"><ele>579.0</ele><time>2026-03-29T11:59:03Z</time></trkpt><trkpt lat="42.09463606782962" lon="13.023372396980418"><ele>579.0</ele><time>2026-03-29T11:59:04Z</time></trkpt><trkpt lat="42.0948290654827" lon="13.023438357049814"><ele>579.0</ele><time>2026-03-29T11:59:05Z</time></trkpt><trkpt lat="42.09501362179144" lon="13.023474914038097"><ele>579.0</ele><time>2026-03-29T11:59:06Z</time></trkpt><trkpt lat="42.09517795179543" lon="13.023500772403246"><ele>579.6666666666666</ele><time>2026-03-29T11:59:07Z</time></trkpt><trkpt lat="42.09534553389973" lon="13.02351594424839"><ele>580.3333333333333</ele><time>2026-03-29T11:59:08Z</time></trkpt><trkpt lat="42.09552429422994" lon="13.023496307498378"><ele>581.0</ele><time>2026-03-29T11:59:09Z</time></trkpt><trkpt lat="42.09569184221704" lon="13.023419753511831"><ele>581.0</ele><time>2026-03-29T11:59:10Z</time></trkpt><trkpt lat="42.09586178010296" lon="13.02336570504572"><ele>581.0</ele><time>2026-03-29T11:59:11Z</time></trkpt><trkpt lat="42.09603482308954" lon="13.023340198489231"><ele>581.0</ele><time>2026-03-29T11:59:12Z</time></trkpt><trkpt lat="42.096210123338274" lon="13.023346076553883"><ele>581.0</ele><time>2026-03-29T11:59:13Z</time></trkpt><trkpt lat="42.0963971267179" lon="13.023335850286982"><ele>581.0</ele><time>2026-03-29T11:59:14Z</time></trkpt><trkpt lat="42.09659732789544" lon="13.023349226964555"><ele>581.0</ele><time>2026-03-29T11:59:15Z</time></trkpt><trkpt lat="42.09679847781109" lon="13.023345680938641"><ele>579.6666666666666</ele><time>2026-03-29T11:59:16Z</time></trkpt><trkpt lat="42.09698448508901" lon="13.023335500369626"><ele>578.3333333333334</ele><time>2026-03-29T11:59:17Z</time></trkpt><trkpt lat="42.09716179039465" lon="13.023322923330172"><ele>577.0</ele><time>2026-03-29T11:59:18Z</time></trkpt><trkpt lat="42.09734660364655" lon="13.023318523283585"><ele>576.3333333333334</ele><time>2026-03-29T11:59:19Z</time></trkpt><trkpt lat="42.097534194042424" lon="13.023360729348726"><ele>575.6666666666666</ele><time>2026-03-29T11:59:20Z</time></trkpt><trkpt lat="42.09772274107969" lon="13.023405645713016"><ele>575.0</ele><time>2026-03-29T11:59:21Z</time></trkpt><trkpt lat="42.09791156980281" lon="13.02343069716591"><ele>575.0</ele><time>2026-03-29T11:59:22Z</time></trkpt><trkpt lat="42.0980993158746" lon="13.023464070111139"><ele>575.0</ele><time>2026-03-29T11:59:23Z</time></trkpt><trkpt lat="42.09829082680873" lon="13.02347143359626"><ele>575.0</ele><time>2026-03-29T11:59:24Z</time></trkpt><trkpt lat="42.09848647434649" lon="13.023456867404786"><ele>574.3333333333333</ele><time>2026-03-29T11:59:25Z</time></trkpt><trkpt lat="42.09868305394301" lon="13.023420064395248"><ele>573.6666666666666</ele><time>2026-03-29T11:59:26Z</time></trkpt><trkpt lat="42.098882785064774" lon="13.023372166277221"><ele>573.0</ele><time>2026-03-29T11:59:27Z</time></trkpt><trkpt lat="42.09906828503066" lon="13.023271963131485"><ele>573.3333333333334</ele><time>2026-03-29T11:59:28Z</time></trkpt><trkpt lat="42.09925680755668" lon="13.023212667869668"><ele>573.6666666666667</ele><time>2026-03-29T11:59:29Z</time></trkpt><trkpt lat="42.09942527209124" lon="13.023138800730294"><ele>574.0</ele><time>2026-03-29T11:59:30Z</time></trkpt><trkpt lat="42.09958172110314" lon="13.023069840679076"><ele>574.0</ele><time>2026-03-29T11:59:31Z</time></trkpt><trkpt lat="42.0997258306515" lon="13.02300631817019"><ele>574.0</ele><time>2026-03-29T11:59:32Z</time></trkpt><trkpt lat="42.099859515445424" lon="13.022944433867073"><ele>574.0</ele><time>2026-03-29T11:59:33Z</time></trkpt><trkpt lat="42.09998327812825" lon="13.022885405620595"><ele>574.0</ele><time>2026-03-29T11:59:34Z</time></trkpt><trkpt lat="42.1000898754355" lon="13.022831740241228"><ele>574.3333333333334</ele><time>2026-03-29T11:59:35Z</time></trkpt><trkpt lat="42.100180824954194" lon="13.022782885221442"><ele>574.6666666666667</ele><time>2026-03-29T11:59:36Z</time></trkpt><trkpt lat="42.10025077680493" lon="13.022745217201672"><ele>575.0</ele><time>2026-03-29T11:59:37Z</time></trkpt><trkpt lat="42.10035082853754" lon="13.022688104972774"><ele>575.3333333333334</ele><time>2026-03-29T11:59:39Z</time></trkpt><trkpt lat="42.10040849231771" lon="13.022637396911717"><ele>575.6666666666666</ele><time>2026-03-29T11:59:58.999Z</time></trkpt><trkpt lat="42.10048899939748" lon="13.022631008064492"><ele>576.0</ele><time>2026-03-29T12:00:01.999Z</time></trkpt><trkpt lat="42.10053412683206" lon="13.022750744242979"><ele>576.0</ele><time>2026-03-29T12:00:02.999Z</time></trkpt><trkpt lat="42.100558877325085" lon="13.022869920195166"><ele>576.0</ele><time>2026-03-29T12:00:03.999Z</time></trkpt><trkpt lat="42.100603039160504" lon="13.022999198479303"><ele>576.0</ele><time>2026-03-29T12:00:04.999Z</time></trkpt><trkpt lat="42.100664910193466" lon="13.023129373882435"><ele>576.0</ele><time>2026-03-29T12:00:05.999Z</time></trkpt><trkpt lat="42.100749453097976" lon="13.023254682151586"><ele>576.0</ele><time>2026-03-29T12:00:06.999Z</time></trkpt><trkpt lat="42.10087076877332" lon="13.023411878321433"><ele>575.0</ele><time>2026-03-29T12:00:07.999Z</time></trkpt><trkpt lat="42.100995162070724" lon="13.023565085552631"><ele>574.0</ele><time>2026-03-29T12:00:08.999Z</time></trkpt><trkpt lat="42.10111953465626" lon="13.023717351801599"><ele>573.0</ele><time>2026-03-29T12:00:09.999Z</time></trkpt><trkpt lat="42.10123421331296" lon="13.023863497024083"><ele>573.0</ele><time>2026-03-29T12:00:10.999Z</time></trkpt><trkpt lat="42.101345105266816" lon="13.023999026200578"><ele>573.0</ele><time>2026-03-29T12:00:11.999Z</time></trkpt><trkpt lat="42.10146836176378" lon="13.024130572919097"><ele>573.0</ele><time>2026-03-29T12:00:12.999Z</time></trkpt><trkpt lat="42.10161062417009" lon="13.024238264335946"><ele>573.0</ele><time>2026-03-29T12:00:13.999Z</time></trkpt><trkpt lat="42.10176293550981" lon="13.024336661854736"><ele>573.0</ele><time>2026-03-29T12:00:14.999Z</time></trkpt><trkpt lat="42.10193305130438" lon="13.024418244706546"><ele>573.0</ele><time>2026-03-29T12:00:15.999Z</time></trkpt><trkpt lat="42.10211300847872" lon="13.02448391755745"><ele>573.0</ele><time>2026-03-29T12:00:16.999Z</time></trkpt><trkpt lat="42.10230192336318" lon="13.024543142961098"><ele>573.0</ele><time>2026-03-29T12:00:17.999Z</time></trkpt><trkpt lat="42.10250186646088" lon="13.024602443691254"><ele>573.0</ele><time>2026-03-29T12:00:18.999Z</time></trkpt><trkpt lat="42.1027111427115" lon="13.024669027129178"><ele>575.0</ele><time>2026-03-29T12:00:19.999Z</time></trkpt><trkpt lat="42.10293201613862" lon="13.024736952893285"><ele>577.0</ele><time>2026-03-29T12:00:20.999Z</time></trkpt><trkpt lat="42.10316994998442" lon="13.024812170945939"><ele>577.0</ele><time>2026-03-29T12:00:21.999Z</time></trkpt><trkpt lat="42.10340569126565" lon="13.024897689164492"><ele>577.0</ele><time>2026-03-29T12:00:22.999Z</time></trkpt><trkpt lat="42.1036336137179" lon="13.024996631754922"><ele>573.5</ele><time>2026-03-29T12:00:23.999Z</time></trkpt><trkpt lat="42.10385481120279" lon="13.02510771265205"><ele>570.0</ele><time>2026-03-29T12:00:24.999Z</time></trkpt><trkpt lat="42.10406900788283" lon="13.02523143513836"><ele>572.5</ele><time>2026-03-29T12:00:25.999Z</time></trkpt><trkpt lat="42.10427569647546" lon="13.025365015002787"><ele>575.0</ele><time>2026-03-29T12:00:26.999Z</time></trkpt><trkpt lat="42.10447335740125" lon="13.025514208029357"><ele>575.0</ele><time>2026-03-29T12:00:27.999Z</time></trkpt><trkpt lat="42.10466663613448" lon="13.02567441672867"><ele>575.0</ele><time>2026-03-29T12:00:28.999Z</time></trkpt><trkpt lat="42.10485804029636" lon="13.025840895478678"><ele>573.5</ele><time>2026-03-29T12:00:29.999Z</time></trkpt><trkpt lat="42.105052618418405" lon="13.026005353143608"><ele>572.0</ele><time>2026-03-29T12:00:30.999Z</time></trkpt><trkpt lat="42.10524631533372" lon="13.026170215106992"><ele>572.0</ele><time>2026-03-29T12:00:31.999Z</time></trkpt><trkpt lat="42.10543813120135" lon="13.026330288013435"><ele>572.0</ele><time>2026-03-29T12:00:32.999Z</time></trkpt><trkpt lat="42.10563289663414" lon="13.026490256692796"><ele>573.0</ele><time>2026-03-29T12:00:33.999Z</time></trkpt><trkpt lat="42.10582956947477" lon="13.026643380826648"><ele>574.0</ele><time>2026-03-29T12:00:34.999Z</time></trkpt><trkpt lat="42.10603351512049" lon="13.026784798267496"><ele>574.0</ele><time>2026-03-29T12:00:35.999Z</time></trkpt><trkpt lat="42.106244109377144" lon="13.026917496456718"><ele>574.0</ele><time>2026-03-29T12:00:36.999Z</time></trkpt><trkpt lat="42.10646409073182" lon="13.027047809587229"><ele>579.5</ele><time>2026-03-29T12:00:37.999Z</time></trkpt><trkpt lat="42.106691620906126" lon="13.027183772454928"><ele>585.0</ele><time>2026-03-29T12:00:38.999Z</time></trkpt><trkpt lat="42.106934483701345" lon="13.027329413812863"><ele>581.5</ele><time>2026-03-29T12:00:39.999Z</time></trkpt><trkpt lat="42.10720066948636" lon="13.027487020190897"><ele>578.0</ele><time>2026-03-29T12:00:40.999Z</time></trkpt><trkpt lat="42.10748192717465" lon="13.02768416981395"><ele>578.0</ele><time>2026-03-29T12:00:41.999Z</time></trkpt><trkpt lat="42.10776952002023" lon="13.027861241366008"><ele>578.0</ele><time>2026-03-29T12:00:42.999Z</time></trkpt><trkpt lat="42.1080277310021" lon="13.028018869533469"><ele>584.0</ele><time>2026-03-29T12:00:43.999Z</time></trkpt><trkpt lat="42.10827103570452" lon="13.02814303561361"><ele>590.0</ele><time>2026-03-29T12:00:44.999Z</time></trkpt><trkpt lat="42.108500312281265" lon="13.02828729479515"><ele>581.0</ele><time>2026-03-29T12:00:45.999Z</time></trkpt><trkpt lat="42.10873047746614" lon="13.02843021095359"><ele>572.0</ele><time>2026-03-29T12:00:46.999Z</time></trkpt><trkpt lat="42.108961969186986" lon="13.02857003502977"><ele>574.0</ele><time>2026-03-29T12:00:47.999Z</time></trkpt><trkpt lat="42.10919325693633" lon="13.028708744143236"><ele>576.0</ele><time>2026-03-29T12:00:48.999Z</time></trkpt><trkpt lat="42.109422888116164" lon="13.028844696182654"><ele>576.0</ele><time>2026-03-29T12:00:49.999Z</time></trkpt><trkpt lat="42.109632875965104" lon="13.02896846163682"><ele>576.0</ele><time>2026-03-29T12:00:50.999Z</time></trkpt><trkpt lat="42.109826717775015" lon="13.029086635869733"><ele>576.0</ele><time>2026-03-29T12:00:51.999Z</time></trkpt><trkpt lat="42.11000660552483" lon="13.029198690432812"><ele>574.6666666666666</ele><time>2026-03-29T12:00:52.999Z</time></trkpt><trkpt lat="42.11016792559975" lon="13.029300130665591"><ele>573.3333333333333</ele><time>2026-03-29T12:00:53.999Z</time></trkpt><trkpt lat="42.11031539019874" lon="13.02938879076506"><ele>572.0</ele><time>2026-03-29T12:00:54.999Z</time></trkpt><trkpt lat="42.110445872328384" lon="13.029462784235694"><ele>572.0</ele><time>2026-03-29T12:00:56Z</time></trkpt><trkpt lat="42.110561350027865" lon="13.029555986656367"><ele>572.0</ele><time>2026-03-29T12:00:57Z</time></trkpt><trkpt lat="42.110672428014276" lon="13.02962358576026"><ele>572.0</ele><time>2026-03-29T12:00:58Z</time></trkpt><trkpt lat="42.11077164049409" lon="13.029683963353639"><ele>572.0</ele><time>2026-03-29T12:00:59Z</time></trkpt><trkpt lat="42.110859525171584" lon="13.029738139943703"><ele>572.4</ele><time>2026-03-29T12:01:00Z</time></trkpt><trkpt lat="42.110936313106244" lon="13.02978974610647"><ele>572.8000000000001</ele><time>2026-03-29T12:01:01Z</time></trkpt><trkpt lat="42.11099930332478" lon="13.02981946788165"><ele>573.2</ele><time>2026-03-29T12:01:02Z</time></trkpt><trkpt lat="42.111066972026755" lon="13.029880028473917"><ele>573.6</ele><time>2026-03-29T12:01:04Z</time></trkpt><trkpt lat="42.111151480054055" lon="13.0299572308601"><ele>574.0</ele><time>2026-03-29T12:01:06Z</time></trkpt><trkpt lat="42.11129074473289" lon="13.029885592713999"><ele>574.0</ele><time>2026-03-29T12:01:07Z</time></trkpt><trkpt lat="42.11138598299642" lon="13.029823097966725"><ele>574.0</ele><time>2026-03-29T12:01:08Z</time></trkpt><trkpt lat="42.11150878181231" lon="13.02973662690901"><ele>574.0</ele><time>2026-03-29T12:01:09Z</time></trkpt><trkpt lat="42.11166896986107" lon="13.029685123986562"><ele>574.0</ele><time>2026-03-29T12:01:10Z</time></trkpt><trkpt lat="42.11183912782703" lon="13.029656625674852"><ele>573.0</ele><time>2026-03-29T12:01:11Z</time></trkpt><trkpt lat="42.11203240876869" lon="13.029650248890093"><ele>572.0</ele><time>2026-03-29T12:01:12Z</time></trkpt><trkpt lat="42.112257713510495" lon="13.029632001112965"><ele>571.0</ele><time>2026-03-29T12:01:13Z</time></trkpt><trkpt lat="42.11247703182985" lon="13.02961419888325"><ele>569.0</ele><time>2026-03-29T12:01:14Z</time></trkpt><trkpt lat="42.11271395756368" lon="13.02959493123232"><ele>567.0</ele><time>2026-03-29T12:01:15Z</time></trkpt><trkpt lat="42.11295574058191" lon="13.029576264995509"><ele>567.0</ele><time>2026-03-29T12:01:16Z</time></trkpt><trkpt lat="42.11319273420217" lon="13.029555740121149"><ele>567.0</ele><time>2026-03-29T12:01:17Z</time></trkpt><trkpt lat="42.113425450413395" lon="13.029535094678288"><ele>566.3333333333334</ele><time>2026-03-29T12:01:18Z</time></trkpt><trkpt lat="42.113643200733335" lon="13.02951711137982"><ele>565.6666666666667</ele><time>2026-03-29T12:01:19Z</time></trkpt><trkpt lat="42.11384945053256" lon="13.029498501168638"><ele>565.0</ele><time>2026-03-29T12:01:20Z</time></trkpt><trkpt lat="42.11406495231443" lon="13.029479437440559"><ele>565.6666666666667</ele><time>2026-03-29T12:01:21Z</time></trkpt><trkpt lat="42.11428322164842" lon="13.029463098588632"><ele>566.3333333333334</ele><time>2026-03-29T12:01:22Z</time></trkpt><trkpt lat="42.114501187489864" lon="13.02944603373173"><ele>567.0</ele><time>2026-03-29T12:01:23Z</time></trkpt><trkpt lat="42.11471510094169" lon="13.029405103026086"><ele>566.6666666666666</ele><time>2026-03-29T12:01:24Z</time></trkpt><trkpt lat="42.11492848170409" lon="13.029387273445849"><ele>566.3333333333333</ele><time>2026-03-29T12:01:25Z</time></trkpt><trkpt lat="42.115135113507165" lon="13.02937218113356"><ele>566.0</ele><time>2026-03-29T12:01:26Z</time></trkpt><trkpt lat="42.11533395268416" lon="13.029374365661209"><ele>566.0</ele><time>2026-03-29T12:01:27Z</time></trkpt><trkpt lat="42.11552583964011" lon="13.029338789112588"><ele>566.0</ele><time>2026-03-29T12:01:28Z</time></trkpt><trkpt lat="42.11571503619449" lon="13.029343123242159"><ele>566.0</ele><time>2026-03-29T12:01:29Z</time></trkpt><trkpt lat="42.115912284101725" lon="13.029326952248827"><ele>565.6666666666666</ele><time>2026-03-29T12:01:30Z</time></trkpt><trkpt lat="42.11611437736705" lon="13.029309016698427"><ele>565.3333333333334</ele><time>2026-03-29T12:01:31Z</time></trkpt><trkpt lat="42.11632120826014" lon="13.029291028929894"><ele>565.0</ele><time>2026-03-29T12:01:32Z</time></trkpt><trkpt lat="42.11653130016828" lon="13.029274188094055"><ele>565.0</ele><time>2026-03-29T12:01:33Z</time></trkpt><trkpt lat="42.11674606746991" lon="13.029256994465227"><ele>565.0</ele><time>2026-03-29T12:01:34Z</time></trkpt><trkpt lat="42.11696255896824" lon="13.029238416261828"><ele>565.0</ele><time>2026-03-29T12:01:35Z</time></trkpt><trkpt lat="42.11717597215041" lon="13.029219791355162"><ele>565.0</ele><time>2026-03-29T12:01:36Z</time></trkpt><trkpt lat="42.11738387701842" lon="13.02920164716969"><ele>565.0</ele><time>2026-03-29T12:01:37Z</time></trkpt><trkpt lat="42.11758934363948" lon="13.029162816739207"><ele>565.0</ele><time>2026-03-29T12:01:38Z</time></trkpt><trkpt lat="42.11779079413952" lon="13.029147059371848"><ele>565.3333333333334</ele><time>2026-03-29T12:01:39Z</time></trkpt><trkpt lat="42.11797267347134" lon="13.029131430838618"><ele>565.6666666666666</ele><time>2026-03-29T12:01:40Z</time></trkpt><trkpt lat="42.11814085956413" lon="13.029118137529723"><ele>566.0</ele><time>2026-03-29T12:01:41Z</time></trkpt><trkpt lat="42.11829691303279" lon="13.029104464890871"><ele>566.0</ele><time>2026-03-29T12:01:42Z</time></trkpt><trkpt lat="42.11844955300879" lon="13.029091911852166"><ele>566.0</ele><time>2026-03-29T12:01:43Z</time></trkpt><trkpt lat="42.118602425749735" lon="13.029092303595274"><ele>566.0</ele><time>2026-03-29T12:01:44Z</time></trkpt><trkpt lat="42.11875685075403" lon="13.029084161105414"><ele>566.0</ele><time>2026-03-29T12:01:45Z</time></trkpt><trkpt lat="42.118915723466415" lon="13.029064774920075"><ele>566.0</ele><time>2026-03-29T12:01:46Z</time></trkpt><trkpt lat="42.11906405232425" lon="13.029090332172798"><ele>566.0</ele><time>2026-03-29T12:01:47Z</time></trkpt><trkpt lat="42.11920572722525" lon="13.029154186692574"><ele>564.6666666666666</ele><time>2026-03-29T12:01:48Z</time></trkpt><trkpt lat="42.1193468636484" lon="13.029218959333745"><ele>563.3333333333334</ele><time>2026-03-29T12:01:49Z</time></trkpt><trkpt lat="42.11949301096169" lon="13.029290529868652"><ele>562.0</ele><time>2026-03-29T12:01:50Z</time></trkpt><trkpt lat="42.11962926028046" lon="13.029413692850447"><ele>562.0</ele><time>2026-03-29T12:01:51Z</time></trkpt><trkpt lat="42.119757810418754" lon="13.029559679783457"><ele>562.0</ele><time>2026-03-29T12:01:51.999Z</time></trkpt><trkpt lat="42.11987564611406" lon="13.029733527980556"><ele>562.0</ele><time>2026-03-29T12:01:52.999Z</time></trkpt><trkpt lat="42.11997378535042" lon="13.029933730626809"><ele>562.6666666666667</ele><time>2026-03-29T12:01:53.999Z</time></trkpt><trkpt lat="42.120040017496265" lon="13.030145277302399"><ele>563.3333333333334</ele><time>2026-03-29T12:01:54.999Z</time></trkpt><trkpt lat="42.12010897225517" lon="13.030348113806197"><ele>564.0</ele><time>2026-03-29T12:01:55.999Z</time></trkpt><trkpt lat="42.12018153383758" lon="13.030530679946109"><ele>564.0</ele><time>2026-03-29T12:01:56.999Z</time></trkpt><trkpt lat="42.120234066850834" lon="13.030697581374277"><ele>564.0</ele><time>2026-03-29T12:01:57.999Z</time></trkpt><trkpt lat="42.12028202097836" lon="13.030842988010717"><ele>564.0</ele><time>2026-03-29T12:01:58.999Z</time></trkpt><trkpt lat="42.1203344334914" lon="13.03099487627622"><ele>564.0</ele><time>2026-03-29T12:01:59.999Z</time></trkpt><trkpt lat="42.12045404443998" lon="13.031125345777657"><ele>563.6666666666666</ele><time>2026-03-29T12:02:00.999Z</time></trkpt><trkpt lat="42.12060490844193" lon="13.031218374539348"><ele>563.3333333333333</ele><time>2026-03-29T12:02:01.999Z</time></trkpt><trkpt lat="42.12076888174496" lon="13.03133727750294"><ele>563.0</ele><time>2026-03-29T12:02:02.999Z</time></trkpt><trkpt lat="42.1209569190165" lon="13.031469944197417"><ele>563.0</ele><time>2026-03-29T12:02:03.999Z</time></trkpt><trkpt lat="42.12115612281167" lon="13.031616059850014"><ele>563.0</ele><time>2026-03-29T12:02:04.999Z</time></trkpt><trkpt lat="42.1213511929419" lon="13.031756997735325"><ele>563.0</ele><time>2026-03-29T12:02:05.999Z</time></trkpt><trkpt lat="42.12154591299215" lon="13.031897839923118"><ele>562.0</ele><time>2026-03-29T12:02:06.999Z</time></trkpt><trkpt lat="42.121742158472586" lon="13.032033410425035"><ele>561.0</ele><time>2026-03-29T12:02:07.999Z</time></trkpt><trkpt lat="42.12194078979146" lon="13.032169945882046"><ele>560.0</ele><time>2026-03-29T12:02:08.999Z</time></trkpt><trkpt lat="42.12213694197448" lon="13.03230685015057"><ele>560.0</ele><time>2026-03-29T12:02:09.999Z</time></trkpt><trkpt lat="42.122327640315106" lon="13.032439623574295"><ele>560.0</ele><time>2026-03-29T12:02:10.999Z</time></trkpt><trkpt lat="42.122516257644016" lon="13.032575301791379"><ele>560.0</ele><time>2026-03-29T12:02:11.999Z</time></trkpt><trkpt lat="42.12271765229566" lon="13.032688713987012"><ele>560.0</ele><time>2026-03-29T12:02:12.999Z</time></trkpt><trkpt lat="42.12294376670256" lon="13.032754067721415"><ele>560.0</ele><time>2026-03-29T12:02:13.999Z</time></trkpt><trkpt lat="42.12320161838699" lon="13.032801298416121"><ele>560.0</ele><time>2026-03-29T12:02:14.999Z</time></trkpt><trkpt lat="42.12348232040411" lon="13.032854075791485"><ele>560.0</ele><time>2026-03-29T12:02:15.999Z</time></trkpt><trkpt lat="42.12376688021572" lon="13.03290324357721"><ele>561.0</ele><time>2026-03-29T12:02:16.999Z</time></trkpt><trkpt lat="42.124071361476574" lon="13.032959541146525"><ele>562.0</ele><time>2026-03-29T12:02:17.999Z</time></trkpt><trkpt lat="42.12438977615799" lon="13.033019870711845"><ele>562.0</ele><time>2026-03-29T12:02:18.999Z</time></trkpt><trkpt lat="42.12470001354362" lon="13.033100996542718"><ele>562.0</ele><time>2026-03-29T12:02:19.999Z</time></trkpt><trkpt lat="42.12498689137576" lon="13.033155425107456"><ele>562.5</ele><time>2026-03-29T12:02:20.999Z</time></trkpt><trkpt lat="42.12525451294917" lon="13.033206200315911"><ele>563.0</ele><time>2026-03-29T12:02:21.999Z</time></trkpt><trkpt lat="42.125519156914585" lon="13.033237801472822"><ele>561.5</ele><time>2026-03-29T12:02:22.999Z</time></trkpt><trkpt lat="42.125780392754635" lon="13.03329581422602"><ele>560.0</ele><time>2026-03-29T12:02:23.999Z</time></trkpt><trkpt lat="42.12603910177238" lon="13.033349662482218"><ele>560.0</ele><time>2026-03-29T12:02:24.999Z</time></trkpt><trkpt lat="42.12627889113259" lon="13.033394385541854"><ele>560.0</ele><time>2026-03-29T12:02:25.999Z</time></trkpt><trkpt lat="42.12649714329672" lon="13.033428377711084"><ele>560.6666666666666</ele><time>2026-03-29T12:02:26.999Z</time></trkpt><trkpt lat="42.126694682872895" lon="13.033448783950131"><ele>561.3333333333334</ele><time>2026-03-29T12:02:27.999Z</time></trkpt><trkpt lat="42.126892890655974" lon="13.033435648563989"><ele>562.0</ele><time>2026-03-29T12:02:28.999Z</time></trkpt><trkpt lat="42.12708524468391" lon="13.033357973644463"><ele>561.0</ele><time>2026-03-29T12:02:29.999Z</time></trkpt><trkpt lat="42.12727779324399" lon="13.033228146387284"><ele>560.0</ele><time>2026-03-29T12:02:30.999Z</time></trkpt><trkpt lat="42.12746703493146" lon="13.033039384519777"><ele>560.0</ele><time>2026-03-29T12:02:31.999Z</time></trkpt><trkpt lat="42.127658147760705" lon="13.032806273725045"><ele>560.0</ele><time>2026-03-29T12:02:32.999Z</time></trkpt><trkpt lat="42.12787389301482" lon="13.032576889430112"><ele>560.5</ele><time>2026-03-29T12:02:33.999Z</time></trkpt><trkpt lat="42.12807996683518" lon="13.032334185187073"><ele>561.0</ele><time>2026-03-29T12:02:34.999Z</time></trkpt><trkpt lat="42.12828166923495" lon="13.032174465467122"><ele>561.0</ele><time>2026-03-29T12:02:35.999Z</time></trkpt><trkpt lat="42.128480746334084" lon="13.031918756105034"><ele>561.0</ele><time>2026-03-29T12:02:36.999Z</time></trkpt><trkpt lat="42.128670311562956" lon="13.03166645771921"><ele>559.5</ele><time>2026-03-29T12:02:37.999Z</time></trkpt><trkpt lat="42.128849784756895" lon="13.031430814909386"><ele>558.0</ele><time>2026-03-29T12:02:38.999Z</time></trkpt><trkpt lat="42.129011721416816" lon="13.031204343701983"><ele>558.6666666666666</ele><time>2026-03-29T12:02:39.999Z</time></trkpt><trkpt lat="42.12915778133069" lon="13.031000505748612"><ele>559.3333333333333</ele><time>2026-03-29T12:02:40.999Z</time></trkpt><trkpt lat="42.129282237426686" lon="13.030802102169188"><ele>560.0</ele><time>2026-03-29T12:02:41.999Z</time></trkpt><trkpt lat="42.12937612095897" lon="13.030577428569465"><ele>560.0</ele><time>2026-03-29T12:02:42.999Z</time></trkpt><trkpt lat="42.12943123830662" lon="13.030308831398614"><ele>560.0</ele><time>2026-03-29T12:02:43.999Z</time></trkpt><trkpt lat="42.12946241236345" lon="13.030007161525164"><ele>560.0</ele><time>2026-03-29T12:02:44.999Z</time></trkpt><trkpt lat="42.12955157292429" lon="13.029761859264392"><ele>558.5</ele><time>2026-03-29T12:02:45.999Z</time></trkpt><trkpt lat="42.12965873949825" lon="13.029529737894402"><ele>557.0</ele><time>2026-03-29T12:02:46.999Z</time></trkpt><trkpt lat="42.12980617291344" lon="13.029253555596183"><ele>556.0</ele><time>2026-03-29T12:02:47.999Z</time></trkpt><trkpt lat="42.129965970827534" lon="13.028997335537243"><ele>555.0</ele><time>2026-03-29T12:02:48.999Z</time></trkpt><trkpt lat="42.13014257451098" lon="13.028771282143886"><ele>555.0</ele><time>2026-03-29T12:02:49.999Z</time></trkpt><trkpt lat="42.130331942202446" lon="13.028574941839672"><ele>555.0</ele><time>2026-03-29T12:02:50.999Z</time></trkpt><trkpt lat="42.130531644012244" lon="13.028393640874661"><ele>556.5</ele><time>2026-03-29T12:02:51.999Z</time></trkpt><trkpt lat="42.13072900381949" lon="13.028263306489325"><ele>558.0</ele><time>2026-03-29T12:02:52.999Z</time></trkpt><trkpt lat="42.13095212421386" lon="13.028130420331253"><ele>558.0</ele><time>2026-03-29T12:02:53.999Z</time></trkpt><trkpt lat="42.13118270420356" lon="13.028016425465996"><ele>558.0</ele><time>2026-03-29T12:02:54.999Z</time></trkpt><trkpt lat="42.1314376776617" lon="13.027875271905504"><ele>560.0</ele><time>2026-03-29T12:02:55.999Z</time></trkpt><trkpt lat="42.13167775691999" lon="13.027727736755592"><ele>562.0</ele><time>2026-03-29T12:02:56.999Z</time></trkpt><trkpt lat="42.1319305834304" lon="13.02755946682641"><ele>561.5</ele><time>2026-03-29T12:02:57.999Z</time></trkpt><trkpt lat="42.1321727649021" lon="13.027407420645519"><ele>561.0</ele><time>2026-03-29T12:02:58.999Z</time></trkpt><trkpt lat="42.13241565181088" lon="13.02726533829139"><ele>561.0</ele><time>2026-03-29T12:02:59.999Z</time></trkpt><trkpt lat="42.13264467004452" lon="13.027127691000846"><ele>561.0</ele><time>2026-03-29T12:03:00.999Z</time></trkpt><trkpt lat="42.13285055919795" lon="13.027010158921565"><ele>561.0</ele><time>2026-03-29T12:03:02Z</time></trkpt><trkpt lat="42.13302333437011" lon="13.026904054899154"><ele>561.0</ele><time>2026-03-29T12:03:03Z</time></trkpt><trkpt lat="42.133223990144835" lon="13.02681508179635"><ele>561.0</ele><time>2026-03-29T12:03:04Z</time></trkpt><trkpt lat="42.13342815686057" lon="13.026823157529794"><ele>560.5</ele><time>2026-03-29T12:03:05Z</time></trkpt><trkpt lat="42.133648900011835" lon="13.02683671581641"><ele>560.0</ele><time>2026-03-29T12:03:06Z</time></trkpt><trkpt lat="42.13391327090314" lon="13.026850968005279"><ele>561.0</ele><time>2026-03-29T12:03:07Z</time></trkpt><trkpt lat="42.13423087626795" lon="13.026846158325746"><ele>562.0</ele><time>2026-03-29T12:03:08Z</time></trkpt><trkpt lat="42.13453397687146" lon="13.026836839259692"><ele>562.0</ele><time>2026-03-29T12:03:09Z</time></trkpt><trkpt lat="42.134840888135145" lon="13.026828831568405"><ele>562.0</ele><time>2026-03-29T12:03:10Z</time></trkpt><trkpt lat="42.13516263702498" lon="13.026821904756025"><ele>561.5</ele><time>2026-03-29T12:03:11Z</time></trkpt><trkpt lat="42.13546451045661" lon="13.026811399453216"><ele>561.0</ele><time>2026-03-29T12:03:12Z</time></trkpt><trkpt lat="42.13575173652739" lon="13.026812753559986"><ele>560.0</ele><time>2026-03-29T12:03:13Z</time></trkpt><trkpt lat="42.136051048554464" lon="13.026820211447577"><ele>559.0</ele><time>2026-03-29T12:03:14Z</time></trkpt><trkpt lat="42.13635676903881" lon="13.026820252485676"><ele>561.5</ele><time>2026-03-29T12:03:15Z</time></trkpt><trkpt lat="42.136666524014736" lon="13.026819114672504"><ele>564.0</ele><time>2026-03-29T12:03:16Z</time></trkpt><trkpt lat="42.136948999368265" lon="13.026821332904378"><ele>564.0</ele><time>2026-03-29T12:03:17Z</time></trkpt><trkpt lat="42.13719654981083" lon="13.026814806392458"><ele>564.0</ele><time>2026-03-29T12:03:18Z</time></trkpt><trkpt lat="42.13746071318276" lon="13.026815310828104"><ele>564.5</ele><time>2026-03-29T12:03:19Z</time></trkpt><trkpt lat="42.13770864787982" lon="13.026821170219986"><ele>565.0</ele><time>2026-03-29T12:03:20Z</time></trkpt><trkpt lat="42.13792964890558" lon="13.026822389363288"><ele>565.0</ele><time>2026-03-29T12:03:21Z</time></trkpt><trkpt lat="42.138132740923105" lon="13.026811906037382"><ele>565.0</ele><time>2026-03-29T12:03:22Z</time></trkpt><trkpt lat="42.13832667395843" lon="13.026763336842762"><ele>565.0</ele><time>2026-03-29T12:03:23Z</time></trkpt><trkpt lat="42.138534394507545" lon="13.026658575437809"><ele>566.5</ele><time>2026-03-29T12:03:24Z</time></trkpt><trkpt lat="42.13874961884854" lon="13.026550119811247"><ele>568.0</ele><time>2026-03-29T12:03:25Z</time></trkpt><trkpt lat="42.13895384812251" lon="13.026337747545355"><ele>570.0</ele><time>2026-03-29T12:03:26Z</time></trkpt><trkpt lat="42.139161172876555" lon="13.026102425481056"><ele>572.0</ele><time>2026-03-29T12:03:27Z</time></trkpt><trkpt lat="42.13936831773595" lon="13.025887059280022"><ele>569.0</ele><time>2026-03-29T12:03:28Z</time></trkpt><trkpt lat="42.13957466816122" lon="13.025678373974754"><ele>566.0</ele><time>2026-03-29T12:03:29Z</time></trkpt><trkpt lat="42.13977261866317" lon="13.025491943506257"><ele>569.5</ele><time>2026-03-29T12:03:30Z</time></trkpt><trkpt lat="42.13996889686687" lon="13.025294961479759"><ele>573.0</ele><time>2026-03-29T12:03:31Z</time></trkpt><trkpt lat="42.14017272391291" lon="13.025110885051392"><ele>569.5</ele><time>2026-03-29T12:03:32Z</time></trkpt><trkpt lat="42.140394552673826" lon="13.024937589578862"><ele>566.0</ele><time>2026-03-29T12:03:33Z</time></trkpt><trkpt lat="42.1406344582909" lon="13.024783211816272"><ele>570.0</ele><time>2026-03-29T12:03:34Z</time></trkpt><trkpt lat="42.14087478115808" lon="13.024622750924856"><ele>574.0</ele><time>2026-03-29T12:03:35Z</time></trkpt><trkpt lat="42.14109277893222" lon="13.02447527799102"><ele>574.0</ele><time>2026-03-29T12:03:36Z</time></trkpt><trkpt lat="42.1412887022105" lon="13.024343011688826"><ele>574.0</ele><time>2026-03-29T12:03:37Z</time></trkpt><trkpt lat="42.14146445806595" lon="13.024214318534067"><ele>574.0</ele><time>2026-03-29T12:03:38Z</time></trkpt><trkpt lat="42.14162921052158" lon="13.024089358639058"><ele>574.3333333333334</ele><time>2026-03-29T12:03:39Z</time></trkpt><trkpt lat="42.141785471274396" lon="13.02397618809228"><ele>574.6666666666666</ele><time>2026-03-29T12:03:40Z</time></trkpt><trkpt lat="42.14192415302057" lon="13.023861681679922"><ele>575.0</ele><time>2026-03-29T12:03:41Z</time></trkpt><trkpt lat="42.14205726296639" lon="13.023716881653291"><ele>575.0</ele><time>2026-03-29T12:03:42Z</time></trkpt><trkpt lat="42.14217449266806" lon="13.023535138062556"><ele>575.0</ele><time>2026-03-29T12:03:43Z</time></trkpt><trkpt lat="42.14226843698608" lon="13.023327127363297"><ele>575.0</ele><time>2026-03-29T12:03:44Z</time></trkpt><trkpt lat="42.14236245445388" lon="13.023097068836025"><ele>577.0</ele><time>2026-03-29T12:03:45Z</time></trkpt><trkpt lat="42.14243772765067" lon="13.022861576974714"><ele>579.0</ele><time>2026-03-29T12:03:46Z</time></trkpt><trkpt lat="42.14256651725578" lon="13.022666345250705"><ele>581.0</ele><time>2026-03-29T12:03:47Z</time></trkpt><trkpt lat="42.142741477987904" lon="13.022477203255852"><ele>581.0</ele><time>2026-03-29T12:03:48Z</time></trkpt><trkpt lat="42.14295088235709" lon="13.022288814500426"><ele>581.0</ele><time>2026-03-29T12:03:49Z</time></trkpt><trkpt lat="42.14318614705721" lon="13.022078711720876"><ele>582.0</ele><time>2026-03-29T12:03:49.999Z</time></trkpt><trkpt lat="42.14342876215852" lon="13.021846978105883"><ele>583.0</ele><time>2026-03-29T12:03:50.999Z</time></trkpt><trkpt lat="42.14366931269871" lon="13.02161541985249"><ele>583.0</ele><time>2026-03-29T12:03:51.999Z</time></trkpt><trkpt lat="42.14389080731441" lon="13.021406423954385"><ele>583.0</ele><time>2026-03-29T12:03:52.999Z</time></trkpt><trkpt lat="42.144111845828995" lon="13.021195846247002"><ele>581.5</ele><time>2026-03-29T12:03:53.999Z</time></trkpt><trkpt lat="42.144333067867166" lon="13.02098032104376"><ele>580.0</ele><time>2026-03-29T12:03:54.999Z</time></trkpt><trkpt lat="42.14454227069819" lon="13.020774370731093"><ele>579.5</ele><time>2026-03-29T12:03:55.999Z</time></trkpt><trkpt lat="42.144736946886646" lon="13.020583160290357"><ele>579.0</ele><time>2026-03-29T12:03:56.999Z</time></trkpt><trkpt lat="42.144930464339474" lon="13.020373655725152"><ele>579.0</ele><time>2026-03-29T12:03:57.999Z</time></trkpt><trkpt lat="42.14512509599205" lon="13.020120235346367"><ele>579.0</ele><time>2026-03-29T12:03:58.999Z</time></trkpt><trkpt lat="42.145327964809276" lon="13.01984316260071"><ele>579.5</ele><time>2026-03-29T12:03:59.999Z</time></trkpt><trkpt lat="42.145532135906834" lon="13.01957565318233"><ele>580.0</ele><time>2026-03-29T12:04:00.999Z</time></trkpt><trkpt lat="42.145724582716014" lon="13.019331123481416"><ele>577.5</ele><time>2026-03-29T12:04:01.999Z</time></trkpt><trkpt lat="42.145902114055296" lon="13.019101384626579"><ele>575.0</ele><time>2026-03-29T12:04:02.999Z</time></trkpt><trkpt lat="42.146070856076946" lon="13.018885089271363"><ele>575.0</ele><time>2026-03-29T12:04:03.999Z</time></trkpt><trkpt lat="42.146229804051714" lon="13.018675834587338"><ele>575.0</ele><time>2026-03-29T12:04:04.999Z</time></trkpt><trkpt lat="42.146368628581975" lon="13.018481172377632"><ele>575.0</ele><time>2026-03-29T12:04:05.999Z</time></trkpt><trkpt lat="42.14647476954064" lon="13.018291688888498"><ele>572.75</ele><time>2026-03-29T12:04:06.999Z</time></trkpt><trkpt lat="42.146555497357056" lon="13.018112060674188"><ele>570.5</ele><time>2026-03-29T12:04:07.999Z</time></trkpt><trkpt lat="42.14663381485092" lon="13.017947227948346"><ele>568.25</ele><time>2026-03-29T12:04:08.999Z</time></trkpt><trkpt lat="42.146718345685905" lon="13.017802384380143"><ele>566.0</ele><time>2026-03-29T12:04:09.999Z</time></trkpt><trkpt lat="42.146832736249515" lon="13.017703872640068"><ele>566.0</ele><time>2026-03-29T12:04:10.999Z</time></trkpt><trkpt lat="42.146950321936636" lon="13.017621076622511"><ele>566.0</ele><time>2026-03-29T12:04:11.999Z</time></trkpt><trkpt lat="42.14710633764729" lon="13.017601175754306"><ele>566.0</ele><time>2026-03-29T12:04:12.999Z</time></trkpt><trkpt lat="42.14728783518235" lon="13.017620530658535"><ele>565.0</ele><time>2026-03-29T12:04:13.999Z</time></trkpt><trkpt lat="42.14748711307278" lon="13.017626937527925"><ele>564.0</ele><time>2026-03-29T12:04:14.999Z</time></trkpt><trkpt lat="42.14765695281684" lon="13.017634733834901"><ele>563.0</ele><time>2026-03-29T12:04:15.999Z</time></trkpt><trkpt lat="42.14780626189103" lon="13.017654433831163"><ele>563.0</ele><time>2026-03-29T12:04:16.999Z</time></trkpt><trkpt lat="42.14795709809966" lon="13.017706744908438"><ele>563.0</ele><time>2026-03-29T12:04:17.999Z</time></trkpt><trkpt lat="42.14811101118954" lon="13.017820541608083"><ele>563.0</ele><time>2026-03-29T12:04:18.999Z</time></trkpt><trkpt lat="42.148234703818865" lon="13.018007830519561"><ele>564.6666666666666</ele><time>2026-03-29T12:04:19.999Z</time></trkpt><trkpt lat="42.14836376201582" lon="13.018180246172367"><ele>566.3333333333334</ele><time>2026-03-29T12:04:20.999Z</time></trkpt><trkpt lat="42.14849355348882" lon="13.018333440491954"><ele>568.0</ele><time>2026-03-29T12:04:21.999Z</time></trkpt><trkpt lat="42.14866818483983" lon="13.018460888434086"><ele>568.0</ele><time>2026-03-29T12:04:22.999Z</time></trkpt><trkpt lat="42.148854364543276" lon="13.018528461431222"><ele>568.0</ele><time>2026-03-29T12:04:23.999Z</time></trkpt><trkpt lat="42.1490349835561" lon="13.018553443661508"><ele>568.0</ele><time>2026-03-29T12:04:24.999Z</time></trkpt><trkpt lat="42.14918272664672" lon="13.018531928641835"><ele>565.3333333333334</ele><time>2026-03-29T12:04:25.999Z</time></trkpt><trkpt lat="42.14932120752854" lon="13.018451790874632"><ele>562.6666666666666</ele><time>2026-03-29T12:04:26.999Z</time></trkpt><trkpt lat="42.14947424320441" lon="13.018274785521651"><ele>560.0</ele><time>2026-03-29T12:04:27.999Z</time></trkpt><trkpt lat="42.14960745667668" lon="13.018099883619577"><ele>558.75</ele><time>2026-03-29T12:04:28.999Z</time></trkpt><trkpt lat="42.14973491530228" lon="13.017927309657933"><ele>557.5</ele><time>2026-03-29T12:04:29.999Z</time></trkpt><trkpt lat="42.149823450711196" lon="13.017819609306063"><ele>556.25</ele><time>2026-03-29T12:04:30.999Z</time></trkpt><trkpt lat="42.149860912034306" lon="13.017663716673114"><ele>555.0</ele><time>2026-03-29T12:04:31.999Z</time></trkpt><trkpt lat="42.14985779832685" lon="13.017465833030824"><ele>554.3333333333334</ele><time>2026-03-29T12:04:32.999Z</time></trkpt><trkpt lat="42.149811101112256" lon="13.01723046643769"><ele>553.6666666666667</ele><time>2026-03-29T12:04:33.999Z</time></trkpt><trkpt lat="42.149744381352846" lon="13.017001118394894"><ele>553.0</ele><time>2026-03-29T12:04:34.999Z</time></trkpt><trkpt lat="42.149731272591204" lon="13.016773865478916"><ele>553.6666666666667</ele><time>2026-03-29T12:04:35.999Z</time></trkpt><trkpt lat="42.149766696436636" lon="13.016571909608734"><ele>554.3333333333334</ele><time>2026-03-29T12:04:36.999Z</time></trkpt><trkpt lat="42.14981261659566" lon="13.01629484400244"><ele>555.0</ele><time>2026-03-29T12:04:37.999Z</time></trkpt><trkpt lat="42.14987083609284" lon="13.016021011644538"><ele>561.5</ele><time>2026-03-29T12:04:38.999Z</time></trkpt><trkpt lat="42.14993056752789" lon="13.015741794026257"><ele>568.0</ele><time>2026-03-29T12:04:39.999Z</time></trkpt><trkpt lat="42.149978229603065" lon="13.015413947195313"><ele>568.0</ele><time>2026-03-29T12:04:40.999Z</time></trkpt><trkpt lat="42.15002622336391" lon="13.015139643281342"><ele>568.0</ele><time>2026-03-29T12:04:41.999Z</time></trkpt><trkpt lat="42.150059856563885" lon="13.01493927611797"><ele>568.0</ele><time>2026-03-29T12:04:42.999Z</time></trkpt><trkpt lat="42.15010473986295" lon="13.014718286010396"><ele>566.0</ele><time>2026-03-29T12:04:43.999Z</time></trkpt><trkpt lat="42.150151499549445" lon="13.014560311363956"><ele>564.0</ele><time>2026-03-29T12:04:44.999Z</time></trkpt><trkpt lat="42.15022692884908" lon="13.014433544129185"><ele>562.0</ele><time>2026-03-29T12:04:45.999Z</time></trkpt><trkpt lat="42.15035061626353" lon="13.01431512117623"><ele>560.0</ele><time>2026-03-29T12:04:46.999Z</time></trkpt><trkpt lat="42.1505133434955" lon="13.014272711185457"><ele>560.0</ele><time>2026-03-29T12:04:47.999Z</time></trkpt><trkpt lat="42.150693492710744" lon="13.014189771396806"><ele>560.0</ele><time>2026-03-29T12:04:48.999Z</time></trkpt><trkpt lat="42.15087143675186" lon="13.014084250645856"><ele>560.0</ele><time>2026-03-29T12:04:49.999Z</time></trkpt><trkpt lat="42.15110101930722" lon="13.013966318890606"><ele>557.0</ele><time>2026-03-29T12:04:50.999Z</time></trkpt><trkpt lat="42.15129329759522" lon="13.013845265593467"><ele>554.0</ele><time>2026-03-29T12:04:51.999Z</time></trkpt><trkpt lat="42.15144932337299" lon="13.013713032258917"><ele>551.0</ele><time>2026-03-29T12:04:52.999Z</time></trkpt><trkpt lat="42.151620023918014" lon="13.013558731658849"><ele>551.6666666666666</ele><time>2026-03-29T12:04:53.999Z</time></trkpt><trkpt lat="42.151774881310736" lon="13.013359932700965"><ele>552.3333333333334</ele><time>2026-03-29T12:04:54.999Z</time></trkpt><trkpt lat="42.15193014402653" lon="13.013174127679171"><ele>553.0</ele><time>2026-03-29T12:04:55.999Z</time></trkpt><trkpt lat="42.15208007473248" lon="13.012981203540404"><ele>553.0</ele><time>2026-03-29T12:04:56.999Z</time></trkpt><trkpt lat="42.152216015401294" lon="13.012824467644176"><ele>553.0</ele><time>2026-03-29T12:04:57.999Z</time></trkpt><trkpt lat="42.15240899909446" lon="13.012733392703431"><ele>553.0</ele><time>2026-03-29T12:04:58.999Z</time></trkpt><trkpt lat="42.15259967767375" lon="13.012609265973886"><ele>552.0</ele><time>2026-03-29T12:04:59.999Z</time></trkpt><trkpt lat="42.15281341490218" lon="13.012484235811575"><ele>551.0</ele><time>2026-03-29T12:05:00.999Z</time></trkpt><trkpt lat="42.15300426898383" lon="13.012375580918313"><ele>550.0</ele><time>2026-03-29T12:05:01.999Z</time></trkpt><trkpt lat="42.15318552438753" lon="13.012299311174095"><ele>550.3333333333334</ele><time>2026-03-29T12:05:02.999Z</time></trkpt><trkpt lat="42.15339960969146" lon="13.012263785758806"><ele>550.6666666666666</ele><time>2026-03-29T12:05:03.999Z</time></trkpt><trkpt lat="42.15361916840007" lon="13.012269859750536"><ele>551.0</ele><time>2026-03-29T12:05:04.999Z</time></trkpt><trkpt lat="42.15388526023964" lon="13.012256307284076"><ele>552.0</ele><time>2026-03-29T12:05:05.999Z</time></trkpt><trkpt lat="42.154174372047464" lon="13.012214769457456"><ele>553.0</ele><time>2026-03-29T12:05:06.999Z</time></trkpt><trkpt lat="42.15443176904955" lon="13.012200173889166"><ele>553.0</ele><time>2026-03-29T12:05:08Z</time></trkpt><trkpt lat="42.15467511331795" lon="13.012192310706796"><ele>553.0</ele><time>2026-03-29T12:05:09Z</time></trkpt><trkpt lat="42.154880293291434" lon="13.012175239461042"><ele>553.0</ele><time>2026-03-29T12:05:10Z</time></trkpt><trkpt lat="42.15505375557123" lon="13.012152327914572"><ele>556.0</ele><time>2026-03-29T12:05:11Z</time></trkpt><trkpt lat="42.15521123920601" lon="13.012118265740817"><ele>559.0</ele><time>2026-03-29T12:05:12Z</time></trkpt><trkpt lat="42.15537821473459" lon="13.012003642956241"><ele>562.0</ele><time>2026-03-29T12:05:13Z</time></trkpt><trkpt lat="42.15554189402573" lon="13.01181487981348"><ele>561.5</ele><time>2026-03-29T12:05:14Z</time></trkpt><trkpt lat="42.15570070922642" lon="13.011597953661841"><ele>561.0</ele><time>2026-03-29T12:05:15Z</time></trkpt><trkpt lat="42.15585776388154" lon="13.01134978154523"><ele>561.0</ele><time>2026-03-29T12:05:16Z</time></trkpt><trkpt lat="42.156007291330624" lon="13.011117429841926"><ele>561.0</ele><time>2026-03-29T12:05:17Z</time></trkpt><trkpt lat="42.15615809148829" lon="13.010909163861315"><ele>561.0</ele><time>2026-03-29T12:05:18Z</time></trkpt><trkpt lat="42.156311334506526" lon="13.010710804561176"><ele>563.0</ele><time>2026-03-29T12:05:19Z</time></trkpt><trkpt lat="42.15645771592077" lon="13.010510036116608"><ele>565.0</ele><time>2026-03-29T12:05:20Z</time></trkpt><trkpt lat="42.156589350698766" lon="13.010327627860844"><ele>567.0</ele><time>2026-03-29T12:05:21Z</time></trkpt><trkpt lat="42.15671486703864" lon="13.010149821908026"><ele>564.0</ele><time>2026-03-29T12:05:22Z</time></trkpt><trkpt lat="42.15683663110821" lon="13.009983079816356"><ele>561.0</ele><time>2026-03-29T12:05:23Z</time></trkpt><trkpt lat="42.15694886766747" lon="13.009829527074087"><ele>558.0</ele><time>2026-03-29T12:05:24Z</time></trkpt><trkpt lat="42.157047354312695" lon="13.009689304910351"><ele>558.0</ele><time>2026-03-29T12:05:25Z</time></trkpt><trkpt lat="42.15715646517758" lon="13.009590002404769"><ele>558.0</ele><time>2026-03-29T12:05:26Z</time></trkpt><trkpt lat="42.157279446046644" lon="13.009549059108869"><ele>558.0</ele><time>2026-03-29T12:05:27Z</time></trkpt><trkpt lat="42.15738912823646" lon="13.009559369613212"><ele>558.0</ele><time>2026-03-29T12:05:28Z</time></trkpt><trkpt lat="42.15750703923301" lon="13.009611755962876"><ele>558.5</ele><time>2026-03-29T12:05:29Z</time></trkpt><trkpt lat="42.157604990158184" lon="13.00969073697944"><ele>559.0</ele><time>2026-03-29T12:05:30Z</time></trkpt><trkpt lat="42.15769964096351" lon="13.009747942107246"><ele>559.5</ele><time>2026-03-29T12:05:31Z</time></trkpt><trkpt lat="42.157808905673875" lon="13.009817296119872"><ele>560.0</ele><time>2026-03-29T12:05:32Z</time></trkpt><trkpt lat="42.15795115857231" lon="13.009817175564265"><ele>560.0</ele><time>2026-03-29T12:05:33Z</time></trkpt><trkpt lat="42.158105266432266" lon="13.009758344722137"><ele>560.0</ele><time>2026-03-29T12:05:34Z</time></trkpt><trkpt lat="42.1582247270215" lon="13.00961495683418"><ele>560.0</ele><time>2026-03-29T12:05:35Z</time></trkpt><trkpt lat="42.158347431853" lon="13.009393436557334"><ele>560.6666666666666</ele><time>2026-03-29T12:05:36Z</time></trkpt><trkpt lat="42.15850851936635" lon="13.009216928758706"><ele>561.3333333333334</ele><time>2026-03-29T12:05:37Z</time></trkpt><trkpt lat="42.15867665961173" lon="13.009097969789067"><ele>562.0</ele><time>2026-03-29T12:05:38Z</time></trkpt><trkpt lat="42.15885327544527" lon="13.008978722977739"><ele>560.5</ele><time>2026-03-29T12:05:39Z</time></trkpt><trkpt lat="42.15906045356286" lon="13.008873911782088"><ele>559.0</ele><time>2026-03-29T12:05:40Z</time></trkpt><trkpt lat="42.15927486837517" lon="13.008748041957759"><ele>559.0</ele><time>2026-03-29T12:05:41Z</time></trkpt><trkpt lat="42.1594847195198" lon="13.008626061816305"><ele>559.0</ele><time>2026-03-29T12:05:42Z</time></trkpt><trkpt lat="42.15969916930162" lon="13.00849264893448"><ele>563.5</ele><time>2026-03-29T12:05:43Z</time></trkpt><trkpt lat="42.15991420280728" lon="13.008390001381768"><ele>568.0</ele><time>2026-03-29T12:05:44Z</time></trkpt><trkpt lat="42.1601330467978" lon="13.008270976266527"><ele>558.0</ele><time>2026-03-29T12:05:45Z</time></trkpt><trkpt lat="42.16035118362288" lon="13.00814257528995"><ele>548.0</ele><time>2026-03-29T12:05:45.999Z</time></trkpt><trkpt lat="42.1605385664142" lon="13.008004505392472"><ele>553.5</ele><time>2026-03-29T12:05:46.999Z</time></trkpt><trkpt lat="42.16076516491997" lon="13.007867173736193"><ele>559.0</ele><time>2026-03-29T12:05:47.999Z</time></trkpt><trkpt lat="42.160987090988264" lon="13.00773222621925"><ele>559.0</ele><time>2026-03-29T12:05:48.999Z</time></trkpt><trkpt lat="42.16120107353859" lon="13.007612297199667"><ele>559.0</ele><time>2026-03-29T12:05:49.999Z</time></trkpt><trkpt lat="42.161385335689445" lon="13.007502874826825"><ele>559.0</ele><time>2026-03-29T12:05:50.999Z</time></trkpt><trkpt lat="42.161550351065145" lon="13.007417327932373"><ele>556.3333333333334</ele><time>2026-03-29T12:05:51.999Z</time></trkpt><trkpt lat="42.16172752701578" lon="13.007355739539024"><ele>553.6666666666666</ele><time>2026-03-29T12:05:52.999Z</time></trkpt><trkpt lat="42.16192511499022" lon="13.007322211040512"><ele>551.0</ele><time>2026-03-29T12:05:53.999Z</time></trkpt><trkpt lat="42.162137437096" lon="13.007282923619185"><ele>551.0</ele><time>2026-03-29T12:05:54.999Z</time></trkpt><trkpt lat="42.162363817551906" lon="13.007239839533957"><ele>551.0</ele><time>2026-03-29T12:05:55.999Z</time></trkpt><trkpt lat="42.162597804449106" lon="13.007191940367345"><ele>553.0</ele><time>2026-03-29T12:05:56.999Z</time></trkpt><trkpt lat="42.16281901946096" lon="13.00712414893745"><ele>555.0</ele><time>2026-03-29T12:05:57.999Z</time></trkpt><trkpt lat="42.163026439114844" lon="13.007093287660878"><ele>557.0</ele><time>2026-03-29T12:05:58.999Z</time></trkpt><trkpt lat="42.163223048428954" lon="13.007058325991627"><ele>558.5</ele><time>2026-03-29T12:05:59.999Z</time></trkpt><trkpt lat="42.16344042560482" lon="13.007070105533385"><ele>560.0</ele><time>2026-03-29T12:06:00.999Z</time></trkpt><trkpt lat="42.16368327891259" lon="13.00709015038955"><ele>560.0</ele><time>2026-03-29T12:06:01.999Z</time></trkpt><trkpt lat="42.16390148997991" lon="13.007105124447618"><ele>560.0</ele><time>2026-03-29T12:06:02.999Z</time></trkpt><trkpt lat="42.164099121152965" lon="13.007121175969521"><ele>560.0</ele><time>2026-03-29T12:06:03.999Z</time></trkpt><trkpt lat="42.16427218194299" lon="13.007141778088386"><ele>560.3333333333333</ele><time>2026-03-29T12:06:04.999Z</time></trkpt><trkpt lat="42.16444173035678" lon="13.007151667866777"><ele>560.6666666666666</ele><time>2026-03-29T12:06:05.999Z</time></trkpt><trkpt lat="42.164590416286984" lon="13.007143239721891"><ele>561.0</ele><time>2026-03-29T12:06:06.999Z</time></trkpt><trkpt lat="42.16472937294163" lon="13.00711049287143"><ele>562.3333333333334</ele><time>2026-03-29T12:06:07.999Z</time></trkpt><trkpt lat="42.16487921452514" lon="13.00701702403335"><ele>563.6666666666667</ele><time>2026-03-29T12:06:08.999Z</time></trkpt><trkpt lat="42.16503763580594" lon="13.006890139614212"><ele>565.0</ele><time>2026-03-29T12:06:09.999Z</time></trkpt><trkpt lat="42.165218588744644" lon="13.006773084224617"><ele>562.3333333333334</ele><time>2026-03-29T12:06:10.999Z</time></trkpt><trkpt lat="42.16541378617057" lon="13.006639974636105"><ele>559.6666666666666</ele><time>2026-03-29T12:06:11.999Z</time></trkpt><trkpt lat="42.165592245308375" lon="13.006520335033274"><ele>557.0</ele><time>2026-03-29T12:06:12.999Z</time></trkpt><trkpt lat="42.16574191140248" lon="13.00642609852555"><ele>557.0</ele><time>2026-03-29T12:06:13.999Z</time></trkpt><trkpt lat="42.16587096713274" lon="13.006348570762217"><ele>557.0</ele><time>2026-03-29T12:06:14.999Z</time></trkpt><trkpt lat="42.16600568284358" lon="13.006296734142635"><ele>557.0</ele><time>2026-03-29T12:06:15.999Z</time></trkpt><trkpt lat="42.166171501547524" lon="13.006308837744546"><ele>557.0</ele><time>2026-03-29T12:06:16.999Z</time></trkpt><trkpt lat="42.166372184509136" lon="13.00635728374805"><ele>556.6666666666666</ele><time>2026-03-29T12:06:17.999Z</time></trkpt><trkpt lat="42.16657268300735" lon="13.006383368248912"><ele>556.3333333333334</ele><time>2026-03-29T12:06:18.999Z</time></trkpt><trkpt lat="42.16673780503657" lon="13.006395879047972"><ele>556.0</ele><time>2026-03-29T12:06:19.999Z</time></trkpt><trkpt lat="42.16689361852545" lon="13.00637266934947"><ele>556.0</ele><time>2026-03-29T12:06:20.999Z</time></trkpt><trkpt lat="42.167075017292625" lon="13.006280093972412"><ele>556.0</ele><time>2026-03-29T12:06:21.999Z</time></trkpt><trkpt lat="42.167265418932786" lon="13.006144208994193"><ele>556.0</ele><time>2026-03-29T12:06:22.999Z</time></trkpt><trkpt lat="42.1674542588709" lon="13.006014311965469"><ele>555.3333333333334</ele><time>2026-03-29T12:06:23.999Z</time></trkpt><trkpt lat="42.167630979918805" lon="13.005888529101584"><ele>554.6666666666666</ele><time>2026-03-29T12:06:24.999Z</time></trkpt><trkpt lat="42.16779858567979" lon="13.005735132250656"><ele>554.0</ele><time>2026-03-29T12:06:25.999Z</time></trkpt><trkpt lat="42.167942696859924" lon="13.005552121343115"><ele>554.0</ele><time>2026-03-29T12:06:26.999Z</time></trkpt><trkpt lat="42.168077902396654" lon="13.005365903741584"><ele>554.0</ele><time>2026-03-29T12:06:27.999Z</time></trkpt><trkpt lat="42.16821401219719" lon="13.005188521348698"><ele>554.0</ele><time>2026-03-29T12:06:28.999Z</time></trkpt><trkpt lat="42.168362683989244" lon="13.005042120731094"><ele>552.0</ele><time>2026-03-29T12:06:29.999Z</time></trkpt><trkpt lat="42.16851871892439" lon="13.004900231767191"><ele>550.0</ele><time>2026-03-29T12:06:30.999Z</time></trkpt><trkpt lat="42.16868791493737" lon="13.004789134512437"><ele>548.0</ele><time>2026-03-29T12:06:31.999Z</time></trkpt><trkpt lat="42.16883999819314" lon="13.00469300522536"><ele>548.0</ele><time>2026-03-29T12:06:32.999Z</time></trkpt><trkpt lat="42.16897830636817" lon="13.00462026172292"><ele>548.0</ele><time>2026-03-29T12:06:33.999Z</time></trkpt><trkpt lat="42.169101829501" lon="13.004550730556247"><ele>548.0</ele><time>2026-03-29T12:06:34.999Z</time></trkpt><trkpt lat="42.16923791835238" lon="13.004523849224022"><ele>548.0</ele><time>2026-03-29T12:06:35.999Z</time></trkpt><trkpt lat="42.16938461618244" lon="13.004545607292382"><ele>550.3333333333333</ele><time>2026-03-29T12:06:36.999Z</time></trkpt><trkpt lat="42.16954389436998" lon="13.004617250738923"><ele>552.6666666666666</ele><time>2026-03-29T12:06:37.999Z</time></trkpt><trkpt lat="42.16970058492007" lon="13.004740286918885"><ele>555.0</ele><time>2026-03-29T12:06:38.999Z</time></trkpt><trkpt lat="42.1698401481383" lon="13.004867039240356"><ele>553.0</ele><time>2026-03-29T12:06:39.999Z</time></trkpt><trkpt lat="42.16995203890035" lon="13.004988602891844"><ele>551.0</ele><time>2026-03-29T12:06:40.999Z</time></trkpt><trkpt lat="42.17011527813362" lon="13.005035595307765"><ele>549.0</ele><time>2026-03-29T12:06:41.999Z</time></trkpt><trkpt lat="42.17031379751795" lon="13.005018967998764"><ele>549.3333333333334</ele><time>2026-03-29T12:06:42.999Z</time></trkpt><trkpt lat="42.17051641725308" lon="13.005009352423887"><ele>549.6666666666667</ele><time>2026-03-29T12:06:43.999Z</time></trkpt><trkpt lat="42.17067904060516" lon="13.005011232820912"><ele>550.0</ele><time>2026-03-29T12:06:44.999Z</time></trkpt><trkpt lat="42.17083199586596" lon="13.004991531453275"><ele>550.0</ele><time>2026-03-29T12:06:45.999Z</time></trkpt><trkpt lat="42.170995306736586" lon="13.00493409338485"><ele>550.0</ele><time>2026-03-29T12:06:46.999Z</time></trkpt><trkpt lat="42.1711694357779" lon="13.004810667441541"><ele>550.0</ele><time>2026-03-29T12:06:47.999Z</time></trkpt><trkpt lat="42.17134692273325" lon="13.00466020111245"><ele>550.0</ele><time>2026-03-29T12:06:48.999Z</time></trkpt><trkpt lat="42.171518074934696" lon="13.00451843255327"><ele>550.0</ele><time>2026-03-29T12:06:49.999Z</time></trkpt><trkpt lat="42.17169432226212" lon="13.004395617840613"><ele>550.0</ele><time>2026-03-29T12:06:50.999Z</time></trkpt><trkpt lat="42.17186459371822" lon="13.00424261345721"><ele>547.3333333333334</ele><time>2026-03-29T12:06:51.999Z</time></trkpt><trkpt lat="42.17202230085569" lon="13.004047716438404"><ele>544.6666666666666</ele><time>2026-03-29T12:06:52.999Z</time></trkpt><trkpt lat="42.17215105591147" lon="13.003839568059533"><ele>542.0</ele><time>2026-03-29T12:06:53.999Z</time></trkpt><trkpt lat="42.17225660576955" lon="13.00364756249505"><ele>542.0</ele><time>2026-03-29T12:06:54.999Z</time></trkpt><trkpt lat="42.17235130589093" lon="13.003475937551693"><ele>542.0</ele><time>2026-03-29T12:06:55.999Z</time></trkpt><trkpt lat="42.17243981843245" lon="13.003333536439307"><ele>542.0</ele><time>2026-03-29T12:06:56.999Z</time></trkpt><trkpt lat="42.17252823675048" lon="13.003196191422967"><ele>542.0</ele><time>2026-03-29T12:06:57.999Z</time></trkpt><trkpt lat="42.172636456296864" lon="13.003094274598679"><ele>542.6666666666666</ele><time>2026-03-29T12:06:58.999Z</time></trkpt><trkpt lat="42.17277625244209" lon="13.003074666167226"><ele>543.3333333333334</ele><time>2026-03-29T12:06:59.999Z</time></trkpt><trkpt lat="42.17294858057677" lon="13.003127433655154"><ele>544.0</ele><time>2026-03-29T12:07:00.999Z</time></trkpt><trkpt lat="42.173137218957066" lon="13.003140877163544"><ele>548.0</ele><time>2026-03-29T12:07:01.999Z</time></trkpt><trkpt lat="42.173326588772" lon="13.003070819016884"><ele>552.0</ele><time>2026-03-29T12:07:02.999Z</time></trkpt><trkpt lat="42.173510565342774" lon="13.002949882339669"><ele>556.0</ele><time>2026-03-29T12:07:03.999Z</time></trkpt><trkpt lat="42.173692210968944" lon="13.00282365661258"><ele>556.0</ele><time>2026-03-29T12:07:04.999Z</time></trkpt><trkpt lat="42.173881179950854" lon="13.002741376184959"><ele>556.0</ele><time>2026-03-29T12:07:05.999Z</time></trkpt><trkpt lat="42.174081187078166" lon="13.00268653443042"><ele>556.0</ele><time>2026-03-29T12:07:06.999Z</time></trkpt><trkpt lat="42.17429659314436" lon="13.002640928946771"><ele>560.0</ele><time>2026-03-29T12:07:07.999Z</time></trkpt><trkpt lat="42.1745187924077" lon="13.00259123195021"><ele>564.0</ele><time>2026-03-29T12:07:08.999Z</time></trkpt><trkpt lat="42.17474185282156" lon="13.002538423357166"><ele>554.0</ele><time>2026-03-29T12:07:09.999Z</time></trkpt><trkpt lat="42.17496683599178" lon="13.002478539600219"><ele>544.0</ele><time>2026-03-29T12:07:10.999Z</time></trkpt><trkpt lat="42.175191118495306" lon="13.002414977294855"><ele>544.0</ele><time>2026-03-29T12:07:11.999Z</time></trkpt><trkpt lat="42.175408104051506" lon="13.002324977387676"><ele>544.0</ele><time>2026-03-29T12:07:12.999Z</time></trkpt><trkpt lat="42.17561945760832" lon="13.002184000362867"><ele>550.0</ele><time>2026-03-29T12:07:14Z</time></trkpt><trkpt lat="42.17582857831001" lon="13.002006899956621"><ele>556.0</ele><time>2026-03-29T12:07:15Z</time></trkpt><trkpt lat="42.17603644348646" lon="13.001811583064132"><ele>547.5</ele><time>2026-03-29T12:07:16Z</time></trkpt><trkpt lat="42.17624157635413" lon="13.001621676525911"><ele>539.0</ele><time>2026-03-29T12:07:17Z</time></trkpt><trkpt lat="42.17644722051711" lon="13.001445865007314"><ele>546.5</ele><time>2026-03-29T12:07:18Z</time></trkpt><trkpt lat="42.17664987289893" lon="13.001267997272402"><ele>554.0</ele><time>2026-03-29T12:07:19Z</time></trkpt><trkpt lat="42.17685490977198" lon="13.00109724711436"><ele>554.0</ele><time>2026-03-29T12:07:20Z</time></trkpt><trkpt lat="42.17705699770671" lon="13.000917241074257"><ele>554.0</ele><time>2026-03-29T12:07:21Z</time></trkpt><trkpt lat="42.17726323041772" lon="13.000736715082168"><ele>554.5</ele><time>2026-03-29T12:07:22Z</time></trkpt><trkpt lat="42.17747175193055" lon="13.000559947174132"><ele>555.0</ele><time>2026-03-29T12:07:23Z</time></trkpt><trkpt lat="42.177681206277576" lon="13.000375900540735"><ele>555.0</ele><time>2026-03-29T12:07:24Z</time></trkpt><trkpt lat="42.177889240442184" lon="13.000193282899689"><ele>555.0</ele><time>2026-03-29T12:07:25Z</time></trkpt><trkpt lat="42.178086203891695" lon="13.000017957210275"><ele>561.0</ele><time>2026-03-29T12:07:26Z</time></trkpt><trkpt lat="42.17826667956143" lon="12.99986070606088"><ele>567.0</ele><time>2026-03-29T12:07:27Z</time></trkpt><trkpt lat="42.178428085263" lon="12.999724098285995"><ele>573.0</ele><time>2026-03-29T12:07:28Z</time></trkpt><trkpt lat="42.1785767667748" lon="12.999612800838218"><ele>573.0</ele><time>2026-03-29T12:07:29Z</time></trkpt><trkpt lat="42.17872492210909" lon="12.999525213305311"><ele>573.0</ele><time>2026-03-29T12:07:30Z</time></trkpt><trkpt lat="42.17888462367613" lon="12.999457405865574"><ele>573.0</ele><time>2026-03-29T12:07:31Z</time></trkpt><trkpt lat="42.179060846830254" lon="12.99941143413473"><ele>576.0</ele><time>2026-03-29T12:07:32Z</time></trkpt><trkpt lat="42.17923853894502" lon="12.999347091833945"><ele>579.0</ele><time>2026-03-29T12:07:33Z</time></trkpt><trkpt lat="42.17940351394557" lon="12.999234267172868"><ele>582.0</ele><time>2026-03-29T12:07:34Z</time></trkpt><trkpt lat="42.17957559173249" lon="12.999050676530327"><ele>581.6666666666666</ele><time>2026-03-29T12:07:35Z</time></trkpt><trkpt lat="42.17973603580077" lon="12.998843604516981"><ele>581.3333333333333</ele><time>2026-03-29T12:07:36Z</time></trkpt><trkpt lat="42.1799046055695" lon="12.99869004016515"><ele>581.0</ele><time>2026-03-29T12:07:37Z</time></trkpt><trkpt lat="42.180050403559406" lon="12.998553870169147"><ele>581.0</ele><time>2026-03-29T12:07:38Z</time></trkpt><trkpt lat="42.18018442364317" lon="12.998415976239947"><ele>581.0</ele><time>2026-03-29T12:07:39Z</time></trkpt><trkpt lat="42.180316036128204" lon="12.998280910163846"><ele>581.0</ele><time>2026-03-29T12:07:40Z</time></trkpt><trkpt lat="42.18044195202059" lon="12.998160990347698"><ele>584.0</ele><time>2026-03-29T12:07:41Z</time></trkpt><trkpt lat="42.18055896422577" lon="12.998033936108687"><ele>587.0</ele><time>2026-03-29T12:07:42Z</time></trkpt><trkpt lat="42.18066767741318" lon="12.9978877982605"><ele>590.0</ele><time>2026-03-29T12:07:43Z</time></trkpt><trkpt lat="42.180769767881245" lon="12.997700000163602"><ele>583.6666666666666</ele><time>2026-03-29T12:07:44Z</time></trkpt><trkpt lat="42.18084917621003" lon="12.997456564129008"><ele>577.3333333333334</ele><time>2026-03-29T12:07:45Z</time></trkpt><trkpt lat="42.1809002384921" lon="12.997212033335275"><ele>571.0</ele><time>2026-03-29T12:07:46Z</time></trkpt><trkpt lat="42.18096606838455" lon="12.996998835925009"><ele>571.0</ele><time>2026-03-29T12:07:47Z</time></trkpt><trkpt lat="42.18103686467589" lon="12.9968220677057"><ele>571.0</ele><time>2026-03-29T12:07:48Z</time></trkpt><trkpt lat="42.181097882621174" lon="12.996659460045356"><ele>571.0</ele><time>2026-03-29T12:07:49Z</time></trkpt><trkpt lat="42.18117364152886" lon="12.99652110202977"><ele>571.0</ele><time>2026-03-29T12:07:50Z</time></trkpt><trkpt lat="42.181281408281286" lon="12.996421471727219"><ele>566.0</ele><time>2026-03-29T12:07:51Z</time></trkpt><trkpt lat="42.18144846229382" lon="12.996363486123986"><ele>561.0</ele><time>2026-03-29T12:07:51.999Z</time></trkpt><trkpt lat="42.18161625884721" lon="12.996298765000805"><ele>556.0</ele><time>2026-03-29T12:07:52.999Z</time></trkpt><trkpt lat="42.181815855056804" lon="12.99625911274177"><ele>566.0</ele><time>2026-03-29T12:07:53.999Z</time></trkpt><trkpt lat="42.181993693030044" lon="12.996186879457786"><ele>576.0</ele><time>2026-03-29T12:07:54.999Z</time></trkpt><trkpt lat="42.1821824380929" lon="12.996119879967608"><ele>586.0</ele><time>2026-03-29T12:07:55.999Z</time></trkpt><trkpt lat="42.182368821082825" lon="12.996041786806224"><ele>592.3333333333334</ele><time>2026-03-29T12:07:56.999Z</time></trkpt><trkpt lat="42.182555223789755" lon="12.995967680018671"><ele>598.6666666666666</ele><time>2026-03-29T12:07:57.999Z</time></trkpt><trkpt lat="42.18274614167659" lon="12.995899109392552"><ele>605.0</ele><time>2026-03-29T12:07:58.999Z</time></trkpt><trkpt lat="42.18294041052178" lon="12.995833478399117"><ele>597.3333333333333</ele><time>2026-03-29T12:07:59.999Z</time></trkpt><trkpt lat="42.183133733774255" lon="12.995762596140771"><ele>589.6666666666666</ele><time>2026-03-29T12:08:00.999Z</time></trkpt><trkpt lat="42.18332825494919" lon="12.995691751629495"><ele>582.0</ele><time>2026-03-29T12:08:01.999Z</time></trkpt><trkpt lat="42.183520364487876" lon="12.995616154694952"><ele>582.0</ele><time>2026-03-29T12:08:02.999Z</time></trkpt><trkpt lat="42.18371353789474" lon="12.995545922371877"><ele>582.0</ele><time>2026-03-29T12:08:03.999Z</time></trkpt><trkpt lat="42.18390538137527" lon="12.995479090600105"><ele>582.0</ele><time>2026-03-29T12:08:04.999Z</time></trkpt><trkpt lat="42.18408899588122" lon="12.995416996601218"><ele>586.6666666666666</ele><time>2026-03-29T12:08:05.999Z</time></trkpt><trkpt lat="42.18426543178226" lon="12.995349840509117"><ele>591.3333333333333</ele><time>2026-03-29T12:08:06.999Z</time></trkpt><trkpt lat="42.18443121391388" lon="12.995281960578673"><ele>596.0</ele><time>2026-03-29T12:08:07.999Z</time></trkpt><trkpt lat="42.18459924283495" lon="12.995237104131439"><ele>596.0</ele><time>2026-03-29T12:08:08.999Z</time></trkpt><trkpt lat="42.184745301229356" lon="12.995187457531381"><ele>596.0</ele><time>2026-03-29T12:08:09.999Z</time></trkpt><trkpt lat="42.184878200784965" lon="12.99513750931291"><ele>596.0</ele><time>2026-03-29T12:08:10.999Z</time></trkpt><trkpt lat="42.18500058195496" lon="12.995085255194036"><ele>596.0</ele><time>2026-03-29T12:08:11.999Z</time></trkpt><trkpt lat="42.18513449648063" lon="12.995040674257668"><ele>591.2</ele><time>2026-03-29T12:08:12.999Z</time></trkpt><trkpt lat="42.185259002027486" lon="12.995001607961518"><ele>586.4000000000001</ele><time>2026-03-29T12:08:13.999Z</time></trkpt><trkpt lat="42.18537287376711" lon="12.99496767636819"><ele>581.6</ele><time>2026-03-29T12:08:14.999Z</time></trkpt><trkpt lat="42.185474146280846" lon="12.994929800371594"><ele>576.8000000000001</ele><time>2026-03-29T12:08:15.999Z</time></trkpt><trkpt lat="42.18556876740086" lon="12.994889394144698"><ele>572.0</ele><time>2026-03-29T12:08:16.999Z</time></trkpt><trkpt lat="42.185659444591565" lon="12.9948516487947"><ele>572.6666666666666</ele><time>2026-03-29T12:08:17.999Z</time></trkpt><trkpt lat="42.18575319238168" lon="12.99481751423382"><ele>573.3333333333333</ele><time>2026-03-29T12:08:18.999Z</time></trkpt><trkpt lat="42.18583921447163" lon="12.994790868433569"><ele>574.0</ele><time>2026-03-29T12:08:19.999Z</time></trkpt><trkpt lat="42.18591858457466" lon="12.9947650826627"><ele>574.6666666666666</ele><time>2026-03-29T12:08:20.999Z</time></trkpt><trkpt lat="42.1860036552313" lon="12.994737018896842"><ele>575.3333333333334</ele><time>2026-03-29T12:08:21.999Z</time></trkpt><trkpt lat="42.186093854025415" lon="12.994697788437582"><ele>576.0</ele><time>2026-03-29T12:08:22.999Z</time></trkpt><trkpt lat="42.18618942238752" lon="12.994659549516687"><ele>576.0</ele><time>2026-03-29T12:08:23.999Z</time></trkpt><trkpt lat="42.18629169519633" lon="12.99462652005721"><ele>576.0</ele><time>2026-03-29T12:08:24.999Z</time></trkpt><trkpt lat="42.186394257249745" lon="12.994587553213345"><ele>576.0</ele><time>2026-03-29T12:08:25.999Z</time></trkpt><trkpt lat="42.186500489761585" lon="12.994538460160353"><ele>576.0</ele><time>2026-03-29T12:08:26.999Z</time></trkpt><trkpt lat="42.18661166505789" lon="12.994467174803352"><ele>576.0</ele><time>2026-03-29T12:08:27.999Z</time></trkpt><trkpt lat="42.186718518364735" lon="12.994387455302011"><ele>573.75</ele><time>2026-03-29T12:08:28.999Z</time></trkpt><trkpt lat="42.18681570719855" lon="12.994290281574248"><ele>571.5</ele><time>2026-03-29T12:08:29.999Z</time></trkpt><trkpt lat="42.186907702757054" lon="12.994165194948424"><ele>569.25</ele><time>2026-03-29T12:08:30.999Z</time></trkpt><trkpt lat="42.18700592575588" lon="12.994030604691826"><ele>567.0</ele><time>2026-03-29T12:08:31.999Z</time></trkpt><trkpt lat="42.187120232249306" lon="12.993910073313243"><ele>567.0</ele><time>2026-03-29T12:08:32.999Z</time></trkpt><trkpt lat="42.18725973929278" lon="12.993790562515045"><ele>567.0</ele><time>2026-03-29T12:08:33.999Z</time></trkpt><trkpt lat="42.18742997896998" lon="12.993697469309836"><ele>567.0</ele><time>2026-03-29T12:08:34.999Z</time></trkpt><trkpt lat="42.187615470101974" lon="12.993617517912746"><ele>564.0</ele><time>2026-03-29T12:08:35.999Z</time></trkpt><trkpt lat="42.18780217940398" lon="12.99352756524612"><ele>561.0</ele><time>2026-03-29T12:08:36.999Z</time></trkpt><trkpt lat="42.18799473007824" lon="12.993425517393813"><ele>558.0</ele><time>2026-03-29T12:08:37.999Z</time></trkpt><trkpt lat="42.18817300737363" lon="12.993304321238961"><ele>561.3333333333334</ele><time>2026-03-29T12:08:38.999Z</time></trkpt><trkpt lat="42.188327767719905" lon="12.993170189315343"><ele>564.6666666666667</ele><time>2026-03-29T12:08:39.999Z</time></trkpt><trkpt lat="42.18847981184797" lon="12.993055946612985"><ele>568.0</ele><time>2026-03-29T12:08:40.999Z</time></trkpt><trkpt lat="42.1886454252702" lon="12.992968791612077"><ele>568.0</ele><time>2026-03-29T12:08:41.999Z</time></trkpt><trkpt lat="42.18881030580079" lon="12.992912008044703"><ele>568.0</ele><time>2026-03-29T12:08:42.999Z</time></trkpt><trkpt lat="42.18898913050861" lon="12.99288877033244"><ele>568.0</ele><time>2026-03-29T12:08:43.999Z</time></trkpt><trkpt lat="42.18916964201115" lon="12.992904342430032"><ele>570.6666666666667</ele><time>2026-03-29T12:08:44.999Z</time></trkpt><trkpt lat="42.189332538636705" lon="12.992899833056534"><ele>573.3333333333334</ele><time>2026-03-29T12:08:45.999Z</time></trkpt><trkpt lat="42.18949516107219" lon="12.99282434921991"><ele>576.0</ele><time>2026-03-29T12:08:46.999Z</time></trkpt><trkpt lat="42.189631300850415" lon="12.992700321382598"><ele>576.0</ele><time>2026-03-29T12:08:47.999Z</time></trkpt><trkpt lat="42.18975221078046" lon="12.992585096724108"><ele>576.0</ele><time>2026-03-29T12:08:48.999Z</time></trkpt><trkpt lat="42.189869374872394" lon="12.99250913641141"><ele>576.0</ele><time>2026-03-29T12:08:49.999Z</time></trkpt><trkpt lat="42.18999318933786" lon="12.992488278498428"><ele>576.0</ele><time>2026-03-29T12:08:50.999Z</time></trkpt><trkpt lat="42.19014600037798" lon="12.992525306714969"><ele>576.0</ele><time>2026-03-29T12:08:51.999Z</time></trkpt><trkpt lat="42.19031482581243" lon="12.992580985434055"><ele>576.0</ele><time>2026-03-29T12:08:52.999Z</time></trkpt><trkpt lat="42.190505440070126" lon="12.992628232663218"><ele>576.0</ele><time>2026-03-29T12:08:53.999Z</time></trkpt><trkpt lat="42.19070227751172" lon="12.992598839370023"><ele>576.0</ele><time>2026-03-29T12:08:54.999Z</time></trkpt><trkpt lat="42.190923302612106" lon="12.992647970482848"><ele>576.0</ele><time>2026-03-29T12:08:55.999Z</time></trkpt><trkpt lat="42.19115438313217" lon="12.992696889220927"><ele>576.0</ele><time>2026-03-29T12:08:56.999Z</time></trkpt><trkpt lat="42.19139822842414" lon="12.99275513146297"><ele>576.0</ele><time>2026-03-29T12:08:57.999Z</time></trkpt><trkpt lat="42.19168402428789" lon="12.992819888494436"><ele>571.0</ele><time>2026-03-29T12:08:58.999Z</time></trkpt><trkpt lat="42.19195323305852" lon="12.992879602661509"><ele>566.0</ele><time>2026-03-29T12:08:59.999Z</time></trkpt><trkpt lat="42.19220289552332" lon="12.992914447703294"><ele>563.0</ele><time>2026-03-29T12:09:00.999Z</time></trkpt><trkpt lat="42.19244239846052" lon="12.992949550975451"><ele>560.0</ele><time>2026-03-29T12:09:01.999Z</time></trkpt><trkpt lat="42.19268620460136" lon="12.993000231778765"><ele>560.0</ele><time>2026-03-29T12:09:02.999Z</time></trkpt><trkpt lat="42.192916504678024" lon="12.99304048018039"><ele>560.0</ele><time>2026-03-29T12:09:03.999Z</time></trkpt><trkpt lat="42.19313449315736" lon="12.99308995305794"><ele>556.6666666666666</ele><time>2026-03-29T12:09:04.999Z</time></trkpt><trkpt lat="42.19333694549145" lon="12.993133708983958"><ele>553.3333333333334</ele><time>2026-03-29T12:09:05.999Z</time></trkpt><trkpt lat="42.19354156104816" lon="12.993170443374519"><ele>550.0</ele><time>2026-03-29T12:09:06.999Z</time></trkpt><trkpt lat="42.1937188374583" lon="12.993205019043138"><ele>550.0</ele><time>2026-03-29T12:09:07.999Z</time></trkpt><trkpt lat="42.19388602929426" lon="12.993230931167068"><ele>550.0</ele><time>2026-03-29T12:09:08.999Z</time></trkpt><trkpt lat="42.19404336690378" lon="12.993263352240872"><ele>550.0</ele><time>2026-03-29T12:09:09.999Z</time></trkpt><trkpt lat="42.194177133377714" lon="12.993285586062692"><ele>548.25</ele><time>2026-03-29T12:09:10.999Z</time></trkpt><trkpt lat="42.19428706774213" lon="12.993301671552064"><ele>546.5</ele><time>2026-03-29T12:09:11.999Z</time></trkpt><trkpt lat="42.194395328277785" lon="12.993304930013252"><ele>544.75</ele><time>2026-03-29T12:09:12.999Z</time></trkpt><trkpt lat="42.19450906918734" lon="12.993252650839983"><ele>543.0</ele><time>2026-03-29T12:09:13.999Z</time></trkpt><trkpt lat="42.194604925829324" lon="12.993143463752181"><ele>543.0</ele><time>2026-03-29T12:09:14.999Z</time></trkpt><trkpt lat="42.19465063640857" lon="12.992969479754482"><ele>543.0</ele><time>2026-03-29T12:09:15.999Z</time></trkpt><trkpt lat="42.194663130969126" lon="12.992783992571608"><ele>543.0</ele><time>2026-03-29T12:09:16.999Z</time></trkpt><trkpt lat="42.19461753428623" lon="12.9925588647771"><ele>543.0</ele><time>2026-03-29T12:09:17.999Z</time></trkpt><trkpt lat="42.19455618130772" lon="12.992342822803565"><ele>543.0</ele><time>2026-03-29T12:09:18.999Z</time></trkpt><trkpt lat="42.19448683878319" lon="12.992121633517563"><ele>543.0</ele><time>2026-03-29T12:09:20Z</time></trkpt><trkpt lat="42.19444038716543" lon="12.991918038297174"><ele>543.0</ele><time>2026-03-29T12:09:21Z</time></trkpt><trkpt lat="42.194418079165075" lon="12.991754630345312"><ele>542.25</ele><time>2026-03-29T12:09:22Z</time></trkpt><trkpt lat="42.19442676859889" lon="12.99160325340941"><ele>541.5</ele><time>2026-03-29T12:09:23Z</time></trkpt><trkpt lat="42.1944599289286" lon="12.991457084718897"><ele>540.75</ele><time>2026-03-29T12:09:24Z</time></trkpt><trkpt lat="42.19457733780245" lon="12.991366001499697"><ele>540.0</ele><time>2026-03-29T12:09:25Z</time></trkpt><trkpt lat="42.19472206659281" lon="12.991284141901529"><ele>543.3333333333334</ele><time>2026-03-29T12:09:26Z</time></trkpt><trkpt lat="42.194906504585056" lon="12.99116585663753"><ele>546.6666666666667</ele><time>2026-03-29T12:09:27Z</time></trkpt><trkpt lat="42.19504506193235" lon="12.991014727957015"><ele>550.0</ele><time>2026-03-29T12:09:28Z</time></trkpt><trkpt lat="42.1951708487914" lon="12.99082675044064"><ele>550.0</ele><time>2026-03-29T12:09:29Z</time></trkpt><trkpt lat="42.195282738759346" lon="12.990616423668687"><ele>550.0</ele><time>2026-03-29T12:09:30Z</time></trkpt><trkpt lat="42.19538762434769" lon="12.990430479131055"><ele>550.0</ele><time>2026-03-29T12:09:31Z</time></trkpt><trkpt lat="42.195481861183445" lon="12.990255973396307"><ele>550.0</ele><time>2026-03-29T12:09:32Z</time></trkpt><trkpt lat="42.195572576379966" lon="12.990086353887273"><ele>550.0</ele><time>2026-03-29T12:09:33Z</time></trkpt><trkpt lat="42.19566940117443" lon="12.989946803236178"><ele>550.0</ele><time>2026-03-29T12:09:34Z</time></trkpt><trkpt lat="42.195759212578594" lon="12.989816024810608"><ele>550.0</ele><time>2026-03-29T12:09:35Z</time></trkpt><trkpt lat="42.1958226324446" lon="12.989719474741184"><ele>550.6</ele><time>2026-03-29T12:09:36Z</time></trkpt><trkpt lat="42.195894003914695" lon="12.989611026349879"><ele>551.2</ele><time>2026-03-29T12:09:37Z</time></trkpt><trkpt lat="42.19593971979742" lon="12.989517166096006"><ele>551.8</ele><time>2026-03-29T12:09:38Z</time></trkpt><trkpt lat="42.19598181054295" lon="12.98940634920317"><ele>552.4</ele><time>2026-03-29T12:09:39Z</time></trkpt><trkpt lat="42.19600114203132" lon="12.989280359542379"><ele>553.0</ele><time>2026-03-29T12:09:40Z</time></trkpt><trkpt lat="42.195977920968964" lon="12.989084030699852"><ele>553.0</ele><time>2026-03-29T12:09:41Z</time></trkpt><trkpt lat="42.19594709793131" lon="12.98885543621165"><ele>553.0</ele><time>2026-03-29T12:09:42Z</time></trkpt><trkpt lat="42.19592583391113" lon="12.988651621337679"><ele>553.0</ele><time>2026-03-29T12:09:43Z</time></trkpt><trkpt lat="42.19591497468953" lon="12.988420641543863"><ele>553.3333333333334</ele><time>2026-03-29T12:09:44Z</time></trkpt><trkpt lat="42.19586841278569" lon="12.9881153583291"><ele>553.6666666666666</ele><time>2026-03-29T12:09:45Z</time></trkpt><trkpt lat="42.1958507632688" lon="12.987867620369533"><ele>554.0</ele><time>2026-03-29T12:09:46Z</time></trkpt><trkpt lat="42.195821607910574" lon="12.987647227537071"><ele>553.0</ele><time>2026-03-29T12:09:47Z</time></trkpt><trkpt lat="42.19580001774695" lon="12.987468471226391"><ele>552.0</ele><time>2026-03-29T12:09:48Z</time></trkpt><trkpt lat="42.195832707476114" lon="12.987318165281385"><ele>551.0</ele><time>2026-03-29T12:09:49Z</time></trkpt><trkpt lat="42.19591329892791" lon="12.987206049880163"><ele>550.0</ele><time>2026-03-29T12:09:50Z</time></trkpt><trkpt lat="42.196003283342684" lon="12.987088569763253"><ele>550.0</ele><time>2026-03-29T12:09:51Z</time></trkpt><trkpt lat="42.19615821100487" lon="12.986961088992006"><ele>550.0</ele><time>2026-03-29T12:09:52Z</time></trkpt><trkpt lat="42.19629468499572" lon="12.98686916343459"><ele>550.0</ele><time>2026-03-29T12:09:53Z</time></trkpt><trkpt lat="42.19643763703372" lon="12.986795395599907"><ele>550.0</ele><time>2026-03-29T12:09:54Z</time></trkpt><trkpt lat="42.196572915081944" lon="12.986717711289074"><ele>550.0</ele><time>2026-03-29T12:09:54.999Z</time></trkpt><trkpt lat="42.19670176164776" lon="12.986649486920882"><ele>550.0</ele><time>2026-03-29T12:09:55.999Z</time></trkpt><trkpt lat="42.1968431847109" lon="12.986583060250776"><ele>550.0</ele><time>2026-03-29T12:09:56.999Z</time></trkpt><trkpt lat="42.19699577867331" lon="12.98663746508728"><ele>550.0</ele><time>2026-03-29T12:09:57.999Z</time></trkpt><trkpt lat="42.197155825068755" lon="12.986664839273331"><ele>550.0</ele><time>2026-03-29T12:09:58.999Z</time></trkpt><trkpt lat="42.19733677803317" lon="12.986687466005467"><ele>550.0</ele><time>2026-03-29T12:09:59.999Z</time></trkpt><trkpt lat="42.19749181029789" lon="12.98669620764247"><ele>550.5</ele><time>2026-03-29T12:10:00.999Z</time></trkpt><trkpt lat="42.19764172583214" lon="12.986710444986803"><ele>551.0</ele><time>2026-03-29T12:10:01.999Z</time></trkpt><trkpt lat="42.19779205194209" lon="12.9866959313848"><ele>551.5</ele><time>2026-03-29T12:10:02.999Z</time></trkpt><trkpt lat="42.19793423297507" lon="12.986652549103828"><ele>552.0</ele><time>2026-03-29T12:10:03.999Z</time></trkpt><trkpt lat="42.198067151718924" lon="12.986603271748198"><ele>553.25</ele><time>2026-03-29T12:10:04.999Z</time></trkpt><trkpt lat="42.19818708936833" lon="12.986555696146064"><ele>554.5</ele><time>2026-03-29T12:10:05.999Z</time></trkpt><trkpt lat="42.198314023336174" lon="12.986482741283078"><ele>555.75</ele><time>2026-03-29T12:10:06.999Z</time></trkpt><trkpt lat="42.1984239726505" lon="12.986405390580787"><ele>557.0</ele><time>2026-03-29T12:10:07.999Z</time></trkpt><trkpt lat="42.19853236649242" lon="12.986338044677963"><ele>557.0</ele><time>2026-03-29T12:10:08.999Z</time></trkpt><trkpt lat="42.19863950213565" lon="12.9862857970101"><ele>557.0</ele><time>2026-03-29T12:10:09.999Z</time></trkpt><trkpt lat="42.198707304167606" lon="12.986216148442384"><ele>557.0</ele><time>2026-03-29T12:10:10.999Z</time></trkpt><trkpt lat="42.19879795271758" lon="12.986215418180489"><ele>557.0</ele><time>2026-03-29T12:10:11.999Z</time></trkpt><trkpt lat="42.19889443452332" lon="12.986258943182651"><ele>557.0</ele><time>2026-03-29T12:10:12.999Z</time></trkpt><trkpt lat="42.19899618179614" lon="12.986352131932174"><ele>555.75</ele><time>2026-03-29T12:10:13.999Z</time></trkpt><trkpt lat="42.199071944222894" lon="12.986476865572788"><ele>554.5</ele><time>2026-03-29T12:10:14.999Z</time></trkpt><trkpt lat="42.19911637193616" lon="12.986638225965843"><ele>553.25</ele><time>2026-03-29T12:10:15.999Z</time></trkpt><trkpt lat="42.19915098318115" lon="12.986811015112503"><ele>552.0</ele><time>2026-03-29T12:10:16.999Z</time></trkpt><trkpt lat="42.19921318540458" lon="12.98696818235694"><ele>555.25</ele><time>2026-03-29T12:10:17.999Z</time></trkpt><trkpt lat="42.199316180225516" lon="12.987099099627363"><ele>558.5</ele><time>2026-03-29T12:10:18.999Z</time></trkpt><trkpt lat="42.19944730155203" lon="12.987179810457446"><ele>561.75</ele><time>2026-03-29T12:10:19.999Z</time></trkpt><trkpt lat="42.19960520100847" lon="12.987198564812008"><ele>565.0</ele><time>2026-03-29T12:10:20.999Z</time></trkpt><trkpt lat="42.1997819803986" lon="12.987181562881345"><ele>565.3333333333334</ele><time>2026-03-29T12:10:21.999Z</time></trkpt><trkpt lat="42.19996562212799" lon="12.987150745014993"><ele>565.6666666666666</ele><time>2026-03-29T12:10:22.999Z</time></trkpt><trkpt lat="42.200171069882785" lon="12.987127386379761"><ele>566.0</ele><time>2026-03-29T12:10:23.999Z</time></trkpt><trkpt lat="42.20039913000757" lon="12.987106767251195"><ele>566.0</ele><time>2026-03-29T12:10:24.999Z</time></trkpt><trkpt lat="42.20063224858197" lon="12.987093255266982"><ele>566.0</ele><time>2026-03-29T12:10:25.999Z</time></trkpt><trkpt lat="42.200856866153764" lon="12.987077958230506"><ele>565.0</ele><time>2026-03-29T12:10:26.999Z</time></trkpt><trkpt lat="42.20105797958159" lon="12.987066231440693"><ele>564.0</ele><time>2026-03-29T12:10:27.999Z</time></trkpt><trkpt lat="42.20124124652229" lon="12.987052964692507"><ele>563.0</ele><time>2026-03-29T12:10:28.999Z</time></trkpt><trkpt lat="42.201413139154" lon="12.987044697502677"><ele>562.6666666666666</ele><time>2026-03-29T12:10:29.999Z</time></trkpt><trkpt lat="42.201570765092335" lon="12.987050431100833"><ele>562.3333333333334</ele><time>2026-03-29T12:10:30.999Z</time></trkpt><trkpt lat="42.20171988521505" lon="12.987090309898155"><ele>562.0</ele><time>2026-03-29T12:10:31.999Z</time></trkpt><trkpt lat="42.201874934616676" lon="12.987144927400438"><ele>562.0</ele><time>2026-03-29T12:10:32.999Z</time></trkpt><trkpt lat="42.20200485948396" lon="12.987207032800407"><ele>562.0</ele><time>2026-03-29T12:10:33.999Z</time></trkpt><trkpt lat="42.202127372108535" lon="12.987242613059887"><ele>562.0</ele><time>2026-03-29T12:10:34.999Z</time></trkpt><trkpt lat="42.20227022132484" lon="12.987221542633991"><ele>562.0</ele><time>2026-03-29T12:10:35.999Z</time></trkpt><trkpt lat="42.20242199446903" lon="12.987149854233087"><ele>559.6666666666667</ele><time>2026-03-29T12:10:36.999Z</time></trkpt><trkpt lat="42.20256912431049" lon="12.987044874937405"><ele>557.3333333333334</ele><time>2026-03-29T12:10:37.999Z</time></trkpt><trkpt lat="42.2027061948041" lon="12.986962746083252"><ele>555.0</ele><time>2026-03-29T12:10:38.999Z</time></trkpt><trkpt lat="42.20285045779822" lon="12.986883938370203"><ele>555.0</ele><time>2026-03-29T12:10:39.999Z</time></trkpt><trkpt lat="42.20298608136634" lon="12.986809917742843"><ele>555.0</ele><time>2026-03-29T12:10:40.999Z</time></trkpt><trkpt lat="42.203127134631345" lon="12.986739359461525"><ele>555.0</ele><time>2026-03-29T12:10:41.999Z</time></trkpt><trkpt lat="42.2032677135651" lon="12.986667511534893"><ele>555.0</ele><time>2026-03-29T12:10:42.999Z</time></trkpt><trkpt lat="42.203407777242006" lon="12.986592649150378"><ele>553.0</ele><time>2026-03-29T12:10:43.999Z</time></trkpt><trkpt lat="42.20355130731657" lon="12.986519345438118"><ele>551.0</ele><time>2026-03-29T12:10:44.999Z</time></trkpt><trkpt lat="42.20369101446953" lon="12.986452369947896"><ele>549.0</ele><time>2026-03-29T12:10:45.999Z</time></trkpt><trkpt lat="42.203824063412476" lon="12.986377978292403"><ele>547.0</ele><time>2026-03-29T12:10:46.999Z</time></trkpt><trkpt lat="42.20395540848912" lon="12.98630118169208"><ele>546.0</ele><time>2026-03-29T12:10:47.999Z</time></trkpt><trkpt lat="42.20408266404278" lon="12.986221365755116"><ele>545.0</ele><time>2026-03-29T12:10:48.999Z</time></trkpt><trkpt lat="42.2041974775143" lon="12.986118247491207"><ele>544.0</ele><time>2026-03-29T12:10:49.999Z</time></trkpt><trkpt lat="42.2042989757388" lon="12.985987914271568"><ele>543.0</ele><time>2026-03-29T12:10:50.999Z</time></trkpt><trkpt lat="42.204389749024514" lon="12.985839174846943"><ele>543.0</ele><time>2026-03-29T12:10:51.999Z</time></trkpt><trkpt lat="42.20448017043296" lon="12.985688213300493"><ele>543.0</ele><time>2026-03-29T12:10:52.999Z</time></trkpt><trkpt lat="42.2045761826627" lon="12.985541219366825"><ele>543.0</ele><time>2026-03-29T12:10:53.999Z</time></trkpt><trkpt lat="42.20468518484522" lon="12.98539924222469"><ele>543.0</ele><time>2026-03-29T12:10:54.999Z</time></trkpt><trkpt lat="42.20480491106172" lon="12.985263055619543"><ele>544.3333333333334</ele><time>2026-03-29T12:10:55.999Z</time></trkpt><trkpt lat="42.204936979548634" lon="12.985146118143012"><ele>545.6666666666667</ele><time>2026-03-29T12:10:56.999Z</time></trkpt><trkpt lat="42.20507740926236" lon="12.98504888524697"><ele>547.0</ele><time>2026-03-29T12:10:57.999Z</time></trkpt><trkpt lat="42.205207485574526" lon="12.9849414724413"><ele>547.0</ele><time>2026-03-29T12:10:58.999Z</time></trkpt><trkpt lat="42.205317567678705" lon="12.984777920440843"><ele>547.0</ele><time>2026-03-29T12:10:59.999Z</time></trkpt><trkpt lat="42.205403029258335" lon="12.984563158652543"><ele>547.0</ele><time>2026-03-29T12:11:00.999Z</time></trkpt><trkpt lat="42.20548503611578" lon="12.98431508156575"><ele>544.6666666666667</ele><time>2026-03-29T12:11:01.999Z</time></trkpt><trkpt lat="42.20556638721006" lon="12.984058179505382"><ele>542.3333333333334</ele><time>2026-03-29T12:11:02.999Z</time></trkpt><trkpt lat="42.20564993749528" lon="12.983816474654573"><ele>540.0</ele><time>2026-03-29T12:11:03.999Z</time></trkpt><trkpt lat="42.20572364109476" lon="12.983605462037957"><ele>541.25</ele><time>2026-03-29T12:11:04.999Z</time></trkpt><trkpt lat="42.2057879847401" lon="12.983417100306092"><ele>542.5</ele><time>2026-03-29T12:11:05.999Z</time></trkpt><trkpt lat="42.20585253244106" lon="12.983259359081869"><ele>543.75</ele><time>2026-03-29T12:11:06.999Z</time></trkpt><trkpt lat="42.205922680864155" lon="12.983114737065597"><ele>545.0</ele><time>2026-03-29T12:11:07.999Z</time></trkpt><trkpt lat="42.20602733312047" lon="12.982998517504937"><ele>545.0</ele><time>2026-03-29T12:11:08.999Z</time></trkpt><trkpt lat="42.20616673429168" lon="12.98292306318221"><ele>545.0</ele><time>2026-03-29T12:11:09.999Z</time></trkpt><trkpt lat="42.206331550357774" lon="12.982892687831777"><ele>545.0</ele><time>2026-03-29T12:11:10.999Z</time></trkpt><trkpt lat="42.20647800786151" lon="12.98290694619242"><ele>547.0</ele><time>2026-03-29T12:11:11.999Z</time></trkpt><trkpt lat="42.206595975590794" lon="12.982924733248213"><ele>549.0</ele><time>2026-03-29T12:11:12.999Z</time></trkpt><trkpt lat="42.20669589377322" lon="12.98296936819877"><ele>551.0</ele><time>2026-03-29T12:11:13.999Z</time></trkpt><trkpt lat="42.206827941691095" lon="12.983067886809133"><ele>553.0</ele><time>2026-03-29T12:11:14.999Z</time></trkpt><trkpt lat="42.20695340576797" lon="12.983219400238047"><ele>554.6666666666667</ele><time>2026-03-29T12:11:15.999Z</time></trkpt><trkpt lat="42.20709568132444" lon="12.983372184542512"><ele>556.3333333333334</ele><time>2026-03-29T12:11:16.999Z</time></trkpt><trkpt lat="42.20721937025183" lon="12.983520545550022"><ele>558.0</ele><time>2026-03-29T12:11:17.999Z</time></trkpt><trkpt lat="42.20734389024644" lon="12.983648272323947"><ele>558.0</ele><time>2026-03-29T12:11:18.999Z</time></trkpt><trkpt lat="42.20745796056102" lon="12.98375948065115"><ele>558.0</ele><time>2026-03-29T12:11:19.999Z</time></trkpt><trkpt lat="42.207547537890136" lon="12.983849250077085"><ele>558.0</ele><time>2026-03-29T12:11:20.999Z</time></trkpt><trkpt lat="42.20762594060399" lon="12.983974710648468"><ele>558.0</ele><time>2026-03-29T12:11:21.999Z</time></trkpt><trkpt lat="42.207681952814426" lon="12.984127180872548"><ele>562.4</ele><time>2026-03-29T12:11:22.999Z</time></trkpt><trkpt lat="42.20773039049048" lon="12.984258015433054"><ele>566.8</ele><time>2026-03-29T12:11:23.999Z</time></trkpt><trkpt lat="42.207766048272326" lon="12.984371342940891"><ele>571.2</ele><time>2026-03-29T12:11:24.999Z</time></trkpt><trkpt lat="42.20784687170469" lon="12.984428286182906"><ele>575.6</ele><time>2026-03-29T12:11:26Z</time></trkpt><trkpt lat="42.207959185197545" lon="12.984463285881391"><ele>580.0</ele><time>2026-03-29T12:11:27Z</time></trkpt><trkpt lat="42.20808490644683" lon="12.984424610440453"><ele>576.0</ele><time>2026-03-29T12:11:28Z</time></trkpt><trkpt lat="42.208228481852" lon="12.984353717397013"><ele>572.0</ele><time>2026-03-29T12:11:29Z</time></trkpt><trkpt lat="42.208419623234974" lon="12.984270725683654"><ele>568.0</ele><time>2026-03-29T12:11:30Z</time></trkpt><trkpt lat="42.20856582935809" lon="12.984273697547478"><ele>568.0</ele><time>2026-03-29T12:11:31Z</time></trkpt><trkpt lat="42.208675560592745" lon="12.98433461758033"><ele>568.0</ele><time>2026-03-29T12:11:32Z</time></trkpt><trkpt lat="42.20879252328089" lon="12.98439028724921"><ele>568.0</ele><time>2026-03-29T12:11:33Z</time></trkpt><trkpt lat="42.20891877550122" lon="12.984472905017071"><ele>568.0</ele><time>2026-03-29T12:11:34Z</time></trkpt><trkpt lat="42.20903247247911" lon="12.984582611142018"><ele>565.8</ele><time>2026-03-29T12:11:35Z</time></trkpt><trkpt lat="42.209134716317585" lon="12.984688943772673"><ele>563.5999999999999</ele><time>2026-03-29T12:11:36Z</time></trkpt><trkpt lat="42.20921851045602" lon="12.984781514640408"><ele>561.4000000000001</ele><time>2026-03-29T12:11:37Z</time></trkpt><trkpt lat="42.209296862481295" lon="12.984848381893919"><ele>559.2</ele><time>2026-03-29T12:11:38Z</time></trkpt><trkpt lat="42.20936323987107" lon="12.984882743639233"><ele>557.0</ele><time>2026-03-29T12:11:39Z</time></trkpt><trkpt lat="42.20944518793556" lon="12.984919142302317"><ele>557.0</ele><time>2026-03-29T12:11:40Z</time></trkpt><trkpt lat="42.20951725135152" lon="12.984914123096884"><ele>557.0</ele><time>2026-03-29T12:11:41Z</time></trkpt><trkpt lat="42.20966694366361" lon="12.98490411703331"><ele>557.0</ele><time>2026-03-29T12:11:43Z</time></trkpt><trkpt lat="42.20974274867037" lon="12.9848799180512"><ele>557.0</ele><time>2026-03-29T12:11:44Z</time></trkpt><trkpt lat="42.209816707726915" lon="12.984855161331273"><ele>557.0</ele><time>2026-03-29T12:11:45Z</time></trkpt><trkpt lat="42.209887395908396" lon="12.984796418901594"><ele>556.6</ele><time>2026-03-29T12:11:46Z</time></trkpt><trkpt lat="42.20993994596486" lon="12.984683411027973"><ele>556.2</ele><time>2026-03-29T12:11:47Z</time></trkpt><trkpt lat="42.20994537644465" lon="12.98457058910832"><ele>555.8</ele><time>2026-03-29T12:11:48Z</time></trkpt><trkpt lat="42.20996769347563" lon="12.984403236909879"><ele>555.4</ele><time>2026-03-29T12:11:49Z</time></trkpt><trkpt lat="42.20998616184247" lon="12.984237680285442"><ele>555.0</ele><time>2026-03-29T12:11:50Z</time></trkpt><trkpt lat="42.21000668132302" lon="12.984068400916804"><ele>554.75</ele><time>2026-03-29T12:11:51Z</time></trkpt><trkpt lat="42.210028785105656" lon="12.983900511070498"><ele>554.5</ele><time>2026-03-29T12:11:52Z</time></trkpt><trkpt lat="42.21005431494167" lon="12.983722026444841"><ele>554.25</ele><time>2026-03-29T12:11:53Z</time></trkpt><trkpt lat="42.21008955284914" lon="12.983536218752146"><ele>554.0</ele><time>2026-03-29T12:11:54Z</time></trkpt><trkpt lat="42.21014836817504" lon="12.983335995242257"><ele>551.0</ele><time>2026-03-29T12:11:54.999Z</time></trkpt><trkpt lat="42.210257675251015" lon="12.983148225686914"><ele>548.0</ele><time>2026-03-29T12:11:55.999Z</time></trkpt><trkpt lat="42.21037444611389" lon="12.982981046119734"><ele>545.0</ele><time>2026-03-29T12:11:56.999Z</time></trkpt><trkpt lat="42.21053720418429" lon="12.982841965579976"><ele>546.6666666666666</ele><time>2026-03-29T12:11:57.999Z</time></trkpt><trkpt lat="42.21069906450727" lon="12.982708084069792"><ele>548.3333333333334</ele><time>2026-03-29T12:11:58.999Z</time></trkpt><trkpt lat="42.21082007255585" lon="12.982540746288695"><ele>550.0</ele><time>2026-03-29T12:11:59.999Z</time></trkpt><trkpt lat="42.21091959709997" lon="12.982328738339476"><ele>550.0</ele><time>2026-03-29T12:12:00.999Z</time></trkpt><trkpt lat="42.21103206782091" lon="12.982089468534772"><ele>550.0</ele><time>2026-03-29T12:12:01.999Z</time></trkpt><trkpt lat="42.2111462314903" lon="12.98186626890552"><ele>550.0</ele><time>2026-03-29T12:12:02.999Z</time></trkpt><trkpt lat="42.211250152323025" lon="12.981654776487982"><ele>551.3333333333334</ele><time>2026-03-29T12:12:03.999Z</time></trkpt><trkpt lat="42.21135044590925" lon="12.981436460166698"><ele>552.6666666666666</ele><time>2026-03-29T12:12:04.999Z</time></trkpt><trkpt lat="42.21146416600507" lon="12.981202325535815"><ele>554.0</ele><time>2026-03-29T12:12:05.999Z</time></trkpt><trkpt lat="42.211584982398676" lon="12.980972188026854"><ele>551.3333333333333</ele><time>2026-03-29T12:12:06.999Z</time></trkpt><trkpt lat="42.211717210647144" lon="12.98073183952807"><ele>548.6666666666666</ele><time>2026-03-29T12:12:07.999Z</time></trkpt><trkpt lat="42.21183288239238" lon="12.980504894126515"><ele>546.0</ele><time>2026-03-29T12:12:08.999Z</time></trkpt><trkpt lat="42.21193918487357" lon="12.98028516908606"><ele>546.0</ele><time>2026-03-29T12:12:09.999Z</time></trkpt><trkpt lat="42.21201941484104" lon="12.980133623154915"><ele>546.0</ele><time>2026-03-29T12:12:10.999Z</time></trkpt><trkpt lat="42.21209334548044" lon="12.980016657256115"><ele>546.0</ele><time>2026-03-29T12:12:11.999Z</time></trkpt><trkpt lat="42.21219219225426" lon="12.97993030303304"><ele>546.0</ele><time>2026-03-29T12:12:12.999Z</time></trkpt><trkpt lat="42.21233149437015" lon="12.979881569499423"><ele>548.6</ele><time>2026-03-29T12:12:13.999Z</time></trkpt><trkpt lat="42.212465366446786" lon="12.979853371955201"><ele>551.2</ele><time>2026-03-29T12:12:14.999Z</time></trkpt><trkpt lat="42.212576249905744" lon="12.979804609900533"><ele>553.8</ele><time>2026-03-29T12:12:15.999Z</time></trkpt><trkpt lat="42.2126679794749" lon="12.979812891621798"><ele>556.4</ele><time>2026-03-29T12:12:16.999Z</time></trkpt><trkpt lat="42.21276407188161" lon="12.979755278566229"><ele>559.0</ele><time>2026-03-29T12:12:17.999Z</time></trkpt><trkpt lat="42.212833116870954" lon="12.97962839047162"><ele>559.0</ele><time>2026-03-29T12:12:18.999Z</time></trkpt><trkpt lat="42.212865838668634" lon="12.979423237857615"><ele>559.0</ele><time>2026-03-29T12:12:19.999Z</time></trkpt><trkpt lat="42.212898355297234" lon="12.9791799608389"><ele>559.0</ele><time>2026-03-29T12:12:20.999Z</time></trkpt><trkpt lat="42.21292828965259" lon="12.978886289619686"><ele>554.3333333333334</ele><time>2026-03-29T12:12:22.999Z</time></trkpt><trkpt lat="42.21294602754146" lon="12.978658721927985"><ele>549.6666666666666</ele><time>2026-03-29T12:12:23.999Z</time></trkpt><trkpt lat="42.21295162965988" lon="12.978463441758297"><ele>545.0</ele><time>2026-03-29T12:12:24.999Z</time></trkpt><trkpt lat="42.212964554826925" lon="12.9782353096612"><ele>544.25</ele><time>2026-03-29T12:12:25.999Z</time></trkpt><trkpt lat="42.2129900573567" lon="12.977963351956136"><ele>543.5</ele><time>2026-03-29T12:12:26.999Z</time></trkpt><trkpt lat="42.213045027807475" lon="12.97781571410002"><ele>542.75</ele><time>2026-03-29T12:12:27.999Z</time></trkpt><trkpt lat="42.213103440747325" lon="12.977680914265173"><ele>542.0</ele><time>2026-03-29T12:12:28.999Z</time></trkpt><trkpt lat="42.21319025835749" lon="12.977560099973454"><ele>544.0</ele><time>2026-03-29T12:12:29.999Z</time></trkpt><trkpt lat="42.21326401561755" lon="12.977482433628433"><ele>546.0</ele><time>2026-03-29T12:12:30.999Z</time></trkpt><trkpt lat="42.21332984004093" lon="12.977433194850548"><ele>548.0</ele><time>2026-03-29T12:12:31.999Z</time></trkpt><trkpt lat="42.21340010038476" lon="12.977333867395357"><ele>550.0</ele><time>2026-03-29T12:12:33.999Z</time></trkpt><trkpt lat="42.213446229484234" lon="12.977238739523989"><ele>552.0</ele><time>2026-03-29T12:12:35.999Z</time></trkpt><trkpt lat="42.21348888507034" lon="12.977144776241943"><ele>554.0</ele><time>2026-03-29T12:12:37.999Z</time></trkpt><trkpt lat="42.21352129893901" lon="12.977067352385053"><ele>554.0</ele><time>2026-03-29T12:12:39.999Z</time></trkpt><trkpt lat="42.21355439473324" lon="12.976989747882774"><ele>554.0</ele><time>2026-03-29T12:12:42.999Z</time></trkpt><trkpt lat="42.213516023239094" lon="12.977066944149337"><ele>554.0</ele><time>2026-03-29T12:12:44.999Z</time></trkpt><trkpt lat="42.21352948550708" lon="12.976962685911985"><ele>554.0</ele><time>2026-03-29T12:14:15.999Z</time></trkpt><trkpt lat="42.21353250022727" lon="12.976800139556433"><ele>554.0</ele><time>2026-03-29T12:14:17.999Z</time></trkpt><trkpt lat="42.21352372911283" lon="12.976685491976896"><ele>554.0</ele><time>2026-03-29T12:14:18.999Z</time></trkpt><trkpt lat="42.21350330207099" lon="12.9765617534815"><ele>552.0</ele><time>2026-03-29T12:14:19.999Z</time></trkpt><trkpt lat="42.21348792176819" lon="12.976425514088643"><ele>550.0</ele><time>2026-03-29T12:14:20.999Z</time></trkpt><trkpt lat="42.213475681834794" lon="12.976276164210864"><ele>548.0</ele><time>2026-03-29T12:14:21.999Z</time></trkpt><trkpt lat="42.21347295525742" lon="12.976111103743591"><ele>546.0</ele><time>2026-03-29T12:14:22.999Z</time></trkpt><trkpt lat="42.213471621816026" lon="12.975933896133089"><ele>545.25</ele><time>2026-03-29T12:14:23.999Z</time></trkpt><trkpt lat="42.21350050900578" lon="12.97575076832682"><ele>544.5</ele><time>2026-03-29T12:14:24.999Z</time></trkpt><trkpt lat="42.21353887455534" lon="12.975575741366622"><ele>543.75</ele><time>2026-03-29T12:14:25.999Z</time></trkpt><trkpt lat="42.21357457110716" lon="12.975394404913557"><ele>543.0</ele><time>2026-03-29T12:14:26.999Z</time></trkpt><trkpt lat="42.21360926131498" lon="12.975200146747257"><ele>542.3333333333334</ele><time>2026-03-29T12:14:27.999Z</time></trkpt><trkpt lat="42.21364573130925" lon="12.97499466003164"><ele>541.6666666666667</ele><time>2026-03-29T12:14:28.999Z</time></trkpt><trkpt lat="42.21368911947754" lon="12.974791721510584"><ele>541.0</ele><time>2026-03-29T12:14:29.999Z</time></trkpt><trkpt lat="42.213734972474526" lon="12.974593222116127"><ele>541.0</ele><time>2026-03-29T12:14:30.999Z</time></trkpt><trkpt lat="42.21377938166781" lon="12.97440213980282"><ele>541.0</ele><time>2026-03-29T12:14:31.999Z</time></trkpt><trkpt lat="42.2138172187261" lon="12.974231824630957"><ele>541.0</ele><time>2026-03-29T12:14:32.999Z</time></trkpt><trkpt lat="42.21385143796688" lon="12.974077034918585"><ele>541.0</ele><time>2026-03-29T12:14:33.999Z</time></trkpt><trkpt lat="42.21388671439951" lon="12.973920267106468"><ele>541.0</ele><time>2026-03-29T12:14:34.999Z</time></trkpt><trkpt lat="42.21392365153184" lon="12.97375506494001"><ele>541.0</ele><time>2026-03-29T12:14:35.999Z</time></trkpt><trkpt lat="42.21395936018611" lon="12.973590107135204"><ele>541.0</ele><time>2026-03-29T12:14:36.999Z</time></trkpt><trkpt lat="42.213989083480065" lon="12.97344666971327"><ele>541.0</ele><time>2026-03-29T12:14:37.999Z</time></trkpt><trkpt lat="42.21401198828223" lon="12.97332675591334"><ele>542.8333333333334</ele><time>2026-03-29T12:14:38.999Z</time></trkpt><trkpt lat="42.21402769168249" lon="12.973234057301534"><ele>544.6666666666667</ele><time>2026-03-29T12:14:39.999Z</time></trkpt><trkpt lat="42.214035153215846" lon="12.973137210530098"><ele>546.5</ele><time>2026-03-29T12:14:40.999Z</time></trkpt><trkpt lat="42.21403814218285" lon="12.973021081538898"><ele>548.3333333333334</ele><time>2026-03-29T12:14:41.999Z</time></trkpt><trkpt lat="42.21403744611871" lon="12.972891678049585"><ele>550.1666666666666</ele><time>2026-03-29T12:14:42.999Z</time></trkpt><trkpt lat="42.21403523478459" lon="12.972756751441633"><ele>552.0</ele><time>2026-03-29T12:14:43.999Z</time></trkpt><trkpt lat="42.21403052732205" lon="12.97262378990483"><ele>552.0</ele><time>2026-03-29T12:14:44.999Z</time></trkpt><trkpt lat="42.21402156782501" lon="12.972476222440225"><ele>552.0</ele><time>2026-03-29T12:14:45.999Z</time></trkpt><trkpt lat="42.21401274046905" lon="12.97231716215476"><ele>552.0</ele><time>2026-03-29T12:14:46.999Z</time></trkpt><trkpt lat="42.214003081069" lon="12.972150175785869"><ele>552.0</ele><time>2026-03-29T12:14:47.999Z</time></trkpt><trkpt lat="42.213992049383606" lon="12.97198423499495"><ele>549.0</ele><time>2026-03-29T12:14:48.999Z</time></trkpt><trkpt lat="42.21398365804794" lon="12.971814124612504"><ele>546.0</ele><time>2026-03-29T12:14:49.999Z</time></trkpt><trkpt lat="42.213978273897006" lon="12.971651627031688"><ele>543.0</ele><time>2026-03-29T12:14:50.999Z</time></trkpt><trkpt lat="42.21396502938753" lon="12.971494101816893"><ele>540.0</ele><time>2026-03-29T12:14:51.999Z</time></trkpt><trkpt lat="42.213958088226164" lon="12.971338327367768"><ele>540.0</ele><time>2026-03-29T12:14:52.999Z</time></trkpt><trkpt lat="42.213949087171514" lon="12.97117962254558"><ele>540.0</ele><time>2026-03-29T12:14:53.999Z</time></trkpt><trkpt lat="42.213943517807735" lon="12.971010235471123"><ele>540.0</ele><time>2026-03-29T12:14:54.999Z</time></trkpt><trkpt lat="42.21393490559741" lon="12.970839990309416"><ele>540.0</ele><time>2026-03-29T12:14:55.999Z</time></trkpt><trkpt lat="42.2139208886471" lon="12.970663815627764"><ele>540.0</ele><time>2026-03-29T12:14:56.999Z</time></trkpt><trkpt lat="42.21391659387066" lon="12.970502714997698"><ele>540.0</ele><time>2026-03-29T12:14:57.999Z</time></trkpt><trkpt lat="42.2139119563905" lon="12.970343609002043"><ele>540.0</ele><time>2026-03-29T12:14:58.999Z</time></trkpt><trkpt lat="42.213902941370385" lon="12.970184067383192"><ele>540.0</ele><time>2026-03-29T12:14:59.999Z</time></trkpt><trkpt lat="42.21389408098458" lon="12.970020942699996"><ele>540.0</ele><time>2026-03-29T12:15:00.999Z</time></trkpt><trkpt lat="42.21388549822652" lon="12.969865696342241"><ele>540.0</ele><time>2026-03-29T12:15:01.999Z</time></trkpt><trkpt lat="42.21387449462738" lon="12.96971703661269"><ele>540.0</ele><time>2026-03-29T12:15:02.999Z</time></trkpt><trkpt lat="42.21386448314763" lon="12.969570596308126"><ele>540.0</ele><time>2026-03-29T12:15:03.999Z</time></trkpt><trkpt lat="42.213854842926814" lon="12.969426934125014"><ele>540.0</ele><time>2026-03-29T12:15:04.999Z</time></trkpt><trkpt lat="42.2138483066701" lon="12.969284057904103"><ele>540.6</ele><time>2026-03-29T12:15:05.999Z</time></trkpt><trkpt lat="42.21384732745935" lon="12.969145246155286"><ele>541.2</ele><time>2026-03-29T12:15:06.999Z</time></trkpt><trkpt lat="42.213854660023" lon="12.969005753826101"><ele>541.8</ele><time>2026-03-29T12:15:07.999Z</time></trkpt><trkpt lat="42.2138775188204" lon="12.968870432753095"><ele>542.4</ele><time>2026-03-29T12:15:08.999Z</time></trkpt><trkpt lat="42.21392903840783" lon="12.96874425437148"><ele>543.0</ele><time>2026-03-29T12:15:09.999Z</time></trkpt><trkpt lat="42.21400564564553" lon="12.968632314705443"><ele>543.5</ele><time>2026-03-29T12:15:10.999Z</time></trkpt><trkpt lat="42.21408845761257" lon="12.968518621791041"><ele>544.0</ele><time>2026-03-29T12:15:11.999Z</time></trkpt><trkpt lat="42.21417240221113" lon="12.96838566167866"><ele>544.5</ele><time>2026-03-29T12:15:12.999Z</time></trkpt><trkpt lat="42.214236197604514" lon="12.96823283195742"><ele>545.0</ele><time>2026-03-29T12:15:13.999Z</time></trkpt><trkpt lat="42.2142692794846" lon="12.968077294320263"><ele>545.0</ele><time>2026-03-29T12:15:14.999Z</time></trkpt><trkpt lat="42.214271737728424" lon="12.96792902475919"><ele>545.0</ele><time>2026-03-29T12:15:15.999Z</time></trkpt><trkpt lat="42.214246773163964" lon="12.967791981025108"><ele>545.0</ele><time>2026-03-29T12:15:16.999Z</time></trkpt><trkpt lat="42.21420342389581" lon="12.967683199352205"><ele>545.0</ele><time>2026-03-29T12:15:17.999Z</time></trkpt><trkpt lat="42.214162230643055" lon="12.967593705448406"><ele>545.0</ele><time>2026-03-29T12:15:18.999Z</time></trkpt><trkpt lat="42.21412695140736" lon="12.96751919023528"><ele>545.0</ele><time>2026-03-29T12:15:19.999Z</time></trkpt><trkpt lat="42.2140896610594" lon="12.967428438729232"><ele>545.8</ele><time>2026-03-29T12:15:21.999Z</time></trkpt><trkpt lat="42.214032972387045" lon="12.967322002133558"><ele>546.6</ele><time>2026-03-29T12:15:28.999Z</time></trkpt><trkpt lat="42.21396454885052" lon="12.967235487071173"><ele>547.4</ele><time>2026-03-29T12:15:30.999Z</time></trkpt><trkpt lat="42.21390246546087" lon="12.967157211526537"><ele>548.2</ele><time>2026-03-29T12:15:31.999Z</time></trkpt><trkpt lat="42.21385050365357" lon="12.967031017021508"><ele>549.0</ele><time>2026-03-29T12:15:32.999Z</time></trkpt><trkpt lat="42.21379099091724" lon="12.966905819348481"><ele>548.2</ele><time>2026-03-29T12:15:33.999Z</time></trkpt><trkpt lat="42.21372898959929" lon="12.96676495653546"><ele>547.4</ele><time>2026-03-29T12:15:34.999Z</time></trkpt><trkpt lat="42.21368529495805" lon="12.966640971485635"><ele>546.6</ele><time>2026-03-29T12:15:35.999Z</time></trkpt><trkpt lat="42.21365527570541" lon="12.966520735649913"><ele>545.8</ele><time>2026-03-29T12:15:36.999Z</time></trkpt><trkpt lat="42.21362971744626" lon="12.96639477455513"><ele>545.0</ele><time>2026-03-29T12:15:38Z</time></trkpt><trkpt lat="42.213597429585825" lon="12.966259611294488"><ele>545.0</ele><time>2026-03-29T12:15:39Z</time></trkpt><trkpt lat="42.21357400078712" lon="12.966096687352636"><ele>545.0</ele><time>2026-03-29T12:15:40Z</time></trkpt><trkpt lat="42.21355428854389" lon="12.96591897289859"><ele>545.0</ele><time>2026-03-29T12:15:41Z</time></trkpt><trkpt lat="42.213538769217706" lon="12.965751657711474"><ele>545.0</ele><time>2026-03-29T12:15:42Z</time></trkpt><trkpt lat="42.21355786053665" lon="12.965611622948552"><ele>544.4</ele><time>2026-03-29T12:15:43Z</time></trkpt><trkpt lat="42.213607642937426" lon="12.965476463951802"><ele>543.8</ele><time>2026-03-29T12:15:44Z</time></trkpt><trkpt lat="42.21368035074639" lon="12.965358049404614"><ele>543.2</ele><time>2026-03-29T12:15:45Z</time></trkpt><trkpt lat="42.21376611141215" lon="12.965280282854033"><ele>542.6</ele><time>2026-03-29T12:15:46Z</time></trkpt><trkpt lat="42.21386460543374" lon="12.965199102223117"><ele>542.0</ele><time>2026-03-29T12:15:47Z</time></trkpt><trkpt lat="42.21395874071369" lon="12.965106444021343"><ele>544.75</ele><time>2026-03-29T12:15:48Z</time></trkpt><trkpt lat="42.214033029028734" lon="12.964998263378423"><ele>547.5</ele><time>2026-03-29T12:15:49Z</time></trkpt><trkpt lat="42.21408462658418" lon="12.964856580393132"><ele>550.25</ele><time>2026-03-29T12:15:50Z</time></trkpt><trkpt lat="42.21411237639792" lon="12.96469597981984"><ele>553.0</ele><time>2026-03-29T12:15:51Z</time></trkpt><trkpt lat="42.21411050369156" lon="12.964532261003015"><ele>553.0</ele><time>2026-03-29T12:15:52Z</time></trkpt><trkpt lat="42.21407744073549" lon="12.964369235178912"><ele>553.0</ele><time>2026-03-29T12:15:52.999Z</time></trkpt><trkpt lat="42.21401568236746" lon="12.964216807945796"><ele>553.0</ele><time>2026-03-29T12:15:53.999Z</time></trkpt><trkpt lat="42.21393312498992" lon="12.964070221948534"><ele>553.0</ele><time>2026-03-29T12:15:54.999Z</time></trkpt><trkpt lat="42.21385127735289" lon="12.963926209336824"><ele>552.0</ele><time>2026-03-29T12:15:55.999Z</time></trkpt><trkpt lat="42.21377174764322" lon="12.963776003036005"><ele>551.0</ele><time>2026-03-29T12:15:56.999Z</time></trkpt><trkpt lat="42.21370118428802" lon="12.963633012504612"><ele>550.0</ele><time>2026-03-29T12:15:57.999Z</time></trkpt><trkpt lat="42.213639790201654" lon="12.963502377964234"><ele>549.0</ele><time>2026-03-29T12:15:58.999Z</time></trkpt><trkpt lat="42.21358866584091" lon="12.963382524292875"><ele>549.5</ele><time>2026-03-29T12:15:59.999Z</time></trkpt><trkpt lat="42.21355451238699" lon="12.963274137804433"><ele>550.0</ele><time>2026-03-29T12:16:00.999Z</time></trkpt><trkpt lat="42.213533742182385" lon="12.963171246726105"><ele>550.5</ele><time>2026-03-29T12:16:01.999Z</time></trkpt><trkpt lat="42.21350876267321" lon="12.963070881874941"><ele>551.0</ele><time>2026-03-29T12:16:02.999Z</time></trkpt><trkpt lat="42.21347644484762" lon="12.962962827340954"><ele>551.5</ele><time>2026-03-29T12:16:03.999Z</time></trkpt><trkpt lat="42.213409513372305" lon="12.962865888410736"><ele>552.0</ele><time>2026-03-29T12:16:04.999Z</time></trkpt><trkpt lat="42.21332290968823" lon="12.962796658453822"><ele>552.0</ele><time>2026-03-29T12:16:05.999Z</time></trkpt><trkpt lat="42.21323407252634" lon="12.96272820614421"><ele>552.0</ele><time>2026-03-29T12:16:06.999Z</time></trkpt><trkpt lat="42.21315785659274" lon="12.962671094666536"><ele>552.0</ele><time>2026-03-29T12:16:07.999Z</time></trkpt><trkpt lat="42.213092239571374" lon="12.96261535896835"><ele>552.0</ele><time>2026-03-29T12:16:08.999Z</time></trkpt><trkpt lat="42.21302519882721" lon="12.96256077325234"><ele>552.0</ele><time>2026-03-29T12:16:09.999Z</time></trkpt><trkpt lat="42.212949634753656" lon="12.96250470235378"><ele>552.0</ele><time>2026-03-29T12:16:10.999Z</time></trkpt><trkpt lat="42.21286578949247" lon="12.962446483190726"><ele>549.2</ele><time>2026-03-29T12:16:11.999Z</time></trkpt><trkpt lat="42.21277711705373" lon="12.962379408190555"><ele>546.4000000000001</ele><time>2026-03-29T12:16:12.999Z</time></trkpt><trkpt lat="42.21268170931845" lon="12.962305652195031"><ele>543.5999999999999</ele><time>2026-03-29T12:16:13.999Z</time></trkpt><trkpt lat="42.212585698000424" lon="12.962227353770462"><ele>540.8</ele><time>2026-03-29T12:16:14.999Z</time></trkpt><trkpt lat="42.21249101539708" lon="12.962143828898116"><ele>538.0</ele><time>2026-03-29T12:16:15.999Z</time></trkpt><trkpt lat="42.212400176183465" lon="12.9620614678041"><ele>538.0</ele><time>2026-03-29T12:16:16.999Z</time></trkpt><trkpt lat="42.21230730602186" lon="12.961981817109468"><ele>538.0</ele><time>2026-03-29T12:16:17.999Z</time></trkpt><trkpt lat="42.21221155267594" lon="12.961902394574615"><ele>538.0</ele><time>2026-03-29T12:16:18.999Z</time></trkpt><trkpt lat="42.2121144432029" lon="12.961824055703499"><ele>538.0</ele><time>2026-03-29T12:16:19.999Z</time></trkpt><trkpt lat="42.21201622245719" lon="12.96174594257367"><ele>538.0</ele><time>2026-03-29T12:16:20.999Z</time></trkpt><trkpt lat="42.21191554290133" lon="12.961667167391354"><ele>538.0</ele><time>2026-03-29T12:16:21.999Z</time></trkpt><trkpt lat="42.211815445565286" lon="12.961585495111855"><ele>538.0</ele><time>2026-03-29T12:16:22.999Z</time></trkpt><trkpt lat="42.211713495952395" lon="12.961504776724722"><ele>538.0</ele><time>2026-03-29T12:16:23.999Z</time></trkpt><trkpt lat="42.211612332836886" lon="12.961422846694585"><ele>538.0</ele><time>2026-03-29T12:16:24.999Z</time></trkpt><trkpt lat="42.211514437154584" lon="12.961342696641838"><ele>538.0</ele><time>2026-03-29T12:16:25.999Z</time></trkpt><trkpt lat="42.21141661985955" lon="12.961264403781085"><ele>538.0</ele><time>2026-03-29T12:16:26.999Z</time></trkpt><trkpt lat="42.21131220025541" lon="12.961184642112284"><ele>538.0</ele><time>2026-03-29T12:16:27.999Z</time></trkpt><trkpt lat="42.21120340606262" lon="12.961100330094403"><ele>538.75</ele><time>2026-03-29T12:16:28.999Z</time></trkpt><trkpt lat="42.21107640304984" lon="12.961038766067228"><ele>539.5</ele><time>2026-03-29T12:16:29.999Z</time></trkpt><trkpt lat="42.21093690092942" lon="12.960992539630695"><ele>540.25</ele><time>2026-03-29T12:16:30.999Z</time></trkpt><trkpt lat="42.21079744485116" lon="12.960921708756509"><ele>541.0</ele><time>2026-03-29T12:16:31.999Z</time></trkpt><trkpt lat="42.210659933254576" lon="12.960826454140811"><ele>545.75</ele><time>2026-03-29T12:16:32.999Z</time></trkpt><trkpt lat="42.21052786240131" lon="12.960720864711723"><ele>550.5</ele><time>2026-03-29T12:16:33.999Z</time></trkpt><trkpt lat="42.210413718752925" lon="12.960626982968432"><ele>555.25</ele><time>2026-03-29T12:16:34.999Z</time></trkpt><trkpt lat="42.210311849822595" lon="12.96054016394098"><ele>560.0</ele><time>2026-03-29T12:16:35.999Z</time></trkpt><trkpt lat="42.210230220738325" lon="12.96044166195678"><ele>560.0</ele><time>2026-03-29T12:16:36.999Z</time></trkpt><trkpt lat="42.21018053305356" lon="12.9603220858078"><ele>560.0</ele><time>2026-03-29T12:16:37.999Z</time></trkpt><trkpt lat="42.21016933349591" lon="12.960177744558525"><ele>560.0</ele><time>2026-03-29T12:16:38.999Z</time></trkpt><trkpt lat="42.210178361012936" lon="12.960034226259559"><ele>560.0</ele><time>2026-03-29T12:16:39.999Z</time></trkpt><trkpt lat="42.210164618302194" lon="12.959894861584225"><ele>560.0</ele><time>2026-03-29T12:16:40.999Z</time></trkpt><trkpt lat="42.21012483025516" lon="12.959769145732333"><ele>558.4</ele><time>2026-03-29T12:16:41.999Z</time></trkpt><trkpt lat="42.210068383345174" lon="12.95966575045935"><ele>556.8</ele><time>2026-03-29T12:16:42.999Z</time></trkpt><trkpt lat="42.20999863308038" lon="12.959577969614886"><ele>555.2</ele><time>2026-03-29T12:16:43.999Z</time></trkpt><trkpt lat="42.20991260816124" lon="12.95951398574056"><ele>553.6</ele><time>2026-03-29T12:16:44.999Z</time></trkpt><trkpt lat="42.209817919109156" lon="12.959475458071354"><ele>552.0</ele><time>2026-03-29T12:16:45.999Z</time></trkpt><trkpt lat="42.20971995405458" lon="12.959463460666056"><ele>552.6666666666666</ele><time>2026-03-29T12:16:46.999Z</time></trkpt><trkpt lat="42.20962668355096" lon="12.959455468408535"><ele>553.3333333333334</ele><time>2026-03-29T12:16:47.999Z</time></trkpt><trkpt lat="42.20954466428743" lon="12.959427889335377"><ele>554.0</ele><time>2026-03-29T12:16:48.999Z</time></trkpt><trkpt lat="42.20947004759341" lon="12.959375684056898"><ele>554.6666666666667</ele><time>2026-03-29T12:16:49.999Z</time></trkpt><trkpt lat="42.209417266443324" lon="12.959289892293933"><ele>555.3333333333334</ele><time>2026-03-29T12:16:50.999Z</time></trkpt><trkpt lat="42.20938783474679" lon="12.959189046892389"><ele>556.0</ele><time>2026-03-29T12:16:51.999Z</time></trkpt><trkpt lat="42.20937374800265" lon="12.959078179058253"><ele>556.0</ele><time>2026-03-29T12:16:52.999Z</time></trkpt><trkpt lat="42.20936815857857" lon="12.958961989052575"><ele>556.0</ele><time>2026-03-29T12:16:53.999Z</time></trkpt><trkpt lat="42.209366758806844" lon="12.958845855580122"><ele>556.0</ele><time>2026-03-29T12:16:54.999Z</time></trkpt><trkpt lat="42.20935455167984" lon="12.958733788729802"><ele>556.0</ele><time>2026-03-29T12:16:55.999Z</time></trkpt><trkpt lat="42.20932047195993" lon="12.958627108480266"><ele>556.0</ele><time>2026-03-29T12:16:56.999Z</time></trkpt><trkpt lat="42.20925742062178" lon="12.958533931396273"><ele>556.0</ele><time>2026-03-29T12:16:57.999Z</time></trkpt><trkpt lat="42.209168330114736" lon="12.958471367393127"><ele>556.0</ele><time>2026-03-29T12:16:58.999Z</time></trkpt><trkpt lat="42.20906052251564" lon="12.958447528284555"><ele>556.0</ele><time>2026-03-29T12:16:59.999Z</time></trkpt><trkpt lat="42.20894675004121" lon="12.958436303314674"><ele>556.0</ele><time>2026-03-29T12:17:00.999Z</time></trkpt><trkpt lat="42.208842405886266" lon="12.958390180971158"><ele>556.0</ele><time>2026-03-29T12:17:01.999Z</time></trkpt><trkpt lat="42.20877165906049" lon="12.958302056494045"><ele>556.0</ele><time>2026-03-29T12:17:02.999Z</time></trkpt><trkpt lat="42.208719001664164" lon="12.958180292400503"><ele>556.0</ele><time>2026-03-29T12:17:03.999Z</time></trkpt><trkpt lat="42.20866367932817" lon="12.958060333998628"><ele>556.0</ele><time>2026-03-29T12:17:04.999Z</time></trkpt><trkpt lat="42.208574541650066" lon="12.957963688204647"><ele>556.0</ele><time>2026-03-29T12:17:05.999Z</time></trkpt><trkpt lat="42.20845910375768" lon="12.957905965188681"><ele>556.0</ele><time>2026-03-29T12:17:06.999Z</time></trkpt><trkpt lat="42.20832013187646" lon="12.95788863523365"><ele>556.0</ele><time>2026-03-29T12:17:07.999Z</time></trkpt><trkpt lat="42.208165362532625" lon="12.957877490389173"><ele>556.0</ele><time>2026-03-29T12:17:08.999Z</time></trkpt><trkpt lat="42.208006071312504" lon="12.957839633374839"><ele>556.0</ele><time>2026-03-29T12:17:09.999Z</time></trkpt><trkpt lat="42.20784402377473" lon="12.957793583660512"><ele>557.5</ele><time>2026-03-29T12:17:10.999Z</time></trkpt><trkpt lat="42.20769987846884" lon="12.95774810397949"><ele>559.0</ele><time>2026-03-29T12:17:11.999Z</time></trkpt><trkpt lat="42.20756991866273" lon="12.957709454685812"><ele>560.5</ele><time>2026-03-29T12:17:12.999Z</time></trkpt><trkpt lat="42.20745342751755" lon="12.957661197405441"><ele>562.0</ele><time>2026-03-29T12:17:13.999Z</time></trkpt><trkpt lat="42.20736046548231" lon="12.957573228374644"><ele>560.25</ele><time>2026-03-29T12:17:14.999Z</time></trkpt><trkpt lat="42.20729342307032" lon="12.957444377470749"><ele>558.5</ele><time>2026-03-29T12:17:15.999Z</time></trkpt><trkpt lat="42.20726333910659" lon="12.957294890331209"><ele>556.75</ele><time>2026-03-29T12:17:16.999Z</time></trkpt><trkpt lat="42.20726844222349" lon="12.957136438873139"><ele>555.0</ele><time>2026-03-29T12:17:17.999Z</time></trkpt><trkpt lat="42.20729997455306" lon="12.956986650696148"><ele>555.0</ele><time>2026-03-29T12:17:18.999Z</time></trkpt><trkpt lat="42.207299314627605" lon="12.956848300879598"><ele>555.0</ele><time>2026-03-29T12:17:19.999Z</time></trkpt><trkpt lat="42.207252600504276" lon="12.95673538553337"><ele>555.0</ele><time>2026-03-29T12:17:20.999Z</time></trkpt><trkpt lat="42.2071624012606" lon="12.95665487877128"><ele>555.0</ele><time>2026-03-29T12:17:21.999Z</time></trkpt><trkpt lat="42.207041864500546" lon="12.956620385412878"><ele>555.0</ele><time>2026-03-29T12:17:22.999Z</time></trkpt><trkpt lat="42.2069036525531" lon="12.956637928200962"><ele>555.0</ele><time>2026-03-29T12:17:23.999Z</time></trkpt><trkpt lat="42.20674913883198" lon="12.956698620488481"><ele>555.0</ele><time>2026-03-29T12:17:24.999Z</time></trkpt><trkpt lat="42.20658740535858" lon="12.956758212317927"><ele>555.0</ele><time>2026-03-29T12:17:25.999Z</time></trkpt><trkpt lat="42.20641870122333" lon="12.956804500708591"><ele>556.0</ele><time>2026-03-29T12:17:26.999Z</time></trkpt><trkpt lat="42.20625627824756" lon="12.9568451021713"><ele>557.0</ele><time>2026-03-29T12:17:27.999Z</time></trkpt><trkpt lat="42.20609417507072" lon="12.956856396046597"><ele>558.0</ele><time>2026-03-29T12:17:28.999Z</time></trkpt><trkpt lat="42.20592800983531" lon="12.956810797629858"><ele>558.0</ele><time>2026-03-29T12:17:29.999Z</time></trkpt><trkpt lat="42.20576090317796" lon="12.956751958728209"><ele>558.0</ele><time>2026-03-29T12:17:30.999Z</time></trkpt><trkpt lat="42.20558879843816" lon="12.956694485307699"><ele>558.0</ele><time>2026-03-29T12:17:31.999Z</time></trkpt><trkpt lat="42.205413857717055" lon="12.956632981987433"><ele>556.6666666666666</ele><time>2026-03-29T12:17:32.999Z</time></trkpt><trkpt lat="42.205237405034154" lon="12.956563509535368"><ele>555.3333333333333</ele><time>2026-03-29T12:17:33.999Z</time></trkpt><trkpt lat="42.20506120098157" lon="12.956490589642055"><ele>554.0</ele><time>2026-03-29T12:17:34.999Z</time></trkpt><trkpt lat="42.20488537144832" lon="12.956418836574434"><ele>555.0</ele><time>2026-03-29T12:17:35.999Z</time></trkpt><trkpt lat="42.20471255031118" lon="12.956354370298913"><ele>556.0</ele><time>2026-03-29T12:17:36.999Z</time></trkpt><trkpt lat="42.2045482135123" lon="12.956299408742469"><ele>557.0</ele><time>2026-03-29T12:17:37.999Z</time></trkpt><trkpt lat="42.204390525448645" lon="12.956272074494647"><ele>557.0</ele><time>2026-03-29T12:17:38.999Z</time></trkpt><trkpt lat="42.204223122318055" lon="12.956303907742042"><ele>557.0</ele><time>2026-03-29T12:17:39.999Z</time></trkpt><trkpt lat="42.204053666592245" lon="12.956370435830864"><ele>557.0</ele><time>2026-03-29T12:17:40.999Z</time></trkpt><trkpt lat="42.20389667269125" lon="12.956416043901523"><ele>556.0</ele><time>2026-03-29T12:17:41.999Z</time></trkpt><trkpt lat="42.20375558506011" lon="12.956444141717025"><ele>555.0</ele><time>2026-03-29T12:17:42.999Z</time></trkpt><trkpt lat="42.20361404833214" lon="12.956437646814965"><ele>554.0</ele><time>2026-03-29T12:17:43.999Z</time></trkpt><trkpt lat="42.20346666960945" lon="12.956390629306691"><ele>553.0</ele><time>2026-03-29T12:17:44.999Z</time></trkpt><trkpt lat="42.20331574754552" lon="12.956307398812037"><ele>554.3333333333334</ele><time>2026-03-29T12:17:45.999Z</time></trkpt><trkpt lat="42.20315143481849" lon="12.95619876722245"><ele>555.6666666666666</ele><time>2026-03-29T12:17:46.999Z</time></trkpt><trkpt lat="42.20299517903024" lon="12.956108182405776"><ele>557.0</ele><time>2026-03-29T12:17:47.999Z</time></trkpt><trkpt lat="42.20285644492174" lon="12.95603321671638"><ele>557.0</ele><time>2026-03-29T12:17:48.999Z</time></trkpt><trkpt lat="42.202746573785255" lon="12.955973245725414"><ele>557.0</ele><time>2026-03-29T12:17:49.999Z</time></trkpt><trkpt lat="42.202650593484144" lon="12.95591341321818"><ele>557.0</ele><time>2026-03-29T12:17:50.999Z</time></trkpt><trkpt lat="42.20257849420882" lon="12.95582908790321"><ele>557.0</ele><time>2026-03-29T12:17:51.999Z</time></trkpt><trkpt lat="42.20252937212703" lon="12.95571384427413"><ele>557.0</ele><time>2026-03-29T12:17:52.999Z</time></trkpt><trkpt lat="42.20251757117363" lon="12.955591556131791"><ele>555.0</ele><time>2026-03-29T12:17:53.999Z</time></trkpt><trkpt lat="42.20254582452935" lon="12.95546758442554"><ele>553.0</ele><time>2026-03-29T12:17:54.999Z</time></trkpt><trkpt lat="42.20259939646972" lon="12.955343643481443"><ele>551.0</ele><time>2026-03-29T12:17:55.999Z</time></trkpt><trkpt lat="42.202694644957596" lon="12.95522969822547"><ele>549.0</ele><time>2026-03-29T12:17:57Z</time></trkpt><trkpt lat="42.202802190300815" lon="12.955109409173948"><ele>550.25</ele><time>2026-03-29T12:17:58Z</time></trkpt><trkpt lat="42.20289812016536" lon="12.954957603589962"><ele>551.5</ele><time>2026-03-29T12:17:59Z</time></trkpt><trkpt lat="42.20296671633896" lon="12.954788273876375"><ele>552.75</ele><time>2026-03-29T12:18:00Z</time></trkpt><trkpt lat="42.20300202734229" lon="12.954592211842419"><ele>554.0</ele><time>2026-03-29T12:18:01Z</time></trkpt><trkpt lat="42.20303101192868" lon="12.954407421078221"><ele>554.0</ele><time>2026-03-29T12:18:02Z</time></trkpt><trkpt lat="42.20307518837409" lon="12.954244522780705"><ele>554.0</ele><time>2026-03-29T12:18:03Z</time></trkpt><trkpt lat="42.20314750866133" lon="12.9541219282004"><ele>554.0</ele><time>2026-03-29T12:18:04Z</time></trkpt><trkpt lat="42.20325085956958" lon="12.954010194569946"><ele>554.0</ele><time>2026-03-29T12:18:05Z</time></trkpt><trkpt lat="42.20338021390115" lon="12.953922159428831"><ele>551.0</ele><time>2026-03-29T12:18:06Z</time></trkpt><trkpt lat="42.20352160413748" lon="12.953863699827112"><ele>548.0</ele><time>2026-03-29T12:18:07Z</time></trkpt><trkpt lat="42.20366849571238" lon="12.953814120779015"><ele>545.0</ele><time>2026-03-29T12:18:08Z</time></trkpt><trkpt lat="42.203824371074404" lon="12.953742635950954"><ele>545.0</ele><time>2026-03-29T12:18:09Z</time></trkpt><trkpt lat="42.20398387463411" lon="12.953655817950251"><ele>545.0</ele><time>2026-03-29T12:18:10Z</time></trkpt><trkpt lat="42.204144191779754" lon="12.953558628058884"><ele>545.0</ele><time>2026-03-29T12:18:11Z</time></trkpt><trkpt lat="42.204303736754504" lon="12.953450553337172"><ele>549.0</ele><time>2026-03-29T12:18:12Z</time></trkpt><trkpt lat="42.204451606544694" lon="12.953340773878113"><ele>553.0</ele><time>2026-03-29T12:18:13Z</time></trkpt><trkpt lat="42.204595952066796" lon="12.953236686853982"><ele>557.0</ele><time>2026-03-29T12:18:14Z</time></trkpt><trkpt lat="42.20474219652304" lon="12.953166544833032"><ele>553.3333333333333</ele><time>2026-03-29T12:18:15Z</time></trkpt><trkpt lat="42.204888500014285" lon="12.953126774114017"><ele>549.6666666666666</ele><time>2026-03-29T12:18:16Z</time></trkpt><trkpt lat="42.20504985446356" lon="12.953113347961285"><ele>546.0</ele><time>2026-03-29T12:18:17Z</time></trkpt><trkpt lat="42.20522346779651" lon="12.953116161095238"><ele>546.0</ele><time>2026-03-29T12:18:18Z</time></trkpt><trkpt lat="42.20540559855272" lon="12.953129846099415"><ele>546.0</ele><time>2026-03-29T12:18:19Z</time></trkpt><trkpt lat="42.20560747470375" lon="12.953153718015257"><ele>546.0</ele><time>2026-03-29T12:18:20Z</time></trkpt><trkpt lat="42.20582522557449" lon="12.95317149526042"><ele>545.5</ele><time>2026-03-29T12:18:21Z</time></trkpt><trkpt lat="42.205995537608736" lon="12.953179160581465"><ele>545.0</ele><time>2026-03-29T12:18:22Z</time></trkpt><trkpt lat="42.20612719197883" lon="12.953176472308963"><ele>544.5</ele><time>2026-03-29T12:18:23Z</time></trkpt><trkpt lat="42.20624061398017" lon="12.953142099468739"><ele>544.0</ele><time>2026-03-29T12:18:24Z</time></trkpt><trkpt lat="42.206336605891906" lon="12.953057218587231"><ele>544.0</ele><time>2026-03-29T12:18:25Z</time></trkpt><trkpt lat="42.2064060253137" lon="12.952930689392721"><ele>544.0</ele><time>2026-03-29T12:18:26Z</time></trkpt><trkpt lat="42.20643770797919" lon="12.952771187659593"><ele>544.0</ele><time>2026-03-29T12:18:27Z</time></trkpt><trkpt lat="42.2064211522149" lon="12.952594083007284"><ele>544.0</ele><time>2026-03-29T12:18:28Z</time></trkpt><trkpt lat="42.20637885491464" lon="12.952403913729093"><ele>550.0</ele><time>2026-03-29T12:18:29Z</time></trkpt><trkpt lat="42.206356562202785" lon="12.952196945409751"><ele>556.0</ele><time>2026-03-29T12:18:30Z</time></trkpt><trkpt lat="42.20636620271454" lon="12.951991581044506"><ele>562.0</ele><time>2026-03-29T12:18:31Z</time></trkpt><trkpt lat="42.20640292775411" lon="12.951771812104226"><ele>563.5</ele><time>2026-03-29T12:18:32Z</time></trkpt><trkpt lat="42.20643027405908" lon="12.951574821122135"><ele>565.0</ele><time>2026-03-29T12:18:33Z</time></trkpt><trkpt lat="42.20644976579102" lon="12.951395316721705"><ele>566.5</ele><time>2026-03-29T12:18:34Z</time></trkpt><trkpt lat="42.20646120719199" lon="12.951232373197255"><ele>568.0</ele><time>2026-03-29T12:18:35Z</time></trkpt><trkpt lat="42.206451947023695" lon="12.951081912301312"><ele>568.0</ele><time>2026-03-29T12:18:36Z</time></trkpt><trkpt lat="42.20639615114044" lon="12.95093605825929"><ele>568.0</ele><time>2026-03-29T12:18:37Z</time></trkpt><trkpt lat="42.206305161381955" lon="12.950794671757333"><ele>568.0</ele><time>2026-03-29T12:18:38Z</time></trkpt><trkpt lat="42.206201782301775" lon="12.950656128460052"><ele>568.0</ele><time>2026-03-29T12:18:39Z</time></trkpt><trkpt lat="42.20611798011142" lon="12.950533529545034"><ele>567.0</ele><time>2026-03-29T12:18:40Z</time></trkpt><trkpt lat="42.206051002593576" lon="12.950423494468646"><ele>566.0</ele><time>2026-03-29T12:18:41Z</time></trkpt><trkpt lat="42.20599338282203" lon="12.95032286771768"><ele>565.0</ele><time>2026-03-29T12:18:42Z</time></trkpt><trkpt lat="42.20595356218351" lon="12.950223713747311"><ele>564.0</ele><time>2026-03-29T12:18:43Z</time></trkpt><trkpt lat="42.20594136679562" lon="12.950115733709024"><ele>563.0</ele><time>2026-03-29T12:18:44Z</time></trkpt><trkpt lat="42.20596060583702" lon="12.95001643817549"><ele>562.0</ele><time>2026-03-29T12:18:45Z</time></trkpt><trkpt lat="42.206010731726685" lon="12.949930824416077"><ele>560.4</ele><time>2026-03-29T12:18:46Z</time></trkpt><trkpt lat="42.20608298343865" lon="12.949869236862055"><ele>558.8000000000001</ele><time>2026-03-29T12:18:47Z</time></trkpt><trkpt lat="42.20617602884402" lon="12.949851578978418"><ele>557.2</ele><time>2026-03-29T12:18:48Z</time></trkpt><trkpt lat="42.20628620329637" lon="12.949885462836464"><ele>555.6</ele><time>2026-03-29T12:18:49Z</time></trkpt><trkpt lat="42.20641797832776" lon="12.949948523967374"><ele>554.0</ele><time>2026-03-29T12:18:50Z</time></trkpt><trkpt lat="42.206563057079926" lon="12.950010075633308"><ele>550.3333333333333</ele><time>2026-03-29T12:18:51Z</time></trkpt><trkpt lat="42.20671217760343" lon="12.95006730785292"><ele>546.6666666666666</ele><time>2026-03-29T12:18:52Z</time></trkpt><trkpt lat="42.206889723230596" lon="12.950135833901454"><ele>543.0</ele><time>2026-03-29T12:18:53Z</time></trkpt><trkpt lat="42.20708336955658" lon="12.950210806447657"><ele>543.0</ele><time>2026-03-29T12:18:54Z</time></trkpt><trkpt lat="42.20728008376531" lon="12.950280448255068"><ele>543.0</ele><time>2026-03-29T12:18:55Z</time></trkpt><trkpt lat="42.207459485513716" lon="12.950325864761599"><ele>543.0</ele><time>2026-03-29T12:18:56Z</time></trkpt><trkpt lat="42.20763014630114" lon="12.9503338713928"><ele>543.0</ele><time>2026-03-29T12:18:57Z</time></trkpt><trkpt lat="42.20777698036736" lon="12.950299655194229"><ele>543.0</ele><time>2026-03-29T12:18:58Z</time></trkpt><trkpt lat="42.20790306289839" lon="12.95021864289444"><ele>543.0</ele><time>2026-03-29T12:18:59Z</time></trkpt><trkpt lat="42.2080031343225" lon="12.950076712634862"><ele>543.0</ele><time>2026-03-29T12:19:00Z</time></trkpt><trkpt lat="42.208072976826294" lon="12.94990479213298"><ele>547.0</ele><time>2026-03-29T12:19:01Z</time></trkpt><trkpt lat="42.208104431469906" lon="12.949704852642682"><ele>551.0</ele><time>2026-03-29T12:19:02Z</time></trkpt><trkpt lat="42.20812077556175" lon="12.949494933133147"><ele>555.0</ele><time>2026-03-29T12:19:03Z</time></trkpt><trkpt lat="42.20813897083068" lon="12.949304292272108"><ele>554.6</ele><time>2026-03-29T12:19:04Z</time></trkpt><trkpt lat="42.20815910926002" lon="12.949135654373263"><ele>554.2</ele><time>2026-03-29T12:19:05Z</time></trkpt><trkpt lat="42.20817829322467" lon="12.948984116944484"><ele>553.8</ele><time>2026-03-29T12:19:06Z</time></trkpt><trkpt lat="42.20819434352756" lon="12.94884761439946"><ele>553.4</ele><time>2026-03-29T12:19:07Z</time></trkpt><trkpt lat="42.20820766831663" lon="12.948723162300347"><ele>553.0</ele><time>2026-03-29T12:19:08Z</time></trkpt><trkpt lat="42.208220787202265" lon="12.948608793397574"><ele>553.0</ele><time>2026-03-29T12:19:09Z</time></trkpt><trkpt lat="42.208239414688116" lon="12.948489184547467"><ele>553.0</ele><time>2026-03-29T12:19:10Z</time></trkpt><trkpt lat="42.20825114701124" lon="12.948363103170033"><ele>553.0</ele><time>2026-03-29T12:19:11Z</time></trkpt><trkpt lat="42.20825344288607" lon="12.948233300251571"><ele>553.0</ele><time>2026-03-29T12:19:12Z</time></trkpt><trkpt lat="42.20824942427347" lon="12.948121263758397"><ele>553.0</ele><time>2026-03-29T12:19:13Z</time></trkpt><trkpt lat="42.20823949284242" lon="12.948024334894903"><ele>553.0</ele><time>2026-03-29T12:19:14Z</time></trkpt><trkpt lat="42.208218158751116" lon="12.947870108709996"><ele>553.6</ele><time>2026-03-29T12:19:16Z</time></trkpt><trkpt lat="42.20820109707354" lon="12.947731494126797"><ele>554.1999999999999</ele><time>2026-03-29T12:19:18Z</time></trkpt><trkpt lat="42.208184294717604" lon="12.947595552589094"><ele>554.8</ele><time>2026-03-29T12:19:20Z</time></trkpt><trkpt lat="42.20815783029999" lon="12.947470183582379"><ele>555.4</ele><time>2026-03-29T12:19:22Z</time></trkpt><trkpt lat="42.2081385503864" lon="12.947329398298374"><ele>556.0</ele><time>2026-03-29T12:19:24Z</time></trkpt><trkpt lat="42.20811441207175" lon="12.9472063703401"><ele>557.4</ele><time>2026-03-29T12:19:26Z</time></trkpt><trkpt lat="42.208086114554426" lon="12.947117219139427"><ele>558.8</ele><time>2026-03-29T12:19:28Z</time></trkpt><trkpt lat="42.20796334840831" lon="12.94706020789984"><ele>560.1999999999999</ele><time>2026-03-29T12:19:32Z</time></trkpt><trkpt lat="42.20791431634683" lon="12.946986619113448"><ele>561.6</ele><time>2026-03-29T12:22:18Z</time></trkpt><trkpt lat="42.207983236096304" lon="12.947116114446166"><ele>563.0</ele><time>2026-03-29T12:27:47Z</time></trkpt><trkpt lat="42.20805391845491" lon="12.947160804408835"><ele>563.0</ele><time>2026-03-29T12:28:01Z</time></trkpt><trkpt lat="42.20812321400182" lon="12.947180671130326"><ele>563.0</ele><time>2026-03-29T12:28:08Z</time></trkpt><trkpt lat="42.20819239462247" lon="12.947197887887391"><ele>563.0</ele><time>2026-03-29T12:28:16Z</time></trkpt><trkpt lat="42.20825834401296" lon="12.947213903157527"><ele>563.0</ele><time>2026-03-29T12:28:23Z</time></trkpt><trkpt lat="42.20831513938154" lon="12.947250736057214"><ele>563.0</ele><time>2026-03-29T12:28:29Z</time></trkpt><trkpt lat="42.20823580698229" lon="12.947281051474423"><ele>563.0</ele><time>2026-03-29T12:28:46Z</time></trkpt><trkpt lat="42.20821606931228" lon="12.947456734794027"><ele>561.0</ele><time>2026-03-29T12:29:15Z</time></trkpt></trkseg></trk></gpx>